<?xml version='1.0' encoding='UTF-8'?><gpx version="1.1" creator="JPX - https://github.com/jenetics/jpx" xmlns="http://www.topografix.com/GPX/1/1"><trk><trkseg><trkpt lat="43.86161396038066" lon="11.577013838761008"><ele>265.0</ele><time>2026-04-25T07:02:38Z</time></trkpt><trkpt lat="43.86157868743937" lon="11.577086160930282"><ele>265.0</ele><time>2026-04-25T07:02:56Z</time></trkpt><trkpt lat="43.8616220180368" lon="11.577017051206685"><ele>265.0</ele><time>2026-04-25T07:03:43.001Z</time></trkpt><trkpt lat="43.861542033983355" lon="11.57697620103117"><ele>265.0</ele><time>2026-04-25T07:04:02Z</time></trkpt><trkpt lat="43.86149233116664" lon="11.577058066192999"><ele>265.0</ele><time>2026-04-25T07:05:31.001Z</time></trkpt><trkpt lat="43.861463315900856" lon="11.57715851670315"><ele>265.0</ele><time>2026-04-25T07:06:54Z</time></trkpt><trkpt lat="43.861394584545394" lon="11.577081841202869"><ele>265.0</ele><time>2026-04-25T07:06:58Z</time></trkpt><trkpt lat="43.861434680848525" lon="11.577007863835455"><ele>265.0</ele><time>2026-04-25T07:07:12Z</time></trkpt><trkpt lat="43.86149558480897" lon="11.577062862776854"><ele>265.0</ele><time>2026-04-25T07:07:24Z</time></trkpt><trkpt lat="43.86156252192329" lon="11.577074109798923"><ele>265.0</ele><time>2026-04-25T07:07:28Z</time></trkpt><trkpt lat="43.86144864972719" lon="11.577035427131444"><ele>265.0</ele><time>2026-04-25T07:07:42Z</time></trkpt><trkpt lat="43.861331141804506" lon="11.577010377239185"><ele>265.0</ele><time>2026-04-25T07:07:50Z</time></trkpt><trkpt lat="43.86139671921157" lon="11.577022050313762"><ele>265.0</ele><time>2026-04-25T07:07:56Z</time></trkpt><trkpt lat="43.86140590252321" lon="11.57713343709462"><ele>265.0</ele><time>2026-04-25T07:08:10Z</time></trkpt><trkpt lat="43.86149765738231" lon="11.577050704332223"><ele>265.0</ele><time>2026-04-25T07:08:22Z</time></trkpt><trkpt lat="43.86155558054696" lon="11.576981546892604"><ele>265.0</ele><time>2026-04-25T07:08:34Z</time></trkpt><trkpt lat="43.861617417489434" lon="11.576935664974108"><ele>265.0</ele><time>2026-04-25T07:08:40Z</time></trkpt><trkpt lat="43.86155999033061" lon="11.576991103997061"><ele>265.0</ele><time>2026-04-25T07:09:31Z</time></trkpt><trkpt lat="43.86159902473935" lon="11.577084122215501"><ele>266.8333333333333</ele><time>2026-04-25T07:09:34Z</time></trkpt><trkpt lat="43.861663026488245" lon="11.577125824713187"><ele>268.66666666666663</ele><time>2026-04-25T07:12:08Z</time></trkpt><trkpt lat="43.86172206940137" lon="11.577197634715349"><ele>270.5</ele><time>2026-04-25T07:12:10Z</time></trkpt><trkpt lat="43.86178815020201" lon="11.577261428384636"><ele>272.3333333333333</ele><time>2026-04-25T07:12:12Z</time></trkpt><trkpt lat="43.86185781860884" lon="11.57724916317772"><ele>274.1666666666667</ele><time>2026-04-25T07:12:13Z</time></trkpt><trkpt lat="43.86193906069634" lon="11.577238446978345"><ele>276.0</ele><time>2026-04-25T07:12:14Z</time></trkpt><trkpt lat="43.86204511837263" lon="11.57722667535993"><ele>276.0</ele><time>2026-04-25T07:12:15Z</time></trkpt><trkpt lat="43.86213487311957" lon="11.577219597848512"><ele>276.0</ele><time>2026-04-25T07:12:16Z</time></trkpt><trkpt lat="43.86220065689555" lon="11.577231717285914"><ele>276.0</ele><time>2026-04-25T07:12:17Z</time></trkpt><trkpt lat="43.86227972363468" lon="11.577243277187291"><ele>276.0</ele><time>2026-04-25T07:12:18Z</time></trkpt><trkpt lat="43.86234509309659" lon="11.57720624007371"><ele>276.0</ele><time>2026-04-25T07:12:20Z</time></trkpt><trkpt lat="43.86242367399703" lon="11.577268436501388"><ele>276.0</ele><time>2026-04-25T07:12:22Z</time></trkpt><trkpt lat="43.86239212480498" lon="11.577383884855319"><ele>276.0</ele><time>2026-04-25T07:12:24Z</time></trkpt><trkpt lat="43.862311733597565" lon="11.577404963639838"><ele>276.0</ele><time>2026-04-25T07:12:26Z</time></trkpt><trkpt lat="43.86220367809404" lon="11.577431674104709"><ele>276.0</ele><time>2026-04-25T07:12:28Z</time></trkpt><trkpt lat="43.862072608350275" lon="11.577450293763889"><ele>276.0</ele><time>2026-04-25T07:12:30Z</time></trkpt><trkpt lat="43.862029964674356" lon="11.577621316072433"><ele>276.0</ele><time>2026-04-25T07:12:31Z</time></trkpt><trkpt lat="43.86194633506294" lon="11.577642443426228"><ele>276.0</ele><time>2026-04-25T07:12:33Z</time></trkpt><trkpt lat="43.861834367274064" lon="11.577672426630963"><ele>276.0</ele><time>2026-04-25T07:12:35Z</time></trkpt><trkpt lat="43.86170952880148" lon="11.577630964800052"><ele>276.0</ele><time>2026-04-25T07:12:37Z</time></trkpt><trkpt lat="43.86165028118763" lon="11.577683685846335"><ele>276.0</ele><time>2026-04-25T07:12:38Z</time></trkpt><trkpt lat="43.86161202811276" lon="11.577760612365912"><ele>280.6666666666667</ele><time>2026-04-25T07:12:50Z</time></trkpt><trkpt lat="43.86158919673806" lon="11.577855689244355"><ele>285.3333333333333</ele><time>2026-04-25T07:12:51Z</time></trkpt><trkpt lat="43.86156236934703" lon="11.577960771623012"><ele>290.0</ele><time>2026-04-25T07:12:52Z</time></trkpt><trkpt lat="43.861520242611704" lon="11.578053897588463"><ele>294.66666666666663</ele><time>2026-04-25T07:12:53Z</time></trkpt><trkpt lat="43.861461566385415" lon="11.57813617184961"><ele>299.3333333333333</ele><time>2026-04-25T07:12:54Z</time></trkpt><trkpt lat="43.861382550897225" lon="11.578196386428967"><ele>304.0</ele><time>2026-04-25T07:12:55Z</time></trkpt><trkpt lat="43.86128460122782" lon="11.57822624063713"><ele>304.0</ele><time>2026-04-25T07:12:56Z</time></trkpt><trkpt lat="43.861195387376526" lon="11.578241775634961"><ele>304.0</ele><time>2026-04-25T07:12:57Z</time></trkpt><trkpt lat="43.861120825812776" lon="11.578226391185693"><ele>304.0</ele><time>2026-04-25T07:12:58Z</time></trkpt><trkpt lat="43.86104993253158" lon="11.578228415103977"><ele>304.0</ele><time>2026-04-25T07:12:59Z</time></trkpt><trkpt lat="43.860989266745655" lon="11.57825447070831"><ele>304.0</ele><time>2026-04-25T07:13:00Z</time></trkpt><trkpt lat="43.860934987793065" lon="11.578408832868206"><ele>304.0</ele><time>2026-04-25T07:13:02Z</time></trkpt><trkpt lat="43.860939656762845" lon="11.578510641549114"><ele>304.0</ele><time>2026-04-25T07:13:03Z</time></trkpt><trkpt lat="43.86095717690933" lon="11.57862062567373"><ele>304.0</ele><time>2026-04-25T07:13:04Z</time></trkpt><trkpt lat="43.86104626332265" lon="11.578761584851032"><ele>304.0</ele><time>2026-04-25T07:13:06Z</time></trkpt><trkpt lat="43.86111435222314" lon="11.57881099181739"><ele>304.0</ele><time>2026-04-25T07:13:07Z</time></trkpt><trkpt lat="43.86114084268017" lon="11.57897011923291"><ele>304.0</ele><time>2026-04-25T07:13:09Z</time></trkpt><trkpt lat="43.861098216426996" lon="11.57905431196364"><ele>305.8333333333333</ele><time>2026-04-25T07:13:10Z</time></trkpt><trkpt lat="43.861041269241305" lon="11.579153361902353"><ele>307.66666666666663</ele><time>2026-04-25T07:13:11Z</time></trkpt><trkpt lat="43.861001542280775" lon="11.579253763502779"><ele>309.5</ele><time>2026-04-25T07:13:12Z</time></trkpt><trkpt lat="43.86096059597326" lon="11.57936422183123"><ele>311.3333333333333</ele><time>2026-04-25T07:13:13Z</time></trkpt><trkpt lat="43.86091364213569" lon="11.579500006097907"><ele>313.1666666666667</ele><time>2026-04-25T07:13:14Z</time></trkpt><trkpt lat="43.86092562212349" lon="11.579594053200703"><ele>315.0</ele><time>2026-04-25T07:13:16Z</time></trkpt><trkpt lat="43.86103240755599" lon="11.579565219117807"><ele>316.1666666666667</ele><time>2026-04-25T07:13:18Z</time></trkpt><trkpt lat="43.86109935064901" lon="11.579530757576624"><ele>317.3333333333333</ele><time>2026-04-25T07:13:19Z</time></trkpt><trkpt lat="43.86116878712243" lon="11.579481642009357"><ele>318.5</ele><time>2026-04-25T07:13:20Z</time></trkpt><trkpt lat="43.86124984930624" lon="11.579435839451875"><ele>319.66666666666663</ele><time>2026-04-25T07:13:21Z</time></trkpt><trkpt lat="43.8613410549906" lon="11.579373301454785"><ele>320.8333333333333</ele><time>2026-04-25T07:13:22Z</time></trkpt><trkpt lat="43.86140215964064" lon="11.579335394585604"><ele>322.0</ele><time>2026-04-25T07:13:23Z</time></trkpt><trkpt lat="43.861527686400755" lon="11.579271391693775"><ele>322.0</ele><time>2026-04-25T07:13:25Z</time></trkpt><trkpt lat="43.86166073910488" lon="11.579159472681205"><ele>322.0</ele><time>2026-04-25T07:13:26Z</time></trkpt><trkpt lat="43.8617573842108" lon="11.579144059684541"><ele>322.0</ele><time>2026-04-25T07:13:28Z</time></trkpt><trkpt lat="43.86175922438347" lon="11.57928739828761"><ele>322.0</ele><time>2026-04-25T07:13:30Z</time></trkpt><trkpt lat="43.861745807445004" lon="11.579417547862558"><ele>326.0</ele><time>2026-04-25T07:13:32Z</time></trkpt><trkpt lat="43.86163878651236" lon="11.579571239957394"><ele>330.0</ele><time>2026-04-25T07:13:34Z</time></trkpt><trkpt lat="43.861601259808396" lon="11.57967169456946"><ele>334.0</ele><time>2026-04-25T07:13:35Z</time></trkpt><trkpt lat="43.86158434713072" lon="11.579789226258406"><ele>338.0</ele><time>2026-04-25T07:13:36Z</time></trkpt><trkpt lat="43.86154491997253" lon="11.579879413357666"><ele>342.0</ele><time>2026-04-25T07:13:36.999Z</time></trkpt><trkpt lat="43.861497489707936" lon="11.579964650226891"><ele>342.0</ele><time>2026-04-25T07:13:37.999Z</time></trkpt><trkpt lat="43.86144382713006" lon="11.580047211695552"><ele>342.0</ele><time>2026-04-25T07:13:38.999Z</time></trkpt><trkpt lat="43.86139966151026" lon="11.580120291414206"><ele>342.0</ele><time>2026-04-25T07:13:39.999Z</time></trkpt><trkpt lat="43.86138984539354" lon="11.580250385246536"><ele>342.0</ele><time>2026-04-25T07:13:41.999Z</time></trkpt><trkpt lat="43.86146050351511" lon="11.58037025963845"><ele>342.0</ele><time>2026-04-25T07:13:43.999Z</time></trkpt><trkpt lat="43.861542350300034" lon="11.58051302900633"><ele>345.5</ele><time>2026-04-25T07:13:45.999Z</time></trkpt><trkpt lat="43.86160023121466" lon="11.580553030002864"><ele>349.0</ele><time>2026-04-25T07:13:46.999Z</time></trkpt><trkpt lat="43.861685111296495" lon="11.580562195628636"><ele>352.5</ele><time>2026-04-25T07:13:47.999Z</time></trkpt><trkpt lat="43.86177150654292" lon="11.580554058526502"><ele>356.0</ele><time>2026-04-25T07:13:48.999Z</time></trkpt><trkpt lat="43.861826862506625" lon="11.580623073895529"><ele>359.5</ele><time>2026-04-25T07:13:50.999Z</time></trkpt><trkpt lat="43.8618185541226" lon="11.580806184800592"><ele>363.0</ele><time>2026-04-25T07:13:52.999Z</time></trkpt><trkpt lat="43.86177741886941" lon="11.580904576225816"><ele>363.0</ele><time>2026-04-25T07:13:53.999Z</time></trkpt><trkpt lat="43.861698646862756" lon="11.58098904708777"><ele>363.0</ele><time>2026-04-25T07:13:55Z</time></trkpt><trkpt lat="43.86161218263921" lon="11.581064560072878"><ele>363.0</ele><time>2026-04-25T07:13:56Z</time></trkpt><trkpt lat="43.86152261359761" lon="11.581146122059753"><ele>363.0</ele><time>2026-04-25T07:13:57Z</time></trkpt><trkpt lat="43.861420772166795" lon="11.581220030110272"><ele>363.0</ele><time>2026-04-25T07:13:58Z</time></trkpt><trkpt lat="43.86131078926052" lon="11.581292800220039"><ele>366.0</ele><time>2026-04-25T07:13:59Z</time></trkpt><trkpt lat="43.86120775762907" lon="11.581366199254251"><ele>369.0</ele><time>2026-04-25T07:14:00Z</time></trkpt><trkpt lat="43.861132405894686" lon="11.581424675847279"><ele>372.0</ele><time>2026-04-25T07:14:01Z</time></trkpt><trkpt lat="43.86106338533518" lon="11.581470793092135"><ele>375.0</ele><time>2026-04-25T07:14:03Z</time></trkpt><trkpt lat="43.86106940167492" lon="11.581578379271033"><ele>378.0</ele><time>2026-04-25T07:14:06Z</time></trkpt><trkpt lat="43.86119147712497" lon="11.581687213361262"><ele>378.0</ele><time>2026-04-25T07:14:08Z</time></trkpt><trkpt lat="43.8612659956761" lon="11.58172822041812"><ele>378.0</ele><time>2026-04-25T07:14:10Z</time></trkpt><trkpt lat="43.861324418281136" lon="11.581808371574528"><ele>378.0</ele><time>2026-04-25T07:14:12Z</time></trkpt><trkpt lat="43.86148116588399" lon="11.581824216948224"><ele>378.0</ele><time>2026-04-25T07:14:13Z</time></trkpt><trkpt lat="43.861556842086614" lon="11.581847493443046"><ele>378.0</ele><time>2026-04-25T07:14:14Z</time></trkpt><trkpt lat="43.86164411373281" lon="11.581886107657361"><ele>378.0</ele><time>2026-04-25T07:14:15Z</time></trkpt><trkpt lat="43.86171851995943" lon="11.581922156761063"><ele>378.0</ele><time>2026-04-25T07:14:16Z</time></trkpt><trkpt lat="43.8617904557283" lon="11.581958182185193"><ele>378.0</ele><time>2026-04-25T07:14:17Z</time></trkpt><trkpt lat="43.86187155285114" lon="11.581963048041825"><ele>378.0</ele><time>2026-04-25T07:14:18Z</time></trkpt><trkpt lat="43.86195884275381" lon="11.581929915607903"><ele>378.0</ele><time>2026-04-25T07:14:19Z</time></trkpt><trkpt lat="43.86205690842953" lon="11.581890059676631"><ele>378.0</ele><time>2026-04-25T07:14:20Z</time></trkpt><trkpt lat="43.862144867503446" lon="11.581872923595112"><ele>381.2</ele><time>2026-04-25T07:14:21Z</time></trkpt><trkpt lat="43.86222470765472" lon="11.581940204219785"><ele>384.4</ele><time>2026-04-25T07:14:24Z</time></trkpt><trkpt lat="43.86218546964958" lon="11.582017804932898"><ele>387.59999999999997</ele><time>2026-04-25T07:14:25Z</time></trkpt><trkpt lat="43.862145389316886" lon="11.582092726074146"><ele>390.79999999999995</ele><time>2026-04-25T07:14:26Z</time></trkpt><trkpt lat="43.86209238221759" lon="11.582216759438897"><ele>394.0</ele><time>2026-04-25T07:14:27Z</time></trkpt><trkpt lat="43.86203771943341" lon="11.582381611019423"><ele>396.75</ele><time>2026-04-25T07:14:29Z</time></trkpt><trkpt lat="43.86206817630772" lon="11.582534456272533"><ele>399.5</ele><time>2026-04-25T07:14:31Z</time></trkpt><trkpt lat="43.86219876500376" lon="11.582484488296764"><ele>402.25</ele><time>2026-04-25T07:14:33Z</time></trkpt><trkpt lat="43.862322692265074" lon="11.582470162813035"><ele>405.0</ele><time>2026-04-25T07:14:34Z</time></trkpt><trkpt lat="43.86241294681485" lon="11.582447956995255"><ele>405.0</ele><time>2026-04-25T07:14:35Z</time></trkpt><trkpt lat="43.86243259205052" lon="11.582552643084469"><ele>405.0</ele><time>2026-04-25T07:14:38Z</time></trkpt><trkpt lat="43.86240222583244" lon="11.582697351390527"><ele>405.0</ele><time>2026-04-25T07:14:40Z</time></trkpt><trkpt lat="43.86239787132001" lon="11.582786025081225"><ele>405.0</ele><time>2026-04-25T07:14:41Z</time></trkpt><trkpt lat="43.86236706382574" lon="11.582862701558318"><ele>405.0</ele><time>2026-04-25T07:14:42Z</time></trkpt><trkpt lat="43.86232100951021" lon="11.58294497680981"><ele>405.0</ele><time>2026-04-25T07:14:43Z</time></trkpt><trkpt lat="43.862268261161326" lon="11.583010800322995"><ele>406.4</ele><time>2026-04-25T07:14:44Z</time></trkpt><trkpt lat="43.8622135330173" lon="11.583075344395379"><ele>407.8</ele><time>2026-04-25T07:14:45Z</time></trkpt><trkpt lat="43.862184495623026" lon="11.583156477112498"><ele>409.20000000000005</ele><time>2026-04-25T07:14:46Z</time></trkpt><trkpt lat="43.86218487508563" lon="11.583310566151145"><ele>410.6</ele><time>2026-04-25T07:14:48Z</time></trkpt><trkpt lat="43.86214762576263" lon="11.583481307236463"><ele>412.0</ele><time>2026-04-25T07:14:50Z</time></trkpt><trkpt lat="43.86211193656161" lon="11.583647264612743"><ele>412.00000000000006</ele><time>2026-04-25T07:14:52Z</time></trkpt><trkpt lat="43.86209359274046" lon="11.583742407575219"><ele>412.0</ele><time>2026-04-25T07:14:53Z</time></trkpt><trkpt lat="43.86205850365339" lon="11.583898552881077"><ele>412.0</ele><time>2026-04-25T07:14:55Z</time></trkpt><trkpt lat="43.86204031178106" lon="11.58398541900342"><ele>412.0</ele><time>2026-04-25T07:14:56Z</time></trkpt><trkpt lat="43.86203196980551" lon="11.584075782647453"><ele>412.00000000000006</ele><time>2026-04-25T07:14:57Z</time></trkpt><trkpt lat="43.86201245192544" lon="11.584164821834426"><ele>412.0</ele><time>2026-04-25T07:14:58Z</time></trkpt><trkpt lat="43.86199275192332" lon="11.584262199656857"><ele>412.0</ele><time>2026-04-25T07:15:00Z</time></trkpt><trkpt lat="43.86197580041474" lon="11.584429142599978"><ele>412.0</ele><time>2026-04-25T07:15:14Z</time></trkpt><trkpt lat="43.8619445697774" lon="11.584536497056462"><ele>412.0</ele><time>2026-04-25T07:15:15Z</time></trkpt><trkpt lat="43.86191140645975" lon="11.584668471003642"><ele>412.0</ele><time>2026-04-25T07:15:16Z</time></trkpt><trkpt lat="43.86187962840112" lon="11.584855624554201"><ele>412.0</ele><time>2026-04-25T07:15:17Z</time></trkpt><trkpt lat="43.861833051561284" lon="11.585078944017349"><ele>412.40000000000003</ele><time>2026-04-25T07:15:18Z</time></trkpt><trkpt lat="43.8617949277949" lon="11.585247715469794"><ele>412.8</ele><time>2026-04-25T07:15:19Z</time></trkpt><trkpt lat="43.86173682352985" lon="11.585315847442988"><ele>413.2</ele><time>2026-04-25T07:16:52Z</time></trkpt><trkpt lat="43.86171735938805" lon="11.585437548328677"><ele>413.6</ele><time>2026-04-25T07:16:54Z</time></trkpt><trkpt lat="43.8617315378362" lon="11.585577469421564"><ele>414.0</ele><time>2026-04-25T07:16:55Z</time></trkpt><trkpt lat="43.861744286730094" lon="11.58576002542378"><ele>420.8333333333333</ele><time>2026-04-25T07:16:56Z</time></trkpt><trkpt lat="43.86174160698495" lon="11.585876176519802"><ele>427.66666666666663</ele><time>2026-04-25T07:16:57Z</time></trkpt><trkpt lat="43.86168843369934" lon="11.58594050801873"><ele>434.5</ele><time>2026-04-25T07:16:58Z</time></trkpt><trkpt lat="43.86162035036331" lon="11.586047246485935"><ele>441.3333333333333</ele><time>2026-04-25T07:17:00Z</time></trkpt><trkpt lat="43.861594176832625" lon="11.586184072450822"><ele>448.16666666666663</ele><time>2026-04-25T07:17:02Z</time></trkpt><trkpt lat="43.86157909643539" lon="11.586289105485104"><ele>455.0</ele><time>2026-04-25T07:17:04Z</time></trkpt><trkpt lat="43.861559619977214" lon="11.586375752764175"><ele>455.3333333333333</ele><time>2026-04-25T07:17:05Z</time></trkpt><trkpt lat="43.861533773276705" lon="11.586468604156375"><ele>455.66666666666663</ele><time>2026-04-25T07:17:06Z</time></trkpt><trkpt lat="43.86149684150644" lon="11.586575418840864"><ele>456.0</ele><time>2026-04-25T07:17:07Z</time></trkpt><trkpt lat="43.861480943992426" lon="11.586672997140658"><ele>456.33333333333337</ele><time>2026-04-25T07:17:08Z</time></trkpt><trkpt lat="43.86142239905668" lon="11.58684224101282"><ele>456.6666666666667</ele><time>2026-04-25T07:17:10Z</time></trkpt><trkpt lat="43.86139384145305" lon="11.586926393900866"><ele>457.0</ele><time>2026-04-25T07:17:11Z</time></trkpt><trkpt lat="43.86128675821161" lon="11.586932528593735"><ele>457.0</ele><time>2026-04-25T07:17:13Z</time></trkpt><trkpt lat="43.86122198276896" lon="11.586890623308303"><ele>457.00000000000006</ele><time>2026-04-25T07:17:14Z</time></trkpt><trkpt lat="43.86112161361894" lon="11.58694843122077"><ele>457.00000000000006</ele><time>2026-04-25T07:17:16Z</time></trkpt><trkpt lat="43.86106318153602" lon="11.58706489992665"><ele>457.0</ele><time>2026-04-25T07:17:17Z</time></trkpt><trkpt lat="43.860988633970926" lon="11.587205215227051"><ele>457.0</ele><time>2026-04-25T07:17:18Z</time></trkpt><trkpt lat="43.86090872594242" lon="11.58731210375085"><ele>462.0</ele><time>2026-04-25T07:17:19Z</time></trkpt><trkpt lat="43.86085296743815" lon="11.587420158912474"><ele>467.00000000000006</ele><time>2026-04-25T07:17:20Z</time></trkpt><trkpt lat="43.86079288443482" lon="11.587526111756077"><ele>472.00000000000006</ele><time>2026-04-25T07:17:21Z</time></trkpt><trkpt lat="43.86073495106186" lon="11.587608266293783"><ele>477.0</ele><time>2026-04-25T07:17:22Z</time></trkpt><trkpt lat="43.86065676291073" lon="11.587691784397174"><ele>482.0</ele><time>2026-04-25T07:17:24Z</time></trkpt><trkpt lat="43.8606130264149" lon="11.587793969135252"><ele>481.99999999999994</ele><time>2026-04-25T07:17:25Z</time></trkpt><trkpt lat="43.860559454918146" lon="11.587843380425635"><ele>482.0</ele><time>2026-04-25T07:17:26Z</time></trkpt><trkpt lat="43.86047586627991" lon="11.58790871344527"><ele>482.0</ele><time>2026-04-25T07:17:27Z</time></trkpt><trkpt lat="43.860397931046116" lon="11.587963495732902"><ele>482.0</ele><time>2026-04-25T07:17:28Z</time></trkpt><trkpt lat="43.860319486125974" lon="11.587972624285598"><ele>481.99999999999994</ele><time>2026-04-25T07:17:29Z</time></trkpt><trkpt lat="43.860231480830755" lon="11.587931447138565"><ele>482.0</ele><time>2026-04-25T07:17:30Z</time></trkpt><trkpt lat="43.86015167320307" lon="11.587920012692152"><ele>486.99999999999994</ele><time>2026-04-25T07:17:30.999Z</time></trkpt><trkpt lat="43.8600468462884" lon="11.587990765722141"><ele>492.0</ele><time>2026-04-25T07:17:32.999Z</time></trkpt><trkpt lat="43.85998399540489" lon="11.58800928473079"><ele>497.0</ele><time>2026-04-25T07:17:33.999Z</time></trkpt><trkpt lat="43.859933243254844" lon="11.588071353784756"><ele>502.0</ele><time>2026-04-25T07:17:34.999Z</time></trkpt><trkpt lat="43.85987829214681" lon="11.588126950143371"><ele>506.99999999999994</ele><time>2026-04-25T07:17:35.999Z</time></trkpt><trkpt lat="43.85976531564555" lon="11.588138860786241"><ele>512.0</ele><time>2026-04-25T07:17:37.999Z</time></trkpt><trkpt lat="43.85963180827016" lon="11.588173041620427"><ele>511.99999999999994</ele><time>2026-04-25T07:17:39.999Z</time></trkpt><trkpt lat="43.85956226811773" lon="11.588219042204326"><ele>512.0</ele><time>2026-04-25T07:17:40.999Z</time></trkpt><trkpt lat="43.85950894719019" lon="11.588272643671424"><ele>512.0</ele><time>2026-04-25T07:17:41.999Z</time></trkpt><trkpt lat="43.859422714672505" lon="11.58832434635622"><ele>512.0</ele><time>2026-04-25T07:17:42.999Z</time></trkpt><trkpt lat="43.859324186519494" lon="11.588382842643878"><ele>511.99999999999994</ele><time>2026-04-25T07:17:43.999Z</time></trkpt><trkpt lat="43.8592498552305" lon="11.588407302271541"><ele>512.0</ele><time>2026-04-25T07:17:44.999Z</time></trkpt><trkpt lat="43.859186767691554" lon="11.588409119995955"><ele>513.5</ele><time>2026-04-25T07:17:45.999Z</time></trkpt><trkpt lat="43.85911667850766" lon="11.588425517542607"><ele>515.0</ele><time>2026-04-25T07:17:46.999Z</time></trkpt><trkpt lat="43.85903114767962" lon="11.588436369568"><ele>516.5</ele><time>2026-04-25T07:17:47.999Z</time></trkpt><trkpt lat="43.85893899915836" lon="11.588465632620215"><ele>518.0</ele><time>2026-04-25T07:17:48.999Z</time></trkpt><trkpt lat="43.85886643310576" lon="11.588491408252672"><ele>519.5</ele><time>2026-04-25T07:17:49.999Z</time></trkpt><trkpt lat="43.858806090964826" lon="11.588527940759572"><ele>521.0</ele><time>2026-04-25T07:17:50.999Z</time></trkpt><trkpt lat="43.858753594930505" lon="11.588586408146266"><ele>521.0</ele><time>2026-04-25T07:17:51.999Z</time></trkpt><trkpt lat="43.858677642580695" lon="11.588644552253253"><ele>521.0</ele><time>2026-04-25T07:17:52.999Z</time></trkpt><trkpt lat="43.858627130215986" lon="11.588707682266975"><ele>521.0</ele><time>2026-04-25T07:17:53.999Z</time></trkpt><trkpt lat="43.85859024171192" lon="11.588848353886123"><ele>521.0</ele><time>2026-04-25T07:17:55.999Z</time></trkpt><trkpt lat="43.858613937321905" lon="11.588944609874938"><ele>521.0</ele><time>2026-04-25T07:17:56.999Z</time></trkpt><trkpt lat="43.85866992591667" lon="11.589015762364621"><ele>521.0</ele><time>2026-04-25T07:17:57.999Z</time></trkpt><trkpt lat="43.858711898661554" lon="11.589093062990141"><ele>524.0</ele><time>2026-04-25T07:17:58.999Z</time></trkpt><trkpt lat="43.85873001749506" lon="11.589246693914182"><ele>527.0</ele><time>2026-04-25T07:18:00.999Z</time></trkpt><trkpt lat="43.858733209042285" lon="11.589352746726673"><ele>530.0</ele><time>2026-04-25T07:18:01.999Z</time></trkpt><trkpt lat="43.85872195919712" lon="11.58946093689602"><ele>533.0</ele><time>2026-04-25T07:18:02.999Z</time></trkpt><trkpt lat="43.85870200241979" lon="11.589545445052044"><ele>536.0</ele><time>2026-04-25T07:18:03.999Z</time></trkpt><trkpt lat="43.858686808426796" lon="11.589634755058446"><ele>539.0</ele><time>2026-04-25T07:18:04.999Z</time></trkpt><trkpt lat="43.85866906326681" lon="11.589723969413935"><ele>541.0</ele><time>2026-04-25T07:18:06Z</time></trkpt><trkpt lat="43.85863131802997" lon="11.589880993519346"><ele>543.0</ele><time>2026-04-25T07:18:08Z</time></trkpt><trkpt lat="43.85861693173551" lon="11.590053068460001"><ele>545.0</ele><time>2026-04-25T07:18:10Z</time></trkpt><trkpt lat="43.858581103193146" lon="11.590191174266993"><ele>547.0</ele><time>2026-04-25T07:18:12Z</time></trkpt><trkpt lat="43.858496243130226" lon="11.590282172172929"><ele>548.8571428571429</ele><time>2026-04-25T07:18:14Z</time></trkpt><trkpt lat="43.85844381597936" lon="11.590360247792878"><ele>550.7142857142857</ele><time>2026-04-25T07:18:15Z</time></trkpt><trkpt lat="43.85841225056819" lon="11.590454049626507"><ele>552.5714285714286</ele><time>2026-04-25T07:18:16Z</time></trkpt><trkpt lat="43.858401277506616" lon="11.590544258372384"><ele>554.4285714285714</ele><time>2026-04-25T07:18:17Z</time></trkpt><trkpt lat="43.85838074427494" lon="11.590642774155844"><ele>556.2857142857142</ele><time>2026-04-25T07:18:18Z</time></trkpt><trkpt lat="43.858349489217126" lon="11.590748030878805"><ele>558.1428571428571</ele><time>2026-04-25T07:18:19Z</time></trkpt><trkpt lat="43.85833556562205" lon="11.590841030353983"><ele>560.0</ele><time>2026-04-25T07:18:20Z</time></trkpt><trkpt lat="43.85833284765071" lon="11.590942754106889"><ele>560.0</ele><time>2026-04-25T07:18:21Z</time></trkpt><trkpt lat="43.85833612564828" lon="11.591064085107538"><ele>560.0</ele><time>2026-04-25T07:18:22Z</time></trkpt><trkpt lat="43.85832866841686" lon="11.591167244921392"><ele>560.0</ele><time>2026-04-25T07:18:23Z</time></trkpt><trkpt lat="43.85834756106107" lon="11.591258755196092"><ele>560.0</ele><time>2026-04-25T07:18:24Z</time></trkpt><trkpt lat="43.85837060268285" lon="11.59134813623429"><ele>560.0</ele><time>2026-04-25T07:18:25Z</time></trkpt><trkpt lat="43.85834183453292" lon="11.591465533907844"><ele>560.0</ele><time>2026-04-25T07:18:27Z</time></trkpt><trkpt lat="43.858295409208175" lon="11.59158180031301"><ele>562.0</ele><time>2026-04-25T07:18:29Z</time></trkpt><trkpt lat="43.85827583287083" lon="11.591727656356577"><ele>564.0</ele><time>2026-04-25T07:18:31Z</time></trkpt><trkpt lat="43.85824706483399" lon="11.591876977636092"><ele>566.0</ele><time>2026-04-25T07:18:33Z</time></trkpt><trkpt lat="43.8582283640766" lon="11.592034983063765"><ele>568.0</ele><time>2026-04-25T07:18:35Z</time></trkpt><trkpt lat="43.85821090831854" lon="11.592174950932762"><ele>570.0</ele><time>2026-04-25T07:18:37Z</time></trkpt><trkpt lat="43.85819340884699" lon="11.592326058427721"><ele>571.8</ele><time>2026-04-25T07:18:39Z</time></trkpt><trkpt lat="43.85817374938651" lon="11.59244148493138"><ele>573.6</ele><time>2026-04-25T07:18:40Z</time></trkpt><trkpt lat="43.85816148430233" lon="11.592581875621892"><ele>575.4</ele><time>2026-04-25T07:18:41Z</time></trkpt><trkpt lat="43.85814654350527" lon="11.592720751219362"><ele>577.2</ele><time>2026-04-25T07:18:42Z</time></trkpt><trkpt lat="43.8581338219085" lon="11.592830107968643"><ele>579.0</ele><time>2026-04-25T07:18:43Z</time></trkpt><trkpt lat="43.858115549906714" lon="11.592962066919922"><ele>579.3333333333334</ele><time>2026-04-25T07:18:45Z</time></trkpt><trkpt lat="43.85807207298003" lon="11.593029530439335"><ele>579.6666666666666</ele><time>2026-04-25T07:18:47Z</time></trkpt><trkpt lat="43.85801517253862" lon="11.593165328338364"><ele>580.0</ele><time>2026-04-25T07:18:49Z</time></trkpt><trkpt lat="43.85794511874762" lon="11.593325035214907"><ele>580.3333333333333</ele><time>2026-04-25T07:18:51Z</time></trkpt><trkpt lat="43.85791850003987" lon="11.593405866296472"><ele>580.6666666666666</ele><time>2026-04-25T07:18:52Z</time></trkpt><trkpt lat="43.85788976018747" lon="11.593490799124972"><ele>581.0</ele><time>2026-04-25T07:18:53Z</time></trkpt><trkpt lat="43.85779255397887" lon="11.593579531016637"><ele>581.1666666666666</ele><time>2026-04-25T07:18:55Z</time></trkpt><trkpt lat="43.85776389580345" lon="11.593706068253923"><ele>581.3333333333333</ele><time>2026-04-25T07:18:57Z</time></trkpt><trkpt lat="43.85775518105141" lon="11.593801136228336"><ele>581.5</ele><time>2026-04-25T07:19:00Z</time></trkpt><trkpt lat="43.85777660940838" lon="11.593895323905597"><ele>581.6666666666666</ele><time>2026-04-25T07:19:18Z</time></trkpt><trkpt lat="43.85781911835851" lon="11.593970137817896"><ele>581.8333333333334</ele><time>2026-04-25T07:19:19Z</time></trkpt><trkpt lat="43.85787488781114" lon="11.594044856072351"><ele>582.0</ele><time>2026-04-25T07:19:20Z</time></trkpt><trkpt lat="43.85783865740384" lon="11.594241988751419"><ele>582.0</ele><time>2026-04-25T07:19:22Z</time></trkpt><trkpt lat="43.85776640041914" lon="11.594383926161596"><ele>582.0</ele><time>2026-04-25T07:19:23Z</time></trkpt><trkpt lat="43.857673054942126" lon="11.594513173966389"><ele>582.0</ele><time>2026-04-25T07:19:24Z</time></trkpt><trkpt lat="43.85758125950045" lon="11.594609269726444"><ele>582.0</ele><time>2026-04-25T07:19:25Z</time></trkpt><trkpt lat="43.857509716278436" lon="11.59449303714506"><ele>586.75</ele><time>2026-04-25T07:19:26Z</time></trkpt><trkpt lat="43.857400612860474" lon="11.594430266282917"><ele>591.5</ele><time>2026-04-25T07:19:26.999Z</time></trkpt><trkpt lat="43.85726411091289" lon="11.59437350653272"><ele>596.25</ele><time>2026-04-25T07:19:27.999Z</time></trkpt><trkpt lat="43.85713854855528" lon="11.594306190350094"><ele>601.0</ele><time>2026-04-25T07:19:28.999Z</time></trkpt><trkpt lat="43.85705986844001" lon="11.594287346594287"><ele>601.0</ele><time>2026-04-25T07:19:29.999Z</time></trkpt><trkpt lat="43.856993618378546" lon="11.594326562529291"><ele>601.0</ele><time>2026-04-25T07:19:30.999Z</time></trkpt><trkpt lat="43.85693523469333" lon="11.594417719350021"><ele>601.0</ele><time>2026-04-25T07:19:31.999Z</time></trkpt><trkpt lat="43.85691435780642" lon="11.594561573353781"><ele>601.0</ele><time>2026-04-25T07:19:32.999Z</time></trkpt><trkpt lat="43.85691364291577" lon="11.594723099185142"><ele>601.0</ele><time>2026-04-25T07:19:33.999Z</time></trkpt><trkpt lat="43.856928510805645" lon="11.594944341318486"><ele>604.0</ele><time>2026-04-25T07:19:34.999Z</time></trkpt><trkpt lat="43.85695780360116" lon="11.595123878475862"><ele>607.0</ele><time>2026-04-25T07:19:35.999Z</time></trkpt><trkpt lat="43.85698983237708" lon="11.595266048005723"><ele>610.0</ele><time>2026-04-25T07:19:36.999Z</time></trkpt><trkpt lat="43.85699931001609" lon="11.595401831675835"><ele>613.0</ele><time>2026-04-25T07:19:37.999Z</time></trkpt><trkpt lat="43.856988111248484" lon="11.595584308912102"><ele>614.0</ele><time>2026-04-25T07:19:38.999Z</time></trkpt><trkpt lat="43.85698004465652" lon="11.595730840506347"><ele>615.0</ele><time>2026-04-25T07:19:39.999Z</time></trkpt><trkpt lat="43.856968048670836" lon="11.595851852242905"><ele>616.0</ele><time>2026-04-25T07:19:40.999Z</time></trkpt><trkpt lat="43.856956241436265" lon="11.595985029254868"><ele>617.0</ele><time>2026-04-25T07:19:41.999Z</time></trkpt><trkpt lat="43.856951253776906" lon="11.5961164402111"><ele>618.0</ele><time>2026-04-25T07:19:42.999Z</time></trkpt><trkpt lat="43.85693819563387" lon="11.596237916352608"><ele>618.0</ele><time>2026-04-25T07:19:43.999Z</time></trkpt><trkpt lat="43.856920908490636" lon="11.596363005773767"><ele>618.0</ele><time>2026-04-25T07:19:44.999Z</time></trkpt><trkpt lat="43.856880600663466" lon="11.596471176142984"><ele>618.0</ele><time>2026-04-25T07:19:45.999Z</time></trkpt><trkpt lat="43.856842716533976" lon="11.596541939496056"><ele>618.0</ele><time>2026-04-25T07:19:46.999Z</time></trkpt><trkpt lat="43.85677309550809" lon="11.59666519834539"><ele>618.0</ele><time>2026-04-25T07:19:48.999Z</time></trkpt><trkpt lat="43.85673108003295" lon="11.59678725002287"><ele>620.3333333333334</ele><time>2026-04-25T07:19:50.999Z</time></trkpt><trkpt lat="43.85669078485883" lon="11.596883212503194"><ele>622.6666666666666</ele><time>2026-04-25T07:19:54.999Z</time></trkpt><trkpt lat="43.85666571199314" lon="11.596972090190057"><ele>625.0</ele><time>2026-04-25T07:19:56.999Z</time></trkpt><trkpt lat="43.85661082851266" lon="11.597118422609576"><ele>627.3333333333333</ele><time>2026-04-25T07:19:58.999Z</time></trkpt><trkpt lat="43.85653112393466" lon="11.597230927738835"><ele>629.6666666666666</ele><time>2026-04-25T07:20:00.999Z</time></trkpt><trkpt lat="43.85647021059386" lon="11.597255368171071"><ele>632.0</ele><time>2026-04-25T07:20:01.999Z</time></trkpt><trkpt lat="43.85636004446675" lon="11.59726470388764"><ele>634.4000000000001</ele><time>2026-04-25T07:20:03.999Z</time></trkpt><trkpt lat="43.8562223636073" lon="11.59725192480532"><ele>636.8000000000001</ele><time>2026-04-25T07:20:05.999Z</time></trkpt><trkpt lat="43.85612254219567" lon="11.597248224728721"><ele>639.2</ele><time>2026-04-25T07:20:06.999Z</time></trkpt><trkpt lat="43.856002233018444" lon="11.59724444909142"><ele>641.6</ele><time>2026-04-25T07:20:08.999Z</time></trkpt><trkpt lat="43.85593444887262" lon="11.597218126793626"><ele>644.0</ele><time>2026-04-25T07:20:09.999Z</time></trkpt><trkpt lat="43.85586550029381" lon="11.59720201659618"><ele>646.2</ele><time>2026-04-25T07:20:10.999Z</time></trkpt><trkpt lat="43.85572810371767" lon="11.597185720872497"><ele>648.4000000000001</ele><time>2026-04-25T07:20:13Z</time></trkpt><trkpt lat="43.855617850734234" lon="11.597190416947104"><ele>650.6</ele><time>2026-04-25T07:20:15Z</time></trkpt><trkpt lat="43.85554463971609" lon="11.597195776459971"><ele>652.8</ele><time>2026-04-25T07:20:16Z</time></trkpt><trkpt lat="43.855435848890494" lon="11.597186686138128"><ele>655.0</ele><time>2026-04-25T07:20:18Z</time></trkpt><trkpt lat="43.85534887730085" lon="11.597212913612934"><ele>655.0</ele><time>2026-04-25T07:20:20Z</time></trkpt><trkpt lat="43.85526097166573" lon="11.597318371920773"><ele>655.0</ele><time>2026-04-25T07:20:22Z</time></trkpt><trkpt lat="43.85520660747301" lon="11.597388375368501"><ele>655.0</ele><time>2026-04-25T07:20:23Z</time></trkpt><trkpt lat="43.85516176226698" lon="11.597470142664616"><ele>655.0</ele><time>2026-04-25T07:20:24Z</time></trkpt><trkpt lat="43.85512404420842" lon="11.597560619877923"><ele>655.0</ele><time>2026-04-25T07:20:25Z</time></trkpt><trkpt lat="43.8551029920563" lon="11.597656849813053"><ele>655.0</ele><time>2026-04-25T07:20:26Z</time></trkpt><trkpt lat="43.8550617248066" lon="11.59773730018367"><ele>654.5</ele><time>2026-04-25T07:20:27Z</time></trkpt><trkpt lat="43.85494437631403" lon="11.59783138135237"><ele>654.0</ele><time>2026-04-25T07:20:29Z</time></trkpt><trkpt lat="43.85488376637524" lon="11.597878875304293"><ele>653.5</ele><time>2026-04-25T07:20:30Z</time></trkpt><trkpt lat="43.85482372190455" lon="11.597943590250832"><ele>653.0</ele><time>2026-04-25T07:20:31Z</time></trkpt><trkpt lat="43.854760728088955" lon="11.598000690932725"><ele>652.5</ele><time>2026-04-25T07:20:32Z</time></trkpt><trkpt lat="43.85468502292806" lon="11.598047720468129"><ele>652.0</ele><time>2026-04-25T07:20:33Z</time></trkpt><trkpt lat="43.854604554603235" lon="11.598061503550884"><ele>652.5</ele><time>2026-04-25T07:20:34Z</time></trkpt><trkpt lat="43.8545366120468" lon="11.598017431717377"><ele>653.0</ele><time>2026-04-25T07:20:35Z</time></trkpt><trkpt lat="43.85447534968083" lon="11.597946081952223"><ele>653.5</ele><time>2026-04-25T07:20:36Z</time></trkpt><trkpt lat="43.85441941161461" lon="11.597887800356053"><ele>654.0</ele><time>2026-04-25T07:20:37Z</time></trkpt><trkpt lat="43.854331479571904" lon="11.597849133892089"><ele>654.5</ele><time>2026-04-25T07:20:38Z</time></trkpt><trkpt lat="43.85422742414373" lon="11.597789665081374"><ele>655.0</ele><time>2026-04-25T07:20:39Z</time></trkpt><trkpt lat="43.85415265261393" lon="11.597744569563211"><ele>655.0</ele><time>2026-04-25T07:20:40Z</time></trkpt><trkpt lat="43.85404191247687" lon="11.597739352239627"><ele>655.0</ele><time>2026-04-25T07:20:42Z</time></trkpt><trkpt lat="43.85395101213122" lon="11.597744567552875"><ele>655.0</ele><time>2026-04-25T07:20:43Z</time></trkpt><trkpt lat="43.85388340205865" lon="11.597740435806486"><ele>655.0</ele><time>2026-04-25T07:20:44Z</time></trkpt><trkpt lat="43.853764440265785" lon="11.597774758278746"><ele>655.0</ele><time>2026-04-25T07:20:46Z</time></trkpt><trkpt lat="43.8536377242089" lon="11.597844264643165"><ele>658.4</ele><time>2026-04-25T07:20:48Z</time></trkpt><trkpt lat="43.853554826419014" lon="11.597981400443482"><ele>661.8</ele><time>2026-04-25T07:20:50Z</time></trkpt><trkpt lat="43.853523747406086" lon="11.598073641397042"><ele>665.2</ele><time>2026-04-25T07:20:51Z</time></trkpt><trkpt lat="43.85348403665717" lon="11.59814349634463"><ele>668.6</ele><time>2026-04-25T07:20:52Z</time></trkpt><trkpt lat="43.85339928195308" lon="11.598274347738121"><ele>672.0</ele><time>2026-04-25T07:20:54Z</time></trkpt><trkpt lat="43.853364204331044" lon="11.598348880112272"><ele>672.0</ele><time>2026-04-25T07:20:55Z</time></trkpt><trkpt lat="43.85332689903249" lon="11.598443574105447"><ele>672.0</ele><time>2026-04-25T07:20:56Z</time></trkpt><trkpt lat="43.853285007337966" lon="11.598533995647953"><ele>672.0</ele><time>2026-04-25T07:20:57Z</time></trkpt><trkpt lat="43.853247260207276" lon="11.598612661749566"><ele>672.0</ele><time>2026-04-25T07:20:58Z</time></trkpt><trkpt lat="43.85321465838588" lon="11.598704168936573"><ele>672.0</ele><time>2026-04-25T07:20:59Z</time></trkpt><trkpt lat="43.853190913789575" lon="11.598794113025445"><ele>672.0</ele><time>2026-04-25T07:21:00Z</time></trkpt><trkpt lat="43.85317342165789" lon="11.598899795523254"><ele>672.0</ele><time>2026-04-25T07:21:01Z</time></trkpt><trkpt lat="43.85317472100663" lon="11.599021401026908"><ele>673.4285714285714</ele><time>2026-04-25T07:21:02Z</time></trkpt><trkpt lat="43.85319305643034" lon="11.599122953739252"><ele>674.8571428571429</ele><time>2026-04-25T07:21:03Z</time></trkpt><trkpt lat="43.85320332322728" lon="11.59923154469081"><ele>676.2857142857142</ele><time>2026-04-25T07:21:04Z</time></trkpt><trkpt lat="43.85318740049821" lon="11.599329987966243"><ele>677.7142857142858</ele><time>2026-04-25T07:21:05Z</time></trkpt><trkpt lat="43.85314322250672" lon="11.599413861936434"><ele>679.1428571428571</ele><time>2026-04-25T07:21:06Z</time></trkpt><trkpt lat="43.85309584878231" lon="11.599481352676527"><ele>680.5714285714286</ele><time>2026-04-25T07:21:07Z</time></trkpt><trkpt lat="43.85302907807133" lon="11.599514131133748"><ele>682.0</ele><time>2026-04-25T07:21:08Z</time></trkpt><trkpt lat="43.85294306270203" lon="11.5995373281844"><ele>683.0</ele><time>2026-04-25T07:21:09Z</time></trkpt><trkpt lat="43.852864303695505" lon="11.599553168583236"><ele>684.0</ele><time>2026-04-25T07:21:10Z</time></trkpt><trkpt lat="43.85278636116781" lon="11.599571977014811"><ele>685.0</ele><time>2026-04-25T07:21:11Z</time></trkpt><trkpt lat="43.85271057695811" lon="11.599576705847086"><ele>686.0</ele><time>2026-04-25T07:21:12Z</time></trkpt><trkpt lat="43.852636966943535" lon="11.599596270489352"><ele>687.0</ele><time>2026-04-25T07:21:13Z</time></trkpt><trkpt lat="43.85256019432358" lon="11.599628204952914"><ele>688.0</ele><time>2026-04-25T07:21:14Z</time></trkpt><trkpt lat="43.85248812931437" lon="11.59967063283773"><ele>688.0</ele><time>2026-04-25T07:21:15Z</time></trkpt><trkpt lat="43.852429081264596" lon="11.599726639458197"><ele>688.0</ele><time>2026-04-25T07:21:16Z</time></trkpt><trkpt lat="43.85237238000836" lon="11.599790085028296"><ele>688.0</ele><time>2026-04-25T07:21:17Z</time></trkpt><trkpt lat="43.852306015282835" lon="11.599881529557903"><ele>688.0</ele><time>2026-04-25T07:21:18Z</time></trkpt><trkpt lat="43.852230877052044" lon="11.599952927793602"><ele>688.0</ele><time>2026-04-25T07:21:19Z</time></trkpt><trkpt lat="43.85213858483612" lon="11.599995358462857"><ele>688.0</ele><time>2026-04-25T07:21:20Z</time></trkpt><trkpt lat="43.85206561703864" lon="11.600034932133847"><ele>688.0</ele><time>2026-04-25T07:21:21Z</time></trkpt><trkpt lat="43.852004340946976" lon="11.600099590129915"><ele>688.0</ele><time>2026-04-25T07:21:21.999Z</time></trkpt><trkpt lat="43.85194655534569" lon="11.600179813569426"><ele>688.0</ele><time>2026-04-25T07:21:22.999Z</time></trkpt><trkpt lat="43.85185258809178" lon="11.600276150543468"><ele>688.0</ele><time>2026-04-25T07:21:23.999Z</time></trkpt><trkpt lat="43.851765817619416" lon="11.600377006405656"><ele>688.0</ele><time>2026-04-25T07:21:24.999Z</time></trkpt><trkpt lat="43.85171913713182" lon="11.600459538946312"><ele>689.0</ele><time>2026-04-25T07:21:25.999Z</time></trkpt><trkpt lat="43.85159211728364" lon="11.600487476921593"><ele>690.0</ele><time>2026-04-25T07:21:27.999Z</time></trkpt><trkpt lat="43.851524542577764" lon="11.600417437061802"><ele>691.0</ele><time>2026-04-25T07:21:28.999Z</time></trkpt><trkpt lat="43.85145144304208" lon="11.60031002982124"><ele>692.0</ele><time>2026-04-25T07:21:29.999Z</time></trkpt><trkpt lat="43.85136567121253" lon="11.60019441281066"><ele>693.0</ele><time>2026-04-25T07:21:30.999Z</time></trkpt><trkpt lat="43.851272365863046" lon="11.600112825528614"><ele>693.0</ele><time>2026-04-25T07:21:31.999Z</time></trkpt><trkpt lat="43.85118508855607" lon="11.600060815395782"><ele>693.0</ele><time>2026-04-25T07:21:32.999Z</time></trkpt><trkpt lat="43.85110862993712" lon="11.60004869744281"><ele>693.0</ele><time>2026-04-25T07:21:33.999Z</time></trkpt><trkpt lat="43.8510246493064" lon="11.600047445883996"><ele>693.0</ele><time>2026-04-25T07:21:34.999Z</time></trkpt><trkpt lat="43.85095951457497" lon="11.600059102579852"><ele>693.0</ele><time>2026-04-25T07:21:35.999Z</time></trkpt><trkpt lat="43.85089665360084" lon="11.60010926538861"><ele>693.0</ele><time>2026-04-25T07:21:36.999Z</time></trkpt><trkpt lat="43.85083566654718" lon="11.600192206569949"><ele>694.3333333333334</ele><time>2026-04-25T07:21:37.999Z</time></trkpt><trkpt lat="43.850768173366994" lon="11.60027985711045"><ele>695.6666666666666</ele><time>2026-04-25T07:21:38.999Z</time></trkpt><trkpt lat="43.85069933600963" lon="11.600385193848387"><ele>697.0</ele><time>2026-04-25T07:21:39.999Z</time></trkpt><trkpt lat="43.85064719889912" lon="11.600479105805915"><ele>698.3333333333333</ele><time>2026-04-25T07:21:40.999Z</time></trkpt><trkpt lat="43.85061810473474" lon="11.600562519229436"><ele>699.6666666666666</ele><time>2026-04-25T07:21:41.999Z</time></trkpt><trkpt lat="43.85059785540653" lon="11.600653050830958"><ele>701.0</ele><time>2026-04-25T07:21:42.999Z</time></trkpt><trkpt lat="43.85059100235139" lon="11.60075260143191"><ele>703.8333333333333</ele><time>2026-04-25T07:21:43.999Z</time></trkpt><trkpt lat="43.850596287611786" lon="11.600852646702812"><ele>706.6666666666666</ele><time>2026-04-25T07:21:44.999Z</time></trkpt><trkpt lat="43.850597235745944" lon="11.600945584485874"><ele>709.5</ele><time>2026-04-25T07:21:45.999Z</time></trkpt><trkpt lat="43.850575574602566" lon="11.601046848399307"><ele>712.3333333333334</ele><time>2026-04-25T07:21:46.999Z</time></trkpt><trkpt lat="43.85053544904062" lon="11.601139016426062"><ele>715.1666666666667</ele><time>2026-04-25T07:21:47.999Z</time></trkpt><trkpt lat="43.85048800536405" lon="11.601224699890812"><ele>718.0</ele><time>2026-04-25T07:21:48.999Z</time></trkpt><trkpt lat="43.85042481566706" lon="11.601290118623726"><ele>718.8333333333334</ele><time>2026-04-25T07:21:49.999Z</time></trkpt><trkpt lat="43.85036562777907" lon="11.601354542884724"><ele>719.6666666666667</ele><time>2026-04-25T07:21:50.999Z</time></trkpt><trkpt lat="43.85029549508643" lon="11.60144090439373"><ele>720.5</ele><time>2026-04-25T07:21:51.999Z</time></trkpt><trkpt lat="43.85022244035005" lon="11.601519692377874"><ele>721.3333333333334</ele><time>2026-04-25T07:21:52.999Z</time></trkpt><trkpt lat="43.850149909194975" lon="11.601575885559972"><ele>722.1666666666666</ele><time>2026-04-25T07:21:53.999Z</time></trkpt><trkpt lat="43.85006134969679" lon="11.601642691667049"><ele>723.0</ele><time>2026-04-25T07:21:54.999Z</time></trkpt><trkpt lat="43.849993329270966" lon="11.601712545087006"><ele>723.0</ele><time>2026-04-25T07:21:55.999Z</time></trkpt><trkpt lat="43.84992698449975" lon="11.601784924726525"><ele>723.0</ele><time>2026-04-25T07:21:56.999Z</time></trkpt><trkpt lat="43.849876178917505" lon="11.601886235222274"><ele>723.0</ele><time>2026-04-25T07:21:57.999Z</time></trkpt><trkpt lat="43.849831224092654" lon="11.601994119791097"><ele>723.0</ele><time>2026-04-25T07:21:58.999Z</time></trkpt><trkpt lat="43.84978379056895" lon="11.602127467577173"><ele>723.0</ele><time>2026-04-25T07:21:59.999Z</time></trkpt><trkpt lat="43.84974032701333" lon="11.602249497052403"><ele>722.8333333333334</ele><time>2026-04-25T07:22:00.999Z</time></trkpt><trkpt lat="43.849686928489675" lon="11.602434159720902"><ele>722.6666666666666</ele><time>2026-04-25T07:22:02.999Z</time></trkpt><trkpt lat="43.8496654388539" lon="11.602534115658916"><ele>722.5</ele><time>2026-04-25T07:22:03.999Z</time></trkpt><trkpt lat="43.84964415093743" lon="11.602622261340315"><ele>722.3333333333333</ele><time>2026-04-25T07:22:04.999Z</time></trkpt><trkpt lat="43.84959836958089" lon="11.602721658035613"><ele>722.1666666666666</ele><time>2026-04-25T07:22:06.999Z</time></trkpt><trkpt lat="43.84953734126046" lon="11.602771947385897"><ele>722.0</ele><time>2026-04-25T07:22:47Z</time></trkpt><trkpt lat="43.849499529250174" lon="11.602867559968143"><ele>722.0</ele><time>2026-04-25T07:22:48Z</time></trkpt><trkpt lat="43.84945798336089" lon="11.602981620716825"><ele>722.0</ele><time>2026-04-25T07:22:49Z</time></trkpt><trkpt lat="43.849397275755415" lon="11.603078449257143"><ele>722.0</ele><time>2026-04-25T07:22:50Z</time></trkpt><trkpt lat="43.84932164176695" lon="11.603189202596608"><ele>722.0</ele><time>2026-04-25T07:22:51Z</time></trkpt><trkpt lat="43.84926265029323" lon="11.603316269977975"><ele>722.0</ele><time>2026-04-25T07:22:52Z</time></trkpt><trkpt lat="43.8492235275448" lon="11.603424995279632"><ele>726.6</ele><time>2026-04-25T07:22:53Z</time></trkpt><trkpt lat="43.849198186737205" lon="11.603543334451903"><ele>731.2</ele><time>2026-04-25T07:22:54Z</time></trkpt><trkpt lat="43.84917582889522" lon="11.603675857909721"><ele>735.8</ele><time>2026-04-25T07:22:55Z</time></trkpt><trkpt lat="43.84913337040598" lon="11.603818647051721"><ele>740.4</ele><time>2026-04-25T07:22:56Z</time></trkpt><trkpt lat="43.849096202062945" lon="11.603925332506662"><ele>745.0</ele><time>2026-04-25T07:22:57Z</time></trkpt><trkpt lat="43.84906039726791" lon="11.604033679092751"><ele>746.4</ele><time>2026-04-25T07:22:58Z</time></trkpt><trkpt lat="43.84903204315408" lon="11.604149981446481"><ele>747.8</ele><time>2026-04-25T07:22:59Z</time></trkpt><trkpt lat="43.849012899616575" lon="11.604277829903127"><ele>749.2</ele><time>2026-04-25T07:23:00Z</time></trkpt><trkpt lat="43.8489753980951" lon="11.604368208101079"><ele>750.6</ele><time>2026-04-25T07:23:01Z</time></trkpt><trkpt lat="43.84889218402454" lon="11.604548713497325"><ele>752.0</ele><time>2026-04-25T07:23:03Z</time></trkpt><trkpt lat="43.84886575893475" lon="11.604662334377855"><ele>752.0</ele><time>2026-04-25T07:23:04Z</time></trkpt><trkpt lat="43.84884713104985" lon="11.604773681448169"><ele>752.0</ele><time>2026-04-25T07:23:05Z</time></trkpt><trkpt lat="43.84883124356439" lon="11.604863014240562"><ele>752.0</ele><time>2026-04-25T07:23:06Z</time></trkpt><trkpt lat="43.84876341642028" lon="11.605033536922395"><ele>752.0</ele><time>2026-04-25T07:23:08Z</time></trkpt><trkpt lat="43.84871472535607" lon="11.605103155689294"><ele>752.0</ele><time>2026-04-25T07:23:09Z</time></trkpt><trkpt lat="43.84864756680663" lon="11.605117294704542"><ele>752.0</ele><time>2026-04-25T07:23:10Z</time></trkpt><trkpt lat="43.84854069730737" lon="11.605038117045405"><ele>752.0</ele><time>2026-04-25T07:23:12Z</time></trkpt><trkpt lat="43.84849197252167" lon="11.604955885436391"><ele>752.0</ele><time>2026-04-25T07:23:13Z</time></trkpt><trkpt lat="43.84843406439491" lon="11.604888518476132"><ele>752.0</ele><time>2026-04-25T07:23:13.999Z</time></trkpt><trkpt lat="43.84837351054554" lon="11.604854870002434"><ele>752.0</ele><time>2026-04-25T07:23:14.999Z</time></trkpt><trkpt lat="43.84828357817097" lon="11.604852706588963"><ele>752.0</ele><time>2026-04-25T07:23:15.999Z</time></trkpt><trkpt lat="43.8482013522191" lon="11.604841580167662"><ele>752.0</ele><time>2026-04-25T07:23:16.999Z</time></trkpt><trkpt lat="43.84810848891145" lon="11.604825951329085"><ele>758.2</ele><time>2026-04-25T07:23:17.999Z</time></trkpt><trkpt lat="43.84801356548993" lon="11.604841201198"><ele>764.4000000000001</ele><time>2026-04-25T07:23:18.999Z</time></trkpt><trkpt lat="43.847936873209" lon="11.604854943950663"><ele>770.5999999999999</ele><time>2026-04-25T07:23:19.999Z</time></trkpt><trkpt lat="43.84783946282645" lon="11.604907598185685"><ele>776.8</ele><time>2026-04-25T07:23:21.999Z</time></trkpt><trkpt lat="43.84772787363327" lon="11.604921116290203"><ele>783.0</ele><time>2026-04-25T07:23:23.999Z</time></trkpt><trkpt lat="43.847654466065954" lon="11.604912618119593"><ele>786.8333333333334</ele><time>2026-04-25T07:23:24.999Z</time></trkpt><trkpt lat="43.84757911336491" lon="11.604917617196024"><ele>790.6666666666667</ele><time>2026-04-25T07:23:25.999Z</time></trkpt><trkpt lat="43.84750125805484" lon="11.604923670307928"><ele>794.5</ele><time>2026-04-25T07:23:26.999Z</time></trkpt><trkpt lat="43.84743866287071" lon="11.604943274368841"><ele>798.3333333333334</ele><time>2026-04-25T07:23:27.999Z</time></trkpt><trkpt lat="43.847310867378376" lon="11.604999048454165"><ele>802.1666666666667</ele><time>2026-04-25T07:23:29.999Z</time></trkpt><trkpt lat="43.847243942589444" lon="11.60504140553348"><ele>806.0</ele><time>2026-04-25T07:23:30.999Z</time></trkpt><trkpt lat="43.847180800238675" lon="11.605103611394325"><ele>806.0</ele><time>2026-04-25T07:23:31.999Z</time></trkpt><trkpt lat="43.84707970575405" lon="11.605213277577342"><ele>806.0</ele><time>2026-04-25T07:23:33.999Z</time></trkpt><trkpt lat="43.84702151746247" lon="11.60528228122862"><ele>806.0</ele><time>2026-04-25T07:23:34.999Z</time></trkpt><trkpt lat="43.846955427643934" lon="11.605332658523642"><ele>806.0</ele><time>2026-04-25T07:23:35.999Z</time></trkpt><trkpt lat="43.84688465275102" lon="11.605400252314181"><ele>806.0</ele><time>2026-04-25T07:23:36.999Z</time></trkpt><trkpt lat="43.84680911243017" lon="11.60546246594681"><ele>809.8</ele><time>2026-04-25T07:23:37.999Z</time></trkpt><trkpt lat="43.84674751002531" lon="11.605521706470169"><ele>813.5999999999999</ele><time>2026-04-25T07:23:38.999Z</time></trkpt><trkpt lat="43.84666698672316" lon="11.605602608101854"><ele>817.4</ele><time>2026-04-25T07:23:39.999Z</time></trkpt><trkpt lat="43.8466131519851" lon="11.60566910425694"><ele>821.2</ele><time>2026-04-25T07:23:40.999Z</time></trkpt><trkpt lat="43.846506611261496" lon="11.605676987033448"><ele>825.0</ele><time>2026-04-25T07:23:42.999Z</time></trkpt><trkpt lat="43.846415764613084" lon="11.605798105521153"><ele>825.0</ele><time>2026-04-25T07:23:44.999Z</time></trkpt><trkpt lat="43.84636126390266" lon="11.605866550286393"><ele>825.0</ele><time>2026-04-25T07:23:45.999Z</time></trkpt><trkpt lat="43.846309637478285" lon="11.605923842492453"><ele>825.0</ele><time>2026-04-25T07:23:46.999Z</time></trkpt><trkpt lat="43.84624364914072" lon="11.60606957754518"><ele>825.0</ele><time>2026-04-25T07:23:48.999Z</time></trkpt><trkpt lat="43.84623350774621" lon="11.606194917269915"><ele>825.0</ele><time>2026-04-25T07:23:49.999Z</time></trkpt><trkpt lat="43.846261437589725" lon="11.606295917685985"><ele>825.0</ele><time>2026-04-25T07:23:50.999Z</time></trkpt><trkpt lat="43.84625701659861" lon="11.606394392389952"><ele>825.0</ele><time>2026-04-25T07:23:51.999Z</time></trkpt><trkpt lat="43.84622943231552" lon="11.606504299847607"><ele>825.0</ele><time>2026-04-25T07:23:52.999Z</time></trkpt><trkpt lat="43.846138169985394" lon="11.606554169388788"><ele>825.0</ele><time>2026-04-25T07:23:55.999Z</time></trkpt><trkpt lat="43.846075981636645" lon="11.606494041336278"><ele>825.0</ele><time>2026-04-25T07:23:56.999Z</time></trkpt><trkpt lat="43.845998943002684" lon="11.606450055490336"><ele>825.0</ele><time>2026-04-25T07:23:58.999Z</time></trkpt><trkpt lat="43.84588168510432" lon="11.60661152103976"><ele>829.1666666666666</ele><time>2026-04-25T07:24:58Z</time></trkpt><trkpt lat="43.84582744811323" lon="11.606699561519173"><ele>833.3333333333333</ele><time>2026-04-25T07:24:59Z</time></trkpt><trkpt lat="43.845787866154836" lon="11.606772381646296"><ele>837.5</ele><time>2026-04-25T07:25:00Z</time></trkpt><trkpt lat="43.845708441399324" lon="11.606855091855357"><ele>841.6666666666666</ele><time>2026-04-25T07:25:02Z</time></trkpt><trkpt lat="43.84560576795174" lon="11.60685942787319"><ele>845.8333333333333</ele><time>2026-04-25T07:25:04Z</time></trkpt><trkpt lat="43.84554140080925" lon="11.606823148704335"><ele>850.0</ele><time>2026-04-25T07:25:05Z</time></trkpt><trkpt lat="43.84546423607152" lon="11.606818208327581"><ele>849.9999999999999</ele><time>2026-04-25T07:25:05.999Z</time></trkpt><trkpt lat="43.8453682253636" lon="11.6068229616968"><ele>850.0</ele><time>2026-04-25T07:25:06.999Z</time></trkpt><trkpt lat="43.84528459751465" lon="11.606838796582023"><ele>850.0</ele><time>2026-04-25T07:25:07.999Z</time></trkpt><trkpt lat="43.8452223609176" lon="11.606875986377231"><ele>850.0</ele><time>2026-04-25T07:25:08.999Z</time></trkpt><trkpt lat="43.845159759848045" lon="11.606922122284402"><ele>849.9999999999999</ele><time>2026-04-25T07:25:09.999Z</time></trkpt><trkpt lat="43.845118912727976" lon="11.606993398238526"><ele>850.0</ele><time>2026-04-25T07:25:10.999Z</time></trkpt><trkpt lat="43.845070217161265" lon="11.607062352776701"><ele>853.1666666666666</ele><time>2026-04-25T07:25:11.999Z</time></trkpt><trkpt lat="43.84503706579176" lon="11.607160678615733"><ele>856.3333333333333</ele><time>2026-04-25T07:25:12.999Z</time></trkpt><trkpt lat="43.84502735648642" lon="11.607262962057327"><ele>859.5</ele><time>2026-04-25T07:25:13.999Z</time></trkpt><trkpt lat="43.84503072084923" lon="11.607368876882052"><ele>862.6666666666667</ele><time>2026-04-25T07:25:14.999Z</time></trkpt><trkpt lat="43.84500390316081" lon="11.607448387396936"><ele>865.8333333333334</ele><time>2026-04-25T07:25:15.999Z</time></trkpt><trkpt lat="43.84496786213202" lon="11.607603423921752"><ele>869.0</ele><time>2026-04-25T07:25:17.999Z</time></trkpt><trkpt lat="43.84496589791609" lon="11.607717380711799"><ele>868.4000000000001</ele><time>2026-04-25T07:25:18.999Z</time></trkpt><trkpt lat="43.84495753640213" lon="11.607843263630564"><ele>867.8000000000001</ele><time>2026-04-25T07:25:19.999Z</time></trkpt><trkpt lat="43.84491509289136" lon="11.607985877491567"><ele>867.1999999999999</ele><time>2026-04-25T07:25:21.999Z</time></trkpt><trkpt lat="43.84484519432608" lon="11.608112158981207"><ele>866.5999999999999</ele><time>2026-04-25T07:25:23.999Z</time></trkpt><trkpt lat="43.84474232746757" lon="11.608213929454614"><ele>866.0</ele><time>2026-04-25T07:25:25.999Z</time></trkpt><trkpt lat="43.84467581793909" lon="11.608311659784563"><ele>866.0</ele><time>2026-04-25T07:25:26.999Z</time></trkpt><trkpt lat="43.84462786847809" lon="11.60839168408983"><ele>865.9999999999999</ele><time>2026-04-25T07:25:27.999Z</time></trkpt><trkpt lat="43.844549207138" lon="11.608437043532483"><ele>865.9999999999999</ele><time>2026-04-25T07:25:31.999Z</time></trkpt><trkpt lat="43.844436300641746" lon="11.608578622906869"><ele>866.0</ele><time>2026-04-25T07:25:33.999Z</time></trkpt><trkpt lat="43.84437205964164" lon="11.608674175077361"><ele>866.0</ele><time>2026-04-25T07:25:34.999Z</time></trkpt><trkpt lat="43.8443004413873" lon="11.608800350283497"><ele>871.8</ele><time>2026-04-25T07:25:35.999Z</time></trkpt><trkpt lat="43.84421043234511" lon="11.60891737864878"><ele>877.5999999999999</ele><time>2026-04-25T07:25:36.999Z</time></trkpt><trkpt lat="43.844125010756585" lon="11.60903436791035"><ele>883.4</ele><time>2026-04-25T07:25:37.999Z</time></trkpt><trkpt lat="43.84406997660476" lon="11.609131265875895"><ele>889.2</ele><time>2026-04-25T07:25:38.999Z</time></trkpt><trkpt lat="43.84400385852089" lon="11.609214843837062"><ele>895.0</ele><time>2026-04-25T07:25:39.999Z</time></trkpt><trkpt lat="43.843941401912815" lon="11.609317626828664"><ele>894.9999999999999</ele><time>2026-04-25T07:25:40.999Z</time></trkpt><trkpt lat="43.84389495719953" lon="11.609385950503354"><ele>895.0</ele><time>2026-04-25T07:25:41.999Z</time></trkpt><trkpt lat="43.84386289445449" lon="11.60953218088973"><ele>895.0</ele><time>2026-04-25T07:25:44.999Z</time></trkpt><trkpt lat="43.84384238376772" lon="11.609616603525895"><ele>895.0</ele><time>2026-04-25T07:25:45.999Z</time></trkpt><trkpt lat="43.843808203092415" lon="11.609785450466045"><ele>894.9999999999999</ele><time>2026-04-25T07:25:47.999Z</time></trkpt><trkpt lat="43.843804072255544" lon="11.609882572196845"><ele>895.0</ele><time>2026-04-25T07:25:48.999Z</time></trkpt><trkpt lat="43.84379465762738" lon="11.609979520567142"><ele>894.8333333333333</ele><time>2026-04-25T07:25:49.999Z</time></trkpt><trkpt lat="43.84377024124671" lon="11.610070923743491"><ele>894.6666666666666</ele><time>2026-04-25T07:25:50.999Z</time></trkpt><trkpt lat="43.84375708331745" lon="11.610190310887877"><ele>894.5</ele><time>2026-04-25T07:25:51.999Z</time></trkpt><trkpt lat="43.84375216265953" lon="11.610282754700812"><ele>894.3333333333333</ele><time>2026-04-25T07:25:52.999Z</time></trkpt><trkpt lat="43.843716741173616" lon="11.610404801888897"><ele>894.1666666666666</ele><time>2026-04-25T07:25:54.999Z</time></trkpt><trkpt lat="43.843647088036064" lon="11.610537949418559"><ele>894.0</ele><time>2026-04-25T07:25:56.999Z</time></trkpt><trkpt lat="43.843605756007705" lon="11.61063046360615"><ele>894.0</ele><time>2026-04-25T07:25:57.999Z</time></trkpt><trkpt lat="43.843578714634496" lon="11.610776870637071"><ele>894.0</ele><time>2026-04-25T07:25:59.999Z</time></trkpt><trkpt lat="43.84357338624432" lon="11.610870451020983"><ele>894.0</ele><time>2026-04-25T07:26:00.999Z</time></trkpt><trkpt lat="43.843576008568" lon="11.61096739244773"><ele>894.0</ele><time>2026-04-25T07:26:01.999Z</time></trkpt><trkpt lat="43.843593405816335" lon="11.611057360582842"><ele>894.0</ele><time>2026-04-25T07:26:02.999Z</time></trkpt><trkpt lat="43.843631264625806" lon="11.611222530556779"><ele>894.0</ele><time>2026-04-25T07:26:04.999Z</time></trkpt><trkpt lat="43.843640152182665" lon="11.611366615798435"><ele>895.2</ele><time>2026-04-25T07:26:06.999Z</time></trkpt><trkpt lat="43.84360179530637" lon="11.611532348139855"><ele>896.4000000000001</ele><time>2026-04-25T07:26:08.999Z</time></trkpt><trkpt lat="43.84356175182683" lon="11.611606694377064"><ele>897.6</ele><time>2026-04-25T07:26:09.999Z</time></trkpt><trkpt lat="43.843502885460886" lon="11.611678460279597"><ele>898.8</ele><time>2026-04-25T07:26:10.999Z</time></trkpt><trkpt lat="43.843445865189715" lon="11.611757707540926"><ele>900.0</ele><time>2026-04-25T07:26:11.999Z</time></trkpt><trkpt lat="43.84338575376753" lon="11.611903039986506"><ele>902.5</ele><time>2026-04-25T07:26:13.999Z</time></trkpt><trkpt lat="43.843322415428155" lon="11.611932955831568"><ele>905.0</ele><time>2026-04-25T07:26:14.999Z</time></trkpt><trkpt lat="43.843245727936136" lon="11.611997004464055"><ele>907.5</ele><time>2026-04-25T07:26:15.999Z</time></trkpt><trkpt lat="43.84318252294128" lon="11.61204728104395"><ele>910.0</ele><time>2026-04-25T07:26:16.999Z</time></trkpt><trkpt lat="43.84311954683455" lon="11.612116554947633"><ele>912.5</ele><time>2026-04-25T07:26:17.999Z</time></trkpt><trkpt lat="43.84304850091235" lon="11.612173332570011"><ele>915.0</ele><time>2026-04-25T07:26:18.999Z</time></trkpt><trkpt lat="43.84297740604512" lon="11.6122177741627"><ele>915.0</ele><time>2026-04-25T07:26:19.999Z</time></trkpt><trkpt lat="43.842903958380944" lon="11.612259551338061"><ele>915.0</ele><time>2026-04-25T07:26:20.999Z</time></trkpt><trkpt lat="43.84282678061399" lon="11.612296417869388"><ele>915.0</ele><time>2026-04-25T07:26:21.999Z</time></trkpt><trkpt lat="43.84274952407216" lon="11.6123206242637"><ele>915.0</ele><time>2026-04-25T07:26:22.999Z</time></trkpt><trkpt lat="43.842661590260775" lon="11.612324003466698"><ele>915.0</ele><time>2026-04-25T07:26:23.999Z</time></trkpt><trkpt lat="43.84257534641607" lon="11.61234775973507"><ele>915.0</ele><time>2026-04-25T07:26:24.999Z</time></trkpt><trkpt lat="43.84249711166093" lon="11.61238210729122"><ele>918.8333333333334</ele><time>2026-04-25T07:26:25.999Z</time></trkpt><trkpt lat="43.84242528233442" lon="11.612415392585847"><ele>922.6666666666667</ele><time>2026-04-25T07:26:26.999Z</time></trkpt><trkpt lat="43.842351018497496" lon="11.61245457418282"><ele>926.5</ele><time>2026-04-25T07:26:27.999Z</time></trkpt><trkpt lat="43.842260203421795" lon="11.612491351513551"><ele>930.3333333333334</ele><time>2026-04-25T07:26:28.999Z</time></trkpt><trkpt lat="43.84219002471165" lon="11.612517050177066"><ele>934.1666666666667</ele><time>2026-04-25T07:26:30Z</time></trkpt><trkpt lat="43.842139298308425" lon="11.612571959670808"><ele>938.0</ele><time>2026-04-25T07:26:31Z</time></trkpt><trkpt lat="43.8420663228003" lon="11.612573949070521"><ele>938.0</ele><time>2026-04-25T07:26:33Z</time></trkpt><trkpt lat="43.84199837630727" lon="11.612607832822237"><ele>938.0</ele><time>2026-04-25T07:26:53Z</time></trkpt><trkpt lat="43.84195792745318" lon="11.612382825011629"><ele>938.0</ele><time>2026-04-25T07:26:55Z</time></trkpt><trkpt lat="43.84196725580466" lon="11.612232162753417"><ele>938.0</ele><time>2026-04-25T07:26:57Z</time></trkpt><trkpt lat="43.842002910046105" lon="11.612126015440902"><ele>938.0</ele><time>2026-04-25T07:26:59Z</time></trkpt><trkpt lat="43.8420120349363" lon="11.611971887004472"><ele>940.8</ele><time>2026-04-25T07:27:01Z</time></trkpt><trkpt lat="43.84200377934117" lon="11.611846026912213"><ele>943.5999999999999</ele><time>2026-04-25T07:27:06Z</time></trkpt><trkpt lat="43.84199119043249" lon="11.611742362649773"><ele>946.4000000000001</ele><time>2026-04-25T07:27:08Z</time></trkpt><trkpt lat="43.84197008309515" lon="11.611562955597513"><ele>949.2</ele><time>2026-04-25T07:27:09.999Z</time></trkpt><trkpt lat="43.84194872173603" lon="11.61146048451117"><ele>952.0</ele><time>2026-04-25T07:27:11.999Z</time></trkpt><trkpt lat="43.84192701103808" lon="11.611353806305408"><ele>952.0</ele><time>2026-04-25T07:27:13.999Z</time></trkpt><trkpt lat="43.84190121221496" lon="11.611268083398198"><ele>952.0</ele><time>2026-04-25T07:27:14.999Z</time></trkpt><trkpt lat="43.841848556152954" lon="11.611165364508738"><ele>952.0</ele><time>2026-04-25T07:27:16.999Z</time></trkpt><trkpt lat="43.8417880621538" lon="11.611108473144595"><ele>952.0</ele><time>2026-04-25T07:27:18.999Z</time></trkpt><trkpt lat="43.84166308225084" lon="11.611047588356122"><ele>952.0</ele><time>2026-04-25T07:27:20.999Z</time></trkpt><trkpt lat="43.841556035108404" lon="11.611048751696151"><ele>952.8</ele><time>2026-04-25T07:27:23.999Z</time></trkpt><trkpt lat="43.8414988721326" lon="11.611095331507611"><ele>953.6</ele><time>2026-04-25T07:27:26.999Z</time></trkpt><trkpt lat="43.84143473028224" lon="11.611177349790479"><ele>954.3999999999999</ele><time>2026-04-25T07:27:38.999Z</time></trkpt><trkpt lat="43.84133489912197" lon="11.61126383887367"><ele>955.1999999999999</ele><time>2026-04-25T07:27:40.999Z</time></trkpt><trkpt lat="43.841214909267116" lon="11.611321118821504"><ele>956.0</ele><time>2026-04-25T07:27:42.999Z</time></trkpt><trkpt lat="43.8411352365931" lon="11.611330756007542"><ele>956.0000000000001</ele><time>2026-04-25T07:27:43.999Z</time></trkpt><trkpt lat="43.84107865056879" lon="11.6112801376126"><ele>956.0</ele><time>2026-04-25T07:27:44.999Z</time></trkpt><trkpt lat="43.84103738230063" lon="11.611191758867253"><ele>956.0</ele><time>2026-04-25T07:27:45.999Z</time></trkpt><trkpt lat="43.84101446811868" lon="11.611085583418884"><ele>956.0</ele><time>2026-04-25T07:27:46.999Z</time></trkpt><trkpt lat="43.84098433352732" lon="11.610986630498326"><ele>956.0000000000001</ele><time>2026-04-25T07:27:47.999Z</time></trkpt><trkpt lat="43.84094855030889" lon="11.610874073926725"><ele>956.0</ele><time>2026-04-25T07:27:48.999Z</time></trkpt><trkpt lat="43.84091510318231" lon="11.610707001777778"><ele>954.8333333333334</ele><time>2026-04-25T07:27:50.999Z</time></trkpt><trkpt lat="43.840897248877795" lon="11.61060766108806"><ele>953.6666666666667</ele><time>2026-04-25T07:27:51.999Z</time></trkpt><trkpt lat="43.84087132506038" lon="11.610498876165982"><ele>952.5</ele><time>2026-04-25T07:27:52.999Z</time></trkpt><trkpt lat="43.84085330109008" lon="11.610394775321481"><ele>951.3333333333333</ele><time>2026-04-25T07:27:53.999Z</time></trkpt><trkpt lat="43.840857048836135" lon="11.610299589760507"><ele>950.1666666666666</ele><time>2026-04-25T07:27:54.999Z</time></trkpt><trkpt lat="43.840864882392886" lon="11.61011919640489"><ele>949.0</ele><time>2026-04-25T07:27:56.999Z</time></trkpt><trkpt lat="43.840883655503035" lon="11.61000295499247"><ele>948.9999999999999</ele><time>2026-04-25T07:27:57.999Z</time></trkpt><trkpt lat="43.84089583616724" lon="11.609896797071231"><ele>949.0</ele><time>2026-04-25T07:27:58.999Z</time></trkpt><trkpt lat="43.84090725826523" lon="11.609778838716142"><ele>949.0</ele><time>2026-04-25T07:27:59.999Z</time></trkpt><trkpt lat="43.8409092799651" lon="11.609689032518128"><ele>949.0</ele><time>2026-04-25T07:28:00.999Z</time></trkpt><trkpt lat="43.84088236435472" lon="11.609578212722742"><ele>948.9999999999999</ele><time>2026-04-25T07:28:01.999Z</time></trkpt><trkpt lat="43.840847945802366" lon="11.609459633930355"><ele>949.0</ele><time>2026-04-25T07:28:02.999Z</time></trkpt><trkpt lat="43.84083023703188" lon="11.60934617562883"><ele>948.2</ele><time>2026-04-25T07:28:03.999Z</time></trkpt><trkpt lat="43.84082329673676" lon="11.609202216329347"><ele>947.4000000000001</ele><time>2026-04-25T07:28:05.999Z</time></trkpt><trkpt lat="43.84076769517986" lon="11.609141113852052"><ele>946.6</ele><time>2026-04-25T07:28:07.999Z</time></trkpt><trkpt lat="43.840774272002356" lon="11.609029457078245"><ele>945.8</ele><time>2026-04-25T07:28:09.999Z</time></trkpt><trkpt lat="43.84076484260722" lon="11.608923692378337"><ele>945.0</ele><time>2026-04-25T07:28:12.999Z</time></trkpt><trkpt lat="43.84068055254223" lon="11.608516190303776"><ele>944.0</ele><time>2026-04-25T07:28:15.999Z</time></trkpt><trkpt lat="43.84067439944961" lon="11.608342814287395"><ele>943.0</ele><time>2026-04-25T07:28:17.999Z</time></trkpt><trkpt lat="43.84068066474076" lon="11.60821593668462"><ele>942.0</ele><time>2026-04-25T07:28:19.999Z</time></trkpt><trkpt lat="43.84071056064087" lon="11.608132231633837"><ele>941.0</ele><time>2026-04-25T07:28:20.999Z</time></trkpt><trkpt lat="43.84072520893421" lon="11.60804011513137"><ele>940.0</ele><time>2026-04-25T07:28:21.999Z</time></trkpt><trkpt lat="43.84067709967762" lon="11.607942630480819"><ele>939.0</ele><time>2026-04-25T07:28:23.999Z</time></trkpt><trkpt lat="43.840623672444345" lon="11.607891863844042"><ele>938.2</ele><time>2026-04-25T07:28:25.999Z</time></trkpt><trkpt lat="43.840558273042774" lon="11.607807640610572"><ele>937.4000000000001</ele><time>2026-04-25T07:28:27.999Z</time></trkpt><trkpt lat="43.84052106736588" lon="11.607693447698534"><ele>936.6</ele><time>2026-04-25T07:28:29.999Z</time></trkpt><trkpt lat="43.840482309168486" lon="11.607576600694228"><ele>935.8</ele><time>2026-04-25T07:28:31.999Z</time></trkpt><trkpt lat="43.84045073541372" lon="11.607431369303379"><ele>935.0</ele><time>2026-04-25T07:28:33.999Z</time></trkpt><trkpt lat="43.840467017073884" lon="11.60727957615897"><ele>935.0</ele><time>2026-04-25T07:28:36Z</time></trkpt><trkpt lat="43.840411538947286" lon="11.607144094652055"><ele>935.0</ele><time>2026-04-25T07:28:38Z</time></trkpt><trkpt lat="43.84036264157535" lon="11.606996495762123"><ele>935.0</ele><time>2026-04-25T07:28:40Z</time></trkpt><trkpt lat="43.840305426112145" lon="11.606872365015025"><ele>935.0</ele><time>2026-04-25T07:28:42Z</time></trkpt><trkpt lat="43.84025927742905" lon="11.606785117675576"><ele>935.0</ele><time>2026-04-25T07:28:44Z</time></trkpt><trkpt lat="43.84018747286786" lon="11.606718581500294"><ele>933.8</ele><time>2026-04-25T07:28:46Z</time></trkpt><trkpt lat="43.840143585113076" lon="11.606608132173674"><ele>932.6</ele><time>2026-04-25T07:28:48Z</time></trkpt><trkpt lat="43.84009940041189" lon="11.606493008154741"><ele>931.4000000000001</ele><time>2026-04-25T07:28:50Z</time></trkpt><trkpt lat="43.84006701477895" lon="11.606406939936502"><ele>930.2</ele><time>2026-04-25T07:28:51Z</time></trkpt><trkpt lat="43.84001606951651" lon="11.606275257838726"><ele>929.0</ele><time>2026-04-25T07:28:53Z</time></trkpt><trkpt lat="43.84000960270003" lon="11.606116835993754"><ele>933.2</ele><time>2026-04-25T07:28:55Z</time></trkpt><trkpt lat="43.84001461268974" lon="11.605971939958593"><ele>937.4000000000001</ele><time>2026-04-25T07:28:57Z</time></trkpt><trkpt lat="43.84000852036367" lon="11.60588435093135"><ele>941.6</ele><time>2026-04-25T07:28:58Z</time></trkpt><trkpt lat="43.83996824572319" lon="11.605732374328747"><ele>945.8</ele><time>2026-04-25T07:29:00Z</time></trkpt><trkpt lat="43.839981988706576" lon="11.605580253961303"><ele>950.0</ele><time>2026-04-25T07:29:02Z</time></trkpt><trkpt lat="43.83997374422342" lon="11.60546077029263"><ele>950.0</ele><time>2026-04-25T07:29:04Z</time></trkpt><trkpt lat="43.839939750291244" lon="11.605338721497946"><ele>950.0</ele><time>2026-04-25T07:29:07Z</time></trkpt><trkpt lat="43.839924986759705" lon="11.605237793316123"><ele>950.0</ele><time>2026-04-25T07:29:08Z</time></trkpt><trkpt lat="43.83987422697319" lon="11.60513944594863"><ele>950.0</ele><time>2026-04-25T07:29:12.999Z</time></trkpt><trkpt lat="43.839801400946975" lon="11.605015722277074"><ele>950.0</ele><time>2026-04-25T07:29:14.999Z</time></trkpt><trkpt lat="43.83973950268638" lon="11.604912923320267"><ele>950.3333333333334</ele><time>2026-04-25T07:29:16.999Z</time></trkpt><trkpt lat="43.83964358963796" lon="11.604772306774546"><ele>950.6666666666667</ele><time>2026-04-25T07:29:17.999Z</time></trkpt><trkpt lat="43.83952973164871" lon="11.60462910223463"><ele>951.0</ele><time>2026-04-25T07:29:18.999Z</time></trkpt><trkpt lat="43.839371400147414" lon="11.604454526063272"><ele>952.4</ele><time>2026-04-25T07:29:19.999Z</time></trkpt><trkpt lat="43.83929288373531" lon="11.60435383543755"><ele>953.8</ele><time>2026-04-25T07:29:20.999Z</time></trkpt><trkpt lat="43.83921032199138" lon="11.604282584544718"><ele>955.1999999999999</ele><time>2026-04-25T07:29:21.999Z</time></trkpt><trkpt lat="43.839094795514" lon="11.604221339277192"><ele>956.5999999999999</ele><time>2026-04-25T07:29:23.999Z</time></trkpt><trkpt lat="43.83902405624277" lon="11.6041777532611"><ele>958.0</ele><time>2026-04-25T07:29:24.999Z</time></trkpt><trkpt lat="43.838963320692265" lon="11.604119005779047"><ele>957.9999999999999</ele><time>2026-04-25T07:29:25.999Z</time></trkpt><trkpt lat="43.83890253964339" lon="11.604057784809205"><ele>958.0</ele><time>2026-04-25T07:29:26.999Z</time></trkpt><trkpt lat="43.8388472665016" lon="11.603964887650745"><ele>958.0</ele><time>2026-04-25T07:29:27.999Z</time></trkpt><trkpt lat="43.83878337654588" lon="11.603860037318189"><ele>958.0</ele><time>2026-04-25T07:29:28.999Z</time></trkpt><trkpt lat="43.83871863371536" lon="11.6037753299981"><ele>957.9999999999999</ele><time>2026-04-25T07:29:29.999Z</time></trkpt><trkpt lat="43.838651436524565" lon="11.603738005381347"><ele>958.0</ele><time>2026-04-25T07:29:30.999Z</time></trkpt><trkpt lat="43.83856687854721" lon="11.603724248100015"><ele>957.9999999999999</ele><time>2026-04-25T07:29:31.999Z</time></trkpt><trkpt lat="43.83848992913417" lon="11.603716330991576"><ele>958.0</ele><time>2026-04-25T07:29:32.999Z</time></trkpt><trkpt lat="43.838387680544876" lon="11.603769227711167"><ele>958.0</ele><time>2026-04-25T07:29:34.999Z</time></trkpt><trkpt lat="43.83832291265303" lon="11.603794354959515"><ele>958.0</ele><time>2026-04-25T07:29:35.999Z</time></trkpt><trkpt lat="43.838266323739354" lon="11.603864372673524"><ele>957.9999999999999</ele><time>2026-04-25T07:29:36.999Z</time></trkpt><trkpt lat="43.838207438226334" lon="11.60393611532558"><ele>958.0</ele><time>2026-04-25T07:29:37.999Z</time></trkpt><trkpt lat="43.83815089333086" lon="11.603994244476146"><ele>959.4</ele><time>2026-04-25T07:29:38.999Z</time></trkpt><trkpt lat="43.83807356650036" lon="11.604064710983192"><ele>960.8</ele><time>2026-04-25T07:29:40.999Z</time></trkpt><trkpt lat="43.83797961277749" lon="11.60416170386828"><ele>962.2</ele><time>2026-04-25T07:29:42.999Z</time></trkpt><trkpt lat="43.837907998013314" lon="11.604245850806405"><ele>963.6</ele><time>2026-04-25T07:29:44.999Z</time></trkpt><trkpt lat="43.83784671013099" lon="11.60430578502597"><ele>965.0</ele><time>2026-04-25T07:29:45.999Z</time></trkpt><trkpt lat="43.8377582468689" lon="11.60434579527055"><ele>965.0000000000001</ele><time>2026-04-25T07:29:46.999Z</time></trkpt><trkpt lat="43.837691597779795" lon="11.604368021651053"><ele>965.0</ele><time>2026-04-25T07:29:47.999Z</time></trkpt><trkpt lat="43.83763249536051" lon="11.604444556399613"><ele>965.0</ele><time>2026-04-25T07:29:48.999Z</time></trkpt><trkpt lat="43.83756578654526" lon="11.604501025469595"><ele>965.0</ele><time>2026-04-25T07:29:49.999Z</time></trkpt><trkpt lat="43.837502043111535" lon="11.604588006645015"><ele>965.0000000000001</ele><time>2026-04-25T07:29:50.999Z</time></trkpt><trkpt lat="43.83744034144082" lon="11.604658653222018"><ele>965.0</ele><time>2026-04-25T07:29:51.999Z</time></trkpt><trkpt lat="43.8373624082627" lon="11.604713008918603"><ele>969.5</ele><time>2026-04-25T07:29:53.999Z</time></trkpt><trkpt lat="43.83724045268278" lon="11.60474110429793"><ele>974.0</ele><time>2026-04-25T07:29:55.999Z</time></trkpt><trkpt lat="43.83713655955239" lon="11.604748402834037"><ele>978.5</ele><time>2026-04-25T07:29:57.999Z</time></trkpt><trkpt lat="43.83701782028229" lon="11.604764695810157"><ele>983.0</ele><time>2026-04-25T07:29:59.999Z</time></trkpt><trkpt lat="43.83689458150039" lon="11.604779936172825"><ele>983.0</ele><time>2026-04-25T07:30:01.999Z</time></trkpt><trkpt lat="43.836831087950664" lon="11.604817860842763"><ele>983.0</ele><time>2026-04-25T07:30:02.999Z</time></trkpt><trkpt lat="43.83670947380262" lon="11.604910844953261"><ele>983.0</ele><time>2026-04-25T07:30:04.999Z</time></trkpt><trkpt lat="43.83664447811376" lon="11.604978530359837"><ele>983.0</ele><time>2026-04-25T07:30:05.999Z</time></trkpt><trkpt lat="43.8365690632103" lon="11.605029194444699"><ele>983.0</ele><time>2026-04-25T07:30:06.999Z</time></trkpt><trkpt lat="43.83643405720124" lon="11.605027225717768"><ele>985.0</ele><time>2026-04-25T07:30:08.999Z</time></trkpt><trkpt lat="43.836339329510835" lon="11.605028006593573"><ele>987.0</ele><time>2026-04-25T07:30:09.999Z</time></trkpt><trkpt lat="43.83625008597099" lon="11.605028083859409"><ele>989.0</ele><time>2026-04-25T07:30:10.999Z</time></trkpt><trkpt lat="43.836136691424606" lon="11.604994307358602"><ele>991.0</ele><time>2026-04-25T07:30:12.999Z</time></trkpt><trkpt lat="43.83605571905552" lon="11.60497548417444"><ele>993.0</ele><time>2026-04-25T07:30:14.999Z</time></trkpt><trkpt lat="43.83599803325333" lon="11.604913866844974"><ele>996.4</ele><time>2026-04-25T07:30:16.999Z</time></trkpt><trkpt lat="43.83592731922101" lon="11.60482774524925"><ele>999.8</ele><time>2026-04-25T07:30:18.999Z</time></trkpt><trkpt lat="43.83584919430801" lon="11.604738115615424"><ele>1003.2</ele><time>2026-04-25T07:30:19.999Z</time></trkpt><trkpt lat="43.83579914067476" lon="11.60465003027326"><ele>1006.6</ele><time>2026-04-25T07:30:20.999Z</time></trkpt><trkpt lat="43.83569725533476" lon="11.6045426355541"><ele>1010.0</ele><time>2026-04-25T07:30:22.999Z</time></trkpt><trkpt lat="43.83561755172405" lon="11.604538901624029"><ele>1006.4</ele><time>2026-04-25T07:30:23.999Z</time></trkpt><trkpt lat="43.835529068628844" lon="11.604492782596829"><ele>1002.8</ele><time>2026-04-25T07:30:24.999Z</time></trkpt><trkpt lat="43.835433014789224" lon="11.604408982363505"><ele>999.2</ele><time>2026-04-25T07:30:25.999Z</time></trkpt><trkpt lat="43.835340817341255" lon="11.60432444808427"><ele>995.6</ele><time>2026-04-25T07:30:26.999Z</time></trkpt><trkpt lat="43.83525544080297" lon="11.6042742289636"><ele>992.0</ele><time>2026-04-25T07:30:27.999Z</time></trkpt><trkpt lat="43.835181479617816" lon="11.604230475119847"><ele>994.8333333333334</ele><time>2026-04-25T07:30:28.999Z</time></trkpt><trkpt lat="43.835104468150284" lon="11.604188560527618"><ele>997.6666666666667</ele><time>2026-04-25T07:30:29.999Z</time></trkpt><trkpt lat="43.83503973070432" lon="11.604156164952961"><ele>1000.5</ele><time>2026-04-25T07:30:30.999Z</time></trkpt><trkpt lat="43.83497844652889" lon="11.604136161666863"><ele>1003.3333333333333</ele><time>2026-04-25T07:30:31.999Z</time></trkpt><trkpt lat="43.8349092139461" lon="11.604111002828816"><ele>1006.1666666666666</ele><time>2026-04-25T07:30:32.999Z</time></trkpt><trkpt lat="43.83482578042331" lon="11.604083421984454"><ele>1009.0</ele><time>2026-04-25T07:30:33.999Z</time></trkpt><trkpt lat="43.83474737776028" lon="11.604102140543054"><ele>1008.9999999999999</ele><time>2026-04-25T07:30:34.999Z</time></trkpt><trkpt lat="43.834664906555126" lon="11.604113516063562"><ele>1009.0</ele><time>2026-04-25T07:30:35.999Z</time></trkpt><trkpt lat="43.834598374502534" lon="11.604128908639316"><ele>1009.0</ele><time>2026-04-25T07:30:36.999Z</time></trkpt><trkpt lat="43.834511287914744" lon="11.60414956228757"><ele>1009.0</ele><time>2026-04-25T07:30:39.999Z</time></trkpt><trkpt lat="43.834504423051705" lon="11.60404303612617"><ele>1008.9999999999999</ele><time>2026-04-25T07:30:43Z</time></trkpt><trkpt lat="43.83450194495668" lon="11.603889734606241"><ele>1009.0</ele><time>2026-04-25T07:30:45Z</time></trkpt><trkpt lat="43.83447245450611" lon="11.603745991833245"><ele>1007.9999999999999</ele><time>2026-04-25T07:30:46Z</time></trkpt><trkpt lat="43.83446130072184" lon="11.603626675781337"><ele>1007.0</ele><time>2026-04-25T07:30:47Z</time></trkpt><trkpt lat="43.834453576756346" lon="11.603527777201778"><ele>1006.0</ele><time>2026-04-25T07:30:48Z</time></trkpt><trkpt lat="43.83436296010413" lon="11.60348080807363"><ele>1005.0</ele><time>2026-04-25T07:30:49Z</time></trkpt><trkpt lat="43.834310620853145" lon="11.603417478744124"><ele>1003.9999999999999</ele><time>2026-04-25T07:30:50Z</time></trkpt><trkpt lat="43.834279241095615" lon="11.603333217979376"><ele>1003.0</ele><time>2026-04-25T07:30:51Z</time></trkpt><trkpt lat="43.83422866260712" lon="11.603274140771793"><ele>1002.9999999999999</ele><time>2026-04-25T07:30:52Z</time></trkpt><trkpt lat="43.83417961837164" lon="11.603198400705425"><ele>1003.0</ele><time>2026-04-25T07:30:53Z</time></trkpt><trkpt lat="43.834074626478944" lon="11.603105141458746"><ele>1003.0</ele><time>2026-04-25T07:30:55Z</time></trkpt><trkpt lat="43.83399819151478" lon="11.603065390120138"><ele>1003.0</ele><time>2026-04-25T07:30:56Z</time></trkpt><trkpt lat="43.83394083054964" lon="11.603028828305598"><ele>1002.9999999999999</ele><time>2026-04-25T07:30:57Z</time></trkpt><trkpt lat="43.83385703125559" lon="11.603001885990047"><ele>1003.0</ele><time>2026-04-25T07:30:58Z</time></trkpt><trkpt lat="43.83377801028071" lon="11.60300735266891"><ele>1002.9999999999999</ele><time>2026-04-25T07:30:59Z</time></trkpt><trkpt lat="43.833687035632536" lon="11.603048947124956"><ele>1003.0</ele><time>2026-04-25T07:31:00Z</time></trkpt><trkpt lat="43.83362340584132" lon="11.603093246840876"><ele>1003.0</ele><time>2026-04-25T07:31:01Z</time></trkpt><trkpt lat="43.83355955043154" lon="11.603136033359029"><ele>1003.0</ele><time>2026-04-25T07:31:02Z</time></trkpt><trkpt lat="43.83348334798436" lon="11.603219107596116"><ele>1002.9999999999999</ele><time>2026-04-25T07:31:03Z</time></trkpt><trkpt lat="43.83341919819877" lon="11.603278571687834"><ele>1003.0</ele><time>2026-04-25T07:31:04Z</time></trkpt><trkpt lat="43.83337226543871" lon="11.603361535817418"><ele>1002.4999999999999</ele><time>2026-04-25T07:31:05Z</time></trkpt><trkpt lat="43.83330504292861" lon="11.603431093605678"><ele>1002.0</ele><time>2026-04-25T07:31:06Z</time></trkpt><trkpt lat="43.83323092554688" lon="11.60346644014609"><ele>1001.5</ele><time>2026-04-25T07:31:06.999Z</time></trkpt><trkpt lat="43.833148675975394" lon="11.60348595528056"><ele>1001.0</ele><time>2026-04-25T07:31:07.999Z</time></trkpt><trkpt lat="43.83307060835287" lon="11.60347425126608"><ele>1000.4999999999999</ele><time>2026-04-25T07:31:08.999Z</time></trkpt><trkpt lat="43.83300011678438" lon="11.603458813401177"><ele>1000.0</ele><time>2026-04-25T07:31:09.999Z</time></trkpt><trkpt lat="43.83291339923136" lon="11.603427819157186"><ele>999.9999999999999</ele><time>2026-04-25T07:31:10.999Z</time></trkpt><trkpt lat="43.832837763516544" lon="11.603424370242168"><ele>1000.0</ele><time>2026-04-25T07:31:11.999Z</time></trkpt><trkpt lat="43.8327462535232" lon="11.603441823885177"><ele>1000.0</ele><time>2026-04-25T07:31:12.999Z</time></trkpt><trkpt lat="43.832666659567906" lon="11.603450911249725"><ele>1000.0</ele><time>2026-04-25T07:31:13.999Z</time></trkpt><trkpt lat="43.83260334693317" lon="11.603455288472697"><ele>999.9999999999999</ele><time>2026-04-25T07:31:14.999Z</time></trkpt><trkpt lat="43.83250133707547" lon="11.603394839097316"><ele>1000.0</ele><time>2026-04-25T07:31:16.999Z</time></trkpt><trkpt lat="43.83240535108465" lon="11.603338944292577"><ele>999.4</ele><time>2026-04-25T07:31:18.999Z</time></trkpt><trkpt lat="43.832299742441144" lon="11.60328578757084"><ele>998.8</ele><time>2026-04-25T07:31:20.999Z</time></trkpt><trkpt lat="43.83220650391909" lon="11.603300637152714"><ele>998.2</ele><time>2026-04-25T07:31:22.999Z</time></trkpt><trkpt lat="43.83208776319339" lon="11.603350698425817"><ele>997.6</ele><time>2026-04-25T07:31:24.999Z</time></trkpt><trkpt lat="43.83201979166286" lon="11.603369523167256"><ele>997.0</ele><time>2026-04-25T07:31:25.999Z</time></trkpt><trkpt lat="43.83195811497319" lon="11.603393854663594"><ele>996.9999999999999</ele><time>2026-04-25T07:31:26.999Z</time></trkpt><trkpt lat="43.83190366803708" lon="11.603440331289754"><ele>997.0</ele><time>2026-04-25T07:31:27.999Z</time></trkpt><trkpt lat="43.831802852966355" lon="11.60349705063679"><ele>997.0</ele><time>2026-04-25T07:31:29.999Z</time></trkpt><trkpt lat="43.83175290728853" lon="11.603572948926553"><ele>997.0</ele><time>2026-04-25T07:31:30.999Z</time></trkpt><trkpt lat="43.831684185728214" lon="11.603602197051359"><ele>996.9999999999999</ele><time>2026-04-25T07:31:31.999Z</time></trkpt><trkpt lat="43.8316045850433" lon="11.60363458499237"><ele>997.0</ele><time>2026-04-25T07:31:32.999Z</time></trkpt><trkpt lat="43.83148969013907" lon="11.603629420834473"><ele>995.75</ele><time>2026-04-25T07:31:33.999Z</time></trkpt><trkpt lat="43.83135521384986" lon="11.603643077443543"><ele>994.5</ele><time>2026-04-25T07:31:34.999Z</time></trkpt><trkpt lat="43.831227557394776" lon="11.603623643096823"><ele>993.25</ele><time>2026-04-25T07:31:35.999Z</time></trkpt><trkpt lat="43.83107791870552" lon="11.603632376466692"><ele>992.0</ele><time>2026-04-25T07:31:36.999Z</time></trkpt><trkpt lat="43.83095078055357" lon="11.603653496390654"><ele>992.0000000000001</ele><time>2026-04-25T07:31:37.999Z</time></trkpt><trkpt lat="43.83086442618821" lon="11.603660159223235"><ele>992.0</ele><time>2026-04-25T07:31:38.999Z</time></trkpt><trkpt lat="43.83078770455145" lon="11.60368024780589"><ele>992.0</ele><time>2026-04-25T07:31:40.999Z</time></trkpt><trkpt lat="43.830754304384435" lon="11.603771049713073"><ele>992.0</ele><time>2026-04-25T07:32:32Z</time></trkpt><trkpt lat="43.83072706270355" lon="11.603891818643287"><ele>992.0000000000001</ele><time>2026-04-25T07:32:34Z</time></trkpt><trkpt lat="43.83068056521264" lon="11.603797685792761"><ele>992.0</ele><time>2026-04-25T07:38:56Z</time></trkpt><trkpt lat="43.8307329970256" lon="11.603862793703666"><ele>992.0000000000001</ele><time>2026-04-25T07:39:09Z</time></trkpt><trkpt lat="43.830681282750376" lon="11.603933123050412"><ele>992.0</ele><time>2026-04-25T07:41:25Z</time></trkpt><trkpt lat="43.830642400884344" lon="11.6038581309398"><ele>992.0</ele><time>2026-04-25T07:41:28Z</time></trkpt><trkpt lat="43.83068494962656" lon="11.603771430429887"><ele>992.0</ele><time>2026-04-25T07:41:30Z</time></trkpt><trkpt lat="43.830644740150134" lon="11.603669347262741"><ele>992.0000000000001</ele><time>2026-04-25T07:41:32Z</time></trkpt><trkpt lat="43.830526857829454" lon="11.60359450129812"><ele>992.0</ele><time>2026-04-25T07:41:34Z</time></trkpt><trkpt lat="43.830457560947" lon="11.603448824464849"><ele>992.0</ele><time>2026-04-25T07:41:36Z</time></trkpt><trkpt lat="43.83040039569262" lon="11.603332780814588"><ele>992.0</ele><time>2026-04-25T07:41:37Z</time></trkpt><trkpt lat="43.83032653449384" lon="11.603229476152688"><ele>992.0</ele><time>2026-04-25T07:41:38Z</time></trkpt><trkpt lat="43.83028050655495" lon="11.60316001487907"><ele>992.0</ele><time>2026-04-25T07:41:39Z</time></trkpt><trkpt lat="43.830245481934526" lon="11.603085341144451"><ele>992.0</ele><time>2026-04-25T07:41:40Z</time></trkpt><trkpt lat="43.83017628294487" lon="11.602964425682512"><ele>993.0</ele><time>2026-04-25T07:41:42Z</time></trkpt><trkpt lat="43.83011947783892" lon="11.602849676276374"><ele>994.0</ele><time>2026-04-25T07:41:44Z</time></trkpt><trkpt lat="43.83004393192095" lon="11.602723734900076"><ele>995.0</ele><time>2026-04-25T07:41:46Z</time></trkpt><trkpt lat="43.8300056221503" lon="11.602654353396492"><ele>996.0</ele><time>2026-04-25T07:41:47Z</time></trkpt><trkpt lat="43.82990864363835" lon="11.602518131718496"><ele>997.0</ele><time>2026-04-25T07:41:49Z</time></trkpt><trkpt lat="43.829860106389376" lon="11.602445249030302"><ele>997.0</ele><time>2026-04-25T07:41:50Z</time></trkpt><trkpt lat="43.82980377959188" lon="11.60238975339085"><ele>997.0</ele><time>2026-04-25T07:41:51Z</time></trkpt><trkpt lat="43.82966417238497" lon="11.602411124596848"><ele>997.0</ele><time>2026-04-25T07:41:53Z</time></trkpt><trkpt lat="43.82962236701371" lon="11.602535835450231"><ele>997.0</ele><time>2026-04-25T07:41:55Z</time></trkpt><trkpt lat="43.8296427609992" lon="11.602637344987397"><ele>997.0</ele><time>2026-04-25T07:41:56Z</time></trkpt><trkpt lat="43.82967777325133" lon="11.602768158809372"><ele>997.0</ele><time>2026-04-25T07:41:58Z</time></trkpt><trkpt lat="43.8297354283847" lon="11.602868974814099"><ele>997.0</ele><time>2026-04-25T07:42:00Z</time></trkpt><trkpt lat="43.82973605706234" lon="11.603012493348949"><ele>997.0</ele><time>2026-04-25T07:42:02Z</time></trkpt><trkpt lat="43.829684419968004" lon="11.603228934260402"><ele>997.0</ele><time>2026-04-25T07:42:04Z</time></trkpt><trkpt lat="43.829621918372425" lon="11.603290314143575"><ele>997.0</ele><time>2026-04-25T07:42:05Z</time></trkpt><trkpt lat="43.829539454050085" lon="11.603316676578276"><ele>997.0</ele><time>2026-04-25T07:42:06Z</time></trkpt><trkpt lat="43.82943500685012" lon="11.603272372431082"><ele>997.0</ele><time>2026-04-25T07:42:07Z</time></trkpt><trkpt lat="43.82937832141757" lon="11.603176434594973"><ele>997.0</ele><time>2026-04-25T07:42:08Z</time></trkpt><trkpt lat="43.829342863721244" lon="11.603066177435789"><ele>997.0</ele><time>2026-04-25T07:42:09Z</time></trkpt><trkpt lat="43.82930266050014" lon="11.602956483462867"><ele>997.0</ele><time>2026-04-25T07:42:10Z</time></trkpt><trkpt lat="43.82927161230565" lon="11.602843954778336"><ele>999.8333333333333</ele><time>2026-04-25T07:42:11Z</time></trkpt><trkpt lat="43.82923109758466" lon="11.602710806978177"><ele>1002.6666666666666</ele><time>2026-04-25T07:42:12Z</time></trkpt><trkpt lat="43.82916996258246" lon="11.602619069550896"><ele>1005.5</ele><time>2026-04-25T07:42:13Z</time></trkpt><trkpt lat="43.829118622220975" lon="11.602554068192015"><ele>1008.3333333333333</ele><time>2026-04-25T07:42:14Z</time></trkpt><trkpt lat="43.829096851631434" lon="11.602468339198987"><ele>1011.1666666666666</ele><time>2026-04-25T07:42:15Z</time></trkpt><trkpt lat="43.82905778888825" lon="11.60236319231174"><ele>1014.0</ele><time>2026-04-25T07:42:16Z</time></trkpt><trkpt lat="43.82899244703318" lon="11.60229253901649"><ele>1014.0</ele><time>2026-04-25T07:42:17Z</time></trkpt><trkpt lat="43.82895179458552" lon="11.602206401297392"><ele>1014.0000000000001</ele><time>2026-04-25T07:42:18Z</time></trkpt><trkpt lat="43.828881117220064" lon="11.602108180258782"><ele>1014.0000000000001</ele><time>2026-04-25T07:42:19Z</time></trkpt><trkpt lat="43.828770754080224" lon="11.602025910155957"><ele>1014.0</ele><time>2026-04-25T07:42:21Z</time></trkpt><trkpt lat="43.82869798126688" lon="11.601947300286541"><ele>1014.0</ele><time>2026-04-25T07:42:22Z</time></trkpt><trkpt lat="43.82865225318573" lon="11.601856942778625"><ele>1013.1666666666666</ele><time>2026-04-25T07:42:23Z</time></trkpt><trkpt lat="43.82863099746592" lon="11.601735293875008"><ele>1012.3333333333333</ele><time>2026-04-25T07:42:24Z</time></trkpt><trkpt lat="43.82858175445047" lon="11.60161982343498"><ele>1011.5</ele><time>2026-04-25T07:42:25Z</time></trkpt><trkpt lat="43.82855109907001" lon="11.60151670251904"><ele>1010.6666666666666</ele><time>2026-04-25T07:42:26Z</time></trkpt><trkpt lat="43.82852231123716" lon="11.601430874865546"><ele>1009.8333333333333</ele><time>2026-04-25T07:42:27Z</time></trkpt><trkpt lat="43.828511405299814" lon="11.60134438926567"><ele>1009.0</ele><time>2026-04-25T07:42:28Z</time></trkpt><trkpt lat="43.82845210999771" lon="11.60125368221684"><ele>1011.8000000000001</ele><time>2026-04-25T07:42:30Z</time></trkpt><trkpt lat="43.82837156857673" lon="11.60113872296767"><ele>1014.6000000000001</ele><time>2026-04-25T07:42:32Z</time></trkpt><trkpt lat="43.82829179177852" lon="11.601104462348921"><ele>1017.4</ele><time>2026-04-25T07:42:34Z</time></trkpt><trkpt lat="43.82820076171362" lon="11.601049455900483"><ele>1020.2</ele><time>2026-04-25T07:42:36Z</time></trkpt><trkpt lat="43.828107497579" lon="11.60101948383585"><ele>1023.0</ele><time>2026-04-25T07:42:38Z</time></trkpt><trkpt lat="43.82804632703843" lon="11.600998802978705"><ele>1023.0</ele><time>2026-04-25T07:42:39Z</time></trkpt><trkpt lat="43.827966826522804" lon="11.600986568294141"><ele>1023.0</ele><time>2026-04-25T07:42:40Z</time></trkpt><trkpt lat="43.827882977450585" lon="11.601019294950124"><ele>1023.0</ele><time>2026-04-25T07:42:41Z</time></trkpt><trkpt lat="43.8277904880359" lon="11.601023884447562"><ele>1023.0</ele><time>2026-04-25T07:42:42Z</time></trkpt><trkpt lat="43.827714609505364" lon="11.601091694763529"><ele>1023.0</ele><time>2026-04-25T07:42:43Z</time></trkpt><trkpt lat="43.827632328947246" lon="11.601163480408292"><ele>1023.0</ele><time>2026-04-25T07:42:44Z</time></trkpt><trkpt lat="43.82756588263297" lon="11.601208679773446"><ele>1025.75</ele><time>2026-04-25T07:42:45Z</time></trkpt><trkpt lat="43.82746913761257" lon="11.601288816631877"><ele>1028.5</ele><time>2026-04-25T07:42:46Z</time></trkpt><trkpt lat="43.82738797418064" lon="11.601407826647987"><ele>1031.25</ele><time>2026-04-25T07:42:47Z</time></trkpt><trkpt lat="43.827297190650164" lon="11.601530714494508"><ele>1034.0</ele><time>2026-04-25T07:42:47.999Z</time></trkpt><trkpt lat="43.82722311555146" lon="11.601666526216347"><ele>1034.0</ele><time>2026-04-25T07:42:48.999Z</time></trkpt><trkpt lat="43.82717158269179" lon="11.601753396056182"><ele>1034.0</ele><time>2026-04-25T07:42:49.999Z</time></trkpt><trkpt lat="43.82710674926942" lon="11.601828988465899"><ele>1034.0</ele><time>2026-04-25T07:42:50.999Z</time></trkpt><trkpt lat="43.82703625426064" lon="11.601874720453587"><ele>1034.0</ele><time>2026-04-25T07:42:51.999Z</time></trkpt><trkpt lat="43.82696583259915" lon="11.601903713643159"><ele>1034.0</ele><time>2026-04-25T07:42:52.999Z</time></trkpt><trkpt lat="43.82689585327139" lon="11.601902436583318"><ele>1034.0</ele><time>2026-04-25T07:42:53.999Z</time></trkpt><trkpt lat="43.82681986916449" lon="11.601871201139986"><ele>1033.6000000000001</ele><time>2026-04-25T07:42:54.999Z</time></trkpt><trkpt lat="43.826735497074004" lon="11.601844328644127"><ele>1033.2</ele><time>2026-04-25T07:42:55.999Z</time></trkpt><trkpt lat="43.826653657204375" lon="11.601840605487514"><ele>1032.8000000000002</ele><time>2026-04-25T07:42:56.999Z</time></trkpt><trkpt lat="43.82650887428227" lon="11.601801732941782"><ele>1032.4</ele><time>2026-04-25T07:42:58.999Z</time></trkpt><trkpt lat="43.82641042137192" lon="11.601798696407188"><ele>1032.0</ele><time>2026-04-25T07:42:59.999Z</time></trkpt><trkpt lat="43.82632407560969" lon="11.60181786106646"><ele>1032.0</ele><time>2026-04-25T07:43:00.999Z</time></trkpt><trkpt lat="43.826252362466875" lon="11.60188423446403"><ele>1032.0</ele><time>2026-04-25T07:43:01.999Z</time></trkpt><trkpt lat="43.82618494160807" lon="11.60196235930108"><ele>1032.0</ele><time>2026-04-25T07:43:02.999Z</time></trkpt><trkpt lat="43.82612268550102" lon="11.60205513585718"><ele>1032.0</ele><time>2026-04-25T07:43:03.999Z</time></trkpt><trkpt lat="43.82605666411437" lon="11.60215810230793"><ele>1032.0</ele><time>2026-04-25T07:43:04.999Z</time></trkpt><trkpt lat="43.825983903709265" lon="11.602236140771726"><ele>1032.5</ele><time>2026-04-25T07:43:05.999Z</time></trkpt><trkpt lat="43.825898603573606" lon="11.602321343994968"><ele>1033.0</ele><time>2026-04-25T07:43:06.999Z</time></trkpt><trkpt lat="43.82580871577472" lon="11.602407207376473"><ele>1033.5</ele><time>2026-04-25T07:43:07.999Z</time></trkpt><trkpt lat="43.82573594747017" lon="11.602450869685885"><ele>1034.0</ele><time>2026-04-25T07:43:08.999Z</time></trkpt><trkpt lat="43.82566491663026" lon="11.602432209529827"><ele>1034.5</ele><time>2026-04-25T07:43:09.999Z</time></trkpt><trkpt lat="43.82559406242466" lon="11.6023837510315"><ele>1035.0</ele><time>2026-04-25T07:43:10.999Z</time></trkpt><trkpt lat="43.825531166004076" lon="11.60232770359118"><ele>1035.0</ele><time>2026-04-25T07:43:11.999Z</time></trkpt><trkpt lat="43.82547632772643" lon="11.602270056889678"><ele>1035.0</ele><time>2026-04-25T07:43:12.999Z</time></trkpt><trkpt lat="43.825426598125254" lon="11.60220433326596"><ele>1035.0</ele><time>2026-04-25T07:43:13.999Z</time></trkpt><trkpt lat="43.82537523994465" lon="11.602141647157202"><ele>1035.0</ele><time>2026-04-25T07:43:14.999Z</time></trkpt><trkpt lat="43.825333179931235" lon="11.602075378591946"><ele>1035.0</ele><time>2026-04-25T07:43:15.999Z</time></trkpt><trkpt lat="43.82528358919679" lon="11.602002802208478"><ele>1035.0</ele><time>2026-04-25T07:43:16.999Z</time></trkpt><trkpt lat="43.825233760391704" lon="11.60190788524703"><ele>1035.0</ele><time>2026-04-25T07:43:18Z</time></trkpt><trkpt lat="43.825172819959114" lon="11.601834048401724"><ele>1035.8333333333333</ele><time>2026-04-25T07:43:19Z</time></trkpt><trkpt lat="43.82510490830606" lon="11.601737652555762"><ele>1036.6666666666667</ele><time>2026-04-25T07:43:20Z</time></trkpt><trkpt lat="43.82503123204627" lon="11.601680172102395"><ele>1037.5</ele><time>2026-04-25T07:43:21Z</time></trkpt><trkpt lat="43.824954552880456" lon="11.60165275535778"><ele>1038.3333333333335</ele><time>2026-04-25T07:43:22Z</time></trkpt><trkpt lat="43.82486206515446" lon="11.601635381782005"><ele>1039.1666666666667</ele><time>2026-04-25T07:43:23Z</time></trkpt><trkpt lat="43.82479109181154" lon="11.601610747665376"><ele>1040.0</ele><time>2026-04-25T07:43:24Z</time></trkpt><trkpt lat="43.82466489109845" lon="11.601508508061071"><ele>1040.0</ele><time>2026-04-25T07:43:26Z</time></trkpt><trkpt lat="43.82459695109597" lon="11.60147209308899"><ele>1040.0</ele><time>2026-04-25T07:43:27Z</time></trkpt><trkpt lat="43.82448164897271" lon="11.601361835001313"><ele>1040.0</ele><time>2026-04-25T07:43:29Z</time></trkpt><trkpt lat="43.82440058047529" lon="11.601314372520246"><ele>1040.0</ele><time>2026-04-25T07:43:30Z</time></trkpt><trkpt lat="43.824327020717774" lon="11.601284867929317"><ele>1040.0</ele><time>2026-04-25T07:43:31Z</time></trkpt><trkpt lat="43.824223921729946" lon="11.601223585484998"><ele>1040.3333333333335</ele><time>2026-04-25T07:43:32Z</time></trkpt><trkpt lat="43.82412760430444" lon="11.601173578929183"><ele>1040.6666666666667</ele><time>2026-04-25T07:43:33Z</time></trkpt><trkpt lat="43.824026697051096" lon="11.60114503370007"><ele>1041.0</ele><time>2026-04-25T07:43:37Z</time></trkpt><trkpt lat="43.823963978050195" lon="11.601104805020988"><ele>1041.3333333333333</ele><time>2026-04-25T07:43:38Z</time></trkpt><trkpt lat="43.82391139568043" lon="11.601044641594802"><ele>1041.6666666666665</ele><time>2026-04-25T07:43:39Z</time></trkpt><trkpt lat="43.82385753222838" lon="11.600982074176782"><ele>1042.0</ele><time>2026-04-25T07:43:40Z</time></trkpt><trkpt lat="43.82379918048278" lon="11.600937709169514"><ele>1042.0</ele><time>2026-04-25T07:43:41Z</time></trkpt><trkpt lat="43.823686794974535" lon="11.60097080710812"><ele>1042.0</ele><time>2026-04-25T07:43:43Z</time></trkpt><trkpt lat="43.82362854085776" lon="11.600835717228813"><ele>1042.0</ele><time>2026-04-25T07:43:47Z</time></trkpt><trkpt lat="43.82332948734714" lon="11.600597566253564"><ele>1041.7142857142858</ele><time>2026-04-25T07:43:49Z</time></trkpt><trkpt lat="43.82326497623859" lon="11.600567375914299"><ele>1041.4285714285716</ele><time>2026-04-25T07:43:50Z</time></trkpt><trkpt lat="43.823203452075525" lon="11.600519922261396"><ele>1041.1428571428573</ele><time>2026-04-25T07:43:51Z</time></trkpt><trkpt lat="43.823143047570134" lon="11.60047956887993"><ele>1040.857142857143</ele><time>2026-04-25T07:43:52Z</time></trkpt><trkpt lat="43.82307703075548" lon="11.600454966982879"><ele>1040.5714285714287</ele><time>2026-04-25T07:43:53Z</time></trkpt><trkpt lat="43.82301698637587" lon="11.60041657601921"><ele>1040.2857142857144</ele><time>2026-04-25T07:43:54Z</time></trkpt><trkpt lat="43.82295575908701" lon="11.600383385121033"><ele>1040.0</ele><time>2026-04-25T07:43:55Z</time></trkpt><trkpt lat="43.82286481193643" lon="11.600322841228534"><ele>1040.6666666666667</ele><time>2026-04-25T07:43:57Z</time></trkpt><trkpt lat="43.822789838433145" lon="11.600256009887929"><ele>1041.3333333333335</ele><time>2026-04-25T07:43:59Z</time></trkpt><trkpt lat="43.82274635026701" lon="11.600186453148675"><ele>1042.0</ele><time>2026-04-25T07:44:02Z</time></trkpt><trkpt lat="43.82267363856558" lon="11.600115415986389"><ele>1042.6666666666667</ele><time>2026-04-25T07:44:04Z</time></trkpt><trkpt lat="43.822600713776566" lon="11.600085771131546"><ele>1043.3333333333333</ele><time>2026-04-25T07:44:06Z</time></trkpt><trkpt lat="43.822526179098155" lon="11.600079454156075"><ele>1044.0</ele><time>2026-04-25T07:44:08Z</time></trkpt><trkpt lat="43.82242720612646" lon="11.600025984242013"><ele>1044.0</ele><time>2026-04-25T07:44:10Z</time></trkpt><trkpt lat="43.822355072656855" lon="11.599961085239974"><ele>1044.0</ele><time>2026-04-25T07:44:12Z</time></trkpt><trkpt lat="43.82227533947184" lon="11.599901411937903"><ele>1044.0</ele><time>2026-04-25T07:44:14Z</time></trkpt><trkpt lat="43.82218824824897" lon="11.599849855076931"><ele>1044.0</ele><time>2026-04-25T07:44:17Z</time></trkpt><trkpt lat="43.82211151914367" lon="11.599791586064441"><ele>1044.0</ele><time>2026-04-25T07:44:19Z</time></trkpt><trkpt lat="43.82204007375067" lon="11.599729300036515"><ele>1044.0</ele><time>2026-04-25T07:44:21Z</time></trkpt><trkpt lat="43.82198149152325" lon="11.599692117217288"><ele>1044.0</ele><time>2026-04-25T07:44:22Z</time></trkpt><trkpt lat="43.8219553423451" lon="11.599593866398248"><ele>1044.0</ele><time>2026-04-25T07:44:24Z</time></trkpt><trkpt lat="43.821926436483494" lon="11.599476202382867"><ele>1044.0</ele><time>2026-04-25T07:44:27Z</time></trkpt><trkpt lat="43.82186033648105" lon="11.599307582288398"><ele>1044.0</ele><time>2026-04-25T07:44:30Z</time></trkpt><trkpt lat="43.82181816754549" lon="11.599241476023144"><ele>1044.0</ele><time>2026-04-25T07:44:31Z</time></trkpt><trkpt lat="43.82175496219761" lon="11.599138901705647"><ele>1045.6000000000001</ele><time>2026-04-25T07:44:33Z</time></trkpt><trkpt lat="43.821665766184914" lon="11.599106224723446"><ele>1047.2</ele><time>2026-04-25T07:44:35Z</time></trkpt><trkpt lat="43.82156324582604" lon="11.599109709060867"><ele>1048.8000000000002</ele><time>2026-04-25T07:44:37Z</time></trkpt><trkpt lat="43.821473975559144" lon="11.599147351633084"><ele>1050.4</ele><time>2026-04-25T07:44:40Z</time></trkpt><trkpt lat="43.821393719773276" lon="11.599190383631335"><ele>1052.0</ele><time>2026-04-25T07:44:42Z</time></trkpt><trkpt lat="43.82130616457413" lon="11.599224349758531"><ele>1052.0</ele><time>2026-04-25T07:44:44Z</time></trkpt><trkpt lat="43.82124283154513" lon="11.599258543411915"><ele>1052.0</ele><time>2026-04-25T07:44:45Z</time></trkpt><trkpt lat="43.82117709633581" lon="11.599270792503402"><ele>1052.0</ele><time>2026-04-25T07:44:46Z</time></trkpt><trkpt lat="43.82107038864567" lon="11.599317253851495"><ele>1052.0</ele><time>2026-04-25T07:44:48Z</time></trkpt><trkpt lat="43.82100701573334" lon="11.599351136389068"><ele>1052.0</ele><time>2026-04-25T07:44:49Z</time></trkpt><trkpt lat="43.82094004051393" lon="11.59937427124753"><ele>1052.0</ele><time>2026-04-25T07:44:50Z</time></trkpt><trkpt lat="43.82082326942133" lon="11.599439612846739"><ele>1051.6666666666667</ele><time>2026-04-25T07:44:52Z</time></trkpt><trkpt lat="43.8207586644958" lon="11.599466832022449"><ele>1051.3333333333335</ele><time>2026-04-25T07:44:53Z</time></trkpt><trkpt lat="43.82066267790762" lon="11.599499108673735"><ele>1051.0</ele><time>2026-04-25T07:44:55Z</time></trkpt><trkpt lat="43.820580050376016" lon="11.599533256261859"><ele>1050.6666666666667</ele><time>2026-04-25T07:44:57Z</time></trkpt><trkpt lat="43.820490913981416" lon="11.599566287189377"><ele>1050.3333333333333</ele><time>2026-04-25T07:44:58.999Z</time></trkpt><trkpt lat="43.82042215745012" lon="11.59958271542607"><ele>1050.0</ele><time>2026-04-25T07:44:59.999Z</time></trkpt><trkpt lat="43.82033892526812" lon="11.599606453217445"><ele>1050.6666666666667</ele><time>2026-04-25T07:45:01.999Z</time></trkpt><trkpt lat="43.82025379303173" lon="11.599595073792107"><ele>1051.3333333333333</ele><time>2026-04-25T07:45:04.999Z</time></trkpt><trkpt lat="43.820179715090276" lon="11.599581459875527"><ele>1052.0</ele><time>2026-04-25T07:45:06.999Z</time></trkpt><trkpt lat="43.82014005881541" lon="11.5994595344033"><ele>1052.6666666666665</ele><time>2026-04-25T07:45:08.999Z</time></trkpt><trkpt lat="43.82010016216477" lon="11.599361815735557"><ele>1053.3333333333333</ele><time>2026-04-25T07:45:10.999Z</time></trkpt><trkpt lat="43.82006173203052" lon="11.59928676444008"><ele>1054.0</ele><time>2026-04-25T07:45:12.999Z</time></trkpt><trkpt lat="43.82003072736353" lon="11.599210413023034"><ele>1054.0</ele><time>2026-04-25T07:45:13.999Z</time></trkpt><trkpt lat="43.8199763636529" lon="11.599102625727602"><ele>1054.0</ele><time>2026-04-25T07:45:15.999Z</time></trkpt><trkpt lat="43.81991841312836" lon="11.598996141236013"><ele>1054.0</ele><time>2026-04-25T07:45:17.999Z</time></trkpt><trkpt lat="43.819890439941304" lon="11.598897321111991"><ele>1054.0</ele><time>2026-04-25T07:45:19.999Z</time></trkpt><trkpt lat="43.81983973412669" lon="11.598757077912602"><ele>1054.0</ele><time>2026-04-25T07:45:21.999Z</time></trkpt><trkpt lat="43.81979394022374" lon="11.59863276528719"><ele>1051.6000000000001</ele><time>2026-04-25T07:45:24Z</time></trkpt><trkpt lat="43.81975874330224" lon="11.598519332856814"><ele>1049.2</ele><time>2026-04-25T07:45:26Z</time></trkpt><trkpt lat="43.819706476373675" lon="11.598378029802676"><ele>1046.8000000000002</ele><time>2026-04-25T07:45:28Z</time></trkpt><trkpt lat="43.81967435664995" lon="11.598288720409553"><ele>1044.4</ele><time>2026-04-25T07:45:29Z</time></trkpt><trkpt lat="43.81964762027001" lon="11.59816340005099"><ele>1042.0</ele><time>2026-04-25T07:45:31Z</time></trkpt><trkpt lat="43.81960676919104" lon="11.598062341986383"><ele>1042.0</ele><time>2026-04-25T07:45:33Z</time></trkpt><trkpt lat="43.819551006208705" lon="11.597948302378324"><ele>1042.0</ele><time>2026-04-25T07:45:35Z</time></trkpt><trkpt lat="43.8194846480787" lon="11.597856820311879"><ele>1042.0</ele><time>2026-04-25T07:45:37Z</time></trkpt><trkpt lat="43.819410227665855" lon="11.597810611316737"><ele>1042.0</ele><time>2026-04-25T07:45:39Z</time></trkpt><trkpt lat="43.819329788181875" lon="11.597750345322178"><ele>1042.0</ele><time>2026-04-25T07:45:41Z</time></trkpt><trkpt lat="43.819245982228125" lon="11.597716611707137"><ele>1041.8</ele><time>2026-04-25T07:45:43Z</time></trkpt><trkpt lat="43.819171895458204" lon="11.597682847418833"><ele>1041.6</ele><time>2026-04-25T07:45:45Z</time></trkpt><trkpt lat="43.81905976908315" lon="11.597689879541193"><ele>1041.3999999999999</ele><time>2026-04-25T07:45:47Z</time></trkpt><trkpt lat="43.81897280225343" lon="11.597730299276892"><ele>1041.2</ele><time>2026-04-25T07:45:49Z</time></trkpt><trkpt lat="43.81889197062407" lon="11.597827839630627"><ele>1041.0</ele><time>2026-04-25T07:45:51Z</time></trkpt><trkpt lat="43.818825272946476" lon="11.59788958138581"><ele>1042.6</ele><time>2026-04-25T07:45:52Z</time></trkpt><trkpt lat="43.81869282544172" lon="11.59797368848413"><ele>1044.1999999999998</ele><time>2026-04-25T07:45:54Z</time></trkpt><trkpt lat="43.81862237763586" lon="11.598020675476333"><ele>1045.8000000000002</ele><time>2026-04-25T07:45:55Z</time></trkpt><trkpt lat="43.81854887637568" lon="11.598074154511124"><ele>1047.4</ele><time>2026-04-25T07:45:56Z</time></trkpt><trkpt lat="43.818472868143324" lon="11.598102601974697"><ele>1049.0</ele><time>2026-04-25T07:45:57Z</time></trkpt><trkpt lat="43.8183944007103" lon="11.59814474693795"><ele>1046.3333333333335</ele><time>2026-04-25T07:45:58Z</time></trkpt><trkpt lat="43.81831252440876" lon="11.598173785862619"><ele>1043.6666666666667</ele><time>2026-04-25T07:45:59Z</time></trkpt><trkpt lat="43.81824997230032" lon="11.598216344540731"><ele>1041.0</ele><time>2026-04-25T07:46:00Z</time></trkpt><trkpt lat="43.81816835967265" lon="11.59825441203935"><ele>1038.3333333333333</ele><time>2026-04-25T07:46:01Z</time></trkpt><trkpt lat="43.81810188706489" lon="11.598265693685258"><ele>1035.6666666666665</ele><time>2026-04-25T07:46:02Z</time></trkpt><trkpt lat="43.81802153791571" lon="11.598307238542558"><ele>1033.0</ele><time>2026-04-25T07:46:03Z</time></trkpt><trkpt lat="43.81794458688969" lon="11.598322790890393"><ele>1033.0</ele><time>2026-04-25T07:46:04Z</time></trkpt><trkpt lat="43.81784898613812" lon="11.598328865435073"><ele>1033.0</ele><time>2026-04-25T07:46:05Z</time></trkpt><trkpt lat="43.817722583834374" lon="11.598310749591418"><ele>1033.0</ele><time>2026-04-25T07:46:06Z</time></trkpt><trkpt lat="43.81758785007815" lon="11.598323444074353"><ele>1033.0</ele><time>2026-04-25T07:46:07Z</time></trkpt><trkpt lat="43.81745822433141" lon="11.598375954529413"><ele>1031.6</ele><time>2026-04-25T07:46:08Z</time></trkpt><trkpt lat="43.81735597554035" lon="11.598397333043522"><ele>1030.1999999999998</ele><time>2026-04-25T07:46:09Z</time></trkpt><trkpt lat="43.81724827727003" lon="11.598395362630887"><ele>1028.8</ele><time>2026-04-25T07:46:10Z</time></trkpt><trkpt lat="43.81718420937066" lon="11.598357275812152"><ele>1027.3999999999999</ele><time>2026-04-25T07:46:11Z</time></trkpt><trkpt lat="43.817100051425705" lon="11.598307473891396"><ele>1026.0</ele><time>2026-04-25T07:46:12Z</time></trkpt><trkpt lat="43.817001058568444" lon="11.598268700946175"><ele>1026.0</ele><time>2026-04-25T07:46:13Z</time></trkpt><trkpt lat="43.81691340122899" lon="11.598234025962311"><ele>1026.0</ele><time>2026-04-25T07:46:14Z</time></trkpt><trkpt lat="43.8168265164606" lon="11.59820788412977"><ele>1026.0</ele><time>2026-04-25T07:46:15Z</time></trkpt><trkpt lat="43.816743723500956" lon="11.59818062566315"><ele>1026.0</ele><time>2026-04-25T07:46:16Z</time></trkpt><trkpt lat="43.8166616347978" lon="11.598139797330285"><ele>1026.0</ele><time>2026-04-25T07:46:17Z</time></trkpt><trkpt lat="43.81658150329063" lon="11.598104407128389"><ele>1026.0</ele><time>2026-04-25T07:46:18Z</time></trkpt><trkpt lat="43.81649732918446" lon="11.598078899093517"><ele>1025.8333333333333</ele><time>2026-04-25T07:46:19Z</time></trkpt><trkpt lat="43.81641514981748" lon="11.59806388657642"><ele>1025.6666666666667</ele><time>2026-04-25T07:46:20Z</time></trkpt><trkpt lat="43.8163353899691" lon="11.59804526525919"><ele>1025.5</ele><time>2026-04-25T07:46:21Z</time></trkpt><trkpt lat="43.81625100834135" lon="11.59801392744676"><ele>1025.3333333333335</ele><time>2026-04-25T07:46:22Z</time></trkpt><trkpt lat="43.81616260776638" lon="11.597975599996186"><ele>1025.1666666666667</ele><time>2026-04-25T07:46:23Z</time></trkpt><trkpt lat="43.81607879079682" lon="11.59794171246029"><ele>1025.0</ele><time>2026-04-25T07:46:24Z</time></trkpt><trkpt lat="43.816004031787244" lon="11.59790601765583"><ele>1024.1666666666667</ele><time>2026-04-25T07:46:25Z</time></trkpt><trkpt lat="43.81590426854725" lon="11.597886692181158"><ele>1023.3333333333334</ele><time>2026-04-25T07:46:26Z</time></trkpt><trkpt lat="43.815821171840184" lon="11.597892113381606"><ele>1022.5</ele><time>2026-04-25T07:46:27Z</time></trkpt><trkpt lat="43.815735371838656" lon="11.597906647434462"><ele>1021.6666666666667</ele><time>2026-04-25T07:46:28Z</time></trkpt><trkpt lat="43.8156564347058" lon="11.597904681399337"><ele>1020.8333333333334</ele><time>2026-04-25T07:46:29Z</time></trkpt><trkpt lat="43.815571924296066" lon="11.597923695849435"><ele>1020.0</ele><time>2026-04-25T07:46:30Z</time></trkpt><trkpt lat="43.81546397215902" lon="11.597928331344239"><ele>1020.0</ele><time>2026-04-25T07:46:31Z</time></trkpt><trkpt lat="43.815344924160186" lon="11.597958446501105"><ele>1020.0</ele><time>2026-04-25T07:46:32Z</time></trkpt><trkpt lat="43.815252305979485" lon="11.59795703602907"><ele>1020.0</ele><time>2026-04-25T07:46:33Z</time></trkpt><trkpt lat="43.81518630736187" lon="11.597948018268957"><ele>1020.0</ele><time>2026-04-25T07:46:34Z</time></trkpt><trkpt lat="43.81512312296645" lon="11.597961136067383"><ele>1020.0</ele><time>2026-04-25T07:46:35Z</time></trkpt><trkpt lat="43.81504826240349" lon="11.597989943081217"><ele>1020.0</ele><time>2026-04-25T07:46:36Z</time></trkpt><trkpt lat="43.814977027962236" lon="11.598016563102645"><ele>1018.6666666666666</ele><time>2026-04-25T07:46:37Z</time></trkpt><trkpt lat="43.81489392285544" lon="11.598062345841763"><ele>1017.3333333333333</ele><time>2026-04-25T07:46:38Z</time></trkpt><trkpt lat="43.814822153669056" lon="11.598111068228295"><ele>1016.0</ele><time>2026-04-25T07:46:39Z</time></trkpt><trkpt lat="43.81475447630815" lon="11.598167787015635"><ele>1014.6666666666666</ele><time>2026-04-25T07:46:40Z</time></trkpt><trkpt lat="43.81470389247308" lon="11.598254535112119"><ele>1013.3333333333333</ele><time>2026-04-25T07:46:41Z</time></trkpt><trkpt lat="43.8146559954264" lon="11.598384442704555"><ele>1012.0</ele><time>2026-04-25T07:46:42Z</time></trkpt><trkpt lat="43.814636471584684" lon="11.598522853360173"><ele>1011.9999999999999</ele><time>2026-04-25T07:46:43Z</time></trkpt><trkpt lat="43.81462587121755" lon="11.59864787343831"><ele>1012.0</ele><time>2026-04-25T07:46:44Z</time></trkpt><trkpt lat="43.81461450689074" lon="11.598764890824906"><ele>1012.0</ele><time>2026-04-25T07:46:45Z</time></trkpt><trkpt lat="43.81461835912514" lon="11.598881686632508"><ele>1012.0</ele><time>2026-04-25T07:46:46Z</time></trkpt><trkpt lat="43.81461162634188" lon="11.598990809437206"><ele>1011.9999999999999</ele><time>2026-04-25T07:46:47Z</time></trkpt><trkpt lat="43.81460627983505" lon="11.599100240222866"><ele>1012.0</ele><time>2026-04-25T07:46:48Z</time></trkpt><trkpt lat="43.814581154361306" lon="11.599206292259213"><ele>1012.2</ele><time>2026-04-25T07:46:49Z</time></trkpt><trkpt lat="43.81458318750647" lon="11.599304187819294"><ele>1012.4000000000001</ele><time>2026-04-25T07:46:50Z</time></trkpt><trkpt lat="43.8145726210354" lon="11.599397931148053"><ele>1012.5999999999999</ele><time>2026-04-25T07:46:51Z</time></trkpt><trkpt lat="43.814549183119915" lon="11.599489618416658"><ele>1012.8</ele><time>2026-04-25T07:46:52Z</time></trkpt><trkpt lat="43.81452136789449" lon="11.599651651503645"><ele>1013.0</ele><time>2026-04-25T07:46:54Z</time></trkpt><trkpt lat="43.814486078267954" lon="11.599814958703487"><ele>1012.6666666666667</ele><time>2026-04-25T07:46:56Z</time></trkpt><trkpt lat="43.81446217814572" lon="11.599903577152462"><ele>1012.3333333333334</ele><time>2026-04-25T07:46:57Z</time></trkpt><trkpt lat="43.81444654132241" lon="11.599992218134592"><ele>1012.0</ele><time>2026-04-25T07:46:57.999Z</time></trkpt><trkpt lat="43.81439312208384" lon="11.600063922258611"><ele>1011.6666666666667</ele><time>2026-04-25T07:46:58.999Z</time></trkpt><trkpt lat="43.81434861685809" lon="11.600146514899125"><ele>1011.3333333333334</ele><time>2026-04-25T07:46:59.999Z</time></trkpt><trkpt lat="43.81429812953354" lon="11.600236091058411"><ele>1011.0</ele><time>2026-04-25T07:47:00.999Z</time></trkpt><trkpt lat="43.814252995509584" lon="11.600347770709472"><ele>1009.5</ele><time>2026-04-25T07:47:01.999Z</time></trkpt><trkpt lat="43.81420898939335" lon="11.600438365869522"><ele>1008.0</ele><time>2026-04-25T07:47:02.999Z</time></trkpt><trkpt lat="43.814177790379695" lon="11.600518864862948"><ele>1006.5</ele><time>2026-04-25T07:47:05.999Z</time></trkpt><trkpt lat="43.814131105115194" lon="11.600636977451355"><ele>1005.0</ele><time>2026-04-25T07:47:07.999Z</time></trkpt><trkpt lat="43.81409318697732" lon="11.600724304808873"><ele>1003.5</ele><time>2026-04-25T07:47:08.999Z</time></trkpt><trkpt lat="43.81405187138929" lon="11.60082404529255"><ele>1002.0</ele><time>2026-04-25T07:47:09.999Z</time></trkpt><trkpt lat="43.81401424805108" lon="11.60091136617203"><ele>1002.0</ele><time>2026-04-25T07:47:10.999Z</time></trkpt><trkpt lat="43.81397237664493" lon="11.601007350538925"><ele>1002.0</ele><time>2026-04-25T07:47:11.999Z</time></trkpt><trkpt lat="43.813922296567924" lon="11.601107858345426"><ele>1002.0</ele><time>2026-04-25T07:47:12.999Z</time></trkpt><trkpt lat="43.8138714726525" lon="11.60120574589262"><ele>1002.0</ele><time>2026-04-25T07:47:13.999Z</time></trkpt><trkpt lat="43.81382433394461" lon="11.601294208362534"><ele>1002.0</ele><time>2026-04-25T07:47:14.999Z</time></trkpt><trkpt lat="43.81377844102724" lon="11.601380434548558"><ele>1002.0</ele><time>2026-04-25T07:47:15.999Z</time></trkpt><trkpt lat="43.813733235176095" lon="11.6014653696018"><ele>1001.25</ele><time>2026-04-25T07:47:16.999Z</time></trkpt><trkpt lat="43.81369032579437" lon="11.601545990090198"><ele>1000.5</ele><time>2026-04-25T07:47:17.999Z</time></trkpt><trkpt lat="43.813642637158495" lon="11.601635592290135"><ele>999.75</ele><time>2026-04-25T07:47:18.999Z</time></trkpt><trkpt lat="43.81360405543278" lon="11.601722059655193"><ele>999.0</ele><time>2026-04-25T07:47:19.999Z</time></trkpt><trkpt lat="43.81383524508085" lon="11.60214960648926"><ele>1000.0</ele><time>2026-04-25T07:47:21.999Z</time></trkpt><trkpt lat="43.81382067741564" lon="11.602266351470115"><ele>1001.0</ele><time>2026-04-25T07:47:22.999Z</time></trkpt><trkpt lat="43.8137977504902" lon="11.602382424773632"><ele>1002.0</ele><time>2026-04-25T07:47:23.999Z</time></trkpt><trkpt lat="43.813803160687264" lon="11.602484928711903"><ele>1003.0</ele><time>2026-04-25T07:47:24.999Z</time></trkpt><trkpt lat="43.81382944357927" lon="11.602573801343057"><ele>1004.0</ele><time>2026-04-25T07:47:25.999Z</time></trkpt><trkpt lat="43.81387637301555" lon="11.602656455786745"><ele>1005.0</ele><time>2026-04-25T07:47:26.999Z</time></trkpt><trkpt lat="43.813911269986505" lon="11.602750156020537"><ele>1005.8333333333334</ele><time>2026-04-25T07:47:27.999Z</time></trkpt><trkpt lat="43.81392495249091" lon="11.602911760904204"><ele>1006.6666666666667</ele><time>2026-04-25T07:47:30Z</time></trkpt><trkpt lat="43.81391068216593" lon="11.603013048071702"><ele>1007.5</ele><time>2026-04-25T07:47:31Z</time></trkpt><trkpt lat="43.813885947740296" lon="11.603110677873522"><ele>1008.3333333333334</ele><time>2026-04-25T07:47:32Z</time></trkpt><trkpt lat="43.81384665657957" lon="11.603210878851867"><ele>1009.1666666666667</ele><time>2026-04-25T07:47:33Z</time></trkpt><trkpt lat="43.81381330885499" lon="11.603285392358654"><ele>1010.0</ele><time>2026-04-25T07:47:34Z</time></trkpt><trkpt lat="43.81376280663419" lon="11.603344489484723"><ele>1010.0</ele><time>2026-04-25T07:47:35Z</time></trkpt><trkpt lat="43.81369765087304" lon="11.603423747610108"><ele>1010.0</ele><time>2026-04-25T07:47:36Z</time></trkpt><trkpt lat="43.81362173089461" lon="11.603482172806364"><ele>1010.0</ele><time>2026-04-25T07:47:37Z</time></trkpt><trkpt lat="43.81355121262585" lon="11.603529942566793"><ele>1010.0</ele><time>2026-04-25T07:47:38Z</time></trkpt><trkpt lat="43.8134287182806" lon="11.603591337882019"><ele>1010.0</ele><time>2026-04-25T07:47:40Z</time></trkpt><trkpt lat="43.81334297912681" lon="11.603656278713943"><ele>1010.3333333333334</ele><time>2026-04-25T07:47:41Z</time></trkpt><trkpt lat="43.81327120501404" lon="11.60371885852549"><ele>1010.6666666666667</ele><time>2026-04-25T07:47:42Z</time></trkpt><trkpt lat="43.813200014818065" lon="11.603776422433977"><ele>1011.0</ele><time>2026-04-25T07:47:43Z</time></trkpt><trkpt lat="43.8131085566671" lon="11.603839383660883"><ele>1011.3333333333333</ele><time>2026-04-25T07:47:44Z</time></trkpt><trkpt lat="43.81302888673872" lon="11.60388348800092"><ele>1011.6666666666666</ele><time>2026-04-25T07:47:45Z</time></trkpt><trkpt lat="43.8129631807791" lon="11.603926861534266"><ele>1012.0</ele><time>2026-04-25T07:47:46Z</time></trkpt><trkpt lat="43.812895729290425" lon="11.603964397378306"><ele>1012.0</ele><time>2026-04-25T07:47:47Z</time></trkpt><trkpt lat="43.81277078989231" lon="11.604034370000074"><ele>1012.0</ele><time>2026-04-25T07:47:49Z</time></trkpt><trkpt lat="43.81266355308264" lon="11.604042245909223"><ele>1012.0</ele><time>2026-04-25T07:47:51Z</time></trkpt><trkpt lat="43.812574317253144" lon="11.603993571104263"><ele>1012.0</ele><time>2026-04-25T07:47:53Z</time></trkpt><trkpt lat="43.81246454707191" lon="11.60394037703568"><ele>1011.6666666666666</ele><time>2026-04-25T07:47:55Z</time></trkpt><trkpt lat="43.81233489638535" lon="11.60390106377539"><ele>1011.3333333333333</ele><time>2026-04-25T07:47:57Z</time></trkpt><trkpt lat="43.81226694343653" lon="11.603871572583335"><ele>1011.0</ele><time>2026-04-25T07:47:58Z</time></trkpt><trkpt lat="43.81220619370731" lon="11.603843289374737"><ele>1010.6666666666667</ele><time>2026-04-25T07:47:59Z</time></trkpt><trkpt lat="43.81212928632769" lon="11.60380212549561"><ele>1010.3333333333334</ele><time>2026-04-25T07:48:01Z</time></trkpt><trkpt lat="43.812047337953594" lon="11.603767029162062"><ele>1010.0</ele><time>2026-04-25T07:48:04Z</time></trkpt><trkpt lat="43.81201988405832" lon="11.603682188542315"><ele>1009.1666666666667</ele><time>2026-04-25T07:48:06Z</time></trkpt><trkpt lat="43.81204560762312" lon="11.60358409951866"><ele>1008.3333333333334</ele><time>2026-04-25T07:48:08Z</time></trkpt><trkpt lat="43.81209176244832" lon="11.60348604792476"><ele>1007.5</ele><time>2026-04-25T07:48:10Z</time></trkpt><trkpt lat="43.81208956021513" lon="11.603393549623057"><ele>1006.6666666666667</ele><time>2026-04-25T07:48:12Z</time></trkpt><trkpt lat="43.81203199894934" lon="11.603353741717562"><ele>1005.8333333333334</ele><time>2026-04-25T07:48:15Z</time></trkpt><trkpt lat="43.81194205399058" lon="11.603377951426973"><ele>1005.0</ele><time>2026-04-25T07:48:18Z</time></trkpt><trkpt lat="43.81179429554076" lon="11.603475664535784"><ele>1004.6</ele><time>2026-04-25T07:48:21Z</time></trkpt><trkpt lat="43.811700869004305" lon="11.60361539391901"><ele>1004.2</ele><time>2026-04-25T07:48:23Z</time></trkpt><trkpt lat="43.81165327632215" lon="11.603712589216743"><ele>1003.8</ele><time>2026-04-25T07:48:24Z</time></trkpt><trkpt lat="43.81156839548944" lon="11.603748641939077"><ele>1003.4</ele><time>2026-04-25T07:48:25Z</time></trkpt><trkpt lat="43.81150778874889" lon="11.603827909413791"><ele>1003.0</ele><time>2026-04-25T07:48:26Z</time></trkpt><trkpt lat="43.81145120638238" lon="11.603901913292624"><ele>1002.9999999999999</ele><time>2026-04-25T07:48:27Z</time></trkpt><trkpt lat="43.81139270639498" lon="11.603978425185513"><ele>1003.0</ele><time>2026-04-25T07:48:28Z</time></trkpt><trkpt lat="43.811336409024605" lon="11.604051614168867"><ele>1003.0</ele><time>2026-04-25T07:48:29Z</time></trkpt><trkpt lat="43.81128001932778" lon="11.604124642850477"><ele>1003.0</ele><time>2026-04-25T07:48:30Z</time></trkpt><trkpt lat="43.811225216263836" lon="11.604195616650516"><ele>1002.9999999999999</ele><time>2026-04-25T07:48:31Z</time></trkpt><trkpt lat="43.81117160118472" lon="11.604291910587634"><ele>1003.0</ele><time>2026-04-25T07:48:32Z</time></trkpt><trkpt lat="43.8110916747758" lon="11.604369981630882"><ele>1002.9999999999999</ele><time>2026-04-25T07:48:33Z</time></trkpt><trkpt lat="43.811025127823804" lon="11.604451486572822"><ele>1003.0</ele><time>2026-04-25T07:48:34Z</time></trkpt><trkpt lat="43.810969164567005" lon="11.604550570815775"><ele>1003.0</ele><time>2026-04-25T07:48:35Z</time></trkpt><trkpt lat="43.810910102979605" lon="11.604639869450295"><ele>1003.0</ele><time>2026-04-25T07:48:36Z</time></trkpt><trkpt lat="43.81084769251895" lon="11.604720448118304"><ele>1002.9999999999999</ele><time>2026-04-25T07:48:37Z</time></trkpt><trkpt lat="43.81078192827584" lon="11.604792993393698"><ele>1003.0</ele><time>2026-04-25T07:48:38Z</time></trkpt><trkpt lat="43.81070905748607" lon="11.604868866541825"><ele>1000.9999999999999</ele><time>2026-04-25T07:48:39Z</time></trkpt><trkpt lat="43.81064765621299" lon="11.604957194567396"><ele>999.0</ele><time>2026-04-25T07:48:40Z</time></trkpt><trkpt lat="43.810593547863" lon="11.605046049075721"><ele>997.0</ele><time>2026-04-25T07:48:41Z</time></trkpt><trkpt lat="43.81053315910544" lon="11.60513749547644"><ele>995.0</ele><time>2026-04-25T07:48:42Z</time></trkpt><trkpt lat="43.810465069512404" lon="11.605205766759795"><ele>992.9999999999999</ele><time>2026-04-25T07:48:43Z</time></trkpt><trkpt lat="43.810395275514885" lon="11.605288569847087"><ele>991.0</ele><time>2026-04-25T07:48:44Z</time></trkpt><trkpt lat="43.810332958686814" lon="11.605377693325428"><ele>989.5999999999999</ele><time>2026-04-25T07:48:45Z</time></trkpt><trkpt lat="43.81026046294985" lon="11.605477268902733"><ele>988.1999999999999</ele><time>2026-04-25T07:48:46Z</time></trkpt><trkpt lat="43.81018653092113" lon="11.605571306721338"><ele>986.8000000000001</ele><time>2026-04-25T07:48:47Z</time></trkpt><trkpt lat="43.81011620037182" lon="11.605673471587775"><ele>985.4000000000001</ele><time>2026-04-25T07:48:48Z</time></trkpt><trkpt lat="43.810031194149055" lon="11.605782336648662"><ele>984.0</ele><time>2026-04-25T07:48:49Z</time></trkpt><trkpt lat="43.80994489669704" lon="11.605885746214735"><ele>984.25</ele><time>2026-04-25T07:48:50Z</time></trkpt><trkpt lat="43.80987999724033" lon="11.606012463772863"><ele>984.5</ele><time>2026-04-25T07:48:51Z</time></trkpt><trkpt lat="43.80982842712456" lon="11.60615751549968"><ele>984.75</ele><time>2026-04-25T07:48:52Z</time></trkpt><trkpt lat="43.80978333371382" lon="11.606347980902386"><ele>985.0</ele><time>2026-04-25T07:48:53Z</time></trkpt><trkpt lat="43.809775640567736" lon="11.606481154765097"><ele>985.0</ele><time>2026-04-25T07:48:54Z</time></trkpt><trkpt lat="43.80968276927633" lon="11.606636213221895"><ele>985.0</ele><time>2026-04-25T07:48:56Z</time></trkpt><trkpt lat="43.80959335844388" lon="11.606670634769712"><ele>985.0</ele><time>2026-04-25T07:48:57Z</time></trkpt><trkpt lat="43.809497993808954" lon="11.606676575938222"><ele>985.0</ele><time>2026-04-25T07:48:58Z</time></trkpt><trkpt lat="43.809392918644114" lon="11.60668266430328"><ele>985.0</ele><time>2026-04-25T07:48:59Z</time></trkpt><trkpt lat="43.80929088936612" lon="11.606702154569252"><ele>987.0</ele><time>2026-04-25T07:49:00Z</time></trkpt><trkpt lat="43.80919987403488" lon="11.606744537313018"><ele>989.0</ele><time>2026-04-25T07:49:01Z</time></trkpt><trkpt lat="43.80910912639739" lon="11.606742766660902"><ele>991.0</ele><time>2026-04-25T07:49:01.999Z</time></trkpt><trkpt lat="43.809022289102344" lon="11.606764398348043"><ele>993.0</ele><time>2026-04-25T07:49:02.999Z</time></trkpt><trkpt lat="43.80892642682421" lon="11.606783593584025"><ele>995.0</ele><time>2026-04-25T07:49:03.999Z</time></trkpt><trkpt lat="43.80883859210852" lon="11.606801219309455"><ele>995.0</ele><time>2026-04-25T07:49:04.999Z</time></trkpt><trkpt lat="43.80875396777931" lon="11.606813313544997"><ele>995.0</ele><time>2026-04-25T07:49:05.999Z</time></trkpt><trkpt lat="43.808686797203016" lon="11.60683119982858"><ele>995.0</ele><time>2026-04-25T07:49:06.999Z</time></trkpt><trkpt lat="43.80858651177753" lon="11.606841121033236"><ele>995.0</ele><time>2026-04-25T07:49:08.999Z</time></trkpt><trkpt lat="43.808503109836096" lon="11.60678133738023"><ele>995.0</ele><time>2026-04-25T07:49:10.999Z</time></trkpt><trkpt lat="43.808431965175295" lon="11.60662959981433"><ele>994.5</ele><time>2026-04-25T07:49:12.999Z</time></trkpt><trkpt lat="43.80838387945489" lon="11.606513492593736"><ele>994.0</ele><time>2026-04-25T07:49:13.999Z</time></trkpt><trkpt lat="43.808336488354456" lon="11.6063450154179"><ele>993.5</ele><time>2026-04-25T07:49:14.999Z</time></trkpt><trkpt lat="43.80828438962861" lon="11.606132954938728"><ele>993.0</ele><time>2026-04-25T07:49:15.999Z</time></trkpt><trkpt lat="43.80820076754395" lon="11.605904530429754"><ele>997.3333333333333</ele><time>2026-04-25T07:49:16.999Z</time></trkpt><trkpt lat="43.808132567617314" lon="11.605642133516048"><ele>1001.6666666666666</ele><time>2026-04-25T07:49:17.999Z</time></trkpt><trkpt lat="43.80804880723635" lon="11.60541105479907"><ele>1006.0</ele><time>2026-04-25T07:49:18.999Z</time></trkpt><trkpt lat="43.807991194687624" lon="11.605264523545609"><ele>1006.0</ele><time>2026-04-25T07:49:19.999Z</time></trkpt><trkpt lat="43.807934938382054" lon="11.605174167106938"><ele>1005.9999999999999</ele><time>2026-04-25T07:49:20.999Z</time></trkpt><trkpt lat="43.80786580388599" lon="11.605134079621276"><ele>1005.9999999999999</ele><time>2026-04-25T07:49:21.999Z</time></trkpt><trkpt lat="43.80775595095376" lon="11.605126406304166"><ele>1006.0</ele><time>2026-04-25T07:49:22.999Z</time></trkpt><trkpt lat="43.807624390510476" lon="11.60518586536862"><ele>1006.0</ele><time>2026-04-25T07:49:23.999Z</time></trkpt><trkpt lat="43.80747338459735" lon="11.605243602841073"><ele>1004.0</ele><time>2026-04-25T07:49:24.999Z</time></trkpt><trkpt lat="43.80735825411678" lon="11.605295566796215"><ele>1002.0</ele><time>2026-04-25T07:49:25.999Z</time></trkpt><trkpt lat="43.80723689703442" lon="11.60534465571163"><ele>1000.0</ele><time>2026-04-25T07:49:26.999Z</time></trkpt><trkpt lat="43.80712483878383" lon="11.605378654517326"><ele>998.0</ele><time>2026-04-25T07:49:27.999Z</time></trkpt><trkpt lat="43.80700422774768" lon="11.60543873532926"><ele>998.0</ele><time>2026-04-25T07:49:28.999Z</time></trkpt><trkpt lat="43.80686244243437" lon="11.605486769594393"><ele>998.0</ele><time>2026-04-25T07:49:29.999Z</time></trkpt><trkpt lat="43.80672570481205" lon="11.605474255578526"><ele>998.0</ele><time>2026-04-25T07:49:30.999Z</time></trkpt><trkpt lat="43.80656685189086" lon="11.605442109622725"><ele>998.0</ele><time>2026-04-25T07:49:31.999Z</time></trkpt><trkpt lat="43.80639754925082" lon="11.605379330613848"><ele>998.0</ele><time>2026-04-25T07:49:32.999Z</time></trkpt><trkpt lat="43.806222854723494" lon="11.605300038544756"><ele>998.0</ele><time>2026-04-25T07:49:33.999Z</time></trkpt><trkpt lat="43.80604211390856" lon="11.605219082158353"><ele>998.0</ele><time>2026-04-25T07:49:34.999Z</time></trkpt><trkpt lat="43.80589821749287" lon="11.60517326927609"><ele>998.0</ele><time>2026-04-25T07:49:36Z</time></trkpt><trkpt lat="43.80580811816729" lon="11.605124104261318"><ele>998.0</ele><time>2026-04-25T07:49:37Z</time></trkpt><trkpt lat="43.80574899516496" lon="11.605065402584419"><ele>998.0</ele><time>2026-04-25T07:49:38Z</time></trkpt><trkpt lat="43.80567290282445" lon="11.604965685662883"><ele>998.0</ele><time>2026-04-25T07:49:40Z</time></trkpt><trkpt lat="43.80560191471666" lon="11.604864591250694"><ele>998.0</ele><time>2026-04-25T07:49:42Z</time></trkpt><trkpt lat="43.80550925625625" lon="11.604786489204953"><ele>998.0000000000001</ele><time>2026-04-25T07:49:44Z</time></trkpt><trkpt lat="43.80545362107893" lon="11.604718456640839"><ele>998.0</ele><time>2026-04-25T07:49:45Z</time></trkpt><trkpt lat="43.80535496281003" lon="11.6045994248307"><ele>998.0</ele><time>2026-04-25T07:49:47Z</time></trkpt><trkpt lat="43.805296260777496" lon="11.604507858151315"><ele>998.0</ele><time>2026-04-25T07:49:49Z</time></trkpt><trkpt lat="43.80526720425505" lon="11.60441586750745"><ele>998.0000000000001</ele><time>2026-04-25T07:50:02Z</time></trkpt><trkpt lat="43.80524703188274" lon="11.604305310611117"><ele>998.0</ele><time>2026-04-25T07:50:04Z</time></trkpt><trkpt lat="43.80522435421909" lon="11.604199248532634"><ele>995.5999999999999</ele><time>2026-04-25T07:50:06Z</time></trkpt><trkpt lat="43.80521161918652" lon="11.604087203045356"><ele>993.1999999999999</ele><time>2026-04-25T07:50:08Z</time></trkpt><trkpt lat="43.8051932257667" lon="11.603975114201585"><ele>990.8</ele><time>2026-04-25T07:50:10Z</time></trkpt><trkpt lat="43.805183375891566" lon="11.603829867618614"><ele>988.4</ele><time>2026-04-25T07:50:12Z</time></trkpt><trkpt lat="43.80518237277218" lon="11.603689515499996"><ele>986.0</ele><time>2026-04-25T07:50:14Z</time></trkpt><trkpt lat="43.80518533149805" lon="11.603562714675803"><ele>983.5000000000001</ele><time>2026-04-25T07:50:16Z</time></trkpt><trkpt lat="43.80518176510425" lon="11.603413064725364"><ele>981.0</ele><time>2026-04-25T07:50:18Z</time></trkpt><trkpt lat="43.8051477975045" lon="11.603324830882794"><ele>978.5</ele><time>2026-04-25T07:50:19Z</time></trkpt><trkpt lat="43.805104521181015" lon="11.603237607227799"><ele>976.0</ele><time>2026-04-25T07:50:20Z</time></trkpt><trkpt lat="43.80507139355955" lon="11.603135477992078"><ele>973.5000000000001</ele><time>2026-04-25T07:50:21Z</time></trkpt><trkpt lat="43.805019078913325" lon="11.60303646651944"><ele>971.0</ele><time>2026-04-25T07:50:22Z</time></trkpt><trkpt lat="43.80497397273173" lon="11.602940964896728"><ele>974.8333333333334</ele><time>2026-04-25T07:50:23Z</time></trkpt><trkpt lat="43.80492120638877" lon="11.602856869058762"><ele>978.6666666666667</ele><time>2026-04-25T07:50:24Z</time></trkpt><trkpt lat="43.80486096933116" lon="11.602782054440956"><ele>982.5</ele><time>2026-04-25T07:50:25Z</time></trkpt><trkpt lat="43.804778924717574" lon="11.602717145276744"><ele>986.3333333333333</ele><time>2026-04-25T07:50:26Z</time></trkpt><trkpt lat="43.80469084021595" lon="11.602671306586908"><ele>990.1666666666666</ele><time>2026-04-25T07:50:27Z</time></trkpt><trkpt lat="43.80460502211162" lon="11.602634102701032"><ele>994.0</ele><time>2026-04-25T07:50:28Z</time></trkpt><trkpt lat="43.804502293634066" lon="11.602602669117081"><ele>994.0</ele><time>2026-04-25T07:50:29Z</time></trkpt><trkpt lat="43.804395937102456" lon="11.602581031133541"><ele>994.0000000000001</ele><time>2026-04-25T07:50:30Z</time></trkpt><trkpt lat="43.80429110310405" lon="11.602583709339509"><ele>994.0000000000001</ele><time>2026-04-25T07:50:31Z</time></trkpt><trkpt lat="43.80418062610259" lon="11.602601630589403"><ele>994.0</ele><time>2026-04-25T07:50:32Z</time></trkpt><trkpt lat="43.804075146785074" lon="11.602625678320925"><ele>994.0</ele><time>2026-04-25T07:50:33Z</time></trkpt><trkpt lat="43.80397592893331" lon="11.602651186217498"><ele>996.6</ele><time>2026-04-25T07:50:34Z</time></trkpt><trkpt lat="43.80388062748558" lon="11.602673136261553"><ele>999.2</ele><time>2026-04-25T07:50:35Z</time></trkpt><trkpt lat="43.80378015811181" lon="11.60266494644413"><ele>1001.8000000000001</ele><time>2026-04-25T07:50:36Z</time></trkpt><trkpt lat="43.80368979794189" lon="11.602626861777916"><ele>1004.4000000000001</ele><time>2026-04-25T07:50:37Z</time></trkpt><trkpt lat="43.80360795417024" lon="11.602562982936064"><ele>1007.0</ele><time>2026-04-25T07:50:38Z</time></trkpt><trkpt lat="43.803514225753084" lon="11.602484034750816"><ele>1008.1666666666667</ele><time>2026-04-25T07:50:39Z</time></trkpt><trkpt lat="43.80342902817877" lon="11.60239581104627"><ele>1009.3333333333334</ele><time>2026-04-25T07:50:40Z</time></trkpt><trkpt lat="43.80335947783872" lon="11.60227943078366"><ele>1010.5</ele><time>2026-04-25T07:50:41Z</time></trkpt><trkpt lat="43.80330601893372" lon="11.602191473573386"><ele>1011.6666666666667</ele><time>2026-04-25T07:50:42Z</time></trkpt><trkpt lat="43.80325453794254" lon="11.602112727786063"><ele>1012.8333333333334</ele><time>2026-04-25T07:50:43Z</time></trkpt><trkpt lat="43.803191062909896" lon="11.60206356702724"><ele>1014.0</ele><time>2026-04-25T07:50:44Z</time></trkpt><trkpt lat="43.80311518150255" lon="11.602036011792519"><ele>1014.0</ele><time>2026-04-25T07:50:45Z</time></trkpt><trkpt lat="43.80303687766033" lon="11.602026623713257"><ele>1014.0</ele><time>2026-04-25T07:50:46Z</time></trkpt><trkpt lat="43.80295486471269" lon="11.60204227398514"><ele>1014.0</ele><time>2026-04-25T07:50:46.999Z</time></trkpt><trkpt lat="43.80286181236772" lon="11.602068281190702"><ele>1014.0</ele><time>2026-04-25T07:50:47.999Z</time></trkpt><trkpt lat="43.8027728609344" lon="11.602092391890732"><ele>1014.0</ele><time>2026-04-25T07:50:48.999Z</time></trkpt><trkpt lat="43.80268684771693" lon="11.602138717973814"><ele>1014.0</ele><time>2026-04-25T07:50:49.999Z</time></trkpt><trkpt lat="43.80260835776713" lon="11.602192731564818"><ele>1013.0</ele><time>2026-04-25T07:50:50.999Z</time></trkpt><trkpt lat="43.8025249272114" lon="11.602280814476996"><ele>1012.0000000000001</ele><time>2026-04-25T07:50:51.999Z</time></trkpt><trkpt lat="43.80244348209904" lon="11.60234132169378"><ele>1011.0000000000001</ele><time>2026-04-25T07:50:52.999Z</time></trkpt><trkpt lat="43.80236808064958" lon="11.602421484133343"><ele>1010.0</ele><time>2026-04-25T07:50:53.999Z</time></trkpt><trkpt lat="43.80230124980883" lon="11.60249602948326"><ele>1009.0</ele><time>2026-04-25T07:50:54.999Z</time></trkpt><trkpt lat="43.802233943989016" lon="11.602573766550009"><ele>1008.9999999999999</ele><time>2026-04-25T07:50:55.999Z</time></trkpt><trkpt lat="43.80216070702508" lon="11.602659043919063"><ele>1009.0</ele><time>2026-04-25T07:50:56.999Z</time></trkpt><trkpt lat="43.80209430397275" lon="11.602736363886791"><ele>1009.0</ele><time>2026-04-25T07:50:57.999Z</time></trkpt><trkpt lat="43.80203453928031" lon="11.602800865515265"><ele>1009.0</ele><time>2026-04-25T07:50:58.999Z</time></trkpt><trkpt lat="43.80196710366009" lon="11.602872197844038"><ele>1008.9999999999999</ele><time>2026-04-25T07:50:59.999Z</time></trkpt><trkpt lat="43.80188865278101" lon="11.602963579526902"><ele>1009.0</ele><time>2026-04-25T07:51:00.999Z</time></trkpt><trkpt lat="43.80181677862327" lon="11.603076926220123"><ele>1006.8000000000001</ele><time>2026-04-25T07:51:01.999Z</time></trkpt><trkpt lat="43.80176811860087" lon="11.603190221766035"><ele>1004.6000000000001</ele><time>2026-04-25T07:51:02.999Z</time></trkpt><trkpt lat="43.80172032544563" lon="11.603288799023009"><ele>1002.4</ele><time>2026-04-25T07:51:03.999Z</time></trkpt><trkpt lat="43.80169226986733" lon="11.603410917309928"><ele>1000.2</ele><time>2026-04-25T07:51:04.999Z</time></trkpt><trkpt lat="43.80165506074193" lon="11.603530877688243"><ele>998.0</ele><time>2026-04-25T07:51:05.999Z</time></trkpt><trkpt lat="43.80160146331163" lon="11.603630490859828"><ele>1000.2</ele><time>2026-04-25T07:51:06.999Z</time></trkpt><trkpt lat="43.8015697794278" lon="11.603712671102558"><ele>1002.4</ele><time>2026-04-25T07:51:07.999Z</time></trkpt><trkpt lat="43.80151309548544" lon="11.603838794068652"><ele>1004.6000000000001</ele><time>2026-04-25T07:51:08.999Z</time></trkpt><trkpt lat="43.80146114534819" lon="11.603960338322791"><ele>1006.8000000000001</ele><time>2026-04-25T07:51:09.999Z</time></trkpt><trkpt lat="43.80140355507244" lon="11.604069790089564"><ele>1009.0</ele><time>2026-04-25T07:51:10.999Z</time></trkpt><trkpt lat="43.801339121908505" lon="11.604170120374969"><ele>1008.9999999999999</ele><time>2026-04-25T07:51:11.999Z</time></trkpt><trkpt lat="43.8012622116564" lon="11.604260161386522"><ele>1009.0</ele><time>2026-04-25T07:51:12.999Z</time></trkpt><trkpt lat="43.80119280449502" lon="11.60434568133539"><ele>1009.0</ele><time>2026-04-25T07:51:13.999Z</time></trkpt><trkpt lat="43.80112443237607" lon="11.604424158021347"><ele>1009.0</ele><time>2026-04-25T07:51:14.999Z</time></trkpt><trkpt lat="43.80105857420051" lon="11.604493089274404"><ele>1008.9999999999999</ele><time>2026-04-25T07:51:15.999Z</time></trkpt><trkpt lat="43.800989568602475" lon="11.60455853807982"><ele>1009.0</ele><time>2026-04-25T07:51:16.999Z</time></trkpt><trkpt lat="43.800923801728366" lon="11.604618715164438"><ele>1006.2857142857143</ele><time>2026-04-25T07:51:17.999Z</time></trkpt><trkpt lat="43.80086407208145" lon="11.604681559939467"><ele>1003.5714285714284</ele><time>2026-04-25T07:51:18.999Z</time></trkpt><trkpt lat="43.800794674844056" lon="11.604727600540793"><ele>1000.8571428571428</ele><time>2026-04-25T07:51:19.999Z</time></trkpt><trkpt lat="43.80072526808106" lon="11.604744678950349"><ele>998.1428571428571</ele><time>2026-04-25T07:51:20.999Z</time></trkpt><trkpt lat="43.80065221048085" lon="11.604733496177493"><ele>995.4285714285713</ele><time>2026-04-25T07:51:21.999Z</time></trkpt><trkpt lat="43.800583913141566" lon="11.604702450402876"><ele>992.7142857142856</ele><time>2026-04-25T07:51:22.999Z</time></trkpt><trkpt lat="43.80051196951078" lon="11.604655141969086"><ele>989.9999999999999</ele><time>2026-04-25T07:51:23.999Z</time></trkpt><trkpt lat="43.80042962385108" lon="11.604596346714846"><ele>990.0</ele><time>2026-04-25T07:51:24.999Z</time></trkpt><trkpt lat="43.800355075709234" lon="11.604561058570185"><ele>990.0</ele><time>2026-04-25T07:51:25.999Z</time></trkpt><trkpt lat="43.80027020609367" lon="11.604510536342422"><ele>990.0</ele><time>2026-04-25T07:51:26.999Z</time></trkpt><trkpt lat="43.800202456030675" lon="11.604460390183178"><ele>990.0</ele><time>2026-04-25T07:51:27.999Z</time></trkpt><trkpt lat="43.80014089822934" lon="11.60439177818917"><ele>990.0</ele><time>2026-04-25T07:51:28.999Z</time></trkpt><trkpt lat="43.80007388745895" lon="11.604328621652902"><ele>990.0</ele><time>2026-04-25T07:51:29.999Z</time></trkpt><trkpt lat="43.80000510746083" lon="11.604267957133825"><ele>989.8333333333334</ele><time>2026-04-25T07:51:30.999Z</time></trkpt><trkpt lat="43.799935433598186" lon="11.604204015802354"><ele>989.6666666666667</ele><time>2026-04-25T07:51:31.999Z</time></trkpt><trkpt lat="43.7998651134779" lon="11.604149976163303"><ele>989.5</ele><time>2026-04-25T07:51:32.999Z</time></trkpt><trkpt lat="43.79978100941471" lon="11.604119894532701"><ele>989.3333333333334</ele><time>2026-04-25T07:51:33.999Z</time></trkpt><trkpt lat="43.799696398315376" lon="11.604116581604318"><ele>989.1666666666667</ele><time>2026-04-25T07:51:34.999Z</time></trkpt><trkpt lat="43.79961597018663" lon="11.604123196605018"><ele>989.0</ele><time>2026-04-25T07:51:35.999Z</time></trkpt><trkpt lat="43.799524017407855" lon="11.60413409417152"><ele>989.0</ele><time>2026-04-25T07:51:36.999Z</time></trkpt><trkpt lat="43.799428383968255" lon="11.604151904954442"><ele>989.0000000000001</ele><time>2026-04-25T07:51:37.999Z</time></trkpt><trkpt lat="43.79932580295138" lon="11.604167838045507"><ele>989.0000000000001</ele><time>2026-04-25T07:51:38.999Z</time></trkpt><trkpt lat="43.79921787519821" lon="11.604155381583954"><ele>989.0</ele><time>2026-04-25T07:51:39.999Z</time></trkpt><trkpt lat="43.799081204328466" lon="11.604125134009488"><ele>989.0</ele><time>2026-04-25T07:51:41Z</time></trkpt><trkpt lat="43.79894422451464" lon="11.604091578684683"><ele>990.0</ele><time>2026-04-25T07:51:42Z</time></trkpt><trkpt lat="43.79884122769918" lon="11.604057421892703"><ele>991.0000000000001</ele><time>2026-04-25T07:51:43Z</time></trkpt><trkpt lat="43.79874310222241" lon="11.604003296563546"><ele>992.0000000000001</ele><time>2026-04-25T07:51:44Z</time></trkpt><trkpt lat="43.798648342931486" lon="11.603956292716942"><ele>993.0</ele><time>2026-04-25T07:51:45Z</time></trkpt><trkpt lat="43.79854915681438" lon="11.60391065527681"><ele>994.0</ele><time>2026-04-25T07:51:46Z</time></trkpt><trkpt lat="43.79844374091605" lon="11.603888700627438"><ele>994.0</ele><time>2026-04-25T07:51:47Z</time></trkpt><trkpt lat="43.7983500265795" lon="11.60383726946859"><ele>994.0000000000001</ele><time>2026-04-25T07:51:48Z</time></trkpt><trkpt lat="43.798272240382175" lon="11.603780053211114"><ele>994.0000000000001</ele><time>2026-04-25T07:51:49Z</time></trkpt><trkpt lat="43.79820447326641" lon="11.603692121690296"><ele>994.0</ele><time>2026-04-25T07:51:50Z</time></trkpt><trkpt lat="43.79814002814919" lon="11.603593398473743"><ele>994.0</ele><time>2026-04-25T07:51:51Z</time></trkpt><trkpt lat="43.79807224018705" lon="11.603494241769214"><ele>994.0</ele><time>2026-04-25T07:51:52Z</time></trkpt><trkpt lat="43.79799575534359" lon="11.603410783561971"><ele>994.0000000000001</ele><time>2026-04-25T07:51:53Z</time></trkpt><trkpt lat="43.79793468121262" lon="11.60332759841048"><ele>994.0000000000001</ele><time>2026-04-25T07:51:54Z</time></trkpt><trkpt lat="43.79786090219393" lon="11.60325324968691"><ele>994.0</ele><time>2026-04-25T07:51:55Z</time></trkpt><trkpt lat="43.79777988343879" lon="11.603206304726255"><ele>994.0</ele><time>2026-04-25T07:51:56Z</time></trkpt><trkpt lat="43.79769190075717" lon="11.60317917824084"><ele>992.1666666666666</ele><time>2026-04-25T07:51:57Z</time></trkpt><trkpt lat="43.797603650066684" lon="11.603199118441774"><ele>990.3333333333333</ele><time>2026-04-25T07:51:58Z</time></trkpt><trkpt lat="43.79752043659864" lon="11.603248402838991"><ele>988.5</ele><time>2026-04-25T07:51:59Z</time></trkpt><trkpt lat="43.797455102604104" lon="11.6032928658328"><ele>986.6666666666667</ele><time>2026-04-25T07:52:00Z</time></trkpt><trkpt lat="43.797390021278524" lon="11.603307802952028"><ele>984.8333333333334</ele><time>2026-04-25T07:52:02Z</time></trkpt><trkpt lat="43.79731566204544" lon="11.603357692575937"><ele>983.0</ele><time>2026-04-25T07:52:27Z</time></trkpt><trkpt lat="43.79725318584715" lon="11.603384760558031"><ele>983.0000000000001</ele><time>2026-04-25T07:52:28Z</time></trkpt><trkpt lat="43.797186897937166" lon="11.603367427939652"><ele>983.0</ele><time>2026-04-25T07:52:29Z</time></trkpt><trkpt lat="43.79712012755011" lon="11.603317845299344"><ele>983.0</ele><time>2026-04-25T07:52:30Z</time></trkpt><trkpt lat="43.797037525702045" lon="11.60328949496805"><ele>983.0</ele><time>2026-04-25T07:52:31Z</time></trkpt><trkpt lat="43.79692357581477" lon="11.603260714374544"><ele>983.0000000000001</ele><time>2026-04-25T07:52:32Z</time></trkpt><trkpt lat="43.79683240417247" lon="11.603253202170292"><ele>983.0</ele><time>2026-04-25T07:52:33Z</time></trkpt><trkpt lat="43.79676531877363" lon="11.603272301173886"><ele>983.3333333333334</ele><time>2026-04-25T07:52:34Z</time></trkpt><trkpt lat="43.79669098333749" lon="11.603331784425844"><ele>983.6666666666667</ele><time>2026-04-25T07:52:35Z</time></trkpt><trkpt lat="43.79661146647858" lon="11.603392415033797"><ele>984.0</ele><time>2026-04-25T07:52:36Z</time></trkpt><trkpt lat="43.79651848130662" lon="11.603431434936079"><ele>984.3333333333333</ele><time>2026-04-25T07:52:37Z</time></trkpt><trkpt lat="43.796442747885955" lon="11.603449702835055"><ele>984.6666666666666</ele><time>2026-04-25T07:52:38Z</time></trkpt><trkpt lat="43.7963829760075" lon="11.603477818007837"><ele>985.0</ele><time>2026-04-25T07:52:38.999Z</time></trkpt><trkpt lat="43.796327609538906" lon="11.603552912446437"><ele>984.9999999999999</ele><time>2026-04-25T07:52:39.999Z</time></trkpt><trkpt lat="43.79624725825218" lon="11.603603515667029"><ele>985.0</ele><time>2026-04-25T07:52:40.999Z</time></trkpt><trkpt lat="43.79615993711789" lon="11.603623597863534"><ele>985.0</ele><time>2026-04-25T07:52:41.999Z</time></trkpt><trkpt lat="43.796074700649754" lon="11.603592511347578"><ele>985.0</ele><time>2026-04-25T07:52:42.999Z</time></trkpt><trkpt lat="43.796021237682076" lon="11.603521280043353"><ele>984.9999999999999</ele><time>2026-04-25T07:52:43.999Z</time></trkpt><trkpt lat="43.79593700291103" lon="11.603471031888285"><ele>985.0</ele><time>2026-04-25T07:52:44.999Z</time></trkpt><trkpt lat="43.79583332696837" lon="11.603416583930898"><ele>986.3333333333333</ele><time>2026-04-25T07:52:45.999Z</time></trkpt><trkpt lat="43.79575803806019" lon="11.603337323780574"><ele>987.6666666666666</ele><time>2026-04-25T07:52:46.999Z</time></trkpt><trkpt lat="43.79569369872217" lon="11.603293320675066"><ele>989.0</ele><time>2026-04-25T07:52:47.999Z</time></trkpt><trkpt lat="43.795600319132085" lon="11.603175866724213"><ele>990.3333333333333</ele><time>2026-04-25T07:52:49.999Z</time></trkpt><trkpt lat="43.79555011043101" lon="11.603099184385488"><ele>991.6666666666666</ele><time>2026-04-25T07:52:50.999Z</time></trkpt><trkpt lat="43.795486725127915" lon="11.603049807474479"><ele>993.0</ele><time>2026-04-25T07:52:51.999Z</time></trkpt><trkpt lat="43.79542683895859" lon="11.602965908099907"><ele>993.0</ele><time>2026-04-25T07:52:52.999Z</time></trkpt><trkpt lat="43.79536802628512" lon="11.602898290828831"><ele>993.0</ele><time>2026-04-25T07:52:53.999Z</time></trkpt><trkpt lat="43.79531771952214" lon="11.602828744540489"><ele>993.0</ele><time>2026-04-25T07:52:54.999Z</time></trkpt><trkpt lat="43.7952515090627" lon="11.602792094115763"><ele>993.0</ele><time>2026-04-25T07:52:55.999Z</time></trkpt><trkpt lat="43.79517792004084" lon="11.602792069513109"><ele>993.0</ele><time>2026-04-25T07:52:56.999Z</time></trkpt><trkpt lat="43.79509338254054" lon="11.60280486375586"><ele>993.0</ele><time>2026-04-25T07:52:57.999Z</time></trkpt><trkpt lat="43.79502138591899" lon="11.602818293186175"><ele>994.5</ele><time>2026-04-25T07:52:58.999Z</time></trkpt><trkpt lat="43.7949513053081" lon="11.602796194059955"><ele>996.0</ele><time>2026-04-25T07:52:59.999Z</time></trkpt><trkpt lat="43.794888597062595" lon="11.602745381903235"><ele>997.5</ele><time>2026-04-25T07:53:00.999Z</time></trkpt><trkpt lat="43.79483067122711" lon="11.602673927628958"><ele>999.0</ele><time>2026-04-25T07:53:01.999Z</time></trkpt><trkpt lat="43.79476916666417" lon="11.602625442983545"><ele>1000.5</ele><time>2026-04-25T07:53:02.999Z</time></trkpt><trkpt lat="43.79467512773459" lon="11.602533354919284"><ele>1002.0</ele><time>2026-04-25T07:53:04.999Z</time></trkpt><trkpt lat="43.794619605067396" lon="11.602476297584015"><ele>1002.0</ele><time>2026-04-25T07:53:05.999Z</time></trkpt><trkpt lat="43.79457804137314" lon="11.602409245568376"><ele>1002.0</ele><time>2026-04-25T07:53:06.999Z</time></trkpt><trkpt lat="43.79452877432434" lon="11.602306628601612"><ele>1002.0</ele><time>2026-04-25T07:53:08.999Z</time></trkpt><trkpt lat="43.794503342226776" lon="11.602193108711534"><ele>1002.0</ele><time>2026-04-25T07:53:10.999Z</time></trkpt><trkpt lat="43.7944547136784" lon="11.60212683062305"><ele>1002.0</ele><time>2026-04-25T07:53:12.999Z</time></trkpt><trkpt lat="43.79437869102381" lon="11.602070581323256"><ele>1002.0</ele><time>2026-04-25T07:53:14.999Z</time></trkpt><trkpt lat="43.7943076140893" lon="11.60192371690361"><ele>1006.75</ele><time>2026-04-25T07:53:16.999Z</time></trkpt><trkpt lat="43.79424673905477" lon="11.601851021876278"><ele>1011.5</ele><time>2026-04-25T07:53:17.999Z</time></trkpt><trkpt lat="43.7941691044378" lon="11.601791954078525"><ele>1016.25</ele><time>2026-04-25T07:53:18.999Z</time></trkpt><trkpt lat="43.79408683009049" lon="11.601724553952652"><ele>1021.0</ele><time>2026-04-25T07:53:19.999Z</time></trkpt><trkpt lat="43.794060726953454" lon="11.60143672280014"><ele>1020.9999999999999</ele><time>2026-04-25T07:53:20.999Z</time></trkpt><trkpt lat="43.79398921867095" lon="11.601363816883067"><ele>1021.0</ele><time>2026-04-25T07:53:21.999Z</time></trkpt><trkpt lat="43.79393088862064" lon="11.601310357468629"><ele>1021.0</ele><time>2026-04-25T07:53:22.999Z</time></trkpt><trkpt lat="43.793867371947634" lon="11.601278953508043"><ele>1021.0</ele><time>2026-04-25T07:53:23.999Z</time></trkpt><trkpt lat="43.793788070501776" lon="11.601270803966223"><ele>1020.9999999999999</ele><time>2026-04-25T07:53:24.999Z</time></trkpt><trkpt lat="43.793708749575394" lon="11.60126994495796"><ele>1021.0</ele><time>2026-04-25T07:53:25.999Z</time></trkpt><trkpt lat="43.793631569228154" lon="11.601272406952738"><ele>1021.0</ele><time>2026-04-25T07:53:26.999Z</time></trkpt><trkpt lat="43.7935424318702" lon="11.601244246328369"><ele>1020.9999999999999</ele><time>2026-04-25T07:53:27.999Z</time></trkpt><trkpt lat="43.79343232021805" lon="11.601203052556022"><ele>1020.9999999999999</ele><time>2026-04-25T07:53:28.999Z</time></trkpt><trkpt lat="43.79335218356305" lon="11.601150947205145"><ele>1021.0</ele><time>2026-04-25T07:53:29.999Z</time></trkpt><trkpt lat="43.79327660108434" lon="11.601070599218627"><ele>1021.0</ele><time>2026-04-25T07:53:30.999Z</time></trkpt><trkpt lat="43.793222166748805" lon="11.600967321493458"><ele>1022.5</ele><time>2026-04-25T07:53:31.999Z</time></trkpt><trkpt lat="43.79317224883155" lon="11.600816037612814"><ele>1024.0</ele><time>2026-04-25T07:53:32.999Z</time></trkpt><trkpt lat="43.79310776921344" lon="11.600628771286699"><ele>1025.5</ele><time>2026-04-25T07:53:33.999Z</time></trkpt><trkpt lat="43.79304832323668" lon="11.600444851492746"><ele>1027.0</ele><time>2026-04-25T07:53:34.999Z</time></trkpt><trkpt lat="43.793030498422574" lon="11.600275935993201"><ele>1022.75</ele><time>2026-04-25T07:53:35.999Z</time></trkpt><trkpt lat="43.79298550874516" lon="11.600125526622511"><ele>1018.5</ele><time>2026-04-25T07:53:36.999Z</time></trkpt><trkpt lat="43.79292723243035" lon="11.599973902031557"><ele>1014.25</ele><time>2026-04-25T07:53:37.999Z</time></trkpt><trkpt lat="43.79286500255932" lon="11.599823618325408"><ele>1010.0</ele><time>2026-04-25T07:53:38.999Z</time></trkpt><trkpt lat="43.79279410785893" lon="11.599699549019409"><ele>1010.0</ele><time>2026-04-25T07:53:40.999Z</time></trkpt><trkpt lat="43.79275332178862" lon="11.599622679811825"><ele>1010.0</ele><time>2026-04-25T07:53:44.999Z</time></trkpt><trkpt lat="43.79274767130173" lon="11.599524236373831"><ele>1010.0</ele><time>2026-04-25T07:53:47Z</time></trkpt><trkpt lat="43.792696737397726" lon="11.599392990971888"><ele>1010.0</ele><time>2026-04-25T07:53:49Z</time></trkpt><trkpt lat="43.7925786478667" lon="11.599281324413978"><ele>1010.0</ele><time>2026-04-25T07:53:51Z</time></trkpt><trkpt lat="43.792520000116355" lon="11.599235896220122"><ele>1012.5000000000001</ele><time>2026-04-25T07:53:52Z</time></trkpt><trkpt lat="43.79246211642909" lon="11.5991962212781"><ele>1015.0</ele><time>2026-04-25T07:53:53Z</time></trkpt><trkpt lat="43.79240017620757" lon="11.599160973668111"><ele>1017.5</ele><time>2026-04-25T07:53:54Z</time></trkpt><trkpt lat="43.79226056605606" lon="11.599158793552212"><ele>1020.0</ele><time>2026-04-25T07:53:56Z</time></trkpt><trkpt lat="43.79219217314455" lon="11.599163155019202"><ele>1022.5000000000001</ele><time>2026-04-25T07:53:57Z</time></trkpt><trkpt lat="43.79208258730366" lon="11.599154632408741"><ele>1025.0</ele><time>2026-04-25T07:53:59Z</time></trkpt><trkpt lat="43.79202002068327" lon="11.599173833550614"><ele>1025.0</ele><time>2026-04-25T07:54:00Z</time></trkpt><trkpt lat="43.79196048656934" lon="11.599211370450078"><ele>1025.0</ele><time>2026-04-25T07:54:01Z</time></trkpt><trkpt lat="43.79183084966676" lon="11.599275583926673"><ele>1025.0</ele><time>2026-04-25T07:54:03Z</time></trkpt><trkpt lat="43.791817289892634" lon="11.599173157554473"><ele>1025.0</ele><time>2026-04-25T07:54:06Z</time></trkpt><trkpt lat="43.79178752134099" lon="11.599042662957462"><ele>1025.0</ele><time>2026-04-25T07:54:09Z</time></trkpt><trkpt lat="43.791776393623984" lon="11.598913179738013"><ele>1024.8333333333335</ele><time>2026-04-25T07:54:11Z</time></trkpt><trkpt lat="43.79175882372314" lon="11.59882482688497"><ele>1024.6666666666667</ele><time>2026-04-25T07:54:12Z</time></trkpt><trkpt lat="43.791737040357155" lon="11.598711114777874"><ele>1024.5</ele><time>2026-04-25T07:54:13Z</time></trkpt><trkpt lat="43.79171414474346" lon="11.598576520902526"><ele>1024.3333333333333</ele><time>2026-04-25T07:54:14Z</time></trkpt><trkpt lat="43.79170991597785" lon="11.598447017795557"><ele>1024.1666666666665</ele><time>2026-04-25T07:54:15Z</time></trkpt><trkpt lat="43.79171359514987" lon="11.59835501860576"><ele>1024.0</ele><time>2026-04-25T07:54:16Z</time></trkpt><trkpt lat="43.791709609886965" lon="11.598253070453454"><ele>1024.0</ele><time>2026-04-25T07:54:17Z</time></trkpt><trkpt lat="43.791672225507206" lon="11.598177137120258"><ele>1024.0</ele><time>2026-04-25T07:54:19Z</time></trkpt><trkpt lat="43.79162160646836" lon="11.598110106680938"><ele>1024.0</ele><time>2026-04-25T07:54:21Z</time></trkpt><trkpt lat="43.79158194621272" lon="11.597989317402362"><ele>1024.0</ele><time>2026-04-25T07:54:22Z</time></trkpt><trkpt lat="43.79147729881901" lon="11.597828686653127"><ele>1024.0</ele><time>2026-04-25T07:54:23Z</time></trkpt><trkpt lat="43.791402379790206" lon="11.597795013041209"><ele>1024.0</ele><time>2026-04-25T07:54:25Z</time></trkpt><trkpt lat="43.79132247591248" lon="11.59781235224769"><ele>1024.0</ele><time>2026-04-25T07:54:27Z</time></trkpt><trkpt lat="43.791196253711185" lon="11.597807705720045"><ele>1024.0</ele><time>2026-04-25T07:54:29Z</time></trkpt><trkpt lat="43.791079252034955" lon="11.597866977749248"><ele>1024.0</ele><time>2026-04-25T07:54:31Z</time></trkpt><trkpt lat="43.79101451801947" lon="11.597918407047997"><ele>1024.0</ele><time>2026-04-25T07:54:32Z</time></trkpt><trkpt lat="43.790933330003" lon="11.597995166937634"><ele>1023.3333333333333</ele><time>2026-04-25T07:54:34Z</time></trkpt><trkpt lat="43.79087219387465" lon="11.598105650424012"><ele>1022.6666666666666</ele><time>2026-04-25T07:54:36Z</time></trkpt><trkpt lat="43.79083117196619" lon="11.598182401570378"><ele>1022.0</ele><time>2026-04-25T07:54:37Z</time></trkpt><trkpt lat="43.7907944368986" lon="11.598256788260832"><ele>1021.3333333333333</ele><time>2026-04-25T07:54:38Z</time></trkpt><trkpt lat="43.79076330980493" lon="11.598333354684737"><ele>1020.6666666666666</ele><time>2026-04-25T07:54:39Z</time></trkpt><trkpt lat="43.79072659344755" lon="11.59848787443121"><ele>1020.0</ele><time>2026-04-25T07:54:40.999Z</time></trkpt><trkpt lat="43.79068601510381" lon="11.598681730791379"><ele>1022.6666666666666</ele><time>2026-04-25T07:54:42.999Z</time></trkpt><trkpt lat="43.790663058730516" lon="11.598780238567521"><ele>1025.3333333333333</ele><time>2026-04-25T07:54:43.999Z</time></trkpt><trkpt lat="43.790626760472705" lon="11.598866108762987"><ele>1028.0</ele><time>2026-04-25T07:54:44.999Z</time></trkpt><trkpt lat="43.79058969582041" lon="11.598944135365917"><ele>1030.6666666666665</ele><time>2026-04-25T07:54:45.999Z</time></trkpt><trkpt lat="43.79052016254763" lon="11.598997010645377"><ele>1033.3333333333333</ele><time>2026-04-25T07:54:47.999Z</time></trkpt><trkpt lat="43.790438996063564" lon="11.598920769316958"><ele>1036.0</ele><time>2026-04-25T07:54:49.999Z</time></trkpt><trkpt lat="43.79041446670079" lon="11.598812959092259"><ele>1036.0</ele><time>2026-04-25T07:54:50.999Z</time></trkpt><trkpt lat="43.79039487606249" lon="11.598724560612728"><ele>1036.0</ele><time>2026-04-25T07:54:51.999Z</time></trkpt><trkpt lat="43.790344613246596" lon="11.598653506053518"><ele>1036.0</ele><time>2026-04-25T07:54:52.999Z</time></trkpt><trkpt lat="43.79026633786814" lon="11.598550950098018"><ele>1036.0</ele><time>2026-04-25T07:54:54.999Z</time></trkpt><trkpt lat="43.79017131888424" lon="11.598514803862845"><ele>1036.0</ele><time>2026-04-25T07:54:56.999Z</time></trkpt><trkpt lat="43.790104648105114" lon="11.598496841770467"><ele>1036.0</ele><time>2026-04-25T07:54:57.999Z</time></trkpt><trkpt lat="43.790032759805754" lon="11.598547661433088"><ele>1030.8</ele><time>2026-04-25T07:54:59.999Z</time></trkpt><trkpt lat="43.789982323645376" lon="11.598602857366165"><ele>1025.6</ele><time>2026-04-25T07:55:02.999Z</time></trkpt><trkpt lat="43.78989622748404" lon="11.598612270649774"><ele>1020.4</ele><time>2026-04-25T07:55:05.999Z</time></trkpt><trkpt lat="43.78982195315385" lon="11.598612487833677"><ele>1015.2</ele><time>2026-04-25T07:55:07.999Z</time></trkpt><trkpt lat="43.78967801159507" lon="11.598621133880602"><ele>1010.0</ele><time>2026-04-25T07:55:09.999Z</time></trkpt><trkpt lat="43.78955108038334" lon="11.598643811536338"><ele>1010.0</ele><time>2026-04-25T07:55:10.999Z</time></trkpt><trkpt lat="43.789428223829134" lon="11.598658573871445"><ele>1010.0</ele><time>2026-04-25T07:55:11.999Z</time></trkpt><trkpt lat="43.789322972112316" lon="11.598649483351755"><ele>1010.0</ele><time>2026-04-25T07:55:12.999Z</time></trkpt><trkpt lat="43.78921966390442" lon="11.59864725228835"><ele>1010.0</ele><time>2026-04-25T07:55:13.999Z</time></trkpt><trkpt lat="43.789124745084784" lon="11.5986465504271"><ele>1010.0</ele><time>2026-04-25T07:55:14.999Z</time></trkpt><trkpt lat="43.78905084359271" lon="11.598636586746569"><ele>1009.3333333333334</ele><time>2026-04-25T07:55:15.999Z</time></trkpt><trkpt lat="43.78897515977384" lon="11.598639087598023"><ele>1008.6666666666667</ele><time>2026-04-25T07:55:16.999Z</time></trkpt><trkpt lat="43.78890707790694" lon="11.598663019288548"><ele>1008.0</ele><time>2026-04-25T07:55:17.999Z</time></trkpt><trkpt lat="43.788833371974455" lon="11.598688508987475"><ele>1007.3333333333333</ele><time>2026-04-25T07:55:18.999Z</time></trkpt><trkpt lat="43.78875662283784" lon="11.598743251090095"><ele>1006.6666666666666</ele><time>2026-04-25T07:55:19.999Z</time></trkpt><trkpt lat="43.78867838574478" lon="11.598828216331377"><ele>1006.0</ele><time>2026-04-25T07:55:21.999Z</time></trkpt><trkpt lat="43.788653673456565" lon="11.598912037488951"><ele>1008.3333333333333</ele><time>2026-04-25T07:55:22.999Z</time></trkpt><trkpt lat="43.78855527946108" lon="11.598877166559815"><ele>1010.6666666666666</ele><time>2026-04-25T07:55:25.999Z</time></trkpt><trkpt lat="43.78849164811634" lon="11.598820177483079"><ele>1013.0</ele><time>2026-04-25T07:55:26.999Z</time></trkpt><trkpt lat="43.78843313500591" lon="11.598778876178423"><ele>1015.3333333333333</ele><time>2026-04-25T07:55:27.999Z</time></trkpt><trkpt lat="43.78831817694677" lon="11.598822573511972"><ele>1017.6666666666666</ele><time>2026-04-25T07:55:29.999Z</time></trkpt><trkpt lat="43.78824910817474" lon="11.59889613495238"><ele>1020.0</ele><time>2026-04-25T07:55:30.999Z</time></trkpt><trkpt lat="43.78817915881008" lon="11.598970718322184"><ele>1020.0</ele><time>2026-04-25T07:55:31.999Z</time></trkpt><trkpt lat="43.788136332763806" lon="11.599157661912232"><ele>1020.0</ele><time>2026-04-25T07:55:33.999Z</time></trkpt><trkpt lat="43.788135720302655" lon="11.599281204684841"><ele>1020.0</ele><time>2026-04-25T07:55:34.999Z</time></trkpt><trkpt lat="43.788135814873854" lon="11.599399288315537"><ele>1020.0</ele><time>2026-04-25T07:55:35.999Z</time></trkpt><trkpt lat="43.78814286748194" lon="11.599507390955216"><ele>1020.0</ele><time>2026-04-25T07:55:36.999Z</time></trkpt><trkpt lat="43.78815849860688" lon="11.599675049958913"><ele>1020.0</ele><time>2026-04-25T07:55:38.999Z</time></trkpt><trkpt lat="43.78815819249991" lon="11.599771222619644"><ele>1020.0</ele><time>2026-04-25T07:55:40.999Z</time></trkpt><trkpt lat="43.78808890432995" lon="11.599772583653762"><ele>1020.0</ele><time>2026-04-25T07:55:42.999Z</time></trkpt><trkpt lat="43.78802718551284" lon="11.599735644791618"><ele>1020.0</ele><time>2026-04-25T07:55:43.999Z</time></trkpt><trkpt lat="43.78797378493298" lon="11.599625135867734"><ele>1020.0</ele><time>2026-04-25T07:55:44.999Z</time></trkpt><trkpt lat="43.787940312546894" lon="11.599502943521301"><ele>1020.0</ele><time>2026-04-25T07:55:45.999Z</time></trkpt><trkpt lat="43.78789498712422" lon="11.599395539836783"><ele>1020.0</ele><time>2026-04-25T07:55:46.999Z</time></trkpt><trkpt lat="43.78783247098062" lon="11.599331560307673"><ele>1020.0000000000001</ele><time>2026-04-25T07:55:47.999Z</time></trkpt><trkpt lat="43.787763189621685" lon="11.599313679001234"><ele>1020.0</ele><time>2026-04-25T07:55:48.999Z</time></trkpt><trkpt lat="43.78769447571855" lon="11.599321295570727"><ele>1020.0</ele><time>2026-04-25T07:55:49.999Z</time></trkpt><trkpt lat="43.78763280020404" lon="11.599348232685665"><ele>1020.0000000000001</ele><time>2026-04-25T07:55:50.999Z</time></trkpt><trkpt lat="43.787565062448564" lon="11.599394557451813"><ele>1020.0</ele><time>2026-04-25T07:55:51.999Z</time></trkpt><trkpt lat="43.787491574383" lon="11.599447110845043"><ele>1020.0</ele><time>2026-04-25T07:55:54Z</time></trkpt><trkpt lat="43.78744291405262" lon="11.59951999141784"><ele>1021.4</ele><time>2026-04-25T07:56:39Z</time></trkpt><trkpt lat="43.78740720544815" lon="11.599616494794313"><ele>1022.8</ele><time>2026-04-25T08:01:08.999Z</time></trkpt><trkpt lat="43.787397733083445" lon="11.599769925283061"><ele>1024.2</ele><time>2026-04-25T08:01:10.999Z</time></trkpt><trkpt lat="43.78745420586603" lon="11.599953679774528"><ele>1025.6</ele><time>2026-04-25T08:01:11.999Z</time></trkpt><trkpt lat="43.78746453534665" lon="11.600063979089525"><ele>1027.0</ele><time>2026-04-25T08:01:12.999Z</time></trkpt><trkpt lat="43.78744452136611" lon="11.600265351270968"><ele>1030.8</ele><time>2026-04-25T08:01:14.999Z</time></trkpt><trkpt lat="43.78745278671115" lon="11.600425595720365"><ele>1034.6</ele><time>2026-04-25T08:01:15.999Z</time></trkpt><trkpt lat="43.787464920758545" lon="11.600574740065841"><ele>1038.3999999999999</ele><time>2026-04-25T08:01:16.999Z</time></trkpt><trkpt lat="43.787473592694965" lon="11.600715570361851"><ele>1042.2</ele><time>2026-04-25T08:01:17.999Z</time></trkpt><trkpt lat="43.78747969305714" lon="11.600882305892299"><ele>1046.0</ele><time>2026-04-25T08:01:18.999Z</time></trkpt><trkpt lat="43.787492836155536" lon="11.601082227294016"><ele>1049.0</ele><time>2026-04-25T08:01:19.999Z</time></trkpt><trkpt lat="43.787495184779985" lon="11.601274014755164"><ele>1052.0</ele><time>2026-04-25T08:01:20.999Z</time></trkpt><trkpt lat="43.787485061181755" lon="11.601449872027365"><ele>1055.0</ele><time>2026-04-25T08:01:21.999Z</time></trkpt><trkpt lat="43.78746205884521" lon="11.601629710428403"><ele>1058.0</ele><time>2026-04-25T08:01:22.999Z</time></trkpt><trkpt lat="43.78745785241073" lon="11.60179224805419"><ele>1058.0</ele><time>2026-04-25T08:01:23.999Z</time></trkpt><trkpt lat="43.78745407096743" lon="11.601953315668277"><ele>1058.0</ele><time>2026-04-25T08:01:24.999Z</time></trkpt><trkpt lat="43.78743471400363" lon="11.602079969201291"><ele>1058.0</ele><time>2026-04-25T08:01:25.999Z</time></trkpt><trkpt lat="43.78741795309872" lon="11.602190491641142"><ele>1058.0</ele><time>2026-04-25T08:01:26.999Z</time></trkpt><trkpt lat="43.78742445780187" lon="11.60232951670636"><ele>1058.0</ele><time>2026-04-25T08:01:27.999Z</time></trkpt><trkpt lat="43.78742109755264" lon="11.602484832245436"><ele>1061.4</ele><time>2026-04-25T08:01:28.999Z</time></trkpt><trkpt lat="43.7874032259777" lon="11.602636504896628"><ele>1064.8</ele><time>2026-04-25T08:01:29.999Z</time></trkpt><trkpt lat="43.78738905026043" lon="11.602778053868088"><ele>1068.2</ele><time>2026-04-25T08:01:30.999Z</time></trkpt><trkpt lat="43.78736044698929" lon="11.60292186966121"><ele>1071.6</ele><time>2026-04-25T08:01:31.999Z</time></trkpt><trkpt lat="43.787346171624456" lon="11.603022663723134"><ele>1075.0</ele><time>2026-04-25T08:01:32.999Z</time></trkpt><trkpt lat="43.78730967896713" lon="11.603107508119546"><ele>1076.4285714285716</ele><time>2026-04-25T08:01:34.999Z</time></trkpt><trkpt lat="43.787340861384266" lon="11.603030265462406"><ele>1077.857142857143</ele><time>2026-04-25T08:01:48.999Z</time></trkpt><trkpt lat="43.78734851945285" lon="11.602923986229563"><ele>1079.2857142857142</ele><time>2026-04-25T08:01:50.999Z</time></trkpt><trkpt lat="43.78735702702427" lon="11.602832421009985"><ele>1080.7142857142858</ele><time>2026-04-25T08:01:55.999Z</time></trkpt><trkpt lat="43.78735329227042" lon="11.602937251425198"><ele>1082.142857142857</ele><time>2026-04-25T08:02:24Z</time></trkpt><trkpt lat="43.78734730184597" lon="11.603024108384844"><ele>1083.5714285714287</ele><time>2026-04-25T08:02:29Z</time></trkpt><trkpt lat="43.7873126996369" lon="11.603103843155786"><ele>1085.0</ele><time>2026-04-25T08:02:34Z</time></trkpt><trkpt lat="43.78732771775373" lon="11.603195074088076"><ele>1085.0</ele><time>2026-04-25T08:02:48Z</time></trkpt><trkpt lat="43.78729681648742" lon="11.603088530100523"><ele>1085.0</ele><time>2026-04-25T08:04:04Z</time></trkpt><trkpt lat="43.78728748982831" lon="11.603212035826006"><ele>1085.0</ele><time>2026-04-25T08:04:55Z</time></trkpt><trkpt lat="43.78729339132573" lon="11.603302098591906"><ele>1085.0</ele><time>2026-04-25T08:04:56Z</time></trkpt><trkpt lat="43.78727934911393" lon="11.603517524312215"><ele>1085.0</ele><time>2026-04-25T08:04:58Z</time></trkpt><trkpt lat="43.78718007924978" lon="11.603583096878353"><ele>1085.0</ele><time>2026-04-25T08:05:00Z</time></trkpt><trkpt lat="43.78710689614673" lon="11.60355558055629"><ele>1085.0</ele><time>2026-04-25T08:05:01Z</time></trkpt><trkpt lat="43.786995734848304" lon="11.603530461363274"><ele>1085.0</ele><time>2026-04-25T08:05:02Z</time></trkpt><trkpt lat="43.78685948079549" lon="11.603509865055042"><ele>1085.0</ele><time>2026-04-25T08:05:03Z</time></trkpt><trkpt lat="43.786706569776115" lon="11.603461221417163"><ele>1082.75</ele><time>2026-04-25T08:05:04Z</time></trkpt><trkpt lat="43.78656716235665" lon="11.60342874974059"><ele>1080.5</ele><time>2026-04-25T08:05:05Z</time></trkpt><trkpt lat="43.78644684400753" lon="11.603397892463459"><ele>1078.25</ele><time>2026-04-25T08:05:06Z</time></trkpt><trkpt lat="43.78633604096814" lon="11.603359859859"><ele>1076.0</ele><time>2026-04-25T08:05:07Z</time></trkpt><trkpt lat="43.78622266570658" lon="11.603334542545777"><ele>1076.0</ele><time>2026-04-25T08:05:08Z</time></trkpt><trkpt lat="43.786122806564414" lon="11.603306774056206"><ele>1076.0</ele><time>2026-04-25T08:05:09Z</time></trkpt><trkpt lat="43.78603537777596" lon="11.603233401208751"><ele>1076.0</ele><time>2026-04-25T08:05:10Z</time></trkpt><trkpt lat="43.78593278286692" lon="11.603157024995479"><ele>1076.0</ele><time>2026-04-25T08:05:11Z</time></trkpt><trkpt lat="43.78580395677687" lon="11.603111991395888"><ele>1075.0</ele><time>2026-04-25T08:05:12Z</time></trkpt><trkpt lat="43.785710194194635" lon="11.603068421935093"><ele>1074.0</ele><time>2026-04-25T08:05:13Z</time></trkpt><trkpt lat="43.78558498580659" lon="11.603003793407277"><ele>1073.0</ele><time>2026-04-25T08:05:14Z</time></trkpt><trkpt lat="43.7854337049295" lon="11.602957107993511"><ele>1072.0</ele><time>2026-04-25T08:05:15Z</time></trkpt><trkpt lat="43.785329707298914" lon="11.60291985170438"><ele>1072.0</ele><time>2026-04-25T08:05:16Z</time></trkpt><trkpt lat="43.785220684141656" lon="11.602877580662975"><ele>1072.0</ele><time>2026-04-25T08:05:17Z</time></trkpt><trkpt lat="43.78511656960867" lon="11.602830757630167"><ele>1072.0</ele><time>2026-04-25T08:05:18Z</time></trkpt><trkpt lat="43.785021686823605" lon="11.602799282955454"><ele>1072.0</ele><time>2026-04-25T08:05:19Z</time></trkpt><trkpt lat="43.78493470292105" lon="11.602782406063554"><ele>1072.0</ele><time>2026-04-25T08:05:20Z</time></trkpt><trkpt lat="43.78486398095325" lon="11.602763772291167"><ele>1072.6</ele><time>2026-04-25T08:05:21Z</time></trkpt><trkpt lat="43.784798178506385" lon="11.602718412217968"><ele>1073.2</ele><time>2026-04-25T08:05:22Z</time></trkpt><trkpt lat="43.78473570691742" lon="11.602635488962926"><ele>1073.8</ele><time>2026-04-25T08:05:23Z</time></trkpt><trkpt lat="43.78468081576338" lon="11.602494928477517"><ele>1074.4</ele><time>2026-04-25T08:05:24Z</time></trkpt><trkpt lat="43.78461993347504" lon="11.602339432629618"><ele>1075.0</ele><time>2026-04-25T08:05:25Z</time></trkpt><trkpt lat="43.78454105999096" lon="11.602159841292346"><ele>1074.3333333333333</ele><time>2026-04-25T08:05:26Z</time></trkpt><trkpt lat="43.784451806637406" lon="11.601984537255229"><ele>1073.6666666666667</ele><time>2026-04-25T08:05:27Z</time></trkpt><trkpt lat="43.784353997161034" lon="11.601809201212406"><ele>1073.0</ele><time>2026-04-25T08:05:28Z</time></trkpt><trkpt lat="43.78427526239423" lon="11.601653501036587"><ele>1074.0</ele><time>2026-04-25T08:05:29Z</time></trkpt><trkpt lat="43.78420346320674" lon="11.601526085267347"><ele>1075.0</ele><time>2026-04-25T08:05:30Z</time></trkpt><trkpt lat="43.78414225080446" lon="11.601445089818837"><ele>1076.0</ele><time>2026-04-25T08:05:31Z</time></trkpt><trkpt lat="43.78405702266442" lon="11.601407299759163"><ele>1077.0</ele><time>2026-04-25T08:05:33Z</time></trkpt><trkpt lat="43.78395899243129" lon="11.601361629297196"><ele>1078.0</ele><time>2026-04-25T08:05:36Z</time></trkpt><trkpt lat="43.783864579059255" lon="11.601295545630855"><ele>1078.0</ele><time>2026-04-25T08:05:38Z</time></trkpt><trkpt lat="43.78380499674009" lon="11.601245026439999"><ele>1078.0</ele><time>2026-04-25T08:05:39Z</time></trkpt><trkpt lat="43.783748470095226" lon="11.601185573534245"><ele>1078.0</ele><time>2026-04-25T08:05:40Z</time></trkpt><trkpt lat="43.78364878720826" lon="11.601118072765098"><ele>1078.0</ele><time>2026-04-25T08:05:42Z</time></trkpt><trkpt lat="43.78354176110673" lon="11.601114393536886"><ele>1078.0</ele><time>2026-04-25T08:05:44Z</time></trkpt><trkpt lat="43.78346907164653" lon="11.601123847776421"><ele>1078.0</ele><time>2026-04-25T08:05:46Z</time></trkpt><trkpt lat="43.78341258194467" lon="11.601083935898725"><ele>1076.0</ele><time>2026-04-25T08:05:48Z</time></trkpt><trkpt lat="43.78337645579686" lon="11.60099188448288"><ele>1074.0</ele><time>2026-04-25T08:05:50Z</time></trkpt><trkpt lat="43.78329838434166" lon="11.600928873769746"><ele>1072.0</ele><time>2026-04-25T08:05:53Z</time></trkpt><trkpt lat="43.783195236643564" lon="11.600960416268347"><ele>1070.0</ele><time>2026-04-25T08:05:55Z</time></trkpt><trkpt lat="43.783123796058334" lon="11.600976777029116"><ele>1068.0</ele><time>2026-04-25T08:05:57Z</time></trkpt><trkpt lat="43.78304444121939" lon="11.601031753386179"><ele>1066.0</ele><time>2026-04-25T08:05:59Z</time></trkpt><trkpt lat="43.782963516637324" lon="11.601091036934498"><ele>1066.0</ele><time>2026-04-25T08:06:01Z</time></trkpt><trkpt lat="43.782850816962416" lon="11.601118249665037"><ele>1066.0</ele><time>2026-04-25T08:06:03Z</time></trkpt><trkpt lat="43.78277485010444" lon="11.601112821267991"><ele>1066.0</ele><time>2026-04-25T08:06:04Z</time></trkpt><trkpt lat="43.78268202511616" lon="11.601094509269622"><ele>1066.0</ele><time>2026-04-25T08:06:06Z</time></trkpt><trkpt lat="43.78271202120072" lon="11.601009791984033"><ele>1066.0</ele><time>2026-04-25T08:06:23Z</time></trkpt><trkpt lat="43.78269283897586" lon="11.60109780617491"><ele>1066.0</ele><time>2026-04-25T08:07:49Z</time></trkpt><trkpt lat="43.78269605130086" lon="11.601190587014267"><ele>1066.0</ele><time>2026-04-25T08:07:56Z</time></trkpt><trkpt lat="43.78269736311443" lon="11.60127845661553"><ele>1066.0</ele><time>2026-04-25T08:08:04Z</time></trkpt><trkpt lat="43.78263030679526" lon="11.60128928186993"><ele>1066.0</ele><time>2026-04-25T08:10:28Z</time></trkpt><trkpt lat="43.782669753228184" lon="11.601376297276232"><ele>1066.0</ele><time>2026-04-25T08:10:41Z</time></trkpt><trkpt lat="43.78268804132898" lon="11.601285583107726"><ele>1066.0</ele><time>2026-04-25T08:13:00Z</time></trkpt><trkpt lat="43.782686183983984" lon="11.601193460101577"><ele>1066.0</ele><time>2026-04-25T08:13:10Z</time></trkpt><trkpt lat="43.78268374055199" lon="11.601102101956311"><ele>1066.0</ele><time>2026-04-25T08:14:08Z</time></trkpt><trkpt lat="43.782600667859434" lon="11.601068563650545"><ele>1066.0</ele><time>2026-04-25T08:14:47Z</time></trkpt><trkpt lat="43.782693118439944" lon="11.601083948824607"><ele>1066.0</ele><time>2026-04-25T08:16:03Z</time></trkpt><trkpt lat="43.78266850741035" lon="11.601165298109176"><ele>1066.0</ele><time>2026-04-25T08:16:09Z</time></trkpt><trkpt lat="43.78268194617822" lon="11.601072556457058"><ele>1066.0</ele><time>2026-04-25T08:19:16Z</time></trkpt><trkpt lat="43.78272943228361" lon="11.601001511270626"><ele>1066.0</ele><time>2026-04-25T08:20:48.999Z</time></trkpt><trkpt lat="43.7828001836625" lon="11.60102400313098"><ele>1066.0</ele><time>2026-04-25T08:21:07Z</time></trkpt><trkpt lat="43.78285851578836" lon="11.60108219191469"><ele>1066.0</ele><time>2026-04-25T08:21:09Z</time></trkpt><trkpt lat="43.78292147122122" lon="11.601066428067462"><ele>1066.0</ele><time>2026-04-25T08:21:13Z</time></trkpt><trkpt lat="43.78298929327467" lon="11.601053035747457"><ele>1066.0</ele><time>2026-04-25T08:21:14Z</time></trkpt><trkpt lat="43.78309138254475" lon="11.60101213002616"><ele>1066.0</ele><time>2026-04-25T08:21:15Z</time></trkpt><trkpt lat="43.78320512328497" lon="11.600936895199844"><ele>1066.0</ele><time>2026-04-25T08:21:16Z</time></trkpt><trkpt lat="43.783281570347" lon="11.60089242241118"><ele>1066.0</ele><time>2026-04-25T08:21:17Z</time></trkpt><trkpt lat="43.78341144500953" lon="11.600958241988616"><ele>1066.0</ele><time>2026-04-25T08:21:19Z</time></trkpt><trkpt lat="43.783497660723654" lon="11.601068200793687"><ele>1066.0</ele><time>2026-04-25T08:21:21Z</time></trkpt><trkpt lat="43.783552701947094" lon="11.601117167054937"><ele>1066.0</ele><time>2026-04-25T08:21:22Z</time></trkpt><trkpt lat="43.78362556564077" lon="11.60116357904862"><ele>1066.0</ele><time>2026-04-25T08:21:23Z</time></trkpt><trkpt lat="43.783695819720755" lon="11.601144362278065"><ele>1066.0</ele><time>2026-04-25T08:21:24Z</time></trkpt><trkpt lat="43.78376312750597" lon="11.60118550753599"><ele>1066.0</ele><time>2026-04-25T08:21:25Z</time></trkpt><trkpt lat="43.78383222358882" lon="11.60124362193643"><ele>1068.0</ele><time>2026-04-25T08:21:26Z</time></trkpt><trkpt lat="43.783895295697704" lon="11.601295823694613"><ele>1070.0</ele><time>2026-04-25T08:21:27Z</time></trkpt><trkpt lat="43.78396986733821" lon="11.601331023755792"><ele>1072.0</ele><time>2026-04-25T08:21:28Z</time></trkpt><trkpt lat="43.7840355568762" lon="11.601379986946474"><ele>1074.0</ele><time>2026-04-25T08:21:29Z</time></trkpt><trkpt lat="43.78411556053416" lon="11.601453847889923"><ele>1076.0</ele><time>2026-04-25T08:21:30Z</time></trkpt><trkpt lat="43.78419697681003" lon="11.601525693440431"><ele>1078.0</ele><time>2026-04-25T08:21:31Z</time></trkpt><trkpt lat="43.78424995154983" lon="11.60160517220064"><ele>1078.0</ele><time>2026-04-25T08:21:33Z</time></trkpt><trkpt lat="43.78434347296893" lon="11.60168724370092"><ele>1078.0</ele><time>2026-04-25T08:23:40Z</time></trkpt><trkpt lat="43.784420223713035" lon="11.60181563262345"><ele>1078.0</ele><time>2026-04-25T08:23:42Z</time></trkpt><trkpt lat="43.78446458206634" lon="11.60192794780807"><ele>1078.0</ele><time>2026-04-25T08:23:43Z</time></trkpt><trkpt lat="43.78452497555343" lon="11.602046578588268"><ele>1078.0</ele><time>2026-04-25T08:23:44Z</time></trkpt><trkpt lat="43.78459055462819" lon="11.602175859905426"><ele>1077.0</ele><time>2026-04-25T08:23:45Z</time></trkpt><trkpt lat="43.78462472346498" lon="11.602253978261011"><ele>1076.0</ele><time>2026-04-25T08:23:47Z</time></trkpt><trkpt lat="43.78477923855035" lon="11.60265071046452"><ele>1075.0</ele><time>2026-04-25T08:23:49Z</time></trkpt><trkpt lat="43.784862296195165" lon="11.602798460575773"><ele>1076.0</ele><time>2026-04-25T08:23:50Z</time></trkpt><trkpt lat="43.78503347902855" lon="11.602889590831362"><ele>1077.0</ele><time>2026-04-25T08:23:51Z</time></trkpt><trkpt lat="43.78520444186853" lon="11.602955092720158"><ele>1078.0</ele><time>2026-04-25T08:23:52Z</time></trkpt><trkpt lat="43.78535362985643" lon="11.602999894234273"><ele>1076.8</ele><time>2026-04-25T08:23:53Z</time></trkpt><trkpt lat="43.78546335638115" lon="11.603024437557043"><ele>1075.6</ele><time>2026-04-25T08:23:54Z</time></trkpt><trkpt lat="43.785570389275776" lon="11.60301332257252"><ele>1074.4</ele><time>2026-04-25T08:23:55Z</time></trkpt><trkpt lat="43.78566037444742" lon="11.603056231024246"><ele>1073.2</ele><time>2026-04-25T08:23:56Z</time></trkpt><trkpt lat="43.785778177118175" lon="11.603108064509732"><ele>1072.0</ele><time>2026-04-25T08:23:57Z</time></trkpt><trkpt lat="43.785897179530025" lon="11.603186939674593"><ele>1072.0</ele><time>2026-04-25T08:23:58Z</time></trkpt><trkpt lat="43.78600088670854" lon="11.6032462145167"><ele>1072.0</ele><time>2026-04-25T08:23:59Z</time></trkpt><trkpt lat="43.78610736503694" lon="11.603270890879914"><ele>1072.0</ele><time>2026-04-25T08:24:00Z</time></trkpt><trkpt lat="43.78623538351684" lon="11.603284977952605"><ele>1072.0</ele><time>2026-04-25T08:24:01Z</time></trkpt><trkpt lat="43.786365421170025" lon="11.603305977691736"><ele>1073.0</ele><time>2026-04-25T08:24:02Z</time></trkpt><trkpt lat="43.7865054850812" lon="11.60334886209062"><ele>1074.0</ele><time>2026-04-25T08:24:03Z</time></trkpt><trkpt lat="43.786624406150366" lon="11.603373049801085"><ele>1075.0</ele><time>2026-04-25T08:24:04Z</time></trkpt><trkpt lat="43.78676174911766" lon="11.603400880917118"><ele>1076.0</ele><time>2026-04-25T08:24:05Z</time></trkpt><trkpt lat="43.78690536283363" lon="11.603428341525364"><ele>1078.25</ele><time>2026-04-25T08:24:06Z</time></trkpt><trkpt lat="43.787030639202605" lon="11.603465305912826"><ele>1080.5</ele><time>2026-04-25T08:24:07Z</time></trkpt><trkpt lat="43.78717071009059" lon="11.603502640437632"><ele>1082.75</ele><time>2026-04-25T08:24:08Z</time></trkpt><trkpt lat="43.78730603611112" lon="11.603534907269621"><ele>1085.0</ele><time>2026-04-25T08:24:08.999Z</time></trkpt><trkpt lat="43.787419634814775" lon="11.603554361005221"><ele>1085.0</ele><time>2026-04-25T08:24:09.999Z</time></trkpt><trkpt lat="43.78752834933886" lon="11.603589201650653"><ele>1085.0</ele><time>2026-04-25T08:24:10.999Z</time></trkpt><trkpt lat="43.78764691603513" lon="11.603624264939212"><ele>1085.0</ele><time>2026-04-25T08:24:11.999Z</time></trkpt><trkpt lat="43.78777317083428" lon="11.60363862785079"><ele>1085.0</ele><time>2026-04-25T08:24:12.999Z</time></trkpt><trkpt lat="43.7878914762709" lon="11.603668313914284"><ele>1084.4</ele><time>2026-04-25T08:24:13.999Z</time></trkpt><trkpt lat="43.787989322215665" lon="11.603697595635216"><ele>1083.8</ele><time>2026-04-25T08:24:14.999Z</time></trkpt><trkpt lat="43.788079037886384" lon="11.603723240897072"><ele>1083.2</ele><time>2026-04-25T08:24:15.999Z</time></trkpt><trkpt lat="43.78816672751155" lon="11.603753123630886"><ele>1082.6</ele><time>2026-04-25T08:24:16.999Z</time></trkpt><trkpt lat="43.7882706007646" lon="11.603785805358454"><ele>1082.0</ele><time>2026-04-25T08:24:17.999Z</time></trkpt><trkpt lat="43.788359991607045" lon="11.603801499750634"><ele>1082.0</ele><time>2026-04-25T08:24:18.999Z</time></trkpt><trkpt lat="43.788442923327736" lon="11.603822514492746"><ele>1082.0</ele><time>2026-04-25T08:24:19.999Z</time></trkpt><trkpt lat="43.78851787323877" lon="11.603854985506779"><ele>1082.0</ele><time>2026-04-25T08:24:20.999Z</time></trkpt><trkpt lat="43.78861148393608" lon="11.603856196985957"><ele>1082.0</ele><time>2026-04-25T08:24:21.999Z</time></trkpt><trkpt lat="43.78873413073253" lon="11.603877744856776"><ele>1082.0</ele><time>2026-04-25T08:24:22.999Z</time></trkpt><trkpt lat="43.78885544456234" lon="11.603897060704313"><ele>1081.6</ele><time>2026-04-25T08:24:23.999Z</time></trkpt><trkpt lat="43.788938496563404" lon="11.60392248356439"><ele>1081.2</ele><time>2026-04-25T08:24:24.999Z</time></trkpt><trkpt lat="43.78901454706335" lon="11.603934222674583"><ele>1080.8</ele><time>2026-04-25T08:24:25.999Z</time></trkpt><trkpt lat="43.78909662905126" lon="11.603895944082554"><ele>1080.4</ele><time>2026-04-25T08:24:26.999Z</time></trkpt><trkpt lat="43.789202767187874" lon="11.603820564305181"><ele>1080.0</ele><time>2026-04-25T08:24:27.999Z</time></trkpt><trkpt lat="43.789319386554055" lon="11.603752415690012"><ele>1081.6666666666667</ele><time>2026-04-25T08:24:28.999Z</time></trkpt><trkpt lat="43.78946013317069" lon="11.603661167235678"><ele>1083.3333333333335</ele><time>2026-04-25T08:24:29.999Z</time></trkpt><trkpt lat="43.789600815762135" lon="11.603575609692063"><ele>1085.0</ele><time>2026-04-25T08:24:30.999Z</time></trkpt><trkpt lat="43.78975071915185" lon="11.603472917028787"><ele>1085.0</ele><time>2026-04-25T08:24:31.999Z</time></trkpt><trkpt lat="43.789859145776205" lon="11.603428118818133"><ele>1085.0</ele><time>2026-04-25T08:24:32.999Z</time></trkpt><trkpt lat="43.789960965294505" lon="11.603374108091753"><ele>1085.0</ele><time>2026-04-25T08:24:33.999Z</time></trkpt><trkpt lat="43.790070206555875" lon="11.603292181462463"><ele>1085.0</ele><time>2026-04-25T08:24:34.999Z</time></trkpt><trkpt lat="43.790162988713355" lon="11.603203797808368"><ele>1084.3333333333335</ele><time>2026-04-25T08:24:35.999Z</time></trkpt><trkpt lat="43.790240172130616" lon="11.603115733498056"><ele>1083.6666666666667</ele><time>2026-04-25T08:24:36.999Z</time></trkpt><trkpt lat="43.79030657797101" lon="11.603046236141713"><ele>1083.0</ele><time>2026-04-25T08:24:37.999Z</time></trkpt><trkpt lat="43.79034807789239" lon="11.60296096618657"><ele>1082.3333333333333</ele><time>2026-04-25T08:24:38.999Z</time></trkpt><trkpt lat="43.790379663137564" lon="11.602878859752249"><ele>1081.6666666666665</ele><time>2026-04-25T08:24:39.999Z</time></trkpt><trkpt lat="43.79043097942673" lon="11.602812975579212"><ele>1081.0</ele><time>2026-04-25T08:24:40.999Z</time></trkpt><trkpt lat="43.7904995996523" lon="11.60274516602337"><ele>1081.0</ele><time>2026-04-25T08:24:41.999Z</time></trkpt><trkpt lat="43.7905726395698" lon="11.602681636720298"><ele>1081.0</ele><time>2026-04-25T08:24:42.999Z</time></trkpt><trkpt lat="43.79063286090884" lon="11.602616136340508"><ele>1081.0</ele><time>2026-04-25T08:24:43.999Z</time></trkpt><trkpt lat="43.790675409849044" lon="11.602545081930321"><ele>1081.0</ele><time>2026-04-25T08:24:44.999Z</time></trkpt><trkpt lat="43.79075548489839" lon="11.602473206676198"><ele>1081.0</ele><time>2026-04-25T08:24:45.999Z</time></trkpt><trkpt lat="43.79087827661142" lon="11.602477248290521"><ele>1081.0</ele><time>2026-04-25T08:24:46.999Z</time></trkpt><trkpt lat="43.790951724560244" lon="11.602401569985684"><ele>1079.3999999999999</ele><time>2026-04-25T08:24:47.999Z</time></trkpt><trkpt lat="43.79102897193056" lon="11.602345026314923"><ele>1077.8</ele><time>2026-04-25T08:24:48.999Z</time></trkpt><trkpt lat="43.79111938482334" lon="11.602298358610891"><ele>1076.1999999999998</ele><time>2026-04-25T08:24:49.999Z</time></trkpt><trkpt lat="43.79121396424713" lon="11.602261476694034"><ele>1074.6</ele><time>2026-04-25T08:24:50.999Z</time></trkpt><trkpt lat="43.7913122333967" lon="11.602229371062764"><ele>1073.0</ele><time>2026-04-25T08:24:51.999Z</time></trkpt><trkpt lat="43.79141841963434" lon="11.60221335547427"><ele>1073.0</ele><time>2026-04-25T08:24:52.999Z</time></trkpt><trkpt lat="43.791535877568016" lon="11.60223173723256"><ele>1073.0</ele><time>2026-04-25T08:24:53.999Z</time></trkpt><trkpt lat="43.79163786586171" lon="11.602243853347092"><ele>1073.0</ele><time>2026-04-25T08:24:54.999Z</time></trkpt><trkpt lat="43.791720938261584" lon="11.602250636732714"><ele>1073.0</ele><time>2026-04-25T08:24:55.999Z</time></trkpt><trkpt lat="43.79180039929273" lon="11.602254476993389"><ele>1073.0</ele><time>2026-04-25T08:24:56.999Z</time></trkpt><trkpt lat="43.7918656754366" lon="11.602254689891115"><ele>1073.0</ele><time>2026-04-25T08:24:57.999Z</time></trkpt><trkpt lat="43.791936607807344" lon="11.602271360047393"><ele>1071.2</ele><time>2026-04-25T08:24:58.999Z</time></trkpt><trkpt lat="43.79202187142058" lon="11.60227708763068"><ele>1069.4</ele><time>2026-04-25T08:24:59.999Z</time></trkpt><trkpt lat="43.79210940636256" lon="11.602276938574132"><ele>1067.6000000000001</ele><time>2026-04-25T08:25:00.999Z</time></trkpt><trkpt lat="43.79220596689511" lon="11.602279545938803"><ele>1065.8</ele><time>2026-04-25T08:25:01.999Z</time></trkpt><trkpt lat="43.79230787184774" lon="11.602282921119196"><ele>1064.0</ele><time>2026-04-25T08:25:02.999Z</time></trkpt><trkpt lat="43.79242881976054" lon="11.602290978145183"><ele>1064.0</ele><time>2026-04-25T08:25:03.999Z</time></trkpt><trkpt lat="43.792535378260574" lon="11.602295188094887"><ele>1064.0</ele><time>2026-04-25T08:25:04.999Z</time></trkpt><trkpt lat="43.79263339881405" lon="11.602302135856752"><ele>1064.0</ele><time>2026-04-25T08:25:05.999Z</time></trkpt><trkpt lat="43.79272460155009" lon="11.60230463992752"><ele>1064.0</ele><time>2026-04-25T08:25:06.999Z</time></trkpt><trkpt lat="43.79282237569817" lon="11.602314179781358"><ele>1064.0</ele><time>2026-04-25T08:25:07.999Z</time></trkpt><trkpt lat="43.79293223029302" lon="11.602299418088885"><ele>1061.6666666666667</ele><time>2026-04-25T08:25:08.999Z</time></trkpt><trkpt lat="43.79301221169717" lon="11.602329565495976"><ele>1059.3333333333335</ele><time>2026-04-25T08:25:09.999Z</time></trkpt><trkpt lat="43.79308712766447" lon="11.60232647903965"><ele>1057.0</ele><time>2026-04-25T08:25:10.999Z</time></trkpt><trkpt lat="43.793185006076136" lon="11.602313573504775"><ele>1054.6666666666667</ele><time>2026-04-25T08:25:13Z</time></trkpt><trkpt lat="43.79326755968033" lon="11.602322943796441"><ele>1052.3333333333333</ele><time>2026-04-25T08:25:15Z</time></trkpt><trkpt lat="43.793340735873834" lon="11.602313460260982"><ele>1050.0</ele><time>2026-04-25T08:25:17Z</time></trkpt><trkpt lat="43.79342158282673" lon="11.602316730421894"><ele>1050.0</ele><time>2026-04-25T08:25:20Z</time></trkpt><trkpt lat="43.79350116129061" lon="11.60232196660664"><ele>1050.0</ele><time>2026-04-25T08:25:22Z</time></trkpt><trkpt lat="43.79357329267439" lon="11.602319369290253"><ele>1050.0</ele><time>2026-04-25T08:25:24Z</time></trkpt><trkpt lat="43.79366817469236" lon="11.602311588976097"><ele>1050.0</ele><time>2026-04-25T08:25:26Z</time></trkpt><trkpt lat="43.79373239855161" lon="11.602347233252033"><ele>1050.0</ele><time>2026-04-25T08:25:28Z</time></trkpt><trkpt lat="43.79379423522508" lon="11.602389403855994"><ele>1050.0</ele><time>2026-04-25T08:25:30Z</time></trkpt><trkpt lat="43.793871531923195" lon="11.602438244001206"><ele>1045.3333333333333</ele><time>2026-04-25T08:25:32Z</time></trkpt><trkpt lat="43.79396514178261" lon="11.602512731425767"><ele>1040.6666666666667</ele><time>2026-04-25T08:25:34Z</time></trkpt><trkpt lat="43.794027260877684" lon="11.602546204727583"><ele>1036.0</ele><time>2026-04-25T08:25:35Z</time></trkpt><trkpt lat="43.79408761162804" lon="11.602572567517791"><ele>1031.3333333333335</ele><time>2026-04-25T08:25:36Z</time></trkpt><trkpt lat="43.794206734636994" lon="11.602645603354519"><ele>1026.6666666666667</ele><time>2026-04-25T08:25:38Z</time></trkpt><trkpt lat="43.794264484403044" lon="11.60270751031007"><ele>1022.0</ele><time>2026-04-25T08:25:39Z</time></trkpt><trkpt lat="43.7943364260467" lon="11.602759829041544"><ele>1018.6666666666667</ele><time>2026-04-25T08:25:40Z</time></trkpt><trkpt lat="43.79439922718494" lon="11.602811495763909"><ele>1015.3333333333334</ele><time>2026-04-25T08:25:41Z</time></trkpt><trkpt lat="43.79446311278249" lon="11.60285838374958"><ele>1012.0</ele><time>2026-04-25T08:25:42Z</time></trkpt><trkpt lat="43.794528250372856" lon="11.602899184910438"><ele>1008.6666666666667</ele><time>2026-04-25T08:25:43Z</time></trkpt><trkpt lat="43.794610326729234" lon="11.602953450690432"><ele>1005.3333333333334</ele><time>2026-04-25T08:25:44Z</time></trkpt><trkpt lat="43.794677541837395" lon="11.603008088437505"><ele>1002.0</ele><time>2026-04-25T08:25:45Z</time></trkpt><trkpt lat="43.79475661079563" lon="11.603055593362674"><ele>1001.8333333333334</ele><time>2026-04-25T08:25:46Z</time></trkpt><trkpt lat="43.79483049304353" lon="11.60311817516074"><ele>1001.6666666666667</ele><time>2026-04-25T08:25:47Z</time></trkpt><trkpt lat="43.794900778083786" lon="11.603180441272444"><ele>1001.5</ele><time>2026-04-25T08:25:48Z</time></trkpt><trkpt lat="43.79496056234559" lon="11.603222626622594"><ele>1001.3333333333334</ele><time>2026-04-25T08:25:49Z</time></trkpt><trkpt lat="43.79504116992064" lon="11.603241455697841"><ele>1001.1666666666667</ele><time>2026-04-25T08:25:50Z</time></trkpt><trkpt lat="43.79514509037936" lon="11.603237160374494"><ele>1001.0</ele><time>2026-04-25T08:25:51Z</time></trkpt><trkpt lat="43.79523104283583" lon="11.603256227385312"><ele>1000.0000000000001</ele><time>2026-04-25T08:25:52Z</time></trkpt><trkpt lat="43.79530200986437" lon="11.603302218535019"><ele>999.0</ele><time>2026-04-25T08:25:53Z</time></trkpt><trkpt lat="43.79536485594198" lon="11.603359828394362"><ele>998.0</ele><time>2026-04-25T08:25:54Z</time></trkpt><trkpt lat="43.79543873766637" lon="11.603421286970566"><ele>997.0</ele><time>2026-04-25T08:25:55Z</time></trkpt><trkpt lat="43.79550816631837" lon="11.603491634952684"><ele>996.0000000000001</ele><time>2026-04-25T08:25:56Z</time></trkpt><trkpt lat="43.79558377135158" lon="11.603570765023335"><ele>995.0</ele><time>2026-04-25T08:25:57Z</time></trkpt><trkpt lat="43.7956588734778" lon="11.603667200150673"><ele>995.0</ele><time>2026-04-25T08:25:58Z</time></trkpt><trkpt lat="43.79576111488277" lon="11.603768102322768"><ele>995.0</ele><time>2026-04-25T08:25:59Z</time></trkpt><trkpt lat="43.79583146016515" lon="11.603829836770117"><ele>995.0</ele><time>2026-04-25T08:26:00Z</time></trkpt><trkpt lat="43.79588091801108" lon="11.603900071287928"><ele>995.0</ele><time>2026-04-25T08:26:02Z</time></trkpt><trkpt lat="43.795948204333186" lon="11.60398417975445"><ele>995.0</ele><time>2026-04-25T08:26:04.999Z</time></trkpt><trkpt lat="43.79604030549951" lon="11.604086485156138"><ele>994.2</ele><time>2026-04-25T08:26:06.999Z</time></trkpt><trkpt lat="43.79609562806854" lon="11.604142344704735"><ele>993.4</ele><time>2026-04-25T08:26:07.999Z</time></trkpt><trkpt lat="43.79618665497253" lon="11.604206603277904"><ele>992.5999999999999</ele><time>2026-04-25T08:26:09.999Z</time></trkpt><trkpt lat="43.79631118927491" lon="11.604165683263309"><ele>991.8</ele><time>2026-04-25T08:26:11.999Z</time></trkpt><trkpt lat="43.796383376532646" lon="11.604110973870418"><ele>991.0</ele><time>2026-04-25T08:26:12.999Z</time></trkpt><trkpt lat="43.79645655555273" lon="11.604038914661178"><ele>990.9999999999999</ele><time>2026-04-25T08:26:13.999Z</time></trkpt><trkpt lat="43.79651259193105" lon="11.603965183875207"><ele>991.0</ele><time>2026-04-25T08:26:14.999Z</time></trkpt><trkpt lat="43.7965637208072" lon="11.603890833190023"><ele>991.0</ele><time>2026-04-25T08:26:15.999Z</time></trkpt><trkpt lat="43.79662190034668" lon="11.603837595220515"><ele>991.0</ele><time>2026-04-25T08:26:16.999Z</time></trkpt><trkpt lat="43.796671500323306" lon="11.603778694708172"><ele>990.9999999999999</ele><time>2026-04-25T08:26:17.999Z</time></trkpt><trkpt lat="43.796727956590665" lon="11.603726023160826"><ele>991.0</ele><time>2026-04-25T08:26:18.999Z</time></trkpt><trkpt lat="43.7968020076093" lon="11.603636517915367"><ele>989.4</ele><time>2026-04-25T08:26:20.999Z</time></trkpt><trkpt lat="43.79689368327104" lon="11.603573381972325"><ele>987.8</ele><time>2026-04-25T08:26:22.999Z</time></trkpt><trkpt lat="43.79700317386439" lon="11.603539146711965"><ele>986.1999999999999</ele><time>2026-04-25T08:26:24.999Z</time></trkpt><trkpt lat="43.79707622516218" lon="11.603472539412028"><ele>984.5999999999999</ele><time>2026-04-25T08:26:26.999Z</time></trkpt><trkpt lat="43.79717904661818" lon="11.603430659642871"><ele>983.0</ele><time>2026-04-25T08:26:28.999Z</time></trkpt><trkpt lat="43.797239730142245" lon="11.603403319070175"><ele>983.0000000000001</ele><time>2026-04-25T08:26:29.999Z</time></trkpt><trkpt lat="43.79730812009831" lon="11.603377580102718"><ele>983.0</ele><time>2026-04-25T08:26:30.999Z</time></trkpt><trkpt lat="43.79736979671815" lon="11.603339419212427"><ele>983.0</ele><time>2026-04-25T08:26:31.999Z</time></trkpt><trkpt lat="43.797465011113324" lon="11.603282597121858"><ele>983.0</ele><time>2026-04-25T08:26:33.999Z</time></trkpt><trkpt lat="43.79754695972753" lon="11.603263219200286"><ele>983.0000000000001</ele><time>2026-04-25T08:26:35.999Z</time></trkpt><trkpt lat="43.79763323332595" lon="11.603224688103538"><ele>983.0</ele><time>2026-04-25T08:27:23Z</time></trkpt><trkpt lat="43.797737938088986" lon="11.60317865833196"><ele>985.2</ele><time>2026-04-25T08:27:25Z</time></trkpt><trkpt lat="43.797802823315436" lon="11.603213943302709"><ele>987.4</ele><time>2026-04-25T08:27:26Z</time></trkpt><trkpt lat="43.797889556647185" lon="11.603271735447164"><ele>989.6000000000001</ele><time>2026-04-25T08:27:27Z</time></trkpt><trkpt lat="43.79796909572955" lon="11.60332514642933"><ele>991.8000000000001</ele><time>2026-04-25T08:27:28Z</time></trkpt><trkpt lat="43.798029467001555" lon="11.603405858817696"><ele>994.0</ele><time>2026-04-25T08:27:29Z</time></trkpt><trkpt lat="43.79812752282487" lon="11.603530825303611"><ele>994.0</ele><time>2026-04-25T08:27:30Z</time></trkpt><trkpt lat="43.79822070044944" lon="11.603688094825683"><ele>994.0000000000001</ele><time>2026-04-25T08:27:31Z</time></trkpt><trkpt lat="43.798305557876944" lon="11.603770150932334"><ele>994.0000000000001</ele><time>2026-04-25T08:27:32Z</time></trkpt><trkpt lat="43.79838100271027" lon="11.60384493462064"><ele>994.0</ele><time>2026-04-25T08:27:33Z</time></trkpt><trkpt lat="43.798474979184675" lon="11.603904427520392"><ele>994.0</ele><time>2026-04-25T08:27:34Z</time></trkpt><trkpt lat="43.79856702899173" lon="11.603937928390458"><ele>994.0</ele><time>2026-04-25T08:27:35Z</time></trkpt><trkpt lat="43.79867075055715" lon="11.603969893801395"><ele>994.0</ele><time>2026-04-25T08:27:36Z</time></trkpt><trkpt lat="43.79879294595083" lon="11.604018036471718"><ele>994.0</ele><time>2026-04-25T08:27:37Z</time></trkpt><trkpt lat="43.79891684594337" lon="11.604068452281203"><ele>994.0</ele><time>2026-04-25T08:27:38Z</time></trkpt><trkpt lat="43.7990364513599" lon="11.60410562153262"><ele>994.0</ele><time>2026-04-25T08:27:39Z</time></trkpt><trkpt lat="43.79915192475609" lon="11.604129785259056"><ele>994.0</ele><time>2026-04-25T08:27:40Z</time></trkpt><trkpt lat="43.79927490512636" lon="11.604144002475437"><ele>994.0</ele><time>2026-04-25T08:27:41Z</time></trkpt><trkpt lat="43.79941959357393" lon="11.604144299492022"><ele>994.0</ele><time>2026-04-25T08:27:42Z</time></trkpt><trkpt lat="43.799544047687185" lon="11.604138048068863"><ele>993.0</ele><time>2026-04-25T08:27:43Z</time></trkpt><trkpt lat="43.79965549993918" lon="11.604131881258914"><ele>992.0000000000001</ele><time>2026-04-25T08:27:44Z</time></trkpt><trkpt lat="43.79975700133878" lon="11.604134999051643"><ele>991.0000000000001</ele><time>2026-04-25T08:27:45Z</time></trkpt><trkpt lat="43.79985204762694" lon="11.604152013954414"><ele>990.0</ele><time>2026-04-25T08:27:46Z</time></trkpt><trkpt lat="43.799957880684346" lon="11.604193391624271"><ele>989.0</ele><time>2026-04-25T08:27:47Z</time></trkpt><trkpt lat="43.80005735411493" lon="11.604260122577424"><ele>989.0</ele><time>2026-04-25T08:27:48Z</time></trkpt><trkpt lat="43.80014479939724" lon="11.60435819491674"><ele>989.0</ele><time>2026-04-25T08:27:49Z</time></trkpt><trkpt lat="43.80024273724037" lon="11.60446104771031"><ele>989.0</ele><time>2026-04-25T08:27:50Z</time></trkpt><trkpt lat="43.800345992526196" lon="11.604545831668803"><ele>989.0</ele><time>2026-04-25T08:27:51Z</time></trkpt><trkpt lat="43.80045888020273" lon="11.604608976876175"><ele>989.2</ele><time>2026-04-25T08:27:52Z</time></trkpt><trkpt lat="43.80056224507082" lon="11.604658069239669"><ele>989.4000000000001</ele><time>2026-04-25T08:27:53Z</time></trkpt><trkpt lat="43.80066547854762" lon="11.60470512356059"><ele>989.6</ele><time>2026-04-25T08:27:54Z</time></trkpt><trkpt lat="43.80075706856432" lon="11.604735546657807"><ele>989.8</ele><time>2026-04-25T08:27:55Z</time></trkpt><trkpt lat="43.80083234861293" lon="11.604729700043347"><ele>990.0</ele><time>2026-04-25T08:27:56Z</time></trkpt><trkpt lat="43.80092011594675" lon="11.604660454936838"><ele>990.0</ele><time>2026-04-25T08:27:57Z</time></trkpt><trkpt lat="43.8009967506926" lon="11.60456349050049"><ele>990.0</ele><time>2026-04-25T08:27:58Z</time></trkpt><trkpt lat="43.80110456990765" lon="11.60446984105338"><ele>990.0</ele><time>2026-04-25T08:27:59Z</time></trkpt><trkpt lat="43.80119834992218" lon="11.604372104434624"><ele>990.0</ele><time>2026-04-25T08:28:00Z</time></trkpt><trkpt lat="43.80128413496292" lon="11.604281097776022"><ele>993.8</ele><time>2026-04-25T08:28:01Z</time></trkpt><trkpt lat="43.80135475414952" lon="11.604183543138342"><ele>997.6</ele><time>2026-04-25T08:28:02Z</time></trkpt><trkpt lat="43.801429712618294" lon="11.604084214747601"><ele>1001.4000000000001</ele><time>2026-04-25T08:28:03Z</time></trkpt><trkpt lat="43.80149357682382" lon="11.60397345002147"><ele>1005.2</ele><time>2026-04-25T08:28:04Z</time></trkpt><trkpt lat="43.80156024027721" lon="11.603847371657679"><ele>1009.0</ele><time>2026-04-25T08:28:05Z</time></trkpt><trkpt lat="43.801617240741535" lon="11.603719494852863"><ele>1006.8000000000001</ele><time>2026-04-25T08:28:06Z</time></trkpt><trkpt lat="43.801672867208175" lon="11.603601498170734"><ele>1004.6000000000001</ele><time>2026-04-25T08:28:07Z</time></trkpt><trkpt lat="43.801713576636374" lon="11.60348223280781"><ele>1002.4</ele><time>2026-04-25T08:28:08Z</time></trkpt><trkpt lat="43.80175096397138" lon="11.603349327678378"><ele>1000.2</ele><time>2026-04-25T08:28:09Z</time></trkpt><trkpt lat="43.80179719563107" lon="11.603215106092662"><ele>998.0</ele><time>2026-04-25T08:28:10Z</time></trkpt><trkpt lat="43.80185827111386" lon="11.60310003661701"><ele>1000.2</ele><time>2026-04-25T08:28:11Z</time></trkpt><trkpt lat="43.80194173504824" lon="11.603000888792781"><ele>1002.4</ele><time>2026-04-25T08:28:12Z</time></trkpt><trkpt lat="43.802033235208334" lon="11.602910278228343"><ele>1004.6000000000001</ele><time>2026-04-25T08:28:12.999Z</time></trkpt><trkpt lat="43.802119091622146" lon="11.602834663229244"><ele>1006.8000000000001</ele><time>2026-04-25T08:28:13.999Z</time></trkpt><trkpt lat="43.80218321434547" lon="11.602743351982854"><ele>1009.0</ele><time>2026-04-25T08:28:14.999Z</time></trkpt><trkpt lat="43.802263746566005" lon="11.602656823096545"><ele>1009.0</ele><time>2026-04-25T08:28:15.999Z</time></trkpt><trkpt lat="43.80233468003902" lon="11.602563426426453"><ele>1009.0000000000001</ele><time>2026-04-25T08:28:16.999Z</time></trkpt><trkpt lat="43.80241753176868" lon="11.60246901825341"><ele>1009.0000000000001</ele><time>2026-04-25T08:28:17.999Z</time></trkpt><trkpt lat="43.8025088466373" lon="11.602384712801884"><ele>1009.0</ele><time>2026-04-25T08:28:18.999Z</time></trkpt><trkpt lat="43.802594992033825" lon="11.602290475333332"><ele>1009.0</ele><time>2026-04-25T08:28:19.999Z</time></trkpt><trkpt lat="43.8026940545883" lon="11.602192286737528"><ele>1010.0</ele><time>2026-04-25T08:28:20.999Z</time></trkpt><trkpt lat="43.80278291102188" lon="11.602118417702819"><ele>1011.0000000000001</ele><time>2026-04-25T08:28:21.999Z</time></trkpt><trkpt lat="43.80286490919586" lon="11.602068876726074"><ele>1012.0000000000001</ele><time>2026-04-25T08:28:22.999Z</time></trkpt><trkpt lat="43.802945912464295" lon="11.60204747459775"><ele>1013.0</ele><time>2026-04-25T08:28:23.999Z</time></trkpt><trkpt lat="43.80304274913964" lon="11.602046299217704"><ele>1014.0</ele><time>2026-04-25T08:28:24.999Z</time></trkpt><trkpt lat="43.80313524523139" lon="11.60205196414538"><ele>1014.0</ele><time>2026-04-25T08:28:25.999Z</time></trkpt><trkpt lat="43.80321959535816" lon="11.602071048694233"><ele>1014.0000000000001</ele><time>2026-04-25T08:28:26.999Z</time></trkpt><trkpt lat="43.80329262433851" lon="11.602123137496356"><ele>1014.0000000000001</ele><time>2026-04-25T08:28:27.999Z</time></trkpt><trkpt lat="43.80336473852923" lon="11.602210650909315"><ele>1014.0</ele><time>2026-04-25T08:28:28.999Z</time></trkpt><trkpt lat="43.80344539883931" lon="11.6023267586763"><ele>1014.0</ele><time>2026-04-25T08:28:29.999Z</time></trkpt><trkpt lat="43.803518416372505" lon="11.602419772642987"><ele>1012.6</ele><time>2026-04-25T08:28:30.999Z</time></trkpt><trkpt lat="43.80358905134852" lon="11.602511542105962"><ele>1011.2</ele><time>2026-04-25T08:28:31.999Z</time></trkpt><trkpt lat="43.80367242126076" lon="11.60258115757021"><ele>1009.8000000000001</ele><time>2026-04-25T08:28:32.999Z</time></trkpt><trkpt lat="43.80375745288802" lon="11.60263176106868"><ele>1008.4000000000001</ele><time>2026-04-25T08:28:33.999Z</time></trkpt><trkpt lat="43.803842107480264" lon="11.602658021895913"><ele>1007.0</ele><time>2026-04-25T08:28:34.999Z</time></trkpt><trkpt lat="43.80394241686558" lon="11.602678632921023"><ele>1007.0</ele><time>2026-04-25T08:28:35.999Z</time></trkpt><trkpt lat="43.804042513315665" lon="11.602674041463239"><ele>1007.0</ele><time>2026-04-25T08:28:36.999Z</time></trkpt><trkpt lat="43.804140345296716" lon="11.602632852668684"><ele>1007.0</ele><time>2026-04-25T08:28:37.999Z</time></trkpt><trkpt lat="43.80424254745815" lon="11.602603905916475"><ele>1007.0</ele><time>2026-04-25T08:28:38.999Z</time></trkpt><trkpt lat="43.80433541986057" lon="11.602581797554617"><ele>1007.0</ele><time>2026-04-25T08:28:39.999Z</time></trkpt><trkpt lat="43.80442808731716" lon="11.602586352017733"><ele>1004.4000000000001</ele><time>2026-04-25T08:28:40.999Z</time></trkpt><trkpt lat="43.80452595959236" lon="11.602607568322945"><ele>1001.8000000000001</ele><time>2026-04-25T08:28:41.999Z</time></trkpt><trkpt lat="43.8046368455535" lon="11.602616294545914"><ele>999.2</ele><time>2026-04-25T08:28:42.999Z</time></trkpt><trkpt lat="43.80474233622888" lon="11.602675996476064"><ele>996.6</ele><time>2026-04-25T08:28:43.999Z</time></trkpt><trkpt lat="43.80484877505863" lon="11.602727431401185"><ele>994.0</ele><time>2026-04-25T08:28:44.999Z</time></trkpt><trkpt lat="43.80493506983004" lon="11.60277614455541"><ele>996.2</ele><time>2026-04-25T08:28:45.999Z</time></trkpt><trkpt lat="43.804987572463894" lon="11.60283587853287"><ele>998.4000000000001</ele><time>2026-04-25T08:28:46.999Z</time></trkpt><trkpt lat="43.80503077164925" lon="11.602952513850454"><ele>1000.6</ele><time>2026-04-25T08:28:47.999Z</time></trkpt><trkpt lat="43.805077967958205" lon="11.603085263887927"><ele>1002.8</ele><time>2026-04-25T08:28:48.999Z</time></trkpt><trkpt lat="43.80513403525703" lon="11.603228202893774"><ele>1005.0</ele><time>2026-04-25T08:28:49.999Z</time></trkpt><trkpt lat="43.805181770279965" lon="11.603372618313633"><ele>1001.2</ele><time>2026-04-25T08:28:50.999Z</time></trkpt><trkpt lat="43.80520037332658" lon="11.60351917004602"><ele>997.4</ele><time>2026-04-25T08:28:51.999Z</time></trkpt><trkpt lat="43.80522196960994" lon="11.603654821270792"><ele>993.5999999999999</ele><time>2026-04-25T08:28:52.999Z</time></trkpt><trkpt lat="43.80522876130648" lon="11.603791618846769"><ele>989.8</ele><time>2026-04-25T08:28:53.999Z</time></trkpt><trkpt lat="43.80523100636298" lon="11.60394259164224"><ele>986.0</ele><time>2026-04-25T08:28:54.999Z</time></trkpt><trkpt lat="43.805240543292264" lon="11.604089712953684"><ele>986.0</ele><time>2026-04-25T08:28:55.999Z</time></trkpt><trkpt lat="43.80525785404587" lon="11.60423414497625"><ele>985.9999999999999</ele><time>2026-04-25T08:28:56.999Z</time></trkpt><trkpt lat="43.80529354932212" lon="11.604374675094798"><ele>985.9999999999999</ele><time>2026-04-25T08:28:57.999Z</time></trkpt><trkpt lat="43.80533598200769" lon="11.604507130180087"><ele>986.0</ele><time>2026-04-25T08:28:58.999Z</time></trkpt><trkpt lat="43.805402965120145" lon="11.604635623219473"><ele>986.0</ele><time>2026-04-25T08:28:59.999Z</time></trkpt><trkpt lat="43.805476919622286" lon="11.60472835786248"><ele>988.4</ele><time>2026-04-25T08:29:00.999Z</time></trkpt><trkpt lat="43.80555350308144" lon="11.604804754933088"><ele>990.8</ele><time>2026-04-25T08:29:01.999Z</time></trkpt><trkpt lat="43.80562380237615" lon="11.604881279817869"><ele>993.1999999999999</ele><time>2026-04-25T08:29:02.999Z</time></trkpt><trkpt lat="43.80567606872126" lon="11.604953549119559"><ele>995.5999999999999</ele><time>2026-04-25T08:29:03.999Z</time></trkpt><trkpt lat="43.805723249957026" lon="11.605070016316462"><ele>998.0</ele><time>2026-04-25T08:29:04.999Z</time></trkpt><trkpt lat="43.80581684572496" lon="11.605174922085379"><ele>998.0</ele><time>2026-04-25T08:29:05.999Z</time></trkpt><trkpt lat="43.80591067164499" lon="11.605268494941605"><ele>998.0</ele><time>2026-04-25T08:29:06.999Z</time></trkpt><trkpt lat="43.80599926648945" lon="11.60529321955196"><ele>998.0</ele><time>2026-04-25T08:29:07.999Z</time></trkpt><trkpt lat="43.80611382330795" lon="11.60533786520943"><ele>998.0</ele><time>2026-04-25T08:29:08.999Z</time></trkpt><trkpt lat="43.80620067180676" lon="11.605352406723831"><ele>998.0</ele><time>2026-04-25T08:29:09.999Z</time></trkpt><trkpt lat="43.80628530463174" lon="11.605367543571854"><ele>997.0000000000001</ele><time>2026-04-25T08:29:10.999Z</time></trkpt><trkpt lat="43.80636786052755" lon="11.60537638012353"><ele>996.0</ele><time>2026-04-25T08:29:11.999Z</time></trkpt><trkpt lat="43.80646080445805" lon="11.605404111952476"><ele>995.0</ele><time>2026-04-25T08:29:12.999Z</time></trkpt><trkpt lat="43.80655128544466" lon="11.60543291247471"><ele>994.0</ele><time>2026-04-25T08:29:13.999Z</time></trkpt><trkpt lat="43.806620749534616" lon="11.60547537900049"><ele>993.0000000000001</ele><time>2026-04-25T08:29:15.999Z</time></trkpt><trkpt lat="43.806609088590825" lon="11.605576180013832"><ele>992.0</ele><time>2026-04-25T08:29:17.999Z</time></trkpt><trkpt lat="43.80657857203615" lon="11.605702883498518"><ele>992.0000000000001</ele><time>2026-04-25T08:29:19.999Z</time></trkpt><trkpt lat="43.80653709845522" lon="11.60577771364133"><ele>992.0</ele><time>2026-04-25T08:29:22.999Z</time></trkpt><trkpt lat="43.80650437914975" lon="11.605905950347564"><ele>992.0</ele><time>2026-04-25T08:29:48Z</time></trkpt><trkpt lat="43.80649920485651" lon="11.606021325130717"><ele>992.0</ele><time>2026-04-25T08:29:49Z</time></trkpt><trkpt lat="43.806487610060145" lon="11.606142574446032"><ele>992.0000000000001</ele><time>2026-04-25T08:29:50Z</time></trkpt><trkpt lat="43.80645630486957" lon="11.60625827636483"><ele>992.0</ele><time>2026-04-25T08:29:52Z</time></trkpt><trkpt lat="43.80641480410732" lon="11.606342745591048"><ele>990.0000000000001</ele><time>2026-04-25T08:29:53Z</time></trkpt><trkpt lat="43.80636253875924" lon="11.606419814835668"><ele>988.0</ele><time>2026-04-25T08:29:54Z</time></trkpt><trkpt lat="43.80630741090767" lon="11.60649111105606"><ele>986.0</ele><time>2026-04-25T08:29:55Z</time></trkpt><trkpt lat="43.806268811772284" lon="11.60656305477819"><ele>984.0</ele><time>2026-04-25T08:29:56Z</time></trkpt><trkpt lat="43.80622940625081" lon="11.606689929102847"><ele>982.0000000000001</ele><time>2026-04-25T08:29:58Z</time></trkpt><trkpt lat="43.80617925830458" lon="11.606763817172798"><ele>980.0</ele><time>2026-04-25T08:30:00Z</time></trkpt><trkpt lat="43.80612475348118" lon="11.606812395745147"><ele>980.0</ele><time>2026-04-25T08:30:01Z</time></trkpt><trkpt lat="43.806036248050596" lon="11.606885183401577"><ele>980.0</ele><time>2026-04-25T08:30:03Z</time></trkpt><trkpt lat="43.806033872871346" lon="11.606995612839231"><ele>980.0</ele><time>2026-04-25T08:30:05Z</time></trkpt><trkpt lat="43.80612918997684" lon="11.607150391348867"><ele>980.0</ele><time>2026-04-25T08:30:07Z</time></trkpt><trkpt lat="43.80618273803129" lon="11.607218694957508"><ele>980.0</ele><time>2026-04-25T08:30:08Z</time></trkpt><trkpt lat="43.806254094566604" lon="11.60736146582832"><ele>978.5000000000001</ele><time>2026-04-25T08:30:10Z</time></trkpt><trkpt lat="43.80625915962739" lon="11.607538103640296"><ele>977.0</ele><time>2026-04-25T08:30:12Z</time></trkpt><trkpt lat="43.80624341636422" lon="11.60762466150508"><ele>975.5</ele><time>2026-04-25T08:30:13Z</time></trkpt><trkpt lat="43.8062336809077" lon="11.607716931615375"><ele>974.0</ele><time>2026-04-25T08:30:13.999Z</time></trkpt><trkpt lat="43.80624171011106" lon="11.60781747365066"><ele>972.5000000000001</ele><time>2026-04-25T08:30:14.999Z</time></trkpt><trkpt lat="43.806264044945074" lon="11.607953123580232"><ele>971.0</ele><time>2026-04-25T08:30:16.999Z</time></trkpt><trkpt lat="43.80629316758746" lon="11.60807447034761"><ele>969.8333333333334</ele><time>2026-04-25T08:30:18.999Z</time></trkpt><trkpt lat="43.80632500012604" lon="11.608225662370415"><ele>968.6666666666667</ele><time>2026-04-25T08:30:20.999Z</time></trkpt><trkpt lat="43.806334697296904" lon="11.608347996656438"><ele>967.5</ele><time>2026-04-25T08:30:22.999Z</time></trkpt><trkpt lat="43.806324125791406" lon="11.608450722230021"><ele>966.3333333333333</ele><time>2026-04-25T08:30:24.999Z</time></trkpt><trkpt lat="43.80628410395351" lon="11.608545357341521"><ele>965.1666666666666</ele><time>2026-04-25T08:30:28.999Z</time></trkpt><trkpt lat="43.806229645986676" lon="11.60864261555134"><ele>964.0</ele><time>2026-04-25T08:30:30.999Z</time></trkpt><trkpt lat="43.80618567194154" lon="11.608721023519838"><ele>962.6</ele><time>2026-04-25T08:30:31.999Z</time></trkpt><trkpt lat="43.80608197808239" lon="11.608860574006293"><ele>961.2</ele><time>2026-04-25T08:30:33.999Z</time></trkpt><trkpt lat="43.8060101962502" lon="11.608935754516176"><ele>959.8000000000001</ele><time>2026-04-25T08:30:34.999Z</time></trkpt><trkpt lat="43.8059468523062" lon="11.609011333461114"><ele>958.4000000000001</ele><time>2026-04-25T08:30:35.999Z</time></trkpt><trkpt lat="43.80588863651375" lon="11.609084221998232"><ele>957.0</ele><time>2026-04-25T08:30:36.999Z</time></trkpt><trkpt lat="43.80582648035533" lon="11.60915299001929"><ele>957.0</ele><time>2026-04-25T08:30:37.999Z</time></trkpt><trkpt lat="43.805755823254145" lon="11.609207764557988"><ele>957.0</ele><time>2026-04-25T08:30:38.999Z</time></trkpt><trkpt lat="43.80567516702727" lon="11.609237719063964"><ele>957.0</ele><time>2026-04-25T08:30:39.999Z</time></trkpt><trkpt lat="43.80559203174036" lon="11.60926221374778"><ele>957.0</ele><time>2026-04-25T08:30:40.999Z</time></trkpt><trkpt lat="43.805506477768056" lon="11.60926431347607"><ele>957.0</ele><time>2026-04-25T08:30:41.999Z</time></trkpt><trkpt lat="43.80542525660886" lon="11.609256647880446"><ele>957.0</ele><time>2026-04-25T08:30:42.999Z</time></trkpt><trkpt lat="43.80535068138643" lon="11.609260756210926"><ele>957.0</ele><time>2026-04-25T08:30:43.999Z</time></trkpt><trkpt lat="43.8052750151131" lon="11.609282272442103"><ele>957.0</ele><time>2026-04-25T08:30:44.999Z</time></trkpt><trkpt lat="43.80520669426843" lon="11.609331411292148"><ele>957.0</ele><time>2026-04-25T08:30:45.999Z</time></trkpt><trkpt lat="43.805133732132475" lon="11.609377684384167"><ele>957.0</ele><time>2026-04-25T08:30:46.999Z</time></trkpt><trkpt lat="43.80506922809487" lon="11.609432061977083"><ele>957.0</ele><time>2026-04-25T08:30:47.999Z</time></trkpt><trkpt lat="43.80500851998845" lon="11.60951711985811"><ele>957.0</ele><time>2026-04-25T08:30:48.999Z</time></trkpt><trkpt lat="43.804947732681235" lon="11.609599306608715"><ele>952.8</ele><time>2026-04-25T08:30:49.999Z</time></trkpt><trkpt lat="43.80489115636184" lon="11.60971091828528"><ele>948.6</ele><time>2026-04-25T08:30:50.999Z</time></trkpt><trkpt lat="43.80482692192391" lon="11.609824864112595"><ele>944.3999999999999</ele><time>2026-04-25T08:30:51.999Z</time></trkpt><trkpt lat="43.804755057899214" lon="11.609934552500345"><ele>940.1999999999999</ele><time>2026-04-25T08:30:52.999Z</time></trkpt><trkpt lat="43.80466536234397" lon="11.610015974284243"><ele>936.0</ele><time>2026-04-25T08:30:53.999Z</time></trkpt><trkpt lat="43.80458428114009" lon="11.610127972511478"><ele>936.0</ele><time>2026-04-25T08:30:54.999Z</time></trkpt><trkpt lat="43.80452070495421" lon="11.610240164061672"><ele>935.9999999999999</ele><time>2026-04-25T08:30:55.999Z</time></trkpt><trkpt lat="43.804457231155304" lon="11.610343755884246"><ele>935.9999999999999</ele><time>2026-04-25T08:30:56.999Z</time></trkpt><trkpt lat="43.804386978890356" lon="11.610450850781346"><ele>936.0</ele><time>2026-04-25T08:30:57.999Z</time></trkpt><trkpt lat="43.80432222451592" lon="11.610539142313943"><ele>936.0</ele><time>2026-04-25T08:30:58.999Z</time></trkpt><trkpt lat="43.80424933920059" lon="11.61061851457719"><ele>932.8</ele><time>2026-04-25T08:30:59.999Z</time></trkpt><trkpt lat="43.804187895993344" lon="11.610707104567163"><ele>929.5999999999999</ele><time>2026-04-25T08:31:00.999Z</time></trkpt><trkpt lat="43.80412145035042" lon="11.610828511517985"><ele>926.4</ele><time>2026-04-25T08:31:01.999Z</time></trkpt><trkpt lat="43.80405842218059" lon="11.610942623910196"><ele>923.2</ele><time>2026-04-25T08:31:02.999Z</time></trkpt><trkpt lat="43.803994378815055" lon="11.61104611909405"><ele>920.0</ele><time>2026-04-25T08:31:03.999Z</time></trkpt><trkpt lat="43.80391143847598" lon="11.611129300625743"><ele>918.0</ele><time>2026-04-25T08:31:04.999Z</time></trkpt><trkpt lat="43.80383490688155" lon="11.61120517488666"><ele>916.0</ele><time>2026-04-25T08:31:05.999Z</time></trkpt><trkpt lat="43.803757289991765" lon="11.611268682393346"><ele>914.0</ele><time>2026-04-25T08:31:06.999Z</time></trkpt><trkpt lat="43.80368250542313" lon="11.611308996356946"><ele>912.0</ele><time>2026-04-25T08:31:07.999Z</time></trkpt><trkpt lat="43.803592682863105" lon="11.611339222438742"><ele>910.0</ele><time>2026-04-25T08:31:08.999Z</time></trkpt><trkpt lat="43.8034908319879" lon="11.61138837131717"><ele>909.0</ele><time>2026-04-25T08:31:09.999Z</time></trkpt><trkpt lat="43.80337969610363" lon="11.611456610492672"><ele>908.0</ele><time>2026-04-25T08:31:10.999Z</time></trkpt><trkpt lat="43.80325791561708" lon="11.611521190473912"><ele>907.0</ele><time>2026-04-25T08:31:11.999Z</time></trkpt><trkpt lat="43.80314879770716" lon="11.61158333891363"><ele>906.0</ele><time>2026-04-25T08:31:12.999Z</time></trkpt><trkpt lat="43.80305830677512" lon="11.611632826504458"><ele>906.0</ele><time>2026-04-25T08:31:13.999Z</time></trkpt><trkpt lat="43.802985635428136" lon="11.611682813187183"><ele>906.0</ele><time>2026-04-25T08:31:14.999Z</time></trkpt><trkpt lat="43.80292680146414" lon="11.611744625713586"><ele>906.0</ele><time>2026-04-25T08:31:15.999Z</time></trkpt><trkpt lat="43.80286734154472" lon="11.611803976210737"><ele>906.0</ele><time>2026-04-25T08:31:16.999Z</time></trkpt><trkpt lat="43.8027939586421" lon="11.611853605500015"><ele>906.0</ele><time>2026-04-25T08:31:17.999Z</time></trkpt><trkpt lat="43.8027104754492" lon="11.611877848013663"><ele>906.0</ele><time>2026-04-25T08:31:18.999Z</time></trkpt><trkpt lat="43.80262879590898" lon="11.61187204021296"><ele>903.8333333333334</ele><time>2026-04-25T08:31:19.999Z</time></trkpt><trkpt lat="43.80254536797423" lon="11.611850818235485"><ele>901.6666666666667</ele><time>2026-04-25T08:31:20.999Z</time></trkpt><trkpt lat="43.80246321360949" lon="11.611812213144313"><ele>899.5</ele><time>2026-04-25T08:31:21.999Z</time></trkpt><trkpt lat="43.80238386825131" lon="11.611754262037351"><ele>897.3333333333334</ele><time>2026-04-25T08:31:22.999Z</time></trkpt><trkpt lat="43.80231115897624" lon="11.611709490959049"><ele>895.1666666666667</ele><time>2026-04-25T08:31:23.999Z</time></trkpt><trkpt lat="43.802238387371006" lon="11.611692819771278"><ele>893.0</ele><time>2026-04-25T08:31:25.999Z</time></trkpt><trkpt lat="43.802239753369385" lon="11.61185366221908"><ele>893.0</ele><time>2026-04-25T08:31:28.999Z</time></trkpt><trkpt lat="43.80227665016183" lon="11.611942696713871"><ele>893.0</ele><time>2026-04-25T08:31:30Z</time></trkpt><trkpt lat="43.8023295512256" lon="11.612073035498184"><ele>893.0</ele><time>2026-04-25T08:31:31Z</time></trkpt><trkpt lat="43.80241001318819" lon="11.612247189616701"><ele>893.0</ele><time>2026-04-25T08:31:32Z</time></trkpt><trkpt lat="43.8025341358113" lon="11.612441887370792"><ele>892.0</ele><time>2026-04-25T08:31:33Z</time></trkpt><trkpt lat="43.80268822807799" lon="11.612650772615629"><ele>891.0</ele><time>2026-04-25T08:31:34Z</time></trkpt><trkpt lat="43.802796234220736" lon="11.612839867982022"><ele>890.0</ele><time>2026-04-25T08:31:35Z</time></trkpt><trkpt lat="43.802889979806785" lon="11.613000501865873"><ele>888.25</ele><time>2026-04-25T08:31:36Z</time></trkpt><trkpt lat="43.80296245499692" lon="11.613154934666955"><ele>886.5</ele><time>2026-04-25T08:31:37Z</time></trkpt><trkpt lat="43.80300549159896" lon="11.613332345166505"><ele>884.75</ele><time>2026-04-25T08:31:38Z</time></trkpt><trkpt lat="43.803002222825796" lon="11.613539353569998"><ele>883.0</ele><time>2026-04-25T08:31:39Z</time></trkpt><trkpt lat="43.80296663139102" lon="11.613749335342861"><ele>883.0</ele><time>2026-04-25T08:31:40Z</time></trkpt><trkpt lat="43.80289951637686" lon="11.61395656135254"><ele>883.0</ele><time>2026-04-25T08:31:41Z</time></trkpt><trkpt lat="43.80281635412902" lon="11.61415080948795"><ele>883.0</ele><time>2026-04-25T08:31:42Z</time></trkpt><trkpt lat="43.80275667459045" lon="11.614341712041123"><ele>884.3333333333333</ele><time>2026-04-25T08:31:43Z</time></trkpt><trkpt lat="43.80268383184287" lon="11.614543396552632"><ele>885.6666666666667</ele><time>2026-04-25T08:31:44Z</time></trkpt><trkpt lat="43.80260284495627" lon="11.614723255725595"><ele>887.0</ele><time>2026-04-25T08:31:45Z</time></trkpt><trkpt lat="43.80252570843702" lon="11.614933542756216"><ele>886.0</ele><time>2026-04-25T08:31:46Z</time></trkpt><trkpt lat="43.802463129324245" lon="11.615153003230747"><ele>885.0</ele><time>2026-04-25T08:31:47Z</time></trkpt><trkpt lat="43.802418960915695" lon="11.615325076443176"><ele>884.0</ele><time>2026-04-25T08:31:48Z</time></trkpt><trkpt lat="43.80236297381235" lon="11.615499032160155"><ele>883.0</ele><time>2026-04-25T08:31:49Z</time></trkpt><trkpt lat="43.80232159358994" lon="11.615688106519343"><ele>883.0</ele><time>2026-04-25T08:31:50Z</time></trkpt><trkpt lat="43.802270985758916" lon="11.615876815930832"><ele>883.0</ele><time>2026-04-25T08:31:51Z</time></trkpt><trkpt lat="43.80222287626811" lon="11.616067463057854"><ele>883.0</ele><time>2026-04-25T08:31:52Z</time></trkpt><trkpt lat="43.802172411903896" lon="11.616254525606436"><ele>883.0</ele><time>2026-04-25T08:31:53Z</time></trkpt><trkpt lat="43.802164696883686" lon="11.61642060591519"><ele>881.75</ele><time>2026-04-25T08:31:54Z</time></trkpt><trkpt lat="43.80219775857324" lon="11.616575090013873"><ele>880.5</ele><time>2026-04-25T08:31:55Z</time></trkpt><trkpt lat="43.80225505276979" lon="11.616739140244805"><ele>879.25</ele><time>2026-04-25T08:31:56Z</time></trkpt><trkpt lat="43.802353343465356" lon="11.616903056431571"><ele>878.0</ele><time>2026-04-25T08:31:57Z</time></trkpt><trkpt lat="43.802470732415856" lon="11.61706361683428"><ele>877.75</ele><time>2026-04-25T08:31:58Z</time></trkpt><trkpt lat="43.80257025132292" lon="11.617224610295166"><ele>877.5</ele><time>2026-04-25T08:31:59Z</time></trkpt><trkpt lat="43.80263825486088" lon="11.617376240081388"><ele>877.25</ele><time>2026-04-25T08:32:00Z</time></trkpt><trkpt lat="43.8026691314142" lon="11.617554444586133"><ele>877.0</ele><time>2026-04-25T08:32:01Z</time></trkpt><trkpt lat="43.802655389563114" lon="11.617771381385378"><ele>878.6666666666666</ele><time>2026-04-25T08:32:02Z</time></trkpt><trkpt lat="43.80266155229129" lon="11.617992633991593"><ele>880.3333333333333</ele><time>2026-04-25T08:32:03Z</time></trkpt><trkpt lat="43.80273234421919" lon="11.61821601039076"><ele>882.0</ele><time>2026-04-25T08:32:04Z</time></trkpt><trkpt lat="43.80280060589034" lon="11.618393307122798"><ele>884.4000000000001</ele><time>2026-04-25T08:32:05Z</time></trkpt><trkpt lat="43.80284834240679" lon="11.618527022992842"><ele>886.8000000000001</ele><time>2026-04-25T08:32:06Z</time></trkpt><trkpt lat="43.80286466174084" lon="11.618655058106432"><ele>889.2</ele><time>2026-04-25T08:32:07Z</time></trkpt><trkpt lat="43.80284602406038" lon="11.618788883100713"><ele>891.6</ele><time>2026-04-25T08:32:08Z</time></trkpt><trkpt lat="43.80283266420717" lon="11.618888645403251"><ele>894.0</ele><time>2026-04-25T08:32:08.999Z</time></trkpt><trkpt lat="43.802867180470464" lon="11.619022139802698"><ele>893.9999999999999</ele><time>2026-04-25T08:32:10.999Z</time></trkpt><trkpt lat="43.80292694688466" lon="11.619074032561818"><ele>894.0</ele><time>2026-04-25T08:32:11.999Z</time></trkpt><trkpt lat="43.80300227682746" lon="11.619089797007826"><ele>894.0</ele><time>2026-04-25T08:32:12.999Z</time></trkpt><trkpt lat="43.80308195158923" lon="11.619081896278272"><ele>894.0</ele><time>2026-04-25T08:32:13.999Z</time></trkpt><trkpt lat="43.803154362162125" lon="11.61908190386383"><ele>894.0</ele><time>2026-04-25T08:32:14.999Z</time></trkpt><trkpt lat="43.8032238193787" lon="11.619082361532925"><ele>893.9999999999999</ele><time>2026-04-25T08:32:15.999Z</time></trkpt><trkpt lat="43.80329385646638" lon="11.61909636672546"><ele>894.0</ele><time>2026-04-25T08:32:16.999Z</time></trkpt><trkpt lat="43.8033656074862" lon="11.61912706819017"><ele>894.0</ele><time>2026-04-25T08:32:17.999Z</time></trkpt><trkpt lat="43.80343975847003" lon="11.619165705966473"><ele>894.0</ele><time>2026-04-25T08:32:18.999Z</time></trkpt><trkpt lat="43.80351787774533" lon="11.619194273628798"><ele>894.0</ele><time>2026-04-25T08:32:19.999Z</time></trkpt><trkpt lat="43.803600578116054" lon="11.619214803946065"><ele>894.0</ele><time>2026-04-25T08:32:20.999Z</time></trkpt><trkpt lat="43.80368540306079" lon="11.619231174830635"><ele>894.0</ele><time>2026-04-25T08:32:21.999Z</time></trkpt><trkpt lat="43.80376778029526" lon="11.619251101517687"><ele>894.0</ele><time>2026-04-25T08:32:22.999Z</time></trkpt><trkpt lat="43.80385295559541" lon="11.619282986514389"><ele>894.8000000000001</ele><time>2026-04-25T08:32:23.999Z</time></trkpt><trkpt lat="43.80394761548322" lon="11.619325742111705"><ele>895.6000000000001</ele><time>2026-04-25T08:32:24.999Z</time></trkpt><trkpt lat="43.804051666909274" lon="11.619383432732105"><ele>896.4</ele><time>2026-04-25T08:32:25.999Z</time></trkpt><trkpt lat="43.804149578646495" lon="11.61943716669259"><ele>897.2</ele><time>2026-04-25T08:32:26.999Z</time></trkpt><trkpt lat="43.80424461369237" lon="11.61949718100198"><ele>898.0</ele><time>2026-04-25T08:32:27.999Z</time></trkpt><trkpt lat="43.804336751478345" lon="11.619546367633346"><ele>899.2</ele><time>2026-04-25T08:32:28.999Z</time></trkpt><trkpt lat="43.804414248475105" lon="11.619583485230276"><ele>900.4</ele><time>2026-04-25T08:32:29.999Z</time></trkpt><trkpt lat="43.8045160167977" lon="11.619631606835343"><ele>901.6000000000001</ele><time>2026-04-25T08:32:31.999Z</time></trkpt><trkpt lat="43.8045182437112" lon="11.619737339034662"><ele>902.8000000000001</ele><time>2026-04-25T08:32:33.999Z</time></trkpt><trkpt lat="43.80443264086153" lon="11.619844770903478"><ele>904.0</ele><time>2026-04-25T08:32:35.999Z</time></trkpt><trkpt lat="43.80438431395985" lon="11.61992931942067"><ele>904.0</ele><time>2026-04-25T08:32:36.999Z</time></trkpt><trkpt lat="43.80433081092033" lon="11.62006403779238"><ele>904.0000000000001</ele><time>2026-04-25T08:32:37.999Z</time></trkpt><trkpt lat="43.8042816596972" lon="11.620221666812723"><ele>904.0000000000001</ele><time>2026-04-25T08:32:38.999Z</time></trkpt><trkpt lat="43.804311587937455" lon="11.620336389913591"><ele>904.0</ele><time>2026-04-25T08:32:40.999Z</time></trkpt><trkpt lat="43.80441050679923" lon="11.620416278264633"><ele>904.0</ele><time>2026-04-25T08:32:42.999Z</time></trkpt><trkpt lat="43.80446500104176" lon="11.620466103401071"><ele>903.75</ele><time>2026-04-25T08:32:43.999Z</time></trkpt><trkpt lat="43.80455623491375" lon="11.620497860934446"><ele>903.5</ele><time>2026-04-25T08:32:44.999Z</time></trkpt><trkpt lat="43.804635420273726" lon="11.620546395175682"><ele>903.25</ele><time>2026-04-25T08:32:45.999Z</time></trkpt><trkpt lat="43.804788064384006" lon="11.620669929480805"><ele>903.0</ele><time>2026-04-25T08:32:46.999Z</time></trkpt><trkpt lat="43.804864433316396" lon="11.620752693367873"><ele>903.0</ele><time>2026-04-25T08:32:47.999Z</time></trkpt><trkpt lat="43.80493332260369" lon="11.620873491931395"><ele>903.0</ele><time>2026-04-25T08:32:48.999Z</time></trkpt><trkpt lat="43.805005584131656" lon="11.62104847255855"><ele>903.0</ele><time>2026-04-25T08:32:49.999Z</time></trkpt><trkpt lat="43.80510108155355" lon="11.621261411605206"><ele>903.0</ele><time>2026-04-25T08:32:50.999Z</time></trkpt><trkpt lat="43.80516704587891" lon="11.62141244360714"><ele>906.25</ele><time>2026-04-25T08:32:51.999Z</time></trkpt><trkpt lat="43.80523439051141" lon="11.621534542676928"><ele>909.5</ele><time>2026-04-25T08:32:52.999Z</time></trkpt><trkpt lat="43.80530154996554" lon="11.621664748547271"><ele>912.75</ele><time>2026-04-25T08:32:53.999Z</time></trkpt><trkpt lat="43.80537374972018" lon="11.621798491878021"><ele>916.0</ele><time>2026-04-25T08:32:54.999Z</time></trkpt><trkpt lat="43.805432540722954" lon="11.621954774025498"><ele>915.5</ele><time>2026-04-25T08:32:55.999Z</time></trkpt><trkpt lat="43.80552392104402" lon="11.622101544575846"><ele>915.0</ele><time>2026-04-25T08:32:56.999Z</time></trkpt><trkpt lat="43.805597771991124" lon="11.622238776928723"><ele>914.5</ele><time>2026-04-25T08:32:57.999Z</time></trkpt><trkpt lat="43.805659219169826" lon="11.622376223108628"><ele>914.0</ele><time>2026-04-25T08:32:58.999Z</time></trkpt><trkpt lat="43.80568174099032" lon="11.622507738345458"><ele>914.0</ele><time>2026-04-25T08:32:59.999Z</time></trkpt><trkpt lat="43.80563565049375" lon="11.622638427762483"><ele>914.0</ele><time>2026-04-25T08:33:00.999Z</time></trkpt><trkpt lat="43.80558188162645" lon="11.622800456501915"><ele>914.0</ele><time>2026-04-25T08:33:01.999Z</time></trkpt><trkpt lat="43.80553919153231" lon="11.622963740581147"><ele>914.0</ele><time>2026-04-25T08:33:02.999Z</time></trkpt><trkpt lat="43.80549930718254" lon="11.623103012350294"><ele>914.8000000000001</ele><time>2026-04-25T08:33:03.999Z</time></trkpt><trkpt lat="43.80550678822387" lon="11.623220979703815"><ele>915.6000000000001</ele><time>2026-04-25T08:33:04.999Z</time></trkpt><trkpt lat="43.80553175942856" lon="11.623312276544365"><ele>916.4</ele><time>2026-04-25T08:33:05.999Z</time></trkpt><trkpt lat="43.80561007281935" lon="11.623415898822312"><ele>917.2</ele><time>2026-04-25T08:33:06.999Z</time></trkpt><trkpt lat="43.80571016556447" lon="11.623546578820854"><ele>918.0</ele><time>2026-04-25T08:33:07.999Z</time></trkpt><trkpt lat="43.80580589795529" lon="11.62370913567893"><ele>915.5</ele><time>2026-04-25T08:33:08.999Z</time></trkpt><trkpt lat="43.805912751661744" lon="11.623904801914357"><ele>913.0</ele><time>2026-04-25T08:33:09.999Z</time></trkpt><trkpt lat="43.805989507843236" lon="11.624054744689127"><ele>910.5</ele><time>2026-04-25T08:33:10.999Z</time></trkpt><trkpt lat="43.80604788668068" lon="11.62413749824977"><ele>908.0</ele><time>2026-04-25T08:33:11.999Z</time></trkpt><trkpt lat="43.80610462483408" lon="11.624184372708296"><ele>908.0000000000001</ele><time>2026-04-25T08:33:12.999Z</time></trkpt><trkpt lat="43.8061787033173" lon="11.624211124661874"><ele>908.0</ele><time>2026-04-25T08:33:13.999Z</time></trkpt><trkpt lat="43.806243099935756" lon="11.624213573067907"><ele>908.0</ele><time>2026-04-25T08:33:14.999Z</time></trkpt><trkpt lat="43.80630863985566" lon="11.624204133363412"><ele>908.0</ele><time>2026-04-25T08:33:15.999Z</time></trkpt><trkpt lat="43.806396185900105" lon="11.624187099509008"><ele>908.0000000000001</ele><time>2026-04-25T08:33:17.999Z</time></trkpt><trkpt lat="43.80648241792546" lon="11.624131008420271"><ele>908.0</ele><time>2026-04-25T08:33:19.999Z</time></trkpt><trkpt lat="43.806577137181314" lon="11.624077679444829"><ele>908.0</ele><time>2026-04-25T08:33:21.999Z</time></trkpt><trkpt lat="43.80667592555959" lon="11.624046104817948"><ele>908.0</ele><time>2026-04-25T08:33:22.999Z</time></trkpt><trkpt lat="43.806787080272265" lon="11.624012670489448"><ele>908.0</ele><time>2026-04-25T08:33:23.999Z</time></trkpt><trkpt lat="43.80691020798934" lon="11.623967298923901"><ele>908.0</ele><time>2026-04-25T08:33:24.999Z</time></trkpt><trkpt lat="43.80702765611546" lon="11.623930278304613"><ele>907.0</ele><time>2026-04-25T08:33:25.999Z</time></trkpt><trkpt lat="43.80715395429712" lon="11.623961034932359"><ele>906.0</ele><time>2026-04-25T08:33:26.999Z</time></trkpt><trkpt lat="43.80729816659592" lon="11.623995467545143"><ele>905.0</ele><time>2026-04-25T08:33:27.999Z</time></trkpt><trkpt lat="43.80744886905202" lon="11.624038074023838"><ele>904.0</ele><time>2026-04-25T08:33:28.999Z</time></trkpt><trkpt lat="43.80755839394119" lon="11.62409481564504"><ele>904.0</ele><time>2026-04-25T08:33:29.999Z</time></trkpt><trkpt lat="43.80764125117719" lon="11.624141559451425"><ele>904.0000000000001</ele><time>2026-04-25T08:33:30.999Z</time></trkpt><trkpt lat="43.807706451493786" lon="11.624146521454627"><ele>904.0000000000001</ele><time>2026-04-25T08:33:31.999Z</time></trkpt><trkpt lat="43.80783689241019" lon="11.624039227116004"><ele>904.0</ele><time>2026-04-25T08:33:33.999Z</time></trkpt><trkpt lat="43.80790978236932" lon="11.623948173405545"><ele>904.0</ele><time>2026-04-25T08:33:34.999Z</time></trkpt><trkpt lat="43.807999054189985" lon="11.623902582299339"><ele>904.2</ele><time>2026-04-25T08:33:36Z</time></trkpt><trkpt lat="43.808103772791284" lon="11.62388939350371"><ele>904.4000000000001</ele><time>2026-04-25T08:33:37Z</time></trkpt><trkpt lat="43.80821853970388" lon="11.623875482842129"><ele>904.6</ele><time>2026-04-25T08:33:38Z</time></trkpt><trkpt lat="43.808330151771095" lon="11.623856670042876"><ele>904.8</ele><time>2026-04-25T08:33:39Z</time></trkpt><trkpt lat="43.808428642388506" lon="11.623843019770472"><ele>905.0</ele><time>2026-04-25T08:33:40Z</time></trkpt><trkpt lat="43.80850417503192" lon="11.623882894698424"><ele>908.8</ele><time>2026-04-25T08:33:41Z</time></trkpt><trkpt lat="43.80855656161086" lon="11.623988130648076"><ele>912.6</ele><time>2026-04-25T08:33:42Z</time></trkpt><trkpt lat="43.808611541992526" lon="11.62408782317701"><ele>916.4000000000001</ele><time>2026-04-25T08:33:43Z</time></trkpt><trkpt lat="43.808645540553655" lon="11.624220096056218"><ele>920.2</ele><time>2026-04-25T08:33:44Z</time></trkpt><trkpt lat="43.80865058756888" lon="11.62435602530939"><ele>924.0</ele><time>2026-04-25T08:33:45Z</time></trkpt><trkpt lat="43.808666137181454" lon="11.624510375710265"><ele>924.0</ele><time>2026-04-25T08:33:46Z</time></trkpt><trkpt lat="43.808712615028696" lon="11.624657518060804"><ele>924.0000000000001</ele><time>2026-04-25T08:33:47Z</time></trkpt><trkpt lat="43.808796910432605" lon="11.624771223139568"><ele>924.0000000000001</ele><time>2026-04-25T08:33:48Z</time></trkpt><trkpt lat="43.808884981197515" lon="11.624854633295996"><ele>924.0</ele><time>2026-04-25T08:33:49Z</time></trkpt><trkpt lat="43.80892182860864" lon="11.624934493072718"><ele>924.0</ele><time>2026-04-25T08:33:50Z</time></trkpt><trkpt lat="43.8089191228219" lon="11.625070774102907"><ele>924.0</ele><time>2026-04-25T08:33:51Z</time></trkpt><trkpt lat="43.80882581537262" lon="11.625136938484564"><ele>924.0000000000001</ele><time>2026-04-25T08:33:52Z</time></trkpt><trkpt lat="43.808742444990266" lon="11.625229332537778"><ele>924.0000000000001</ele><time>2026-04-25T08:33:53Z</time></trkpt><trkpt lat="43.80866366831101" lon="11.625340353973357"><ele>924.0</ele><time>2026-04-25T08:33:54Z</time></trkpt><trkpt lat="43.80860155577816" lon="11.625443724619313"><ele>924.0</ele><time>2026-04-25T08:33:55Z</time></trkpt><trkpt lat="43.80857238983978" lon="11.625572741812048"><ele>925.5</ele><time>2026-04-25T08:33:56Z</time></trkpt><trkpt lat="43.80855856387007" lon="11.625741420734576"><ele>927.0</ele><time>2026-04-25T08:33:57Z</time></trkpt><trkpt lat="43.80853726155285" lon="11.625915759232031"><ele>928.5</ele><time>2026-04-25T08:33:58Z</time></trkpt><trkpt lat="43.80853598849606" lon="11.626079910161469"><ele>930.0</ele><time>2026-04-25T08:33:59Z</time></trkpt><trkpt lat="43.80855928117487" lon="11.626235903217703"><ele>930.0</ele><time>2026-04-25T08:34:00Z</time></trkpt><trkpt lat="43.80860522421204" lon="11.626411350371361"><ele>930.0</ele><time>2026-04-25T08:34:01Z</time></trkpt><trkpt lat="43.808658827060256" lon="11.626618051291922"><ele>930.0</ele><time>2026-04-25T08:34:02Z</time></trkpt><trkpt lat="43.80870597571766" lon="11.62681017821172"><ele>930.0</ele><time>2026-04-25T08:34:03Z</time></trkpt><trkpt lat="43.80875627283103" lon="11.627074075128156"><ele>930.0</ele><time>2026-04-25T08:34:04Z</time></trkpt><trkpt lat="43.80879779607907" lon="11.62729490541982"><ele>930.0</ele><time>2026-04-25T08:34:05Z</time></trkpt><trkpt lat="43.80883054830924" lon="11.627469685042167"><ele>930.0</ele><time>2026-04-25T08:34:06Z</time></trkpt><trkpt lat="43.80885576697659" lon="11.627580526443186"><ele>930.0</ele><time>2026-04-25T08:34:07Z</time></trkpt><trkpt lat="43.80888098745411" lon="11.627678707435715"><ele>930.0</ele><time>2026-04-25T08:34:08Z</time></trkpt><trkpt lat="43.808910662390446" lon="11.627791728864562"><ele>930.0</ele><time>2026-04-25T08:34:08.999Z</time></trkpt><trkpt lat="43.8089444876838" lon="11.627942546662236"><ele>930.0</ele><time>2026-04-25T08:34:09.999Z</time></trkpt><trkpt lat="43.808975960304046" lon="11.628093293085762"><ele>930.0</ele><time>2026-04-25T08:34:10.999Z</time></trkpt><trkpt lat="43.80901776568827" lon="11.628244075643366"><ele>930.0</ele><time>2026-04-25T08:34:11.999Z</time></trkpt><trkpt lat="43.80909470638993" lon="11.628389681879545"><ele>928.4</ele><time>2026-04-25T08:34:12.999Z</time></trkpt><trkpt lat="43.8091656912791" lon="11.628536634401184"><ele>926.8</ele><time>2026-04-25T08:34:13.999Z</time></trkpt><trkpt lat="43.80923033690842" lon="11.628646891685738"><ele>925.2</ele><time>2026-04-25T08:34:14.999Z</time></trkpt><trkpt lat="43.80929719768731" lon="11.628726435145692"><ele>923.6</ele><time>2026-04-25T08:34:15.999Z</time></trkpt><trkpt lat="43.80937977134042" lon="11.628777199780753"><ele>922.0</ele><time>2026-04-25T08:34:16.999Z</time></trkpt><trkpt lat="43.80948101404788" lon="11.628815948128144"><ele>920.5</ele><time>2026-04-25T08:34:17.999Z</time></trkpt><trkpt lat="43.80959986603625" lon="11.628860751878888"><ele>919.0</ele><time>2026-04-25T08:34:18.999Z</time></trkpt><trkpt lat="43.80970436891986" lon="11.628912365514756"><ele>917.5</ele><time>2026-04-25T08:34:19.999Z</time></trkpt><trkpt lat="43.809798705625184" lon="11.628977102862292"><ele>916.0</ele><time>2026-04-25T08:34:20.999Z</time></trkpt><trkpt lat="43.80990654200101" lon="11.629046648786694"><ele>916.0</ele><time>2026-04-25T08:34:21.999Z</time></trkpt><trkpt lat="43.80999588024752" lon="11.629070774442644"><ele>915.9999999999999</ele><time>2026-04-25T08:34:22.999Z</time></trkpt><trkpt lat="43.81006231266583" lon="11.62909039942941"><ele>915.9999999999999</ele><time>2026-04-25T08:34:23.999Z</time></trkpt><trkpt lat="43.810179515267656" lon="11.629163027297896"><ele>916.0</ele><time>2026-04-25T08:34:25.999Z</time></trkpt><trkpt lat="43.81025078295809" lon="11.62926425325587"><ele>916.0</ele><time>2026-04-25T08:34:26.999Z</time></trkpt><trkpt lat="43.810325000485186" lon="11.629350646485095"><ele>915.0</ele><time>2026-04-25T08:34:27.999Z</time></trkpt><trkpt lat="43.81038814375999" lon="11.629394759566308"><ele>913.9999999999999</ele><time>2026-04-25T08:34:28.999Z</time></trkpt><trkpt lat="43.810507809960654" lon="11.629359563765997"><ele>912.9999999999999</ele><time>2026-04-25T08:34:30.999Z</time></trkpt><trkpt lat="43.81058439513409" lon="11.629303024676625"><ele>912.0</ele><time>2026-04-25T08:34:31.999Z</time></trkpt><trkpt lat="43.810659821257836" lon="11.629262977317016"><ele>911.0</ele><time>2026-04-25T08:34:32.999Z</time></trkpt><trkpt lat="43.81077991371873" lon="11.629184699599849"><ele>911.0</ele><time>2026-04-25T08:34:33.999Z</time></trkpt><trkpt lat="43.810876605928804" lon="11.62914015784244"><ele>910.9999999999999</ele><time>2026-04-25T08:34:34.999Z</time></trkpt><trkpt lat="43.81096745086823" lon="11.629083941015613"><ele>910.9999999999999</ele><time>2026-04-25T08:34:35.999Z</time></trkpt><trkpt lat="43.811070497061536" lon="11.629037343537735"><ele>911.0</ele><time>2026-04-25T08:34:36.999Z</time></trkpt><trkpt lat="43.81115406851199" lon="11.629017026743139"><ele>911.0</ele><time>2026-04-25T08:34:37.999Z</time></trkpt><trkpt lat="43.81121935496867" lon="11.629047585390195"><ele>909.3333333333334</ele><time>2026-04-25T08:34:38.999Z</time></trkpt><trkpt lat="43.8112883107189" lon="11.629116530524714"><ele>907.6666666666667</ele><time>2026-04-25T08:34:39.999Z</time></trkpt><trkpt lat="43.81132028108529" lon="11.629199123982037"><ele>906.0</ele><time>2026-04-25T08:34:40.999Z</time></trkpt><trkpt lat="43.81130702451404" lon="11.629365271161182"><ele>904.3333333333333</ele><time>2026-04-25T08:34:41.999Z</time></trkpt><trkpt lat="43.811342554023085" lon="11.629461730801554"><ele>902.6666666666666</ele><time>2026-04-25T08:34:42.999Z</time></trkpt><trkpt lat="43.811382398490274" lon="11.629569224222138"><ele>901.0</ele><time>2026-04-25T08:34:44.999Z</time></trkpt><trkpt lat="43.81150379110794" lon="11.629496034685575"><ele>901.0</ele><time>2026-04-25T08:34:46.999Z</time></trkpt><trkpt lat="43.811597510064104" lon="11.629485650104035"><ele>900.9999999999999</ele><time>2026-04-25T08:34:47.999Z</time></trkpt><trkpt lat="43.811702326842585" lon="11.629459085154853"><ele>900.9999999999999</ele><time>2026-04-25T08:34:48.999Z</time></trkpt><trkpt lat="43.811809212448104" lon="11.629450932138713"><ele>901.0</ele><time>2026-04-25T08:34:49.999Z</time></trkpt><trkpt lat="43.811918132816125" lon="11.629454266870484"><ele>901.0</ele><time>2026-04-25T08:34:50.999Z</time></trkpt><trkpt lat="43.81203334322076" lon="11.629460093864356"><ele>900.9999999999999</ele><time>2026-04-25T08:34:51.999Z</time></trkpt><trkpt lat="43.812114159634085" lon="11.629447220184188"><ele>901.0</ele><time>2026-04-25T08:34:52.999Z</time></trkpt><trkpt lat="43.81218218999895" lon="11.629443491112678"><ele>901.0</ele><time>2026-04-25T08:34:53.999Z</time></trkpt><trkpt lat="43.81228652404381" lon="11.629508722893695"><ele>901.0</ele><time>2026-04-25T08:34:55.999Z</time></trkpt><trkpt lat="43.81231491271699" lon="11.629601934659778"><ele>900.9999999999999</ele><time>2026-04-25T08:34:56.999Z</time></trkpt><trkpt lat="43.812305856405004" lon="11.629696164329616"><ele>901.0</ele><time>2026-04-25T08:34:57.999Z</time></trkpt><trkpt lat="43.81227294541804" lon="11.629775347617981"><ele>900.6666666666666</ele><time>2026-04-25T08:34:58.999Z</time></trkpt><trkpt lat="43.81220472992361" lon="11.629845726083751"><ele>900.3333333333333</ele><time>2026-04-25T08:34:59.999Z</time></trkpt><trkpt lat="43.81215173451623" lon="11.629911581071841"><ele>900.0</ele><time>2026-04-25T08:35:00.999Z</time></trkpt><trkpt lat="43.81210733752428" lon="11.629993184280037"><ele>899.6666666666667</ele><time>2026-04-25T08:35:01.999Z</time></trkpt><trkpt lat="43.81204714441308" lon="11.630087032738592"><ele>899.3333333333334</ele><time>2026-04-25T08:35:02.999Z</time></trkpt><trkpt lat="43.81198153985468" lon="11.630218180676048"><ele>899.0</ele><time>2026-04-25T08:35:03.999Z</time></trkpt><trkpt lat="43.81191938296474" lon="11.630352472548013"><ele>899.0000000000001</ele><time>2026-04-25T08:35:04.999Z</time></trkpt><trkpt lat="43.81188108285728" lon="11.630446997785238"><ele>899.0</ele><time>2026-04-25T08:35:05.999Z</time></trkpt><trkpt lat="43.81185071126428" lon="11.6305485495586"><ele>899.0</ele><time>2026-04-25T08:35:07.999Z</time></trkpt><trkpt lat="43.8118986528985" lon="11.63065311769257"><ele>899.0</ele><time>2026-04-25T08:35:56.001Z</time></trkpt><trkpt lat="43.81192503525463" lon="11.630743553411616"><ele>899.0000000000001</ele><time>2026-04-25T08:35:57.001Z</time></trkpt><trkpt lat="43.811885932539795" lon="11.630873562057678"><ele>899.0</ele><time>2026-04-25T08:35:59.001Z</time></trkpt><trkpt lat="43.81185277709691" lon="11.630953505604852"><ele>896.5000000000001</ele><time>2026-04-25T08:36:00.001Z</time></trkpt><trkpt lat="43.811818960201634" lon="11.631030821311638"><ele>894.0</ele><time>2026-04-25T08:36:01.001Z</time></trkpt><trkpt lat="43.811793801541484" lon="11.631140690731272"><ele>891.5</ele><time>2026-04-25T08:36:02.001Z</time></trkpt><trkpt lat="43.81176517467105" lon="11.631253587001172"><ele>889.0</ele><time>2026-04-25T08:36:03.001Z</time></trkpt><trkpt lat="43.811731446511104" lon="11.631371398790119"><ele>886.5000000000001</ele><time>2026-04-25T08:36:04.001Z</time></trkpt><trkpt lat="43.81171648989862" lon="11.631487122790569"><ele>884.0</ele><time>2026-04-25T08:36:05.001Z</time></trkpt><trkpt lat="43.811682138447985" lon="11.63159901587081"><ele>884.0</ele><time>2026-04-25T08:36:06Z</time></trkpt><trkpt lat="43.81163177074803" lon="11.631713865678122"><ele>884.0000000000001</ele><time>2026-04-25T08:36:07Z</time></trkpt><trkpt lat="43.81158922223169" lon="11.631824714642958"><ele>884.0000000000001</ele><time>2026-04-25T08:36:08Z</time></trkpt><trkpt lat="43.81156419842642" lon="11.631932821958495"><ele>884.0</ele><time>2026-04-25T08:36:09Z</time></trkpt><trkpt lat="43.811555529807734" lon="11.632063291783489"><ele>884.0</ele><time>2026-04-25T08:36:10Z</time></trkpt><trkpt lat="43.81155935232801" lon="11.63218718230145"><ele>886.2</ele><time>2026-04-25T08:36:11Z</time></trkpt><trkpt lat="43.81156086809673" lon="11.63230805033089"><ele>888.4000000000001</ele><time>2026-04-25T08:36:12Z</time></trkpt><trkpt lat="43.81156701270539" lon="11.632412268482474"><ele>890.6</ele><time>2026-04-25T08:36:13Z</time></trkpt><trkpt lat="43.81158117373593" lon="11.632527398524497"><ele>892.8</ele><time>2026-04-25T08:36:14Z</time></trkpt><trkpt lat="43.81154029627177" lon="11.632664804420099"><ele>895.0</ele><time>2026-04-25T08:36:16Z</time></trkpt><trkpt lat="43.811434219380054" lon="11.632730557369143"><ele>897.0</ele><time>2026-04-25T08:36:17Z</time></trkpt><trkpt lat="43.811317392331986" lon="11.632835328129369"><ele>899.0</ele><time>2026-04-25T08:36:18Z</time></trkpt><trkpt lat="43.811215256402015" lon="11.632917182106269"><ele>901.0</ele><time>2026-04-25T08:36:19Z</time></trkpt><trkpt lat="43.811161514303016" lon="11.632964085340006"><ele>903.0</ele><time>2026-04-25T08:36:20Z</time></trkpt><trkpt lat="43.811106701604295" lon="11.633036537029195"><ele>905.0</ele><time>2026-04-25T08:36:21Z</time></trkpt><trkpt lat="43.81105981997205" lon="11.633165696246715"><ele>905.0</ele><time>2026-04-25T08:36:22Z</time></trkpt><trkpt lat="43.810996828447585" lon="11.633285456583902"><ele>905.0</ele><time>2026-04-25T08:36:23Z</time></trkpt><trkpt lat="43.81097208999729" lon="11.63339451673925"><ele>905.0</ele><time>2026-04-25T08:36:24Z</time></trkpt><trkpt lat="43.810950105065146" lon="11.633508720968555"><ele>905.0</ele><time>2026-04-25T08:36:25Z</time></trkpt><trkpt lat="43.81099502152244" lon="11.633637426917678"><ele>905.0</ele><time>2026-04-25T08:36:26Z</time></trkpt><trkpt lat="43.81102118348247" lon="11.633740064948036"><ele>905.6</ele><time>2026-04-25T08:36:27Z</time></trkpt><trkpt lat="43.811082601996404" lon="11.633917709812678"><ele>906.2</ele><time>2026-04-25T08:36:28Z</time></trkpt><trkpt lat="43.81113636767785" lon="11.634024289769943"><ele>906.8</ele><time>2026-04-25T08:36:29Z</time></trkpt><trkpt lat="43.81118519301115" lon="11.634080072143869"><ele>907.4</ele><time>2026-04-25T08:36:30Z</time></trkpt><trkpt lat="43.81118213453435" lon="11.634198709654191"><ele>908.0</ele><time>2026-04-25T08:36:32Z</time></trkpt><trkpt lat="43.811113593040346" lon="11.63429102787187"><ele>904.5999999999999</ele><time>2026-04-25T08:36:34Z</time></trkpt><trkpt lat="43.810965319659765" lon="11.634302089215648"><ele>901.1999999999999</ele><time>2026-04-25T08:36:36Z</time></trkpt><trkpt lat="43.81086013194186" lon="11.634282904123774"><ele>897.8</ele><time>2026-04-25T08:36:37Z</time></trkpt><trkpt lat="43.81077146099809" lon="11.634283954269934"><ele>894.4</ele><time>2026-04-25T08:36:38Z</time></trkpt><trkpt lat="43.8106984149141" lon="11.63433916593549"><ele>891.0</ele><time>2026-04-25T08:36:40Z</time></trkpt><trkpt lat="43.81064936310159" lon="11.634400077724031"><ele>893.5999999999999</ele><time>2026-04-25T08:36:41Z</time></trkpt><trkpt lat="43.810596454435746" lon="11.634473213255209"><ele>896.1999999999999</ele><time>2026-04-25T08:36:42Z</time></trkpt><trkpt lat="43.810534446295705" lon="11.634615396330934"><ele>898.8000000000001</ele><time>2026-04-25T08:36:44Z</time></trkpt><trkpt lat="43.81052792671822" lon="11.634705740020069"><ele>901.4000000000001</ele><time>2026-04-25T08:36:45Z</time></trkpt><trkpt lat="43.81054140767027" lon="11.634881745502124"><ele>904.0</ele><time>2026-04-25T08:36:47Z</time></trkpt><trkpt lat="43.810564345573816" lon="11.634986050268772"><ele>904.0</ele><time>2026-04-25T08:36:48Z</time></trkpt><trkpt lat="43.81058076279272" lon="11.635085463870881"><ele>904.0</ele><time>2026-04-25T08:36:49Z</time></trkpt><trkpt lat="43.810595543131434" lon="11.635188424117205"><ele>904.0</ele><time>2026-04-25T08:36:50Z</time></trkpt><trkpt lat="43.81060655534642" lon="11.635275228073361"><ele>904.0</ele><time>2026-04-25T08:36:51Z</time></trkpt><trkpt lat="43.81063648827155" lon="11.635195777061009"><ele>904.0</ele><time>2026-04-25T08:36:56Z</time></trkpt><trkpt lat="43.810650823700016" lon="11.635286970940673"><ele>904.0</ele><time>2026-04-25T08:37:04Z</time></trkpt><trkpt lat="43.81068804345065" lon="11.635376128238992"><ele>904.0</ele><time>2026-04-25T08:37:06Z</time></trkpt><trkpt lat="43.810699861547576" lon="11.63546319245037"><ele>904.8333333333333</ele><time>2026-04-25T08:37:14Z</time></trkpt><trkpt lat="43.81075272172947" lon="11.635536455702022"><ele>905.6666666666666</ele><time>2026-04-25T08:37:21Z</time></trkpt><trkpt lat="43.81083278469345" lon="11.6356792121031"><ele>906.5</ele><time>2026-04-25T08:37:23Z</time></trkpt><trkpt lat="43.81088882370819" lon="11.635761715268984"><ele>907.3333333333333</ele><time>2026-04-25T08:37:24Z</time></trkpt><trkpt lat="43.81094711786117" lon="11.635821334275539"><ele>908.1666666666666</ele><time>2026-04-25T08:37:25Z</time></trkpt><trkpt lat="43.81100380200939" lon="11.635875476696272"><ele>909.0</ele><time>2026-04-25T08:37:26Z</time></trkpt><trkpt lat="43.81108235315659" lon="11.635963658028615"><ele>911.6</ele><time>2026-04-25T08:37:27Z</time></trkpt><trkpt lat="43.811120308647226" lon="11.63604580303753"><ele>914.2</ele><time>2026-04-25T08:37:28Z</time></trkpt><trkpt lat="43.81114955461638" lon="11.636204315282365"><ele>916.8000000000001</ele><time>2026-04-25T08:37:30Z</time></trkpt><trkpt lat="43.811161713198466" lon="11.636302742025956"><ele>919.4000000000001</ele><time>2026-04-25T08:37:31Z</time></trkpt><trkpt lat="43.811188332654616" lon="11.636412472116726"><ele>922.0</ele><time>2026-04-25T08:37:33Z</time></trkpt><trkpt lat="43.81121201937945" lon="11.63656493555643"><ele>922.0</ele><time>2026-04-25T08:37:35Z</time></trkpt><trkpt lat="43.81129656241896" lon="11.63668324604682"><ele>922.0</ele><time>2026-04-25T08:37:37Z</time></trkpt><trkpt lat="43.81135407648016" lon="11.636739756623129"><ele>922.0</ele><time>2026-04-25T08:37:38Z</time></trkpt><trkpt lat="43.81148669634123" lon="11.636793866541257"><ele>922.0</ele><time>2026-04-25T08:37:40Z</time></trkpt><trkpt lat="43.811555447070894" lon="11.636829589938213"><ele>922.0</ele><time>2026-04-25T08:37:41Z</time></trkpt><trkpt lat="43.811630271847655" lon="11.636877471786937"><ele>922.0</ele><time>2026-04-25T08:37:42Z</time></trkpt><trkpt lat="43.81169113819839" lon="11.636921565198268"><ele>922.0</ele><time>2026-04-25T08:37:43Z</time></trkpt><trkpt lat="43.81173026127451" lon="11.637067398526035"><ele>922.0</ele><time>2026-04-25T08:37:45Z</time></trkpt><trkpt lat="43.811720471799994" lon="11.637197711412606"><ele>922.0</ele><time>2026-04-25T08:37:46Z</time></trkpt><trkpt lat="43.81172141587582" lon="11.637297750999137"><ele>922.0</ele><time>2026-04-25T08:37:47Z</time></trkpt><trkpt lat="43.81165883469876" lon="11.637475100273738"><ele>920.6666666666666</ele><time>2026-04-25T08:37:49.001Z</time></trkpt><trkpt lat="43.81162370206917" lon="11.637581179816822"><ele>919.3333333333333</ele><time>2026-04-25T08:37:50.001Z</time></trkpt><trkpt lat="43.81162706987382" lon="11.637673993471115"><ele>918.0</ele><time>2026-04-25T08:37:51.001Z</time></trkpt><trkpt lat="43.81166554277434" lon="11.637761540265242"><ele>916.6666666666667</ele><time>2026-04-25T08:37:52.001Z</time></trkpt><trkpt lat="43.81174290763304" lon="11.637801317931002"><ele>915.3333333333334</ele><time>2026-04-25T08:37:54.001Z</time></trkpt><trkpt lat="43.81184509748864" lon="11.637764114142032"><ele>914.0</ele><time>2026-04-25T08:37:56.001Z</time></trkpt><trkpt lat="43.811963810263435" lon="11.637679396018687"><ele>917.0000000000001</ele><time>2026-04-25T08:37:58.001Z</time></trkpt><trkpt lat="43.81204864533415" lon="11.63762586464087"><ele>920.0</ele><time>2026-04-25T08:37:59Z</time></trkpt><trkpt lat="43.81211128342023" lon="11.63758114371574"><ele>923.0</ele><time>2026-04-25T08:38:00Z</time></trkpt><trkpt lat="43.81216942154616" lon="11.637528804184107"><ele>926.0</ele><time>2026-04-25T08:38:01Z</time></trkpt><trkpt lat="43.812247255703205" lon="11.637467868676136"><ele>929.0000000000001</ele><time>2026-04-25T08:38:02Z</time></trkpt><trkpt lat="43.812317531243956" lon="11.63743429495983"><ele>932.0</ele><time>2026-04-25T08:38:03Z</time></trkpt><trkpt lat="43.81238447209404" lon="11.63741021293394"><ele>932.0000000000001</ele><time>2026-04-25T08:38:04Z</time></trkpt><trkpt lat="43.8124601596896" lon="11.637379197114086"><ele>932.0</ele><time>2026-04-25T08:38:05Z</time></trkpt><trkpt lat="43.812520761494454" lon="11.637353853039334"><ele>932.0</ele><time>2026-04-25T08:38:06Z</time></trkpt><trkpt lat="43.812624584348875" lon="11.637320008500824"><ele>932.0</ele><time>2026-04-25T08:38:08Z</time></trkpt><trkpt lat="43.81274339147672" lon="11.637326145531459"><ele>932.0000000000001</ele><time>2026-04-25T08:38:10Z</time></trkpt><trkpt lat="43.812798155148734" lon="11.63738098832714"><ele>932.0</ele><time>2026-04-25T08:38:25Z</time></trkpt><trkpt lat="43.81288444507514" lon="11.637501519918517"><ele>933.8333333333334</ele><time>2026-04-25T08:38:27Z</time></trkpt><trkpt lat="43.81292238541557" lon="11.637584365603896"><ele>935.6666666666667</ele><time>2026-04-25T08:38:28Z</time></trkpt><trkpt lat="43.81295889321017" lon="11.637666849019675"><ele>937.5</ele><time>2026-04-25T08:38:29Z</time></trkpt><trkpt lat="43.813048339580114" lon="11.637794018987158"><ele>939.3333333333333</ele><time>2026-04-25T08:38:31Z</time></trkpt><trkpt lat="43.81309215817172" lon="11.6378759043251"><ele>941.1666666666666</ele><time>2026-04-25T08:38:32Z</time></trkpt><trkpt lat="43.81314151090725" lon="11.637948153759906"><ele>943.0</ele><time>2026-04-25T08:38:33Z</time></trkpt><trkpt lat="43.813189816958285" lon="11.638026088381245"><ele>943.0</ele><time>2026-04-25T08:38:34Z</time></trkpt><trkpt lat="43.81325051307998" lon="11.63810168646372"><ele>943.0</ele><time>2026-04-25T08:38:35Z</time></trkpt><trkpt lat="43.81331575680741" lon="11.638144780470284"><ele>943.0</ele><time>2026-04-25T08:38:36Z</time></trkpt><trkpt lat="43.81344795158461" lon="11.638127243881085"><ele>943.0</ele><time>2026-04-25T08:38:38Z</time></trkpt><trkpt lat="43.81353712144013" lon="11.638104985428134"><ele>943.0</ele><time>2026-04-25T08:38:39Z</time></trkpt><trkpt lat="43.813628914475295" lon="11.638064292647833"><ele>941.4999999999999</ele><time>2026-04-25T08:38:40Z</time></trkpt><trkpt lat="43.81368688930559" lon="11.63802405628206"><ele>940.0</ele><time>2026-04-25T08:38:41Z</time></trkpt><trkpt lat="43.81375162065079" lon="11.637944856930114"><ele>938.5</ele><time>2026-04-25T08:38:42Z</time></trkpt><trkpt lat="43.81379141108774" lon="11.637868944173633"><ele>937.0</ele><time>2026-04-25T08:38:43Z</time></trkpt><trkpt lat="43.81386341089781" lon="11.63781163006266"><ele>935.4999999999999</ele><time>2026-04-25T08:38:44Z</time></trkpt><trkpt lat="43.81398515394446" lon="11.637733912349288"><ele>934.0</ele><time>2026-04-25T08:38:46Z</time></trkpt><trkpt lat="43.81407665672531" lon="11.63768659333843"><ele>935.8000000000001</ele><time>2026-04-25T08:38:47Z</time></trkpt><trkpt lat="43.814146506174886" lon="11.637622919795733"><ele>937.6000000000001</ele><time>2026-04-25T08:38:48Z</time></trkpt><trkpt lat="43.8142153279135" lon="11.637563807409196"><ele>939.4</ele><time>2026-04-25T08:38:49Z</time></trkpt><trkpt lat="43.81428785273571" lon="11.637507612654188"><ele>941.2</ele><time>2026-04-25T08:38:50Z</time></trkpt><trkpt lat="43.81436568664541" lon="11.637408224664894"><ele>943.0</ele><time>2026-04-25T08:38:51Z</time></trkpt><trkpt lat="43.8144448197423" lon="11.637283077020987"><ele>942.9999999999999</ele><time>2026-04-25T08:38:52Z</time></trkpt><trkpt lat="43.814513577011006" lon="11.637199643013487"><ele>943.0</ele><time>2026-04-25T08:38:53Z</time></trkpt><trkpt lat="43.814566187350266" lon="11.637054917675039"><ele>943.0</ele><time>2026-04-25T08:38:55Z</time></trkpt><trkpt lat="43.814605298902045" lon="11.636979754702626"><ele>943.0</ele><time>2026-04-25T08:38:56Z</time></trkpt><trkpt lat="43.81463827322733" lon="11.636901956142951"><ele>942.9999999999999</ele><time>2026-04-25T08:38:57Z</time></trkpt><trkpt lat="43.814669054396944" lon="11.63682201555021"><ele>943.0</ele><time>2026-04-25T08:38:58Z</time></trkpt><trkpt lat="43.81468588534787" lon="11.63672982219506"><ele>947.1666666666666</ele><time>2026-04-25T08:38:59Z</time></trkpt><trkpt lat="43.81469262581526" lon="11.636634918141905"><ele>951.3333333333333</ele><time>2026-04-25T08:39:00Z</time></trkpt><trkpt lat="43.81469810263721" lon="11.636526506659568"><ele>955.5</ele><time>2026-04-25T08:39:01Z</time></trkpt><trkpt lat="43.81469863421851" lon="11.63640532072029"><ele>959.6666666666667</ele><time>2026-04-25T08:39:02Z</time></trkpt><trkpt lat="43.81470383527128" lon="11.636286722150421"><ele>963.8333333333334</ele><time>2026-04-25T08:39:03Z</time></trkpt><trkpt lat="43.814706556013" lon="11.63618342333373"><ele>968.0</ele><time>2026-04-25T08:39:04Z</time></trkpt><trkpt lat="43.81473037009779" lon="11.636068836563783"><ele>970.5000000000001</ele><time>2026-04-25T08:39:05Z</time></trkpt><trkpt lat="43.81474237755695" lon="11.635939028430368"><ele>973.0</ele><time>2026-04-25T08:39:06Z</time></trkpt><trkpt lat="43.81475513558412" lon="11.63582004262149"><ele>975.5</ele><time>2026-04-25T08:39:08Z</time></trkpt><trkpt lat="43.81470834979129" lon="11.635754206398602"><ele>978.0</ele><time>2026-04-25T08:39:10Z</time></trkpt><trkpt lat="43.81465719396927" lon="11.635678304396295"><ele>980.5000000000001</ele><time>2026-04-25T08:39:13Z</time></trkpt><trkpt lat="43.8146398710563" lon="11.635541572443923"><ele>983.0</ele><time>2026-04-25T08:39:16Z</time></trkpt><trkpt lat="43.81469405774901" lon="11.635382426968455"><ele>986.5</ele><time>2026-04-25T08:39:18Z</time></trkpt><trkpt lat="43.814766573073996" lon="11.63529627475327"><ele>990.0</ele><time>2026-04-25T08:39:19Z</time></trkpt><trkpt lat="43.81483724337028" lon="11.635200317947838"><ele>993.5</ele><time>2026-04-25T08:39:20Z</time></trkpt><trkpt lat="43.81493567712527" lon="11.635087704986024"><ele>997.0</ele><time>2026-04-25T08:39:21Z</time></trkpt><trkpt lat="43.81503344257095" lon="11.634959403916337"><ele>997.0</ele><time>2026-04-25T08:39:22Z</time></trkpt><trkpt lat="43.81511527973634" lon="11.634842531709422"><ele>997.0</ele><time>2026-04-25T08:39:23Z</time></trkpt><trkpt lat="43.815193146500036" lon="11.634747128192593"><ele>997.0</ele><time>2026-04-25T08:39:24Z</time></trkpt><trkpt lat="43.8152729181429" lon="11.634649261731525"><ele>997.0</ele><time>2026-04-25T08:39:25Z</time></trkpt><trkpt lat="43.81533870210289" lon="11.634556450812275"><ele>997.0</ele><time>2026-04-25T08:39:26Z</time></trkpt><trkpt lat="43.81539843147903" lon="11.634433335499487"><ele>1000.6666666666666</ele><time>2026-04-25T08:39:27Z</time></trkpt><trkpt lat="43.815446797700666" lon="11.634353304519307"><ele>1004.3333333333333</ele><time>2026-04-25T08:39:28Z</time></trkpt><trkpt lat="43.81549472403193" lon="11.634260090232752"><ele>1008.0</ele><time>2026-04-25T08:39:29Z</time></trkpt><trkpt lat="43.81554092139706" lon="11.634167184420566"><ele>1011.6666666666667</ele><time>2026-04-25T08:39:30Z</time></trkpt><trkpt lat="43.81564275989116" lon="11.63409305993595"><ele>1015.3333333333334</ele><time>2026-04-25T08:39:32Z</time></trkpt><trkpt lat="43.81571366895252" lon="11.6340344222102"><ele>1019.0</ele><time>2026-04-25T08:39:33Z</time></trkpt><trkpt lat="43.81576595394958" lon="11.633970668605105"><ele>1019.0</ele><time>2026-04-25T08:39:34Z</time></trkpt><trkpt lat="43.81580565501619" lon="11.633885961119686"><ele>1019.0000000000001</ele><time>2026-04-25T08:39:35Z</time></trkpt><trkpt lat="43.81587247822728" lon="11.633791465453726"><ele>1019.0000000000001</ele><time>2026-04-25T08:39:36Z</time></trkpt><trkpt lat="43.815929874516094" lon="11.633710712149835"><ele>1019.0</ele><time>2026-04-25T08:39:37Z</time></trkpt><trkpt lat="43.816025291736146" lon="11.633590835597003"><ele>1019.0</ele><time>2026-04-25T08:39:39Z</time></trkpt><trkpt lat="43.81608771100103" lon="11.633493289297483"><ele>1022.2</ele><time>2026-04-25T08:39:40Z</time></trkpt><trkpt lat="43.81615320516749" lon="11.633377179703565"><ele>1025.4</ele><time>2026-04-25T08:39:41Z</time></trkpt><trkpt lat="43.81623121648492" lon="11.633289141655524"><ele>1028.6</ele><time>2026-04-25T08:39:42Z</time></trkpt><trkpt lat="43.8163061263341" lon="11.633207240076688"><ele>1031.8</ele><time>2026-04-25T08:39:43Z</time></trkpt><trkpt lat="43.81637619824344" lon="11.633115260739807"><ele>1035.0</ele><time>2026-04-25T08:39:44Z</time></trkpt><trkpt lat="43.816461111993156" lon="11.633021853324276"><ele>1035.0</ele><time>2026-04-25T08:39:45Z</time></trkpt><trkpt lat="43.816541805612154" lon="11.632942250724035"><ele>1035.0</ele><time>2026-04-25T08:39:46Z</time></trkpt><trkpt lat="43.81661332691793" lon="11.632851589062877"><ele>1035.0</ele><time>2026-04-25T08:39:47Z</time></trkpt><trkpt lat="43.81669062113697" lon="11.632732415798653"><ele>1035.0</ele><time>2026-04-25T08:39:48Z</time></trkpt><trkpt lat="43.81676752955223" lon="11.632628102399522"><ele>1035.0</ele><time>2026-04-25T08:39:49Z</time></trkpt><trkpt lat="43.816843020786315" lon="11.632518703507342"><ele>1039.8</ele><time>2026-04-25T08:39:50Z</time></trkpt><trkpt lat="43.81692039751873" lon="11.632426834482198"><ele>1044.6</ele><time>2026-04-25T08:39:51Z</time></trkpt><trkpt lat="43.816993369478176" lon="11.632357215302408"><ele>1049.4</ele><time>2026-04-25T08:39:52Z</time></trkpt><trkpt lat="43.817064641393806" lon="11.63226344414708"><ele>1054.2</ele><time>2026-04-25T08:39:54Z</time></trkpt><trkpt lat="43.81708827677597" lon="11.632166007193787"><ele>1059.0</ele><time>2026-04-25T08:40:50Z</time></trkpt><trkpt lat="43.817074387293815" lon="11.632037053516285"><ele>1060.6000000000001</ele><time>2026-04-25T08:40:52Z</time></trkpt><trkpt lat="43.81703431841874" lon="11.631963313518364"><ele>1062.2</ele><time>2026-04-25T08:40:54Z</time></trkpt><trkpt lat="43.81702994238116" lon="11.631796745069128"><ele>1063.8000000000002</ele><time>2026-04-25T08:40:56Z</time></trkpt><trkpt lat="43.81705034009071" lon="11.631672568595715"><ele>1065.4</ele><time>2026-04-25T08:40:57Z</time></trkpt><trkpt lat="43.81706849956114" lon="11.631570265812101"><ele>1067.0</ele><time>2026-04-25T08:40:58Z</time></trkpt><trkpt lat="43.81706616665323" lon="11.6314328105816"><ele>1067.0</ele><time>2026-04-25T08:41:00Z</time></trkpt><trkpt lat="43.81705808422199" lon="11.631282850306906"><ele>1067.0</ele><time>2026-04-25T08:41:02Z</time></trkpt><trkpt lat="43.81705940835656" lon="11.631114009342362"><ele>1067.0</ele><time>2026-04-25T08:41:04Z</time></trkpt><trkpt lat="43.81706516033445" lon="11.630977304201684"><ele>1067.0</ele><time>2026-04-25T08:41:05Z</time></trkpt><trkpt lat="43.817049855343704" lon="11.63086256609081"><ele>1067.0</ele><time>2026-04-25T08:41:06Z</time></trkpt><trkpt lat="43.81703362643244" lon="11.630755675539936"><ele>1068.2857142857142</ele><time>2026-04-25T08:41:07Z</time></trkpt><trkpt lat="43.817020962565294" lon="11.630663196624381"><ele>1069.5714285714284</ele><time>2026-04-25T08:41:08Z</time></trkpt><trkpt lat="43.81699079380541" lon="11.63058208934405"><ele>1070.857142857143</ele><time>2026-04-25T08:41:09Z</time></trkpt><trkpt lat="43.81694689680799" lon="11.630468630023513"><ele>1072.142857142857</ele><time>2026-04-25T08:41:10Z</time></trkpt><trkpt lat="43.81691911062648" lon="11.630374929176382"><ele>1073.4285714285716</ele><time>2026-04-25T08:41:11Z</time></trkpt><trkpt lat="43.8169214024992" lon="11.630278226731646"><ele>1074.7142857142858</ele><time>2026-04-25T08:41:12Z</time></trkpt><trkpt lat="43.81694258865606" lon="11.630192785691811"><ele>1076.0</ele><time>2026-04-25T08:41:13Z</time></trkpt><trkpt lat="43.81694426099374" lon="11.630083795038862"><ele>1076.6666666666667</ele><time>2026-04-25T08:41:14Z</time></trkpt><trkpt lat="43.81695330520588" lon="11.629983747058882"><ele>1077.3333333333335</ele><time>2026-04-25T08:41:15Z</time></trkpt><trkpt lat="43.816951954438075" lon="11.629874306040398"><ele>1078.0</ele><time>2026-04-25T08:41:16Z</time></trkpt><trkpt lat="43.8169611922193" lon="11.629779114538161"><ele>1078.6666666666667</ele><time>2026-04-25T08:41:17Z</time></trkpt><trkpt lat="43.81697377515817" lon="11.629683953265758"><ele>1079.3333333333333</ele><time>2026-04-25T08:41:18Z</time></trkpt><trkpt lat="43.816986748219925" lon="11.629598419266122"><ele>1080.0</ele><time>2026-04-25T08:41:19Z</time></trkpt><trkpt lat="43.816990919731246" lon="11.629432240208674"><ele>1080.0</ele><time>2026-04-25T08:41:21Z</time></trkpt><trkpt lat="43.817056324830126" lon="11.629261642632365"><ele>1080.0</ele><time>2026-04-25T08:41:23Z</time></trkpt><trkpt lat="43.81710653938701" lon="11.62914746454131"><ele>1080.0</ele><time>2026-04-25T08:41:24Z</time></trkpt><trkpt lat="43.817123561045335" lon="11.629043051922679"><ele>1080.0</ele><time>2026-04-25T08:41:25Z</time></trkpt><trkpt lat="43.81712147640726" lon="11.628941687628508"><ele>1080.0</ele><time>2026-04-25T08:41:27Z</time></trkpt><trkpt lat="43.81711070123125" lon="11.628839958784956"><ele>1080.0</ele><time>2026-04-25T08:41:29Z</time></trkpt><trkpt lat="43.81709404005576" lon="11.628644394624114"><ele>1080.0</ele><time>2026-04-25T08:41:31Z</time></trkpt><trkpt lat="43.81710262183868" lon="11.628557243511942"><ele>1080.0</ele><time>2026-04-25T08:41:32Z</time></trkpt><trkpt lat="43.817141785399215" lon="11.628475654886875"><ele>1080.0</ele><time>2026-04-25T08:41:33Z</time></trkpt><trkpt lat="43.817206587474864" lon="11.628439598462133"><ele>1080.0</ele><time>2026-04-25T08:41:34Z</time></trkpt><trkpt lat="43.81727817510754" lon="11.628378285863686"><ele>1080.0</ele><time>2026-04-25T08:41:35Z</time></trkpt><trkpt lat="43.81733658430047" lon="11.628294983849687"><ele>1079.6666666666667</ele><time>2026-04-25T08:41:36Z</time></trkpt><trkpt lat="43.817371297520204" lon="11.628208045895994"><ele>1079.3333333333333</ele><time>2026-04-25T08:41:37Z</time></trkpt><trkpt lat="43.817390849146626" lon="11.62812325115091"><ele>1079.0</ele><time>2026-04-25T08:41:38Z</time></trkpt><trkpt lat="43.81743759904928" lon="11.628061147500315"><ele>1078.6666666666665</ele><time>2026-04-25T08:41:39Z</time></trkpt><trkpt lat="43.817520060298186" lon="11.628005079680353"><ele>1078.3333333333333</ele><time>2026-04-25T08:41:41Z</time></trkpt><trkpt lat="43.817538409565934" lon="11.627875504100324"><ele>1078.0</ele><time>2026-04-25T08:41:43Z</time></trkpt><trkpt lat="43.817554383891434" lon="11.627729018081912"><ele>1077.1666666666665</ele><time>2026-04-25T08:41:45Z</time></trkpt><trkpt lat="43.817577832426" lon="11.627596828212784"><ele>1076.3333333333333</ele><time>2026-04-25T08:41:46Z</time></trkpt><trkpt lat="43.81759936685651" lon="11.627497458153101"><ele>1075.5</ele><time>2026-04-25T08:41:47Z</time></trkpt><trkpt lat="43.817621345445374" lon="11.627398614243504"><ele>1074.6666666666667</ele><time>2026-04-25T08:41:48Z</time></trkpt><trkpt lat="43.817639107880424" lon="11.62729637386368"><ele>1073.8333333333335</ele><time>2026-04-25T08:41:49Z</time></trkpt><trkpt lat="43.8176568910779" lon="11.627211009653198"><ele>1073.0</ele><time>2026-04-25T08:41:50Z</time></trkpt><trkpt lat="43.817727225588975" lon="11.627035830532966"><ele>1074.3333333333335</ele><time>2026-04-25T08:41:52Z</time></trkpt><trkpt lat="43.81774921106899" lon="11.62692938211839"><ele>1075.6666666666667</ele><time>2026-04-25T08:41:53Z</time></trkpt><trkpt lat="43.817802134914515" lon="11.626801060054671"><ele>1077.0</ele><time>2026-04-25T08:41:55Z</time></trkpt><trkpt lat="43.8178225768998" lon="11.626714250158953"><ele>1078.3333333333333</ele><time>2026-04-25T08:41:56Z</time></trkpt><trkpt lat="43.817827436270164" lon="11.626621079399477"><ele>1079.6666666666665</ele><time>2026-04-25T08:41:57Z</time></trkpt><trkpt lat="43.81785046981872" lon="11.626535207571605"><ele>1081.0</ele><time>2026-04-25T08:41:58Z</time></trkpt><trkpt lat="43.81784375944563" lon="11.626351476224881"><ele>1081.0</ele><time>2026-04-25T08:42:00Z</time></trkpt><trkpt lat="43.8178375526257" lon="11.626250093349162"><ele>1081.0</ele><time>2026-04-25T08:42:01Z</time></trkpt><trkpt lat="43.81782949817766" lon="11.626145487460924"><ele>1081.0</ele><time>2026-04-25T08:42:02Z</time></trkpt><trkpt lat="43.81780980292465" lon="11.626054087120734"><ele>1081.0</ele><time>2026-04-25T08:42:03Z</time></trkpt><trkpt lat="43.81776602786448" lon="11.6259304054438"><ele>1081.0</ele><time>2026-04-25T08:42:05Z</time></trkpt><trkpt lat="43.81770641056518" lon="11.625825755979925"><ele>1081.0</ele><time>2026-04-25T08:42:07Z</time></trkpt><trkpt lat="43.81762350053935" lon="11.625762086980401"><ele>1084.0</ele><time>2026-04-25T08:42:09Z</time></trkpt><trkpt lat="43.81757157669006" lon="11.625619927375803"><ele>1087.0</ele><time>2026-04-25T08:42:11Z</time></trkpt><trkpt lat="43.817559199154196" lon="11.625532415248856"><ele>1090.0</ele><time>2026-04-25T08:42:12Z</time></trkpt><trkpt lat="43.81753392796084" lon="11.625348471733764"><ele>1093.0</ele><time>2026-04-25T08:42:14Z</time></trkpt><trkpt lat="43.81749965803975" lon="11.62524800647085"><ele>1096.0</ele><time>2026-04-25T08:42:15Z</time></trkpt><trkpt lat="43.81747697590443" lon="11.625165762007542"><ele>1097.1666666666665</ele><time>2026-04-25T08:42:17Z</time></trkpt><trkpt lat="43.81753768375023" lon="11.625097391692055"><ele>1098.3333333333333</ele><time>2026-04-25T08:42:39Z</time></trkpt><trkpt lat="43.817496742337866" lon="11.625163837053265"><ele>1099.5</ele><time>2026-04-25T08:45:43Z</time></trkpt><trkpt lat="43.817571919532384" lon="11.625085110836105"><ele>1100.6666666666667</ele><time>2026-04-25T08:50:16.999Z</time></trkpt><trkpt lat="43.81766894276276" lon="11.625093053328738"><ele>1101.8333333333335</ele><time>2026-04-25T08:50:18.999Z</time></trkpt><trkpt lat="43.817734454473815" lon="11.62508967142861"><ele>1103.0</ele><time>2026-04-25T08:50:22Z</time></trkpt><trkpt lat="43.81781980591879" lon="11.625082077353513"><ele>1100.2</ele><time>2026-04-25T08:50:24Z</time></trkpt><trkpt lat="43.817913452865675" lon="11.625098065450986"><ele>1097.4</ele><time>2026-04-25T08:50:26Z</time></trkpt><trkpt lat="43.81798846550324" lon="11.625113197185323"><ele>1094.6000000000001</ele><time>2026-04-25T08:50:28Z</time></trkpt><trkpt lat="43.81813513740561" lon="11.625085631232237"><ele>1091.8</ele><time>2026-04-25T08:50:30Z</time></trkpt><trkpt lat="43.818240978690966" lon="11.625086856045199"><ele>1089.0</ele><time>2026-04-25T08:50:31Z</time></trkpt><trkpt lat="43.818321416889674" lon="11.625105570403958"><ele>1089.0</ele><time>2026-04-25T08:50:32Z</time></trkpt><trkpt lat="43.81839284399374" lon="11.625114280752841"><ele>1089.0</ele><time>2026-04-25T08:50:33Z</time></trkpt><trkpt lat="43.81851892915537" lon="11.625126345049706"><ele>1089.0</ele><time>2026-04-25T08:50:35Z</time></trkpt><trkpt lat="43.81864767649084" lon="11.625087255498864"><ele>1089.0</ele><time>2026-04-25T08:50:37Z</time></trkpt><trkpt lat="43.818730663665505" lon="11.625066642267964"><ele>1089.0</ele><time>2026-04-25T08:50:38Z</time></trkpt><trkpt lat="43.818802951291815" lon="11.625028039969452"><ele>1086.8</ele><time>2026-04-25T08:50:39Z</time></trkpt><trkpt lat="43.818882995248195" lon="11.624983908189739"><ele>1084.6000000000001</ele><time>2026-04-25T08:50:40Z</time></trkpt><trkpt lat="43.81896013424171" lon="11.624943370903653"><ele>1082.4</ele><time>2026-04-25T08:50:41Z</time></trkpt><trkpt lat="43.81906845848504" lon="11.624988984793381"><ele>1080.2</ele><time>2026-04-25T08:50:43Z</time></trkpt><trkpt lat="43.81914890647986" lon="11.62507161090747"><ele>1078.0</ele><time>2026-04-25T08:50:45Z</time></trkpt><trkpt lat="43.81921849045311" lon="11.625137120271361"><ele>1078.0</ele><time>2026-04-25T08:50:47Z</time></trkpt><trkpt lat="43.819289694795664" lon="11.625192858503802"><ele>1078.0</ele><time>2026-04-25T08:50:50Z</time></trkpt><trkpt lat="43.819357332023806" lon="11.62529170317559"><ele>1078.0</ele><time>2026-04-25T08:50:52Z</time></trkpt><trkpt lat="43.81944702642797" lon="11.625298231274972"><ele>1078.0</ele><time>2026-04-25T08:50:55Z</time></trkpt><trkpt lat="43.81952467425748" lon="11.625291741996847"><ele>1078.0</ele><time>2026-04-25T08:50:57Z</time></trkpt><trkpt lat="43.81959559356753" lon="11.625258956709063"><ele>1078.0</ele><time>2026-04-25T08:50:58Z</time></trkpt><trkpt lat="43.81970380320303" lon="11.625227863570053"><ele>1077.1666666666665</ele><time>2026-04-25T08:51:00Z</time></trkpt><trkpt lat="43.81977901202152" lon="11.625179967997525"><ele>1076.3333333333333</ele><time>2026-04-25T08:51:02Z</time></trkpt><trkpt lat="43.819870161113684" lon="11.625148683055004"><ele>1075.5</ele><time>2026-04-25T08:51:04Z</time></trkpt><trkpt lat="43.819959785771275" lon="11.625197727918868"><ele>1074.6666666666667</ele><time>2026-04-25T08:51:06Z</time></trkpt><trkpt lat="43.82003595787972" lon="11.625205471517367"><ele>1073.8333333333335</ele><time>2026-04-25T08:51:07Z</time></trkpt><trkpt lat="43.82011424814223" lon="11.625176722918965"><ele>1073.0</ele><time>2026-04-25T08:51:08Z</time></trkpt><trkpt lat="43.82019107339469" lon="11.625166716113945"><ele>1073.0</ele><time>2026-04-25T08:51:09Z</time></trkpt><trkpt lat="43.82026788683785" lon="11.625155135972557"><ele>1073.0</ele><time>2026-04-25T08:51:10Z</time></trkpt><trkpt lat="43.820343359292245" lon="11.625151679041593"><ele>1073.0</ele><time>2026-04-25T08:51:11Z</time></trkpt><trkpt lat="43.82042615225886" lon="11.625101549706713"><ele>1073.0</ele><time>2026-04-25T08:51:12Z</time></trkpt><trkpt lat="43.82054022955083" lon="11.625020956968507"><ele>1073.0</ele><time>2026-04-25T08:51:13Z</time></trkpt><trkpt lat="43.82062311820674" lon="11.624967798642574"><ele>1073.0</ele><time>2026-04-25T08:51:14Z</time></trkpt><trkpt lat="43.82066551608668" lon="11.62489912578196"><ele>1073.0</ele><time>2026-04-25T08:51:15Z</time></trkpt><trkpt lat="43.82069186364571" lon="11.624784658342087"><ele>1073.0</ele><time>2026-04-25T08:51:16Z</time></trkpt><trkpt lat="43.82071588946757" lon="11.624649925670637"><ele>1073.0</ele><time>2026-04-25T08:51:17Z</time></trkpt><trkpt lat="43.820749884754704" lon="11.624511729733754"><ele>1073.0</ele><time>2026-04-25T08:51:18Z</time></trkpt><trkpt lat="43.820780384781386" lon="11.624420745002613"><ele>1073.0</ele><time>2026-04-25T08:51:19Z</time></trkpt><trkpt lat="43.82080221101529" lon="11.624306905082822"><ele>1073.6666666666667</ele><time>2026-04-25T08:51:21Z</time></trkpt><trkpt lat="43.82086748458852" lon="11.624217965687548"><ele>1074.3333333333335</ele><time>2026-04-25T08:51:23Z</time></trkpt><trkpt lat="43.82092133188782" lon="11.624167871688044"><ele>1075.0</ele><time>2026-04-25T08:51:24Z</time></trkpt><trkpt lat="43.820986061261095" lon="11.624151976913796"><ele>1075.6666666666667</ele><time>2026-04-25T08:51:25Z</time></trkpt><trkpt lat="43.821033471938534" lon="11.62407760818049"><ele>1076.3333333333333</ele><time>2026-04-25T08:51:26Z</time></trkpt><trkpt lat="43.821077108325525" lon="11.62396524187259"><ele>1077.0</ele><time>2026-04-25T08:51:27Z</time></trkpt><trkpt lat="43.8211404792745" lon="11.623926872634598"><ele>1077.0</ele><time>2026-04-25T08:51:29Z</time></trkpt><trkpt lat="43.821261021831944" lon="11.623870157086884"><ele>1077.0</ele><time>2026-04-25T08:51:31Z</time></trkpt><trkpt lat="43.82132630723989" lon="11.623825581687091"><ele>1077.0</ele><time>2026-04-25T08:51:32Z</time></trkpt><trkpt lat="43.82137494481898" lon="11.6237460598393"><ele>1077.0</ele><time>2026-04-25T08:51:33Z</time></trkpt><trkpt lat="43.82141387647333" lon="11.62359870092418"><ele>1077.0</ele><time>2026-04-25T08:51:35Z</time></trkpt><trkpt lat="43.82142554695342" lon="11.623504032857662"><ele>1072.4</ele><time>2026-04-25T08:51:36Z</time></trkpt><trkpt lat="43.82143257497462" lon="11.623378323174201"><ele>1067.8000000000002</ele><time>2026-04-25T08:51:37Z</time></trkpt><trkpt lat="43.82145408479539" lon="11.62326462666813"><ele>1063.2</ele><time>2026-04-25T08:51:38Z</time></trkpt><trkpt lat="43.82153977748222" lon="11.623161931909566"><ele>1058.6000000000001</ele><time>2026-04-25T08:51:40Z</time></trkpt><trkpt lat="43.82161293272964" lon="11.623069237822307"><ele>1054.0</ele><time>2026-04-25T08:51:42Z</time></trkpt><trkpt lat="43.8217026442486" lon="11.623055973449938"><ele>1054.0</ele><time>2026-04-25T08:51:44Z</time></trkpt><trkpt lat="43.821786831034075" lon="11.622990692053152"><ele>1054.0</ele><time>2026-04-25T08:51:45.999Z</time></trkpt><trkpt lat="43.82188584834067" lon="11.622941535870629"><ele>1054.0</ele><time>2026-04-25T08:51:47.999Z</time></trkpt><trkpt lat="43.82195485055582" lon="11.622927064111135"><ele>1054.0</ele><time>2026-04-25T08:51:48.999Z</time></trkpt><trkpt lat="43.822034216656135" lon="11.622887464312281"><ele>1054.0</ele><time>2026-04-25T08:51:50.999Z</time></trkpt><trkpt lat="43.82212839810799" lon="11.622828064129976"><ele>1051.6666666666665</ele><time>2026-04-25T08:51:52.999Z</time></trkpt><trkpt lat="43.822219403668214" lon="11.622776751848843"><ele>1049.3333333333333</ele><time>2026-04-25T08:51:54.999Z</time></trkpt><trkpt lat="43.82228008178174" lon="11.622701559174333"><ele>1047.0</ele><time>2026-04-25T08:51:56.999Z</time></trkpt><trkpt lat="43.82233833060581" lon="11.62262537132625"><ele>1044.6666666666667</ele><time>2026-04-25T08:51:58.999Z</time></trkpt><trkpt lat="43.822403522150054" lon="11.622603170315017"><ele>1042.3333333333335</ele><time>2026-04-25T08:52:00.999Z</time></trkpt><trkpt lat="43.82247912528755" lon="11.622484241461294"><ele>1040.0</ele><time>2026-04-25T08:52:19.999Z</time></trkpt><trkpt lat="43.822578876985915" lon="11.622375868686872"><ele>1037.2</ele><time>2026-04-25T08:52:21.999Z</time></trkpt><trkpt lat="43.82268257351977" lon="11.62231368362721"><ele>1034.4</ele><time>2026-04-25T08:52:23.999Z</time></trkpt><trkpt lat="43.822672142021645" lon="11.62217099509946"><ele>1031.6</ele><time>2026-04-25T08:52:25.999Z</time></trkpt><trkpt lat="43.82266280420431" lon="11.622072910577485"><ele>1028.8</ele><time>2026-04-25T08:52:27Z</time></trkpt><trkpt lat="43.822698864738015" lon="11.621952248828036"><ele>1026.0</ele><time>2026-04-25T08:52:29Z</time></trkpt><trkpt lat="43.822691997076724" lon="11.62180481669068"><ele>1026.1666666666667</ele><time>2026-04-25T08:52:31Z</time></trkpt><trkpt lat="43.82267027209249" lon="11.621671346037314"><ele>1026.3333333333333</ele><time>2026-04-25T08:52:33Z</time></trkpt><trkpt lat="43.82255146216523" lon="11.62164003804331"><ele>1026.5</ele><time>2026-04-25T08:52:35Z</time></trkpt><trkpt lat="43.82248239369701" lon="11.621668316476306"><ele>1026.6666666666665</ele><time>2026-04-25T08:52:36Z</time></trkpt><trkpt lat="43.82241897936417" lon="11.621693718643856"><ele>1026.8333333333333</ele><time>2026-04-25T08:52:37Z</time></trkpt><trkpt lat="43.822346510990016" lon="11.62171183295022"><ele>1027.0</ele><time>2026-04-25T08:52:38Z</time></trkpt><trkpt lat="43.82227943589554" lon="11.621729883048102"><ele>1027.0</ele><time>2026-04-25T08:52:39Z</time></trkpt><trkpt lat="43.822171179661225" lon="11.621778529781947"><ele>1027.0</ele><time>2026-04-25T08:52:41Z</time></trkpt><trkpt lat="43.82211909070917" lon="11.621888489935746"><ele>1027.0</ele><time>2026-04-25T08:52:43Z</time></trkpt><trkpt lat="43.82207745865695" lon="11.621968311061929"><ele>1027.0</ele><time>2026-04-25T08:52:45Z</time></trkpt><trkpt lat="43.82203073511057" lon="11.622048455360245"><ele>1027.0</ele><time>2026-04-25T08:52:47Z</time></trkpt><trkpt lat="43.821968158656745" lon="11.622095119037995"><ele>1027.0</ele><time>2026-04-25T08:52:49Z</time></trkpt><trkpt lat="43.821892170158165" lon="11.6221317468001"><ele>1028.5</ele><time>2026-04-25T08:52:52Z</time></trkpt><trkpt lat="43.821808849438085" lon="11.622124780133014"><ele>1030.0</ele><time>2026-04-25T08:52:57Z</time></trkpt><trkpt lat="43.82173750020082" lon="11.622104633289462"><ele>1031.5</ele><time>2026-04-25T08:53:00Z</time></trkpt><trkpt lat="43.82164287723001" lon="11.622121226463161"><ele>1033.0</ele><time>2026-04-25T08:53:03Z</time></trkpt><trkpt lat="43.821537842871585" lon="11.622157543740867"><ele>1034.5</ele><time>2026-04-25T08:53:05Z</time></trkpt><trkpt lat="43.82147927554888" lon="11.622212149962984"><ele>1036.0</ele><time>2026-04-25T08:53:06Z</time></trkpt><trkpt lat="43.82138735618678" lon="11.622205271176629"><ele>1036.0</ele><time>2026-04-25T08:53:08Z</time></trkpt><trkpt lat="43.82132569117535" lon="11.6221658132464"><ele>1036.0</ele><time>2026-04-25T08:53:09Z</time></trkpt><trkpt lat="43.82126153713648" lon="11.622126199590896"><ele>1036.0</ele><time>2026-04-25T08:53:10Z</time></trkpt><trkpt lat="43.8211882728595" lon="11.622082981455925"><ele>1036.0</ele><time>2026-04-25T08:53:11Z</time></trkpt><trkpt lat="43.82112659562001" lon="11.622040166053395"><ele>1036.0</ele><time>2026-04-25T08:53:12Z</time></trkpt><trkpt lat="43.82105991674033" lon="11.62203406220177"><ele>1036.0</ele><time>2026-04-25T08:53:13Z</time></trkpt><trkpt lat="43.821005229241756" lon="11.622108952135715"><ele>1036.0</ele><time>2026-04-25T08:53:14Z</time></trkpt><trkpt lat="43.82094908528388" lon="11.62221751475883"><ele>1034.0</ele><time>2026-04-25T08:53:15Z</time></trkpt><trkpt lat="43.820904910838074" lon="11.622312968857495"><ele>1032.0</ele><time>2026-04-25T08:53:16Z</time></trkpt><trkpt lat="43.820850565679166" lon="11.622378896870256"><ele>1030.0</ele><time>2026-04-25T08:53:17Z</time></trkpt><trkpt lat="43.820803104845844" lon="11.622477453246551"><ele>1028.0</ele><time>2026-04-25T08:53:19Z</time></trkpt><trkpt lat="43.82079677825918" lon="11.622601892500699"><ele>1026.0</ele><time>2026-04-25T08:53:20Z</time></trkpt><trkpt lat="43.82076491023517" lon="11.622722784217258"><ele>1024.0</ele><time>2026-04-25T08:53:22Z</time></trkpt><trkpt lat="43.820630514619765" lon="11.622719079579083"><ele>1023.9999999999999</ele><time>2026-04-25T08:53:24Z</time></trkpt><trkpt lat="43.82051212472944" lon="11.622743129749384"><ele>1024.0</ele><time>2026-04-25T08:53:26Z</time></trkpt><trkpt lat="43.82043141219333" lon="11.622785261690245"><ele>1024.0</ele><time>2026-04-25T08:53:27Z</time></trkpt><trkpt lat="43.820386126834364" lon="11.622848873413057"><ele>1024.0</ele><time>2026-04-25T08:53:28Z</time></trkpt><trkpt lat="43.82036421865411" lon="11.622950098555444"><ele>1023.9999999999999</ele><time>2026-04-25T08:53:30Z</time></trkpt><trkpt lat="43.82034834022733" lon="11.623051493823652"><ele>1024.0</ele><time>2026-04-25T08:53:32Z</time></trkpt><trkpt lat="43.82028849990357" lon="11.623107409384966"><ele>1024.4</ele><time>2026-04-25T08:53:49Z</time></trkpt><trkpt lat="43.820210194700394" lon="11.623059120568536"><ele>1024.8000000000002</ele><time>2026-04-25T08:53:51Z</time></trkpt><trkpt lat="43.82011145926733" lon="11.62299740327394"><ele>1025.1999999999998</ele><time>2026-04-25T08:53:53Z</time></trkpt><trkpt lat="43.82001993690189" lon="11.622881408525673"><ele>1025.6</ele><time>2026-04-25T08:53:55Z</time></trkpt><trkpt lat="43.81999868186566" lon="11.62277924857936"><ele>1026.0</ele><time>2026-04-25T08:53:56Z</time></trkpt><trkpt lat="43.81996563461682" lon="11.622684491560262"><ele>1026.0</ele><time>2026-04-25T08:53:57Z</time></trkpt><trkpt lat="43.819907101060245" lon="11.622604699964787"><ele>1026.0</ele><time>2026-04-25T08:53:58Z</time></trkpt><trkpt lat="43.819849345178056" lon="11.622542674576714"><ele>1026.0</ele><time>2026-04-25T08:53:59Z</time></trkpt><trkpt lat="43.81978342328068" lon="11.622433519434043"><ele>1026.0</ele><time>2026-04-25T08:54:01Z</time></trkpt><trkpt lat="43.81975150157078" lon="11.622323427607556"><ele>1026.0</ele><time>2026-04-25T08:54:02Z</time></trkpt><trkpt lat="43.81973616481278" lon="11.622225624861846"><ele>1026.0</ele><time>2026-04-25T08:54:02.999Z</time></trkpt><trkpt lat="43.81971391723231" lon="11.622133639621024"><ele>1026.0</ele><time>2026-04-25T08:54:03.999Z</time></trkpt><trkpt lat="43.81962182124077" lon="11.622040752901887"><ele>1026.0</ele><time>2026-04-25T08:54:05.999Z</time></trkpt><trkpt lat="43.81956850613556" lon="11.621974801623555"><ele>1026.0</ele><time>2026-04-25T08:54:06.999Z</time></trkpt><trkpt lat="43.81951661596598" lon="11.621885630988876"><ele>1026.0</ele><time>2026-04-25T08:54:07.999Z</time></trkpt><trkpt lat="43.81942930395183" lon="11.621775756928868"><ele>1026.0</ele><time>2026-04-25T08:54:09.999Z</time></trkpt><trkpt lat="43.81937003571873" lon="11.621744695085788"><ele>1026.0</ele><time>2026-04-25T08:54:10.999Z</time></trkpt><trkpt lat="43.81929553344581" lon="11.621747319232737"><ele>1025.6666666666667</ele><time>2026-04-25T08:54:11.999Z</time></trkpt><trkpt lat="43.8191822027256" lon="11.621720625378428"><ele>1025.3333333333333</ele><time>2026-04-25T08:54:13.999Z</time></trkpt><trkpt lat="43.81912143010045" lon="11.621664505040963"><ele>1025.0</ele><time>2026-04-25T08:54:16.999Z</time></trkpt><trkpt lat="43.819047270714876" lon="11.621627893330713"><ele>1024.6666666666665</ele><time>2026-04-25T08:54:19.999Z</time></trkpt><trkpt lat="43.81896343629906" lon="11.621546735881351"><ele>1024.3333333333333</ele><time>2026-04-25T08:54:21.999Z</time></trkpt><trkpt lat="43.81891592251513" lon="11.621476588371864"><ele>1024.0</ele><time>2026-04-25T08:54:22.999Z</time></trkpt><trkpt lat="43.81884519199205" lon="11.621355776466105"><ele>1023.9999999999999</ele><time>2026-04-25T08:54:24.999Z</time></trkpt><trkpt lat="43.81880612845425" lon="11.621281532948796"><ele>1024.0</ele><time>2026-04-25T08:54:25.999Z</time></trkpt><trkpt lat="43.81879598821981" lon="11.621170735894621"><ele>1024.0</ele><time>2026-04-25T08:54:27.999Z</time></trkpt><trkpt lat="43.81892492838938" lon="11.621160634759562"><ele>1024.0</ele><time>2026-04-25T08:54:29.999Z</time></trkpt><trkpt lat="43.81899986435909" lon="11.621153943791137"><ele>1023.9999999999999</ele><time>2026-04-25T08:54:30.999Z</time></trkpt><trkpt lat="43.819040723930776" lon="11.621063209765424"><ele>1024.0</ele><time>2026-04-25T08:54:36Z</time></trkpt><trkpt lat="43.81897789466427" lon="11.62095353251804"><ele>1023.1666666666666</ele><time>2026-04-25T08:54:38Z</time></trkpt><trkpt lat="43.81894496033893" lon="11.620847573774256"><ele>1022.3333333333333</ele><time>2026-04-25T08:54:40Z</time></trkpt><trkpt lat="43.818884643512206" lon="11.620748274176998"><ele>1021.5</ele><time>2026-04-25T08:54:42Z</time></trkpt><trkpt lat="43.81881223418028" lon="11.620702085896857"><ele>1020.6666666666667</ele><time>2026-04-25T08:54:44Z</time></trkpt><trkpt lat="43.81882603259847" lon="11.620583818694922"><ele>1019.8333333333334</ele><time>2026-04-25T08:54:48Z</time></trkpt><trkpt lat="43.81887850908734" lon="11.620534998440844"><ele>1019.0</ele><time>2026-04-25T08:54:51Z</time></trkpt><trkpt lat="43.819160607207266" lon="11.620149276575109"><ele>1019.0000000000001</ele><time>2026-04-25T08:54:54Z</time></trkpt><trkpt lat="43.81922271484223" lon="11.620056584124923"><ele>1019.0</ele><time>2026-04-25T08:54:55Z</time></trkpt><trkpt lat="43.81926863196538" lon="11.619965018477211"><ele>1019.0</ele><time>2026-04-25T08:54:56Z</time></trkpt><trkpt lat="43.81930905778626" lon="11.619865258123271"><ele>1019.0</ele><time>2026-04-25T08:54:57Z</time></trkpt><trkpt lat="43.81936171891421" lon="11.619769195750353"><ele>1019.0000000000001</ele><time>2026-04-25T08:54:58Z</time></trkpt><trkpt lat="43.81939396342985" lon="11.619641170209645"><ele>1019.0</ele><time>2026-04-25T08:55:00Z</time></trkpt><trkpt lat="43.81941984122279" lon="11.619506566301256"><ele>1016.0</ele><time>2026-04-25T08:55:02Z</time></trkpt><trkpt lat="43.8194475855567" lon="11.619340588435204"><ele>1013.0000000000001</ele><time>2026-04-25T08:55:04Z</time></trkpt><trkpt lat="43.819465127250794" lon="11.61919126559626"><ele>1010.0000000000001</ele><time>2026-04-25T08:55:05Z</time></trkpt><trkpt lat="43.81948501006395" lon="11.61909528142835"><ele>1007.0</ele><time>2026-04-25T08:55:06Z</time></trkpt><trkpt lat="43.81940840599397" lon="11.619099586564822"><ele>1004.0</ele><time>2026-04-25T08:55:51Z</time></trkpt><trkpt lat="43.819440466700726" lon="11.618997041849743"><ele>1004.0</ele><time>2026-04-25T08:55:53Z</time></trkpt><trkpt lat="43.819468701181464" lon="11.618912417079834"><ele>1004.0000000000001</ele><time>2026-04-25T08:55:56Z</time></trkpt><trkpt lat="43.81955473223592" lon="11.618855975553899"><ele>1004.0000000000001</ele><time>2026-04-25T08:55:59Z</time></trkpt><trkpt lat="43.81964101540412" lon="11.618795464556932"><ele>1004.0</ele><time>2026-04-25T08:56:01Z</time></trkpt><trkpt lat="43.819737599616246" lon="11.61879215063731"><ele>1004.0</ele><time>2026-04-25T08:56:02.999Z</time></trkpt><trkpt lat="43.81986142368611" lon="11.618741187035706"><ele>1004.0</ele><time>2026-04-25T08:56:04.999Z</time></trkpt><trkpt lat="43.81996315940143" lon="11.618706248929636"><ele>1004.0000000000001</ele><time>2026-04-25T08:56:05.999Z</time></trkpt><trkpt lat="43.82003957575702" lon="11.618676750229193"><ele>1004.0000000000001</ele><time>2026-04-25T08:56:06.999Z</time></trkpt><trkpt lat="43.820116619736844" lon="11.618641162243708"><ele>1004.0</ele><time>2026-04-25T08:56:07.999Z</time></trkpt><trkpt lat="43.82014272541879" lon="11.618513627344228"><ele>1004.0</ele><time>2026-04-25T08:56:09.999Z</time></trkpt><trkpt lat="43.82021658213853" lon="11.618412536030416"><ele>1002.4285714285713</ele><time>2026-04-25T08:56:11.999Z</time></trkpt><trkpt lat="43.82028012812429" lon="11.618396718487286"><ele>1000.8571428571429</ele><time>2026-04-25T08:56:12.999Z</time></trkpt><trkpt lat="43.820360726335615" lon="11.618358311793473"><ele>999.2857142857142</ele><time>2026-04-25T08:56:14.999Z</time></trkpt><trkpt lat="43.82042021559065" lon="11.618321841054446"><ele>997.7142857142857</ele><time>2026-04-25T08:56:15.999Z</time></trkpt><trkpt lat="43.82048688302813" lon="11.618281929832552"><ele>996.1428571428571</ele><time>2026-04-25T08:56:16.999Z</time></trkpt><trkpt lat="43.820560453996485" lon="11.618266003649582"><ele>994.5714285714286</ele><time>2026-04-25T08:56:17.999Z</time></trkpt><trkpt lat="43.820621375978575" lon="11.61822910328942"><ele>993.0</ele><time>2026-04-25T08:56:18.999Z</time></trkpt><trkpt lat="43.820682310040674" lon="11.618171859579345"><ele>993.0</ele><time>2026-04-25T08:56:19.999Z</time></trkpt><trkpt lat="43.8207718821151" lon="11.618065150221296"><ele>993.0</ele><time>2026-04-25T08:56:21.999Z</time></trkpt><trkpt lat="43.82084578137044" lon="11.61796215606895"><ele>993.0</ele><time>2026-04-25T08:56:23.999Z</time></trkpt><trkpt lat="43.82093140107609" lon="11.617814597021857"><ele>993.0</ele><time>2026-04-25T08:56:25.999Z</time></trkpt><trkpt lat="43.820970002312876" lon="11.61773342042952"><ele>993.0</ele><time>2026-04-25T08:56:26.999Z</time></trkpt><trkpt lat="43.821007032929145" lon="11.617645746322781"><ele>988.25</ele><time>2026-04-25T08:56:28.999Z</time></trkpt><trkpt lat="43.82105688547914" lon="11.61754055652866"><ele>983.5</ele><time>2026-04-25T08:56:31.999Z</time></trkpt><trkpt lat="43.82115555457254" lon="11.617544477537482"><ele>978.75</ele><time>2026-04-25T08:56:34.999Z</time></trkpt><trkpt lat="43.82123163168615" lon="11.61750869230574"><ele>974.0</ele><time>2026-04-25T08:56:39Z</time></trkpt><trkpt lat="43.82146000703792" lon="11.617355738548612"><ele>974.0</ele><time>2026-04-25T08:56:42Z</time></trkpt><trkpt lat="43.82156069018585" lon="11.617314062896265"><ele>974.0000000000001</ele><time>2026-04-25T08:56:44Z</time></trkpt><trkpt lat="43.82162702188975" lon="11.617294306522842"><ele>974.0000000000001</ele><time>2026-04-25T08:56:45Z</time></trkpt><trkpt lat="43.82175466815728" lon="11.617290051534129"><ele>974.0</ele><time>2026-04-25T08:56:47Z</time></trkpt><trkpt lat="43.82184478567957" lon="11.61728700702028"><ele>974.0</ele><time>2026-04-25T08:56:48Z</time></trkpt><trkpt lat="43.821928896881545" lon="11.617273281395303"><ele>971.6</ele><time>2026-04-25T08:56:49Z</time></trkpt><trkpt lat="43.82203871346375" lon="11.617194831993618"><ele>969.2</ele><time>2026-04-25T08:56:51Z</time></trkpt><trkpt lat="43.822112647281536" lon="11.61712090563567"><ele>966.8000000000001</ele><time>2026-04-25T08:56:53Z</time></trkpt><trkpt lat="43.8222024330948" lon="11.617110383267963"><ele>964.4000000000001</ele><time>2026-04-25T08:56:55Z</time></trkpt><trkpt lat="43.822294311210825" lon="11.617120321559657"><ele>962.0</ele><time>2026-04-25T08:56:57Z</time></trkpt><trkpt lat="43.82236453247551" lon="11.61715506466473"><ele>962.0</ele><time>2026-04-25T08:56:59Z</time></trkpt><trkpt lat="43.82242494257282" lon="11.6172418061717"><ele>962.0</ele><time>2026-04-25T08:57:01Z</time></trkpt><trkpt lat="43.82256124223504" lon="11.617331129066683"><ele>962.0</ele><time>2026-04-25T08:57:03Z</time></trkpt><trkpt lat="43.82263360304122" lon="11.617341229183165"><ele>962.0</ele><time>2026-04-25T08:57:04Z</time></trkpt><trkpt lat="43.82273758910876" lon="11.617332023947132"><ele>962.0</ele><time>2026-04-25T08:57:07Z</time></trkpt><trkpt lat="43.82283133233829" lon="11.61731399375914"><ele>960.8333333333334</ele><time>2026-04-25T08:57:09Z</time></trkpt><trkpt lat="43.82292035330265" lon="11.617338029011067"><ele>959.6666666666667</ele><time>2026-04-25T08:57:12Z</time></trkpt><trkpt lat="43.82298351317259" lon="11.61736338720732"><ele>958.5</ele><time>2026-04-25T08:57:14Z</time></trkpt><trkpt lat="43.82306107455221" lon="11.6173439174328"><ele>957.3333333333333</ele><time>2026-04-25T08:57:17Z</time></trkpt><trkpt lat="43.82312866185739" lon="11.617313335153106"><ele>956.1666666666666</ele><time>2026-04-25T08:57:18Z</time></trkpt><trkpt lat="43.82322142525631" lon="11.617283687658446"><ele>955.0</ele><time>2026-04-25T08:57:20Z</time></trkpt><trkpt lat="43.823265319697455" lon="11.617129815031168"><ele>955.0</ele><time>2026-04-25T08:57:23Z</time></trkpt><trkpt lat="43.8233304741049" lon="11.617050895283377"><ele>955.0</ele><time>2026-04-25T08:57:26Z</time></trkpt><trkpt lat="43.82339983438788" lon="11.616986746574725"><ele>955.0</ele><time>2026-04-25T08:57:27Z</time></trkpt><trkpt lat="43.82348284266524" lon="11.616952892129376"><ele>955.0</ele><time>2026-04-25T08:57:29Z</time></trkpt><trkpt lat="43.82355201276491" lon="11.616927602462749"><ele>955.0</ele><time>2026-04-25T08:57:31Z</time></trkpt><trkpt lat="43.82377117925073" lon="11.616795900254182"><ele>951.6</ele><time>2026-04-25T08:57:32Z</time></trkpt><trkpt lat="43.82382420604178" lon="11.616660546498293"><ele>948.2</ele><time>2026-04-25T08:57:34Z</time></trkpt><trkpt lat="43.82383814835236" lon="11.616500644812092"><ele>944.8</ele><time>2026-04-25T08:57:36Z</time></trkpt><trkpt lat="43.823851185694934" lon="11.616361330857984"><ele>941.4</ele><time>2026-04-25T08:57:38Z</time></trkpt><trkpt lat="43.82387141348369" lon="11.616233438941574"><ele>938.0</ele><time>2026-04-25T08:57:40Z</time></trkpt><trkpt lat="43.82388547069553" lon="11.61609010286379"><ele>937.4</ele><time>2026-04-25T08:57:42Z</time></trkpt><trkpt lat="43.823903781380885" lon="11.615960993256522"><ele>936.8</ele><time>2026-04-25T08:57:44Z</time></trkpt><trkpt lat="43.82392427892272" lon="11.61582086017837"><ele>936.2</ele><time>2026-04-25T08:57:46Z</time></trkpt><trkpt lat="43.82395864960826" lon="11.61568269521368"><ele>935.6</ele><time>2026-04-25T08:57:48Z</time></trkpt><trkpt lat="43.82400865957006" lon="11.615591629431663"><ele>935.0</ele><time>2026-04-25T08:57:51Z</time></trkpt><trkpt lat="43.82407716884113" lon="11.615495615726736"><ele>935.0</ele><time>2026-04-25T08:57:53.999Z</time></trkpt><trkpt lat="43.824157770183476" lon="11.61543824354747"><ele>935.0</ele><time>2026-04-25T08:57:55.999Z</time></trkpt><trkpt lat="43.824203778002975" lon="11.615347883218375"><ele>935.0</ele><time>2026-04-25T08:57:57.999Z</time></trkpt><trkpt lat="43.824233280154296" lon="11.615195883018636"><ele>935.0</ele><time>2026-04-25T08:57:59.999Z</time></trkpt><trkpt lat="43.82424741413215" lon="11.615078218102726"><ele>935.0</ele><time>2026-04-25T08:58:01.999Z</time></trkpt><trkpt lat="43.82425292938054" lon="11.614957558615233"><ele>933.1666666666667</ele><time>2026-04-25T08:58:04.999Z</time></trkpt><trkpt lat="43.82427891122581" lon="11.614835993290676"><ele>931.3333333333334</ele><time>2026-04-25T08:58:06.999Z</time></trkpt><trkpt lat="43.82423668212707" lon="11.61475530274071"><ele>929.5</ele><time>2026-04-25T08:58:09.999Z</time></trkpt><trkpt lat="43.824165254004164" lon="11.614753033418028"><ele>927.6666666666667</ele><time>2026-04-25T08:58:12.999Z</time></trkpt><trkpt lat="43.82408797609313" lon="11.614794470975836"><ele>925.8333333333334</ele><time>2026-04-25T08:58:14.999Z</time></trkpt><trkpt lat="43.824004758611736" lon="11.61484477630932"><ele>924.0</ele><time>2026-04-25T08:58:16.999Z</time></trkpt><trkpt lat="43.82397904993956" lon="11.614764826707605"><ele>924.0</ele><time>2026-04-25T08:58:19.999Z</time></trkpt><trkpt lat="43.82396216942638" lon="11.614673342549537"><ele>924.0000000000001</ele><time>2026-04-25T08:58:22.999Z</time></trkpt><trkpt lat="43.82399739676059" lon="11.614560139692621"><ele>924.0000000000001</ele><time>2026-04-25T08:58:24.999Z</time></trkpt><trkpt lat="43.82397150761456" lon="11.61438074596439"><ele>924.0</ele><time>2026-04-25T08:58:26.999Z</time></trkpt><trkpt lat="43.82396860846044" lon="11.61428101376237"><ele>924.0</ele><time>2026-04-25T08:58:27.999Z</time></trkpt><trkpt lat="43.8239396867367" lon="11.614145908929457"><ele>921.0</ele><time>2026-04-25T08:58:29.999Z</time></trkpt><trkpt lat="43.823939067364854" lon="11.614004072999311"><ele>918.0000000000001</ele><time>2026-04-25T08:58:32.999Z</time></trkpt><trkpt lat="43.82391793999566" lon="11.613861070550179"><ele>915.0000000000001</ele><time>2026-04-25T08:58:35.999Z</time></trkpt><trkpt lat="43.82386124756254" lon="11.61377740059433"><ele>912.0</ele><time>2026-04-25T08:58:37.999Z</time></trkpt><trkpt lat="43.82380981758307" lon="11.61363276379679"><ele>909.0</ele><time>2026-04-25T08:58:39.999Z</time></trkpt><trkpt lat="43.823757653717784" lon="11.613562876842643"><ele>905.2</ele><time>2026-04-25T08:58:40.999Z</time></trkpt><trkpt lat="43.82370651651576" lon="11.613443676070293"><ele>901.4000000000001</ele><time>2026-04-25T08:58:42.999Z</time></trkpt><trkpt lat="43.82369835500507" lon="11.613295576152044"><ele>897.6</ele><time>2026-04-25T08:58:45Z</time></trkpt><trkpt lat="43.823706971525326" lon="11.613159674991765"><ele>893.8</ele><time>2026-04-25T08:58:47Z</time></trkpt><trkpt lat="43.82377643040873" lon="11.613064413915179"><ele>890.0</ele><time>2026-04-25T08:58:49Z</time></trkpt><trkpt lat="43.82373270414243" lon="11.613001345302399"><ele>890.0000000000001</ele><time>2026-04-25T08:58:51Z</time></trkpt><trkpt lat="43.82363261825883" lon="11.613041545730377"><ele>890.0</ele><time>2026-04-25T08:58:53Z</time></trkpt><trkpt lat="43.823579036529985" lon="11.613114509654416"><ele>890.0</ele><time>2026-04-25T08:58:54Z</time></trkpt><trkpt lat="43.82353371527877" lon="11.613184214488747"><ele>890.0</ele><time>2026-04-25T08:58:55Z</time></trkpt><trkpt lat="43.82348791819684" lon="11.613255181777664"><ele>890.0000000000001</ele><time>2026-04-25T08:58:56Z</time></trkpt><trkpt lat="43.823426818482126" lon="11.613342731071263"><ele>890.0</ele><time>2026-04-25T08:58:58Z</time></trkpt><trkpt lat="43.82331484667506" lon="11.613390788346955"><ele>889.6</ele><time>2026-04-25T08:59:00Z</time></trkpt><trkpt lat="43.82321838503764" lon="11.61345236351191"><ele>889.2</ele><time>2026-04-25T08:59:02Z</time></trkpt><trkpt lat="43.82315388743321" lon="11.613602648341395"><ele>888.8</ele><time>2026-04-25T08:59:04Z</time></trkpt><trkpt lat="43.823113940024996" lon="11.613675938373603"><ele>888.4</ele><time>2026-04-25T08:59:05Z</time></trkpt><trkpt lat="43.82302308967618" lon="11.613760812467326"><ele>888.0</ele><time>2026-04-25T08:59:07Z</time></trkpt><trkpt lat="43.822943142834305" lon="11.61380651592675"><ele>888.0</ele><time>2026-04-25T08:59:09Z</time></trkpt><trkpt lat="43.82286855246018" lon="11.613863060076918"><ele>888.0</ele><time>2026-04-25T08:59:11Z</time></trkpt><trkpt lat="43.822789751728216" lon="11.613921711593315"><ele>888.0</ele><time>2026-04-25T08:59:13Z</time></trkpt><trkpt lat="43.822798334799344" lon="11.613829287505343"><ele>888.0</ele><time>2026-04-25T08:59:20Z</time></trkpt><trkpt lat="43.82284021176814" lon="11.613750058270384"><ele>888.0</ele><time>2026-04-25T08:59:24Z</time></trkpt><trkpt lat="43.8228803921618" lon="11.613629147587348"><ele>888.0</ele><time>2026-04-25T08:59:27Z</time></trkpt><trkpt lat="43.82291695751113" lon="11.613530402407392"><ele>888.0</ele><time>2026-04-25T08:59:29Z</time></trkpt><trkpt lat="43.82295287132372" lon="11.613449379005583"><ele>888.0</ele><time>2026-04-25T08:59:32Z</time></trkpt><trkpt lat="43.823010740182426" lon="11.613346653396443"><ele>888.0</ele><time>2026-04-25T08:59:34Z</time></trkpt><trkpt lat="43.823079985175546" lon="11.61318902553243"><ele>888.0</ele><time>2026-04-25T08:59:36Z</time></trkpt><trkpt lat="43.82312384725951" lon="11.613065232484622"><ele>888.0</ele><time>2026-04-25T08:59:37Z</time></trkpt><trkpt lat="43.82318130528887" lon="11.612978685503165"><ele>886.0</ele><time>2026-04-25T08:59:38Z</time></trkpt><trkpt lat="43.82321272443093" lon="11.612787834182038"><ele>884.0</ele><time>2026-04-25T08:59:40Z</time></trkpt><trkpt lat="43.8231939007599" lon="11.612698651567461"><ele>882.0</ele><time>2026-04-25T08:59:41Z</time></trkpt><trkpt lat="43.8231692953952" lon="11.612614077277048"><ele>880.0</ele><time>2026-04-25T08:59:42Z</time></trkpt><trkpt lat="43.82312400033274" lon="11.61250165869157"><ele>878.0</ele><time>2026-04-25T08:59:43Z</time></trkpt><trkpt lat="43.823078162671386" lon="11.612379630308077"><ele>878.0000000000001</ele><time>2026-04-25T08:59:44Z</time></trkpt><trkpt lat="43.823044036061475" lon="11.612291285092258"><ele>878.0</ele><time>2026-04-25T08:59:45Z</time></trkpt><trkpt lat="43.8229796182738" lon="11.612207269474963"><ele>878.0</ele><time>2026-04-25T08:59:46Z</time></trkpt><trkpt lat="43.822926639922855" lon="11.61213185675363"><ele>878.0</ele><time>2026-04-25T08:59:47.999Z</time></trkpt><trkpt lat="43.822830303573255" lon="11.6121004146171"><ele>878.0000000000001</ele><time>2026-04-25T08:59:49.999Z</time></trkpt><trkpt lat="43.822765418919374" lon="11.612075721829594"><ele>878.0</ele><time>2026-04-25T08:59:50.999Z</time></trkpt><trkpt lat="43.82270008643533" lon="11.61205711047736"><ele>881.8333333333334</ele><time>2026-04-25T08:59:51.999Z</time></trkpt><trkpt lat="43.82262667012215" lon="11.61204408245302"><ele>885.6666666666667</ele><time>2026-04-25T08:59:52.999Z</time></trkpt><trkpt lat="43.82255304266657" lon="11.612025695948144"><ele>889.5</ele><time>2026-04-25T08:59:53.999Z</time></trkpt><trkpt lat="43.82246949118793" lon="11.611999237497422"><ele>893.3333333333333</ele><time>2026-04-25T08:59:54.999Z</time></trkpt><trkpt lat="43.82237628490036" lon="11.61196065156171"><ele>897.1666666666666</ele><time>2026-04-25T08:59:55.999Z</time></trkpt><trkpt lat="43.82231055632373" lon="11.611940160818868"><ele>901.0</ele><time>2026-04-25T08:59:56.999Z</time></trkpt><trkpt lat="43.82222177447598" lon="11.611963245972067"><ele>903.1999999999999</ele><time>2026-04-25T08:59:58.999Z</time></trkpt><trkpt lat="43.82210663361505" lon="11.611993338960097"><ele>905.3999999999999</ele><time>2026-04-25T09:00:00.999Z</time></trkpt><trkpt lat="43.821992061853656" lon="11.612032475408876"><ele>907.6</ele><time>2026-04-25T09:00:02.999Z</time></trkpt><trkpt lat="43.82191369338614" lon="11.612052593815244"><ele>909.8</ele><time>2026-04-25T09:00:03.999Z</time></trkpt><trkpt lat="43.82184321425646" lon="11.61208703894799"><ele>912.0</ele><time>2026-04-25T09:00:04.999Z</time></trkpt><trkpt lat="43.82172755640633" lon="11.612058987644316"><ele>915.6666666666666</ele><time>2026-04-25T09:00:06.999Z</time></trkpt><trkpt lat="43.82161675647285" lon="11.612047501678504"><ele>919.3333333333333</ele><time>2026-04-25T09:00:08.999Z</time></trkpt><trkpt lat="43.82152370919662" lon="11.612037297922566"><ele>923.0</ele><time>2026-04-25T09:00:10.999Z</time></trkpt><trkpt lat="43.82142582219556" lon="11.612019954736526"><ele>926.6666666666666</ele><time>2026-04-25T09:00:12.999Z</time></trkpt><trkpt lat="43.82136153443206" lon="11.612014834998504"><ele>930.3333333333333</ele><time>2026-04-25T09:00:13.999Z</time></trkpt><trkpt lat="43.821287040679614" lon="11.612014520848541"><ele>934.0</ele><time>2026-04-25T09:00:14.999Z</time></trkpt><trkpt lat="43.82118679992796" lon="11.612102596086636"><ele>933.9999999999999</ele><time>2026-04-25T09:01:26Z</time></trkpt><trkpt lat="43.82108550617764" lon="11.612129444866087"><ele>934.0</ele><time>2026-04-25T09:03:08Z</time></trkpt><trkpt lat="43.82102690016914" lon="11.61216650196308"><ele>934.0</ele><time>2026-04-25T09:03:09Z</time></trkpt><trkpt lat="43.82102374293587" lon="11.61206003546396"><ele>934.0</ele><time>2026-04-25T09:03:11Z</time></trkpt><trkpt lat="43.82095788220642" lon="11.612003458192259"><ele>933.9999999999999</ele><time>2026-04-25T09:03:14Z</time></trkpt><trkpt lat="43.820902605822894" lon="11.611885104146891"><ele>934.0</ele><time>2026-04-25T09:03:17Z</time></trkpt><trkpt lat="43.820945723643455" lon="11.611765191332038"><ele>929.8000000000001</ele><time>2026-04-25T09:03:19Z</time></trkpt><trkpt lat="43.82099071107462" lon="11.611661373118533"><ele>925.6000000000001</ele><time>2026-04-25T09:03:21Z</time></trkpt><trkpt lat="43.82101950991345" lon="11.611507843951461"><ele>921.4</ele><time>2026-04-25T09:03:23Z</time></trkpt><trkpt lat="43.82103220836731" lon="11.611422277026078"><ele>917.2</ele><time>2026-04-25T09:03:24Z</time></trkpt><trkpt lat="43.82103345074409" lon="11.611261875435984"><ele>913.0</ele><time>2026-04-25T09:03:25Z</time></trkpt><trkpt lat="43.82103515550447" lon="11.611105790270932"><ele>910.4999999999999</ele><time>2026-04-25T09:03:26Z</time></trkpt><trkpt lat="43.82102394762674" lon="11.611012179772176"><ele>908.0</ele><time>2026-04-25T09:03:27Z</time></trkpt><trkpt lat="43.82100299819163" lon="11.610925241718808"><ele>905.5</ele><time>2026-04-25T09:03:28Z</time></trkpt><trkpt lat="43.82096080214208" lon="11.610850529372867"><ele>903.0</ele><time>2026-04-25T09:03:29Z</time></trkpt><trkpt lat="43.82090367667692" lon="11.610784058977528"><ele>900.4999999999999</ele><time>2026-04-25T09:03:30Z</time></trkpt><trkpt lat="43.82084204651838" lon="11.610694284587186"><ele>898.0</ele><time>2026-04-25T09:03:31Z</time></trkpt><trkpt lat="43.820748169771456" lon="11.610593755688281"><ele>902.25</ele><time>2026-04-25T09:03:32Z</time></trkpt><trkpt lat="43.820607510713685" lon="11.610475221865418"><ele>906.5</ele><time>2026-04-25T09:03:33Z</time></trkpt><trkpt lat="43.82053894006023" lon="11.610374992219866"><ele>910.75</ele><time>2026-04-25T09:03:34Z</time></trkpt><trkpt lat="43.82045449093665" lon="11.61030833012207"><ele>915.0</ele><time>2026-04-25T09:03:35Z</time></trkpt><trkpt lat="43.820369037329506" lon="11.610277408001803"><ele>915.0</ele><time>2026-04-25T09:03:37Z</time></trkpt><trkpt lat="43.820323970327244" lon="11.610191322480352"><ele>915.0</ele><time>2026-04-25T09:03:38.999Z</time></trkpt><trkpt lat="43.820257703759665" lon="11.610087868360413"><ele>915.0</ele><time>2026-04-25T09:03:40.999Z</time></trkpt><trkpt lat="43.820162339554386" lon="11.609970277069685"><ele>915.0</ele><time>2026-04-25T09:03:42.999Z</time></trkpt><trkpt lat="43.820119125856465" lon="11.609906585219113"><ele>915.0</ele><time>2026-04-25T09:03:43.999Z</time></trkpt><trkpt lat="43.82006445182263" lon="11.609858690341811"><ele>915.0</ele><time>2026-04-25T09:03:44.999Z</time></trkpt><trkpt lat="43.81994204765008" lon="11.60978265248939"><ele>916.6666666666666</ele><time>2026-04-25T09:03:46.999Z</time></trkpt><trkpt lat="43.819870126720545" lon="11.609775564835676"><ele>918.3333333333333</ele><time>2026-04-25T09:03:47.999Z</time></trkpt><trkpt lat="43.81980719480327" lon="11.609780997255623"><ele>920.0</ele><time>2026-04-25T09:03:48.999Z</time></trkpt><trkpt lat="43.81972023126835" lon="11.609756041791648"><ele>921.6666666666666</ele><time>2026-04-25T09:03:50.999Z</time></trkpt><trkpt lat="43.819640434231125" lon="11.609692987078978"><ele>923.3333333333333</ele><time>2026-04-25T09:03:53.999Z</time></trkpt><trkpt lat="43.819584294593646" lon="11.609613142369525"><ele>925.0</ele><time>2026-04-25T09:03:55.999Z</time></trkpt><trkpt lat="43.81957169676057" lon="11.609487669422318"><ele>924.9999999999999</ele><time>2026-04-25T09:03:57.999Z</time></trkpt><trkpt lat="43.819533768810075" lon="11.609360309338934"><ele>925.0</ele><time>2026-04-25T09:03:59.999Z</time></trkpt><trkpt lat="43.81949640147511" lon="11.609228649324113"><ele>925.0</ele><time>2026-04-25T09:04:01.999Z</time></trkpt><trkpt lat="43.81947442453015" lon="11.609137521653556"><ele>925.0</ele><time>2026-04-25T09:04:03.999Z</time></trkpt><trkpt lat="43.81949562647388" lon="11.609021322461372"><ele>924.9999999999999</ele><time>2026-04-25T09:04:06.999Z</time></trkpt><trkpt lat="43.81948075793075" lon="11.608916100500396"><ele>925.0</ele><time>2026-04-25T09:04:08.999Z</time></trkpt><trkpt lat="43.81949341703145" lon="11.608812176833617"><ele>924.9999999999999</ele><time>2026-04-25T09:04:11.999Z</time></trkpt><trkpt lat="43.81953199935607" lon="11.608738541924012"><ele>925.0</ele><time>2026-04-25T09:04:13.999Z</time></trkpt><trkpt lat="43.81957641440203" lon="11.60867572782859"><ele>925.0</ele><time>2026-04-25T09:04:15.999Z</time></trkpt><trkpt lat="43.81955804775685" lon="11.608582301532847"><ele>925.0</ele><time>2026-04-25T09:04:19.999Z</time></trkpt><trkpt lat="43.819492089824905" lon="11.608519943073732"><ele>924.9999999999999</ele><time>2026-04-25T09:04:23.999Z</time></trkpt><trkpt lat="43.81941862426019" lon="11.608474281382144"><ele>925.0</ele><time>2026-04-25T09:04:27.999Z</time></trkpt><trkpt lat="43.81933339378871" lon="11.608406820945998"><ele>923.7142857142858</ele><time>2026-04-25T09:04:31.999Z</time></trkpt><trkpt lat="43.81926709040518" lon="11.608368156036153"><ele>922.4285714285713</ele><time>2026-04-25T09:04:34.999Z</time></trkpt><trkpt lat="43.81919969274597" lon="11.608325152243053"><ele>921.1428571428571</ele><time>2026-04-25T09:04:38.999Z</time></trkpt><trkpt lat="43.81914477776165" lon="11.608236375878716"><ele>919.8571428571429</ele><time>2026-04-25T09:04:41.999Z</time></trkpt><trkpt lat="43.8190957892169" lon="11.608159210636842"><ele>918.5714285714287</ele><time>2026-04-25T09:04:45.999Z</time></trkpt><trkpt lat="43.819128756460145" lon="11.608067030136786"><ele>917.2857142857142</ele><time>2026-04-25T09:04:50.999Z</time></trkpt><trkpt lat="43.819187283954385" lon="11.60801846095195"><ele>916.0</ele><time>2026-04-25T09:04:54.999Z</time></trkpt><trkpt lat="43.81924534449783" lon="11.607978906266089"><ele>916.0</ele><time>2026-04-25T09:04:56.999Z</time></trkpt><trkpt lat="43.81924011041228" lon="11.60788788730094"><ele>916.0</ele><time>2026-04-25T09:04:58.999Z</time></trkpt><trkpt lat="43.819263138364704" lon="11.60778857118481"><ele>916.0</ele><time>2026-04-25T09:05:00.999Z</time></trkpt><trkpt lat="43.81929135370221" lon="11.607705390309931"><ele>916.0</ele><time>2026-04-25T09:05:04Z</time></trkpt><trkpt lat="43.819328538399596" lon="11.607629194115077"><ele>916.0</ele><time>2026-04-25T09:05:07Z</time></trkpt><trkpt lat="43.819393243244626" lon="11.60764264381709"><ele>916.0</ele><time>2026-04-25T09:05:09Z</time></trkpt><trkpt lat="43.819479688738376" lon="11.607600226777702"><ele>916.0</ele><time>2026-04-25T09:05:12Z</time></trkpt><trkpt lat="43.81954253292134" lon="11.607567214892656"><ele>915.1666666666666</ele><time>2026-04-25T09:05:14Z</time></trkpt><trkpt lat="43.819610879544754" lon="11.607553814815406"><ele>914.3333333333333</ele><time>2026-04-25T09:05:16Z</time></trkpt><trkpt lat="43.81970358568408" lon="11.607541698705456"><ele>913.5</ele><time>2026-04-25T09:05:18Z</time></trkpt><trkpt lat="43.81977081489309" lon="11.607534773225957"><ele>912.6666666666667</ele><time>2026-04-25T09:05:19Z</time></trkpt><trkpt lat="43.81984073084957" lon="11.60751167139425"><ele>911.8333333333334</ele><time>2026-04-25T09:05:20Z</time></trkpt><trkpt lat="43.819959495439726" lon="11.607469025924452"><ele>911.0</ele><time>2026-04-25T09:05:22Z</time></trkpt><trkpt lat="43.820038085696744" lon="11.6074501098672"><ele>911.0000000000001</ele><time>2026-04-25T09:05:23Z</time></trkpt><trkpt lat="43.820103184537786" lon="11.607444409134994"><ele>911.0</ele><time>2026-04-25T09:05:24Z</time></trkpt><trkpt lat="43.82017400880512" lon="11.607434492748782"><ele>911.0</ele><time>2026-04-25T09:05:25Z</time></trkpt><trkpt lat="43.82025234036576" lon="11.607413622223778"><ele>911.0</ele><time>2026-04-25T09:05:26.999Z</time></trkpt><trkpt lat="43.82034917612129" lon="11.607432154543298"><ele>911.0000000000001</ele><time>2026-04-25T09:05:28.999Z</time></trkpt><trkpt lat="43.82045128631455" lon="11.607464028282841"><ele>911.0</ele><time>2026-04-25T09:05:30.999Z</time></trkpt><trkpt lat="43.820536494696576" lon="11.607473972297603"><ele>909.4</ele><time>2026-04-25T09:05:32.999Z</time></trkpt><trkpt lat="43.82062346016104" lon="11.607507154500261"><ele>907.8</ele><time>2026-04-25T09:05:34.999Z</time></trkpt><trkpt lat="43.82068573545919" lon="11.607590782961243"><ele>906.1999999999999</ele><time>2026-04-25T09:05:36.999Z</time></trkpt><trkpt lat="43.82077260842561" lon="11.607727113755105"><ele>904.5999999999999</ele><time>2026-04-25T09:05:38.999Z</time></trkpt><trkpt lat="43.82086597133356" lon="11.607831099604045"><ele>903.0</ele><time>2026-04-25T09:05:40.999Z</time></trkpt><trkpt lat="43.82093112680881" lon="11.607852969446762"><ele>908.2</ele><time>2026-04-25T09:05:41.999Z</time></trkpt><trkpt lat="43.82104417106092" lon="11.607942441476927"><ele>913.4</ele><time>2026-04-25T09:05:43.999Z</time></trkpt><trkpt lat="43.821105802432555" lon="11.60798706057728"><ele>918.6000000000001</ele><time>2026-04-25T09:05:44.999Z</time></trkpt><trkpt lat="43.821220295021924" lon="11.608026540260262"><ele>923.8000000000001</ele><time>2026-04-25T09:05:46.999Z</time></trkpt><trkpt lat="43.821286768531955" lon="11.60806225193154"><ele>929.0</ele><time>2026-04-25T09:05:47.999Z</time></trkpt><trkpt lat="43.82138269001299" lon="11.608108895796278"><ele>929.0</ele><time>2026-04-25T09:05:49.999Z</time></trkpt><trkpt lat="43.821466759056285" lon="11.608097972630903"><ele>929.0000000000001</ele><time>2026-04-25T09:05:51.999Z</time></trkpt><trkpt lat="43.821548190886595" lon="11.608118771537663"><ele>929.0000000000001</ele><time>2026-04-25T09:05:53.999Z</time></trkpt><trkpt lat="43.82164474781846" lon="11.608204007439175"><ele>929.0</ele><time>2026-04-25T09:05:55.999Z</time></trkpt><trkpt lat="43.82171420517911" lon="11.608292063506502"><ele>929.0</ele><time>2026-04-25T09:05:57.999Z</time></trkpt><trkpt lat="43.8218087978327" lon="11.608364736525587"><ele>930.2</ele><time>2026-04-25T09:05:59.999Z</time></trkpt><trkpt lat="43.82187324952002" lon="11.608393023744853"><ele>931.4000000000001</ele><time>2026-04-25T09:06:00.999Z</time></trkpt><trkpt lat="43.822022765066905" lon="11.60840222692038"><ele>932.6</ele><time>2026-04-25T09:06:02.999Z</time></trkpt><trkpt lat="43.82213062090268" lon="11.60847938106339"><ele>933.8</ele><time>2026-04-25T09:06:04.999Z</time></trkpt><trkpt lat="43.82219158174541" lon="11.608504847467593"><ele>935.0</ele><time>2026-04-25T09:06:05.999Z</time></trkpt><trkpt lat="43.8223072550687" lon="11.608419843952523"><ele>935.0000000000001</ele><time>2026-04-25T09:06:07.999Z</time></trkpt><trkpt lat="43.82233902339696" lon="11.608318616677156"><ele>935.0</ele><time>2026-04-25T09:06:08.999Z</time></trkpt><trkpt lat="43.822357062745326" lon="11.6082229350436"><ele>935.0</ele><time>2026-04-25T09:06:09.999Z</time></trkpt><trkpt lat="43.822420331121826" lon="11.608090076091328"><ele>935.0</ele><time>2026-04-25T09:06:11.999Z</time></trkpt><trkpt lat="43.82244412354454" lon="11.608007795375181"><ele>935.0000000000001</ele><time>2026-04-25T09:06:12.999Z</time></trkpt><trkpt lat="43.82249036198043" lon="11.607923735768235"><ele>935.0</ele><time>2026-04-25T09:06:13.999Z</time></trkpt><trkpt lat="43.822492397996456" lon="11.60777678161386"><ele>937.1428571428573</ele><time>2026-04-25T09:06:15.999Z</time></trkpt><trkpt lat="43.82246732249507" lon="11.60766616733854"><ele>939.2857142857143</ele><time>2026-04-25T09:06:17.999Z</time></trkpt><trkpt lat="43.82243364203669" lon="11.607590803052016"><ele>941.4285714285716</ele><time>2026-04-25T09:06:18.999Z</time></trkpt><trkpt lat="43.82240331642651" lon="11.607513330563547"><ele>943.5714285714287</ele><time>2026-04-25T09:06:19.999Z</time></trkpt><trkpt lat="43.822390268864396" lon="11.607417773713662"><ele>945.7142857142858</ele><time>2026-04-25T09:06:20.999Z</time></trkpt><trkpt lat="43.82238096546263" lon="11.607305320237234"><ele>947.8571428571429</ele><time>2026-04-25T09:06:21.999Z</time></trkpt><trkpt lat="43.82237573954297" lon="11.607207416710837"><ele>950.0</ele><time>2026-04-25T09:06:22.999Z</time></trkpt><trkpt lat="43.822381195902686" lon="11.60711206612583"><ele>950.0</ele><time>2026-04-25T09:06:23.999Z</time></trkpt><trkpt lat="43.822412744512576" lon="11.60703430186963"><ele>950.0</ele><time>2026-04-25T09:06:24.999Z</time></trkpt><trkpt lat="43.82242227208027" lon="11.60686380828349"><ele>950.0</ele><time>2026-04-25T09:06:26.999Z</time></trkpt><trkpt lat="43.822437896439936" lon="11.606762422907174"><ele>950.0</ele><time>2026-04-25T09:06:28.999Z</time></trkpt><trkpt lat="43.822444703014426" lon="11.606634230976606"><ele>950.0</ele><time>2026-04-25T09:07:19.999Z</time></trkpt><trkpt lat="43.8224390990753" lon="11.606481433549648"><ele>952.1666666666667</ele><time>2026-04-25T09:07:22Z</time></trkpt><trkpt lat="43.822456368582" lon="11.606370997880349"><ele>954.3333333333334</ele><time>2026-04-25T09:07:23.999Z</time></trkpt><trkpt lat="43.82249562228841" lon="11.606261282443306"><ele>956.5</ele><time>2026-04-25T09:07:25.999Z</time></trkpt><trkpt lat="43.82252194768758" lon="11.606163198248627"><ele>958.6666666666667</ele><time>2026-04-25T09:07:27.999Z</time></trkpt><trkpt lat="43.82251409231758" lon="11.606023763496731"><ele>960.8333333333334</ele><time>2026-04-25T09:07:29.999Z</time></trkpt><trkpt lat="43.82251099086229" lon="11.605920414321059"><ele>963.0</ele><time>2026-04-25T09:07:30.999Z</time></trkpt><trkpt lat="43.82249549951641" lon="11.605766546654255"><ele>963.0</ele><time>2026-04-25T09:07:33Z</time></trkpt><trkpt lat="43.822540182988575" lon="11.605703244028343"><ele>963.0</ele><time>2026-04-25T09:07:34Z</time></trkpt><trkpt lat="43.82261075163765" lon="11.605653564367653"><ele>963.0</ele><time>2026-04-25T09:07:36Z</time></trkpt><trkpt lat="43.82267627879713" lon="11.605676408635004"><ele>963.0</ele><time>2026-04-25T09:07:38Z</time></trkpt><trkpt lat="43.82274435469657" lon="11.605787986530206"><ele>963.0</ele><time>2026-04-25T09:07:40Z</time></trkpt><trkpt lat="43.8227908996338" lon="11.605880597789126"><ele>963.0</ele><time>2026-04-25T09:07:41Z</time></trkpt><trkpt lat="43.82284598131836" lon="11.605988255876913"><ele>963.0</ele><time>2026-04-25T09:07:42Z</time></trkpt><trkpt lat="43.82289519932806" lon="11.606049570941712"><ele>963.0</ele><time>2026-04-25T09:07:43Z</time></trkpt><trkpt lat="43.822961084687506" lon="11.606071567168676"><ele>963.0</ele><time>2026-04-25T09:07:44Z</time></trkpt><trkpt lat="43.82303234629083" lon="11.606073314137902"><ele>963.0</ele><time>2026-04-25T09:07:45Z</time></trkpt><trkpt lat="43.823106585977776" lon="11.606072458809562"><ele>963.0</ele><time>2026-04-25T09:07:46Z</time></trkpt><trkpt lat="43.823237379973946" lon="11.60611656433046"><ele>963.0</ele><time>2026-04-25T09:07:48Z</time></trkpt><trkpt lat="43.82330731100404" lon="11.606166445498593"><ele>961.8</ele><time>2026-04-25T09:07:49Z</time></trkpt><trkpt lat="43.82338153682744" lon="11.606197011843545"><ele>960.5999999999999</ele><time>2026-04-25T09:07:50Z</time></trkpt><trkpt lat="43.82345351518082" lon="11.606220230316227"><ele>959.4000000000001</ele><time>2026-04-25T09:07:51Z</time></trkpt><trkpt lat="43.823565371890005" lon="11.606183320262646"><ele>958.2</ele><time>2026-04-25T09:07:53Z</time></trkpt><trkpt lat="43.82366284115204" lon="11.606117016611055"><ele>957.0</ele><time>2026-04-25T09:07:54Z</time></trkpt><trkpt lat="43.823757385128275" lon="11.60603757442735"><ele>960.2</ele><time>2026-04-25T09:07:56Z</time></trkpt><trkpt lat="43.823872042988" lon="11.605976253376964"><ele>963.4000000000001</ele><time>2026-04-25T09:07:58Z</time></trkpt><trkpt lat="43.823926374225884" lon="11.60589635838378"><ele>966.5999999999999</ele><time>2026-04-25T09:08:00Z</time></trkpt><trkpt lat="43.82399787247051" lon="11.605837747501738"><ele>969.8</ele><time>2026-04-25T09:08:02Z</time></trkpt><trkpt lat="43.82407971940359" lon="11.60587944806518"><ele>973.0</ele><time>2026-04-25T09:08:04Z</time></trkpt><trkpt lat="43.82416166507251" lon="11.605973548059882"><ele>973.0</ele><time>2026-04-25T09:08:06Z</time></trkpt><trkpt lat="43.824204094808636" lon="11.606040581178794"><ele>973.0</ele><time>2026-04-25T09:08:07Z</time></trkpt><trkpt lat="43.824272596595485" lon="11.6062139711113"><ele>973.0</ele><time>2026-04-25T09:08:09Z</time></trkpt><trkpt lat="43.824297686071255" lon="11.606353580388785"><ele>973.0</ele><time>2026-04-25T09:08:11Z</time></trkpt><trkpt lat="43.82436861804929" lon="11.606488614455076"><ele>973.0</ele><time>2026-04-25T09:08:13Z</time></trkpt><trkpt lat="43.82439415185048" lon="11.606607795752268"><ele>972.6666666666666</ele><time>2026-04-25T09:08:15Z</time></trkpt><trkpt lat="43.82439617269296" lon="11.606734918264504"><ele>972.3333333333333</ele><time>2026-04-25T09:08:17Z</time></trkpt><trkpt lat="43.82446390994266" lon="11.606785889766433"><ele>972.0</ele><time>2026-04-25T09:08:20Z</time></trkpt><trkpt lat="43.82458017944296" lon="11.606774862808262"><ele>971.6666666666667</ele><time>2026-04-25T09:08:23Z</time></trkpt><trkpt lat="43.82464857173303" lon="11.606768256857787"><ele>971.3333333333334</ele><time>2026-04-25T09:08:24Z</time></trkpt><trkpt lat="43.824711802571024" lon="11.606768861759942"><ele>971.0</ele><time>2026-04-25T09:08:26Z</time></trkpt><trkpt lat="43.82480155784736" lon="11.606685363553455"><ele>971.0000000000001</ele><time>2026-04-25T09:08:28Z</time></trkpt><trkpt lat="43.82487191853233" lon="11.606736084239905"><ele>971.0</ele><time>2026-04-25T09:08:31Z</time></trkpt><trkpt lat="43.824929334538986" lon="11.606806029028506"><ele>971.0</ele><time>2026-04-25T09:08:55Z</time></trkpt><trkpt lat="43.824959397638544" lon="11.6069094118745"><ele>971.0</ele><time>2026-04-25T09:08:58Z</time></trkpt><trkpt lat="43.824986095911484" lon="11.607006323698656"><ele>971.0000000000001</ele><time>2026-04-25T09:09:00Z</time></trkpt><trkpt lat="43.82505320765553" lon="11.6071249141229"><ele>971.0</ele><time>2026-04-25T09:09:02Z</time></trkpt><trkpt lat="43.82512081276903" lon="11.607212264190188"><ele>973.5000000000001</ele><time>2026-04-25T09:09:04Z</time></trkpt><trkpt lat="43.82520701955408" lon="11.607287362669592"><ele>976.0</ele><time>2026-04-25T09:09:06Z</time></trkpt><trkpt lat="43.82528397159123" lon="11.6073407098974"><ele>978.5</ele><time>2026-04-25T09:09:08Z</time></trkpt><trkpt lat="43.82534392092507" lon="11.60742595591368"><ele>981.0</ele><time>2026-04-25T09:09:10Z</time></trkpt><trkpt lat="43.8253998483544" lon="11.607482980927687"><ele>983.5000000000001</ele><time>2026-04-25T09:09:11Z</time></trkpt><trkpt lat="43.82545280794826" lon="11.60754376652211"><ele>986.0</ele><time>2026-04-25T09:09:12Z</time></trkpt><trkpt lat="43.82553244445285" lon="11.607632596629301"><ele>986.0</ele><time>2026-04-25T09:09:14Z</time></trkpt><trkpt lat="43.82558419456811" lon="11.607695464594046"><ele>985.9999999999999</ele><time>2026-04-25T09:09:15Z</time></trkpt><trkpt lat="43.825664590840866" lon="11.607827745252624"><ele>985.9999999999999</ele><time>2026-04-25T09:09:17Z</time></trkpt><trkpt lat="43.82574639312563" lon="11.607949759364738"><ele>986.0</ele><time>2026-04-25T09:09:19Z</time></trkpt><trkpt lat="43.82585208231937" lon="11.608036096331196"><ele>986.0</ele><time>2026-04-25T09:09:21Z</time></trkpt><trkpt lat="43.825893646295214" lon="11.608109859722548"><ele>988.0000000000001</ele><time>2026-04-25T09:09:22Z</time></trkpt><trkpt lat="43.82594772989846" lon="11.608180346447222"><ele>990.0</ele><time>2026-04-25T09:09:23Z</time></trkpt><trkpt lat="43.82599468169033" lon="11.608253378203935"><ele>992.0</ele><time>2026-04-25T09:09:24Z</time></trkpt><trkpt lat="43.826066614563686" lon="11.608380658842133"><ele>994.0</ele><time>2026-04-25T09:09:26Z</time></trkpt><trkpt lat="43.82614373309767" lon="11.608429070147988"><ele>996.0000000000001</ele><time>2026-04-25T09:09:27Z</time></trkpt><trkpt lat="43.82621090040104" lon="11.60848570974941"><ele>998.0</ele><time>2026-04-25T09:09:28Z</time></trkpt><trkpt lat="43.826276543154144" lon="11.608535093239775"><ele>998.0000000000001</ele><time>2026-04-25T09:09:29Z</time></trkpt><trkpt lat="43.82633165694793" lon="11.608579882280594"><ele>998.0</ele><time>2026-04-25T09:09:30Z</time></trkpt><trkpt lat="43.82639222418781" lon="11.608620675585895"><ele>998.0000000000001</ele><time>2026-04-25T09:09:31Z</time></trkpt><trkpt lat="43.826450070118575" lon="11.608675229590581"><ele>998.0000000000001</ele><time>2026-04-25T09:09:32Z</time></trkpt><trkpt lat="43.8265133364297" lon="11.60873371484245"><ele>998.0</ele><time>2026-04-25T09:09:33Z</time></trkpt><trkpt lat="43.82656952282411" lon="11.608775400067811"><ele>998.0000000000001</ele><time>2026-04-25T09:09:34Z</time></trkpt><trkpt lat="43.82662785334251" lon="11.608812518529275"><ele>998.0000000000001</ele><time>2026-04-25T09:09:35Z</time></trkpt><trkpt lat="43.82669624165769" lon="11.608858391114673"><ele>995.5000000000001</ele><time>2026-04-25T09:09:36Z</time></trkpt><trkpt lat="43.826772130952676" lon="11.60889663882439"><ele>993.0</ele><time>2026-04-25T09:09:37Z</time></trkpt><trkpt lat="43.82683381581996" lon="11.608939992784219"><ele>990.5</ele><time>2026-04-25T09:09:38Z</time></trkpt><trkpt lat="43.8268949163849" lon="11.608999016063091"><ele>988.0</ele><time>2026-04-25T09:09:39Z</time></trkpt><trkpt lat="43.826960156666146" lon="11.609041093643006"><ele>985.5000000000001</ele><time>2026-04-25T09:09:40Z</time></trkpt><trkpt lat="43.82702229620822" lon="11.609093002015106"><ele>983.0</ele><time>2026-04-25T09:09:41Z</time></trkpt><trkpt lat="43.82712883955778" lon="11.609159110996279"><ele>982.9999999999999</ele><time>2026-04-25T09:09:43Z</time></trkpt><trkpt lat="43.827200018639985" lon="11.609169794972496"><ele>983.0</ele><time>2026-04-25T09:09:44Z</time></trkpt><trkpt lat="43.82727263685625" lon="11.609167945890217"><ele>982.9999999999999</ele><time>2026-04-25T09:09:45Z</time></trkpt><trkpt lat="43.8273293147106" lon="11.609127817071887"><ele>982.9999999999999</ele><time>2026-04-25T09:09:46Z</time></trkpt><trkpt lat="43.82736012185322" lon="11.609040234134111"><ele>983.0</ele><time>2026-04-25T09:09:47Z</time></trkpt><trkpt lat="43.82739007759621" lon="11.60894173552831"><ele>982.9999999999999</ele><time>2026-04-25T09:09:49Z</time></trkpt><trkpt lat="43.82741101671698" lon="11.60883709270458"><ele>982.9999999999999</ele><time>2026-04-25T09:09:52Z</time></trkpt><trkpt lat="43.8274234593337" lon="11.60870718843287"><ele>986.0</ele><time>2026-04-25T09:09:54Z</time></trkpt><trkpt lat="43.82742674578694" lon="11.608558296968598"><ele>989.0</ele><time>2026-04-25T09:09:56Z</time></trkpt><trkpt lat="43.82742614533574" lon="11.60837367144443"><ele>992.0</ele><time>2026-04-25T09:09:58Z</time></trkpt><trkpt lat="43.82748810218608" lon="11.608236239682544"><ele>995.0</ele><time>2026-04-25T09:10:00Z</time></trkpt><trkpt lat="43.8275431793659" lon="11.608185338730705"><ele>998.0</ele><time>2026-04-25T09:10:01Z</time></trkpt><trkpt lat="43.82761422576921" lon="11.608129807272718"><ele>995.2</ele><time>2026-04-25T09:10:02Z</time></trkpt><trkpt lat="43.827684463249454" lon="11.608087436364006"><ele>992.4</ele><time>2026-04-25T09:10:03Z</time></trkpt><trkpt lat="43.827771801189385" lon="11.607972950697599"><ele>989.6000000000001</ele><time>2026-04-25T09:10:05Z</time></trkpt><trkpt lat="43.82781717737571" lon="11.607886136646533"><ele>986.8000000000001</ele><time>2026-04-25T09:10:06Z</time></trkpt><trkpt lat="43.82785967576216" lon="11.607769232940838"><ele>984.0</ele><time>2026-04-25T09:10:07Z</time></trkpt><trkpt lat="43.82793455617736" lon="11.607647720449242"><ele>984.0</ele><time>2026-04-25T09:10:09Z</time></trkpt><trkpt lat="43.82792894047208" lon="11.607477585894989"><ele>984.0000000000001</ele><time>2026-04-25T09:10:11Z</time></trkpt><trkpt lat="43.82791519497199" lon="11.607376141672068"><ele>984.0000000000001</ele><time>2026-04-25T09:10:12Z</time></trkpt><trkpt lat="43.82788873005782" lon="11.607216611225759"><ele>984.0</ele><time>2026-04-25T09:10:14Z</time></trkpt><trkpt lat="43.82784014618288" lon="11.607111892174373"><ele>984.0</ele><time>2026-04-25T09:10:16Z</time></trkpt><trkpt lat="43.82781023161076" lon="11.606962126098049"><ele>986.3333333333334</ele><time>2026-04-25T09:10:18Z</time></trkpt><trkpt lat="43.8277916970626" lon="11.606874880115026"><ele>988.6666666666667</ele><time>2026-04-25T09:10:20Z</time></trkpt><trkpt lat="43.82779952156084" lon="11.606740889215201"><ele>991.0</ele><time>2026-04-25T09:10:25Z</time></trkpt><trkpt lat="43.82783240499414" lon="11.606657634103296"><ele>993.3333333333334</ele><time>2026-04-25T09:10:27Z</time></trkpt><trkpt lat="43.82791260566436" lon="11.606601670092232"><ele>995.6666666666667</ele><time>2026-04-25T09:10:29Z</time></trkpt><trkpt lat="43.827971500916405" lon="11.606545730220919"><ele>998.0</ele><time>2026-04-25T09:10:34Z</time></trkpt><trkpt lat="43.8280578804095" lon="11.606503367681514"><ele>998.0000000000001</ele><time>2026-04-25T09:10:37Z</time></trkpt><trkpt lat="43.828197766696384" lon="11.60653283164583"><ele>998.0</ele><time>2026-04-25T09:10:39Z</time></trkpt><trkpt lat="43.82826904409859" lon="11.606517808419133"><ele>998.0</ele><time>2026-04-25T09:10:40Z</time></trkpt><trkpt lat="43.828351239436905" lon="11.60649897559885"><ele>998.0</ele><time>2026-04-25T09:10:41Z</time></trkpt><trkpt lat="43.828423146849936" lon="11.606476626949098"><ele>998.0000000000001</ele><time>2026-04-25T09:10:42Z</time></trkpt><trkpt lat="43.828474483282825" lon="11.606418998462031"><ele>998.0</ele><time>2026-04-25T09:10:43Z</time></trkpt><trkpt lat="43.82852736775651" lon="11.606356766080479"><ele>995.8</ele><time>2026-04-25T09:10:44Z</time></trkpt><trkpt lat="43.828562231980996" lon="11.606261598471393"><ele>993.5999999999999</ele><time>2026-04-25T09:10:45Z</time></trkpt><trkpt lat="43.828600795662474" lon="11.606113542382113"><ele>991.4000000000001</ele><time>2026-04-25T09:10:47Z</time></trkpt><trkpt lat="43.828637185980185" lon="11.605963329218307"><ele>989.2</ele><time>2026-04-25T09:10:49Z</time></trkpt><trkpt lat="43.828703239329926" lon="11.605901732047785"><ele>987.0</ele><time>2026-04-25T09:10:51Z</time></trkpt><trkpt lat="43.82876473900066" lon="11.605851841979698"><ele>987.0</ele><time>2026-04-25T09:10:52Z</time></trkpt><trkpt lat="43.8288345629505" lon="11.605758935240145"><ele>987.0</ele><time>2026-04-25T09:10:54Z</time></trkpt><trkpt lat="43.82893180793715" lon="11.605620382078168"><ele>987.0</ele><time>2026-04-25T09:10:56Z</time></trkpt><trkpt lat="43.82898159668095" lon="11.605522690373204"><ele>987.0</ele><time>2026-04-25T09:10:57Z</time></trkpt><trkpt lat="43.829077265217705" lon="11.60541478823376"><ele>987.0</ele><time>2026-04-25T09:10:59Z</time></trkpt><trkpt lat="43.82913316467446" lon="11.605354482190302"><ele>985.2</ele><time>2026-04-25T09:11:00Z</time></trkpt><trkpt lat="43.829227915062354" lon="11.605247867946266"><ele>983.4000000000001</ele><time>2026-04-25T09:11:02Z</time></trkpt><trkpt lat="43.82929155872467" lon="11.605145889482337"><ele>981.5999999999999</ele><time>2026-04-25T09:11:04Z</time></trkpt><trkpt lat="43.82934574930912" lon="11.604990802199262"><ele>979.8</ele><time>2026-04-25T09:11:06Z</time></trkpt><trkpt lat="43.82938395378363" lon="11.604919667053888"><ele>978.0</ele><time>2026-04-25T09:11:07Z</time></trkpt><trkpt lat="43.82945401165996" lon="11.604883555913156"><ele>978.0</ele><time>2026-04-25T09:11:09Z</time></trkpt><trkpt lat="43.82956088860289" lon="11.604881897128863"><ele>978.0</ele><time>2026-04-25T09:11:11Z</time></trkpt><trkpt lat="43.8296688639426" lon="11.604797451516808"><ele>978.0</ele><time>2026-04-25T09:11:13Z</time></trkpt><trkpt lat="43.82977997002826" lon="11.604721222573216"><ele>978.0</ele><time>2026-04-25T09:11:15Z</time></trkpt><trkpt lat="43.829871289534225" lon="11.6046568848927"><ele>978.0</ele><time>2026-04-25T09:11:17Z</time></trkpt><trkpt lat="43.82989064450272" lon="11.604498866740105"><ele>978.0</ele><time>2026-04-25T09:11:19Z</time></trkpt><trkpt lat="43.82987265657249" lon="11.604399872510555"><ele>978.0</ele><time>2026-04-25T09:11:20Z</time></trkpt><trkpt lat="43.82983290006137" lon="11.60432123494579"><ele>978.0</ele><time>2026-04-25T09:11:21Z</time></trkpt><trkpt lat="43.82979705209317" lon="11.604238362798112"><ele>978.0</ele><time>2026-04-25T09:11:22Z</time></trkpt><trkpt lat="43.8297265973812" lon="11.60411675299177"><ele>978.0</ele><time>2026-04-25T09:11:24Z</time></trkpt><trkpt lat="43.82968029710831" lon="11.604008286484454"><ele>979.5999999999999</ele><time>2026-04-25T09:11:26Z</time></trkpt><trkpt lat="43.829749341203716" lon="11.60390648166823"><ele>981.1999999999999</ele><time>2026-04-25T09:11:28Z</time></trkpt><trkpt lat="43.82981959007546" lon="11.603902026031067"><ele>982.8</ele><time>2026-04-25T09:11:29Z</time></trkpt><trkpt lat="43.82991174570981" lon="11.603844133192904"><ele>984.4</ele><time>2026-04-25T09:11:30Z</time></trkpt><trkpt lat="43.8299632424651" lon="11.603760036064843"><ele>986.0</ele><time>2026-04-25T09:11:31Z</time></trkpt><trkpt lat="43.830068331276685" lon="11.60369398787191"><ele>986.0000000000001</ele><time>2026-04-25T09:11:33Z</time></trkpt><trkpt lat="43.83012293843599" lon="11.603740872978273"><ele>986.0</ele><time>2026-04-25T09:11:34Z</time></trkpt><trkpt lat="43.83018333242005" lon="11.603791521565642"><ele>986.0</ele><time>2026-04-25T09:11:35Z</time></trkpt><trkpt lat="43.83026061622148" lon="11.603833165624401"><ele>986.0</ele><time>2026-04-25T09:11:36Z</time></trkpt><trkpt lat="43.830329965273506" lon="11.603850512125392"><ele>986.0000000000001</ele><time>2026-04-25T09:11:37Z</time></trkpt><trkpt lat="43.830435567607765" lon="11.603894611654171"><ele>986.0</ele><time>2026-04-25T09:11:39Z</time></trkpt><trkpt lat="43.83054453904449" lon="11.603892288305099"><ele>986.0000000000001</ele><time>2026-04-25T09:11:41Z</time></trkpt><trkpt lat="43.830656890111364" lon="11.603898859491027"><ele>986.0</ele><time>2026-04-25T09:11:43Z</time></trkpt><trkpt lat="43.830753221335314" lon="11.603861767866622"><ele>986.0</ele><time>2026-04-25T09:11:45Z</time></trkpt><trkpt lat="43.83082726084238" lon="11.6038872111383"><ele>986.0</ele><time>2026-04-25T09:11:57Z</time></trkpt><trkpt lat="43.83079003656105" lon="11.603974685024832"><ele>986.0000000000001</ele><time>2026-04-25T09:12:03Z</time></trkpt><trkpt lat="43.83078835393157" lon="11.60388550015633"><ele>986.0</ele><time>2026-04-25T09:12:12Z</time></trkpt><trkpt lat="43.83087623827442" lon="11.603787711002592"><ele>987.5</ele><time>2026-04-25T09:12:56Z</time></trkpt><trkpt lat="43.83099294537121" lon="11.603713993131327"><ele>989.0</ele><time>2026-04-25T09:12:57Z</time></trkpt><trkpt lat="43.83107758563867" lon="11.603678406702967"><ele>990.5</ele><time>2026-04-25T09:12:58Z</time></trkpt><trkpt lat="43.831174095896564" lon="11.603649394871358"><ele>992.0</ele><time>2026-04-25T09:12:59Z</time></trkpt><trkpt lat="43.83130981015092" lon="11.603618771545108"><ele>992.0</ele><time>2026-04-25T09:13:00Z</time></trkpt><trkpt lat="43.83141943709858" lon="11.603601162918125"><ele>992.0</ele><time>2026-04-25T09:13:01Z</time></trkpt><trkpt lat="43.831525753488044" lon="11.603589169123843"><ele>992.0</ele><time>2026-04-25T09:13:02Z</time></trkpt><trkpt lat="43.83163696586248" lon="11.603589392578574"><ele>992.0</ele><time>2026-04-25T09:13:03Z</time></trkpt><trkpt lat="43.83172776746332" lon="11.603590882203969"><ele>992.0</ele><time>2026-04-25T09:13:04Z</time></trkpt><trkpt lat="43.83182042626434" lon="11.603589782979913"><ele>993.0</ele><time>2026-04-25T09:13:05Z</time></trkpt><trkpt lat="43.831893410993366" lon="11.603583487395165"><ele>994.0</ele><time>2026-04-25T09:13:06Z</time></trkpt><trkpt lat="43.83199974493464" lon="11.603516907236912"><ele>995.0</ele><time>2026-04-25T09:13:08Z</time></trkpt><trkpt lat="43.832056741477246" lon="11.603457821420012"><ele>996.0</ele><time>2026-04-25T09:13:09Z</time></trkpt><trkpt lat="43.832122289512576" lon="11.60334311518966"><ele>997.0</ele><time>2026-04-25T09:13:10Z</time></trkpt><trkpt lat="43.8322077706251" lon="11.603313523411394"><ele>997.0</ele><time>2026-04-25T09:13:11Z</time></trkpt><trkpt lat="43.83235028895702" lon="11.603299834143955"><ele>997.0</ele><time>2026-04-25T09:13:13Z</time></trkpt><trkpt lat="43.8324266761255" lon="11.60331098860888"><ele>997.0</ele><time>2026-04-25T09:13:14Z</time></trkpt><trkpt lat="43.83248933691321" lon="11.60332417198292"><ele>997.0</ele><time>2026-04-25T09:13:15Z</time></trkpt><trkpt lat="43.83255684531458" lon="11.603385873899922"><ele>997.0</ele><time>2026-04-25T09:13:16Z</time></trkpt><trkpt lat="43.832643780395806" lon="11.603425285005994"><ele>997.4999999999999</ele><time>2026-04-25T09:13:17Z</time></trkpt><trkpt lat="43.83270734126948" lon="11.603440814004184"><ele>998.0</ele><time>2026-04-25T09:13:18Z</time></trkpt><trkpt lat="43.832779030645455" lon="11.603446396355235"><ele>998.5</ele><time>2026-04-25T09:13:19Z</time></trkpt><trkpt lat="43.83287361233096" lon="11.603444858410068"><ele>999.0</ele><time>2026-04-25T09:13:20Z</time></trkpt><trkpt lat="43.83294616734518" lon="11.60343939185638"><ele>999.4999999999999</ele><time>2026-04-25T09:13:21Z</time></trkpt><trkpt lat="43.83304397976586" lon="11.603455723217026"><ele>1000.0</ele><time>2026-04-25T09:13:23Z</time></trkpt><trkpt lat="43.83314409269383" lon="11.603493151650131"><ele>1000.0</ele><time>2026-04-25T09:13:24.999Z</time></trkpt><trkpt lat="43.83326681783497" lon="11.603518357429014"><ele>1000.0</ele><time>2026-04-25T09:13:25.999Z</time></trkpt><trkpt lat="43.833160488444754" lon="11.60352746071711"><ele>1000.0</ele><time>2026-04-25T09:13:27Z</time></trkpt><trkpt lat="43.833214786696736" lon="11.603443976596246"><ele>1000.0</ele><time>2026-04-25T09:13:29Z</time></trkpt><trkpt lat="43.83359485124505" lon="11.603332599974678"><ele>1000.6</ele><time>2026-04-25T09:13:30Z</time></trkpt><trkpt lat="43.8336602418765" lon="11.60325791473829"><ele>1001.2</ele><time>2026-04-25T09:13:31Z</time></trkpt><trkpt lat="43.83370755870482" lon="11.603193223960742"><ele>1001.8</ele><time>2026-04-25T09:13:32Z</time></trkpt><trkpt lat="43.8338085039617" lon="11.60309992534397"><ele>1002.4</ele><time>2026-04-25T09:13:34Z</time></trkpt><trkpt lat="43.83392779123998" lon="11.603026543693375"><ele>1003.0</ele><time>2026-04-25T09:13:36Z</time></trkpt><trkpt lat="43.83399616673568" lon="11.603024494004693"><ele>1003.0</ele><time>2026-04-25T09:13:37Z</time></trkpt><trkpt lat="43.83406091257515" lon="11.603033778066695"><ele>1003.0</ele><time>2026-04-25T09:13:38Z</time></trkpt><trkpt lat="43.83412186378185" lon="11.603055913803063"><ele>1003.0</ele><time>2026-04-25T09:13:39Z</time></trkpt><trkpt lat="43.83422704418462" lon="11.60311649316377"><ele>1003.0</ele><time>2026-04-25T09:13:41Z</time></trkpt><trkpt lat="43.834317401385185" lon="11.603189907070353"><ele>1003.0</ele><time>2026-04-25T09:13:43Z</time></trkpt><trkpt lat="43.83438116186973" lon="11.603326286718204"><ele>1002.1666666666666</ele><time>2026-04-25T09:13:45Z</time></trkpt><trkpt lat="43.8344159043507" lon="11.603417239764049"><ele>1001.3333333333333</ele><time>2026-04-25T09:13:46Z</time></trkpt><trkpt lat="43.83444497597993" lon="11.603503545339626"><ele>1000.5</ele><time>2026-04-25T09:13:47Z</time></trkpt><trkpt lat="43.834406267960965" lon="11.603589016424335"><ele>999.6666666666667</ele><time>2026-04-25T09:13:48Z</time></trkpt><trkpt lat="43.83444382691984" lon="11.603720810907424"><ele>998.8333333333334</ele><time>2026-04-25T09:13:51Z</time></trkpt><trkpt lat="43.83446401159618" lon="11.603860389847986"><ele>998.0</ele><time>2026-04-25T09:13:53Z</time></trkpt><trkpt lat="43.834451125341516" lon="11.603975773771579"><ele>1000.75</ele><time>2026-04-25T09:13:57Z</time></trkpt><trkpt lat="43.83451398106849" lon="11.604025225452192"><ele>1003.5</ele><time>2026-04-25T09:14:01Z</time></trkpt><trkpt lat="43.8346548658648" lon="11.604178838354708"><ele>1006.25</ele><time>2026-04-25T09:14:03Z</time></trkpt><trkpt lat="43.8348394200008" lon="11.604167957687647"><ele>1009.0</ele><time>2026-04-25T09:14:04Z</time></trkpt><trkpt lat="43.83496767841716" lon="11.604186506024833"><ele>1009.0</ele><time>2026-04-25T09:14:05Z</time></trkpt><trkpt lat="43.83508592569427" lon="11.604198604411325"><ele>1009.0</ele><time>2026-04-25T09:14:06Z</time></trkpt><trkpt lat="43.83519067707061" lon="11.604225216792521"><ele>1009.0</ele><time>2026-04-25T09:14:07Z</time></trkpt><trkpt lat="43.83529122414421" lon="11.604283809454412"><ele>1009.0</ele><time>2026-04-25T09:14:08Z</time></trkpt><trkpt lat="43.835403305767414" lon="11.604354081930191"><ele>1009.2</ele><time>2026-04-25T09:14:09Z</time></trkpt><trkpt lat="43.835503995742684" lon="11.604420285270582"><ele>1009.4000000000001</ele><time>2026-04-25T09:14:10Z</time></trkpt><trkpt lat="43.83558595676876" lon="11.604485154257866"><ele>1009.6</ele><time>2026-04-25T09:14:11Z</time></trkpt><trkpt lat="43.83566022823739" lon="11.604553300215795"><ele>1009.8</ele><time>2026-04-25T09:14:12Z</time></trkpt><trkpt lat="43.83573497143266" lon="11.604612934176863"><ele>1010.0</ele><time>2026-04-25T09:14:13Z</time></trkpt><trkpt lat="43.83585963250899" lon="11.604645030389413"><ele>1010.0000000000001</ele><time>2026-04-25T09:14:15Z</time></trkpt><trkpt lat="43.83591727826362" lon="11.60472957806553"><ele>1010.0</ele><time>2026-04-25T09:14:18Z</time></trkpt><trkpt lat="43.83596909876339" lon="11.604802008464318"><ele>1010.0</ele><time>2026-04-25T09:14:19Z</time></trkpt><trkpt lat="43.83601118721329" lon="11.604876440779787"><ele>1010.0</ele><time>2026-04-25T09:14:20Z</time></trkpt><trkpt lat="43.83607779959659" lon="11.604964820711514"><ele>1010.0000000000001</ele><time>2026-04-25T09:14:22Z</time></trkpt><trkpt lat="43.836162613873626" lon="11.605013109918003"><ele>1010.0</ele><time>2026-04-25T09:14:27Z</time></trkpt><trkpt lat="43.83626102987049" lon="11.60502790213127"><ele>1007.1666666666667</ele><time>2026-04-25T09:14:29Z</time></trkpt><trkpt lat="43.83635472376182" lon="11.605032380849426"><ele>1004.3333333333334</ele><time>2026-04-25T09:14:30Z</time></trkpt><trkpt lat="43.836418726796104" lon="11.60502356238269"><ele>1001.5</ele><time>2026-04-25T09:14:31Z</time></trkpt><trkpt lat="43.83648952592197" lon="11.60501005504214"><ele>998.6666666666667</ele><time>2026-04-25T09:14:32Z</time></trkpt><trkpt lat="43.836607934291735" lon="11.604986253178744"><ele>995.8333333333334</ele><time>2026-04-25T09:14:34Z</time></trkpt><trkpt lat="43.836670374648406" lon="11.604941755032431"><ele>993.0</ele><time>2026-04-25T09:14:35Z</time></trkpt><trkpt lat="43.83672433318545" lon="11.604884595812392"><ele>993.0</ele><time>2026-04-25T09:14:36Z</time></trkpt><trkpt lat="43.83678314451533" lon="11.604829780674045"><ele>993.0</ele><time>2026-04-25T09:14:37Z</time></trkpt><trkpt lat="43.83683780105772" lon="11.604781724266202"><ele>993.0</ele><time>2026-04-25T09:14:38Z</time></trkpt><trkpt lat="43.836935423294385" lon="11.604742562549774"><ele>993.0</ele><time>2026-04-25T09:14:40Z</time></trkpt><trkpt lat="43.836998562755404" lon="11.604728869407168"><ele>993.0</ele><time>2026-04-25T09:14:41Z</time></trkpt><trkpt lat="43.837072580478534" lon="11.604734350931052"><ele>993.0</ele><time>2026-04-25T09:14:42Z</time></trkpt><trkpt lat="43.837185977969554" lon="11.604718983821261"><ele>991.3333333333334</ele><time>2026-04-25T09:14:44Z</time></trkpt><trkpt lat="43.837303291533175" lon="11.604709724578763"><ele>989.6666666666667</ele><time>2026-04-25T09:14:46Z</time></trkpt><trkpt lat="43.837372245865396" lon="11.604691075022345"><ele>988.0</ele><time>2026-04-25T09:14:47Z</time></trkpt><trkpt lat="43.83743451305755" lon="11.604666593723659"><ele>986.3333333333334</ele><time>2026-04-25T09:14:48Z</time></trkpt><trkpt lat="43.83750562895649" lon="11.604602173287246"><ele>984.6666666666667</ele><time>2026-04-25T09:14:50Z</time></trkpt><trkpt lat="43.837564270670235" lon="11.604517912946205"><ele>983.0</ele><time>2026-04-25T09:14:56Z</time></trkpt><trkpt lat="43.83769143585867" lon="11.604405655170725"><ele>979.4</ele><time>2026-04-25T09:14:59Z</time></trkpt><trkpt lat="43.83777272546188" lon="11.604343568359507"><ele>975.8</ele><time>2026-04-25T09:15:00Z</time></trkpt><trkpt lat="43.837832852976454" lon="11.604298122275633"><ele>972.2</ele><time>2026-04-25T09:15:01Z</time></trkpt><trkpt lat="43.83795452823123" lon="11.60421322654391"><ele>968.6</ele><time>2026-04-25T09:15:03Z</time></trkpt><trkpt lat="43.8380222412122" lon="11.6041256758691"><ele>965.0</ele><time>2026-04-25T09:15:05Z</time></trkpt><trkpt lat="43.8380937659091" lon="11.604049257729569"><ele>965.0</ele><time>2026-04-25T09:15:07Z</time></trkpt><trkpt lat="43.83816740908551" lon="11.603976789694283"><ele>965.0</ele><time>2026-04-25T09:15:09Z</time></trkpt><trkpt lat="43.838227317827126" lon="11.60392304222432"><ele>965.0</ele><time>2026-04-25T09:15:11Z</time></trkpt><trkpt lat="43.83836548767623" lon="11.603826038054285"><ele>965.0</ele><time>2026-04-25T09:15:12Z</time></trkpt><trkpt lat="43.83844112564453" lon="11.603778292839"><ele>965.0</ele><time>2026-04-25T09:15:13Z</time></trkpt><trkpt lat="43.838510333660906" lon="11.603749899166386"><ele>963.8333333333334</ele><time>2026-04-25T09:15:14Z</time></trkpt><trkpt lat="43.83858279704104" lon="11.603739110141554"><ele>962.6666666666667</ele><time>2026-04-25T09:15:15Z</time></trkpt><trkpt lat="43.83865909450022" lon="11.603749726598306"><ele>961.5</ele><time>2026-04-25T09:15:16Z</time></trkpt><trkpt lat="43.83873128670856" lon="11.603783985991354"><ele>960.3333333333333</ele><time>2026-04-25T09:15:17Z</time></trkpt><trkpt lat="43.83880069368064" lon="11.603826952549385"><ele>959.1666666666666</ele><time>2026-04-25T09:15:18Z</time></trkpt><trkpt lat="43.83888899726964" lon="11.603958883491527"><ele>958.0</ele><time>2026-04-25T09:15:19Z</time></trkpt><trkpt lat="43.83896796067175" lon="11.604084946894831"><ele>958.0</ele><time>2026-04-25T09:15:20Z</time></trkpt><trkpt lat="43.83903239458689" lon="11.604183263737687"><ele>958.0</ele><time>2026-04-25T09:15:21Z</time></trkpt><trkpt lat="43.83910390000726" lon="11.604264728263542"><ele>958.0</ele><time>2026-04-25T09:15:22Z</time></trkpt><trkpt lat="43.83919632004319" lon="11.604318646218516"><ele>958.0</ele><time>2026-04-25T09:15:22.999Z</time></trkpt><trkpt lat="43.83928029170314" lon="11.604383857108111"><ele>958.0</ele><time>2026-04-25T09:15:23.999Z</time></trkpt><trkpt lat="43.83936569142598" lon="11.60445954469927"><ele>956.75</ele><time>2026-04-25T09:15:24.999Z</time></trkpt><trkpt lat="43.839452912511184" lon="11.604568479036587"><ele>955.5</ele><time>2026-04-25T09:15:25.999Z</time></trkpt><trkpt lat="43.83955235250915" lon="11.60468968164754"><ele>954.25</ele><time>2026-04-25T09:15:26.999Z</time></trkpt><trkpt lat="43.839666914249314" lon="11.604820718239944"><ele>953.0</ele><time>2026-04-25T09:15:27.999Z</time></trkpt><trkpt lat="43.83977062161082" lon="11.60493129996086"><ele>953.0</ele><time>2026-04-25T09:15:28.999Z</time></trkpt><trkpt lat="43.83986858924717" lon="11.605042606818111"><ele>953.0</ele><time>2026-04-25T09:15:29.999Z</time></trkpt><trkpt lat="43.83993037798712" lon="11.605165823180233"><ele>953.0</ele><time>2026-04-25T09:15:30.999Z</time></trkpt><trkpt lat="43.83998905873911" lon="11.6052721669302"><ele>953.0</ele><time>2026-04-25T09:15:31.999Z</time></trkpt><trkpt lat="43.84000444178079" lon="11.605375354735349"><ele>953.0</ele><time>2026-04-25T09:15:33Z</time></trkpt><trkpt lat="43.84000834600468" lon="11.605513874523336"><ele>952.4</ele><time>2026-04-25T09:15:34Z</time></trkpt><trkpt lat="43.84001370484723" lon="11.605655620757345"><ele>951.8</ele><time>2026-04-25T09:15:35Z</time></trkpt><trkpt lat="43.840002475832" lon="11.605804284207373"><ele>951.2</ele><time>2026-04-25T09:15:36Z</time></trkpt><trkpt lat="43.8400114131229" lon="11.60592681608619"><ele>950.6</ele><time>2026-04-25T09:15:37Z</time></trkpt><trkpt lat="43.84002883749581" lon="11.606102779721049"><ele>950.0</ele><time>2026-04-25T09:15:39Z</time></trkpt><trkpt lat="43.84002909409432" lon="11.606219732964062"><ele>949.2</ele><time>2026-04-25T09:15:40Z</time></trkpt><trkpt lat="43.840041088658865" lon="11.606335940003337"><ele>948.4</ele><time>2026-04-25T09:15:41Z</time></trkpt><trkpt lat="43.8400681587651" lon="11.606446487081946"><ele>947.5999999999999</ele><time>2026-04-25T09:15:42Z</time></trkpt><trkpt lat="43.840141778948905" lon="11.606583447495721"><ele>946.8</ele><time>2026-04-25T09:15:43Z</time></trkpt><trkpt lat="43.84022824428441" lon="11.60675668505176"><ele>946.0</ele><time>2026-04-25T09:15:44Z</time></trkpt><trkpt lat="43.84031064519736" lon="11.606900348789516"><ele>943.8</ele><time>2026-04-25T09:15:45Z</time></trkpt><trkpt lat="43.84038490271313" lon="11.607021075336117"><ele>941.5999999999999</ele><time>2026-04-25T09:15:46Z</time></trkpt><trkpt lat="43.84044093375822" lon="11.607143960443961"><ele>939.4</ele><time>2026-04-25T09:15:47Z</time></trkpt><trkpt lat="43.840476335901975" lon="11.607254362379388"><ele>937.2</ele><time>2026-04-25T09:15:48Z</time></trkpt><trkpt lat="43.84050202080434" lon="11.60734274032805"><ele>935.0</ele><time>2026-04-25T09:15:49Z</time></trkpt><trkpt lat="43.84049645651861" lon="11.607477214465316"><ele>935.0</ele><time>2026-04-25T09:15:51Z</time></trkpt><trkpt lat="43.84049754615799" lon="11.6075880057485"><ele>935.0</ele><time>2026-04-25T09:15:52Z</time></trkpt><trkpt lat="43.84051859164565" lon="11.607702321614836"><ele>935.0</ele><time>2026-04-25T09:15:53Z</time></trkpt><trkpt lat="43.840575831351615" lon="11.607843342605657"><ele>935.0</ele><time>2026-04-25T09:15:54Z</time></trkpt><trkpt lat="43.840627723774546" lon="11.607952699157831"><ele>935.0</ele><time>2026-04-25T09:15:55Z</time></trkpt><trkpt lat="43.8407090477781" lon="11.608071843331002"><ele>935.6666666666667</ele><time>2026-04-25T09:15:57Z</time></trkpt><trkpt lat="43.84073834940918" lon="11.608199237176121"><ele>936.3333333333334</ele><time>2026-04-25T09:15:59Z</time></trkpt><trkpt lat="43.84071726947921" lon="11.608285795854835"><ele>937.0</ele><time>2026-04-25T09:16:00Z</time></trkpt><trkpt lat="43.840672770041365" lon="11.608376509856285"><ele>937.6666666666667</ele><time>2026-04-25T09:16:01Z</time></trkpt><trkpt lat="43.84065279037305" lon="11.60845974862187"><ele>938.3333333333334</ele><time>2026-04-25T09:16:02Z</time></trkpt><trkpt lat="43.8406753464621" lon="11.60857060580996"><ele>939.0</ele><time>2026-04-25T09:16:05Z</time></trkpt><trkpt lat="43.8406745020931" lon="11.608696554412058"><ele>940.2</ele><time>2026-04-25T09:16:06Z</time></trkpt><trkpt lat="43.840677247745106" lon="11.608831666335673"><ele>941.4000000000001</ele><time>2026-04-25T09:16:07Z</time></trkpt><trkpt lat="43.84069679866328" lon="11.608971082749775"><ele>942.6</ele><time>2026-04-25T09:16:08Z</time></trkpt><trkpt lat="43.84073385343294" lon="11.609161412683529"><ele>943.8</ele><time>2026-04-25T09:16:09Z</time></trkpt><trkpt lat="43.84077376899989" lon="11.609265568495282"><ele>945.0</ele><time>2026-04-25T09:16:10Z</time></trkpt><trkpt lat="43.84081656196213" lon="11.60936757202618"><ele>945.8</ele><time>2026-04-25T09:16:13Z</time></trkpt><trkpt lat="43.840867586538835" lon="11.609548929962928"><ele>946.6</ele><time>2026-04-25T09:16:15Z</time></trkpt><trkpt lat="43.840884491991" lon="11.609655801336896"><ele>947.4000000000001</ele><time>2026-04-25T09:16:16Z</time></trkpt><trkpt lat="43.84090522831663" lon="11.609742930671134"><ele>948.2</ele><time>2026-04-25T09:16:17Z</time></trkpt><trkpt lat="43.840905418474065" lon="11.60991243124724"><ele>949.0</ele><time>2026-04-25T09:16:19Z</time></trkpt><trkpt lat="43.84089290505241" lon="11.610019298421172"><ele>949.0</ele><time>2026-04-25T09:16:20Z</time></trkpt><trkpt lat="43.84087831204484" lon="11.610192564823418"><ele>949.0000000000001</ele><time>2026-04-25T09:16:21Z</time></trkpt><trkpt lat="43.84084125818411" lon="11.610388699858628"><ele>949.0000000000001</ele><time>2026-04-25T09:16:22Z</time></trkpt><trkpt lat="43.84084819449737" lon="11.61048267660262"><ele>949.0</ele><time>2026-04-25T09:16:24Z</time></trkpt><trkpt lat="43.84087907292694" lon="11.610609106475945"><ele>949.0</ele><time>2026-04-25T09:16:25Z</time></trkpt><trkpt lat="43.84091749766219" lon="11.610761807900358"><ele>947.6</ele><time>2026-04-25T09:16:26Z</time></trkpt><trkpt lat="43.840929401192454" lon="11.610875107723896"><ele>946.2</ele><time>2026-04-25T09:16:27Z</time></trkpt><trkpt lat="43.84094336206073" lon="11.610984074710407"><ele>944.8000000000001</ele><time>2026-04-25T09:16:28Z</time></trkpt><trkpt lat="43.84100003359586" lon="11.61109247524483"><ele>943.4000000000001</ele><time>2026-04-25T09:16:29Z</time></trkpt><trkpt lat="43.8410606376019" lon="11.61121960061428"><ele>942.0</ele><time>2026-04-25T09:16:30Z</time></trkpt><trkpt lat="43.8411231874831" lon="11.611299361652241"><ele>942.0</ele><time>2026-04-25T09:16:31Z</time></trkpt><trkpt lat="43.841176083244065" lon="11.61137172415021"><ele>942.0</ele><time>2026-04-25T09:16:32Z</time></trkpt><trkpt lat="43.841237473593054" lon="11.611327448198713"><ele>942.0</ele><time>2026-04-25T09:16:33Z</time></trkpt><trkpt lat="43.84129755216591" lon="11.611257118857965"><ele>942.0</ele><time>2026-04-25T09:16:35Z</time></trkpt><trkpt lat="43.841406880797976" lon="11.61117308703906"><ele>942.0</ele><time>2026-04-25T09:16:37Z</time></trkpt><trkpt lat="43.841496980879185" lon="11.611120030037004"><ele>942.0</ele><time>2026-04-25T09:16:38Z</time></trkpt><trkpt lat="43.84155316651873" lon="11.611034683148564"><ele>943.6666666666666</ele><time>2026-04-25T09:16:39Z</time></trkpt><trkpt lat="43.8416166546116" lon="11.611014805280302"><ele>945.3333333333333</ele><time>2026-04-25T09:16:40Z</time></trkpt><trkpt lat="43.841681842331376" lon="11.610990496297113"><ele>947.0</ele><time>2026-04-25T09:16:41Z</time></trkpt><trkpt lat="43.84175731040668" lon="11.61107882905464"><ele>948.6666666666666</ele><time>2026-04-25T09:16:44Z</time></trkpt><trkpt lat="43.841836727733735" lon="11.611106888842112"><ele>950.3333333333333</ele><time>2026-04-25T09:16:46Z</time></trkpt><trkpt lat="43.841891701624895" lon="11.611189055003175"><ele>952.0</ele><time>2026-04-25T09:16:49Z</time></trkpt><trkpt lat="43.84192168751117" lon="11.611317206849376"><ele>952.0</ele><time>2026-04-25T09:16:51Z</time></trkpt><trkpt lat="43.84196055301023" lon="11.61147063858127"><ele>952.0</ele><time>2026-04-25T09:16:53Z</time></trkpt><trkpt lat="43.84197684886595" lon="11.611631565247004"><ele>952.0</ele><time>2026-04-25T09:16:55Z</time></trkpt><trkpt lat="43.84199112845261" lon="11.611743480860522"><ele>952.0</ele><time>2026-04-25T09:16:56Z</time></trkpt><trkpt lat="43.84199130688755" lon="11.61188881241671"><ele>952.0</ele><time>2026-04-25T09:16:58Z</time></trkpt><trkpt lat="43.842001751055406" lon="11.612010681645776"><ele>949.6666666666666</ele><time>2026-04-25T09:17:00Z</time></trkpt><trkpt lat="43.84201396704866" lon="11.612113649077086"><ele>947.3333333333333</ele><time>2026-04-25T09:17:01Z</time></trkpt><trkpt lat="43.842018649019614" lon="11.612214639317228"><ele>945.0</ele><time>2026-04-25T09:17:02Z</time></trkpt><trkpt lat="43.84202295229127" lon="11.612305740227276"><ele>942.6666666666667</ele><time>2026-04-25T09:17:03Z</time></trkpt><trkpt lat="43.84200169421444" lon="11.612394334217083"><ele>940.3333333333334</ele><time>2026-04-25T09:17:05Z</time></trkpt><trkpt lat="43.84199966749118" lon="11.612556498894273"><ele>938.0</ele><time>2026-04-25T09:17:07Z</time></trkpt><trkpt lat="43.84205535973283" lon="11.612615299352493"><ele>938.0</ele><time>2026-04-25T09:17:09Z</time></trkpt><trkpt lat="43.84211950485472" lon="11.612596121543124"><ele>938.0</ele><time>2026-04-25T09:17:12Z</time></trkpt><trkpt lat="43.84218289219426" lon="11.612600606640902"><ele>938.0</ele><time>2026-04-25T09:17:16Z</time></trkpt><trkpt lat="43.84237032280814" lon="11.61253028438209"><ele>938.0</ele><time>2026-04-25T09:17:18Z</time></trkpt><trkpt lat="43.84251714531271" lon="11.612351361349528"><ele>938.0</ele><time>2026-04-25T09:17:19Z</time></trkpt><trkpt lat="43.842593181667795" lon="11.612321036792848"><ele>938.0</ele><time>2026-04-25T09:17:20Z</time></trkpt><trkpt lat="43.842673031063185" lon="11.61230166797183"><ele>938.0</ele><time>2026-04-25T09:17:21Z</time></trkpt><trkpt lat="43.84274574129819" lon="11.612284645424547"><ele>938.0</ele><time>2026-04-25T09:17:22Z</time></trkpt><trkpt lat="43.84281049379145" lon="11.612264856080335"><ele>938.0</ele><time>2026-04-25T09:17:23Z</time></trkpt><trkpt lat="43.84287398662222" lon="11.61224935067753"><ele>938.0</ele><time>2026-04-25T09:17:24Z</time></trkpt><trkpt lat="43.842937577966964" lon="11.61223127123905"><ele>938.0</ele><time>2026-04-25T09:17:25Z</time></trkpt><trkpt lat="43.843024579030704" lon="11.612199374780728"><ele>937.4</ele><time>2026-04-25T09:17:26Z</time></trkpt><trkpt lat="43.843117261526345" lon="11.612134466280452"><ele>936.8</ele><time>2026-04-25T09:17:27Z</time></trkpt><trkpt lat="43.843218081429676" lon="11.612055209966321"><ele>936.2</ele><time>2026-04-25T09:17:27.999Z</time></trkpt><trkpt lat="43.84329888309873" lon="11.611975484228603"><ele>935.6</ele><time>2026-04-25T09:17:28.999Z</time></trkpt><trkpt lat="43.84336299850408" lon="11.611912380035783"><ele>935.0</ele><time>2026-04-25T09:17:29.999Z</time></trkpt><trkpt lat="43.84344931550419" lon="11.611814912656746"><ele>929.1666666666667</ele><time>2026-04-25T09:17:31.999Z</time></trkpt><trkpt lat="43.84350491717408" lon="11.611716027342764"><ele>923.3333333333334</ele><time>2026-04-25T09:17:36.999Z</time></trkpt><trkpt lat="43.843543906086914" lon="11.61162685957228"><ele>917.5</ele><time>2026-04-25T09:17:37.999Z</time></trkpt><trkpt lat="43.84357742255299" lon="11.61155117096168"><ele>911.6666666666667</ele><time>2026-04-25T09:17:39Z</time></trkpt><trkpt lat="43.84364219498584" lon="11.611432120715175"><ele>905.8333333333334</ele><time>2026-04-25T09:17:41Z</time></trkpt><trkpt lat="43.84367205875564" lon="11.611348744642509"><ele>900.0</ele><time>2026-04-25T09:17:42Z</time></trkpt><trkpt lat="43.84367698572128" lon="11.6112559773473"><ele>899.0</ele><time>2026-04-25T09:17:43Z</time></trkpt><trkpt lat="43.84366393164035" lon="11.611123916512838"><ele>898.0</ele><time>2026-04-25T09:17:45Z</time></trkpt><trkpt lat="43.84364067656813" lon="11.611026679418439"><ele>897.0</ele><time>2026-04-25T09:17:46Z</time></trkpt><trkpt lat="43.84361476107322" lon="11.610906121105893"><ele>896.0</ele><time>2026-04-25T09:17:47Z</time></trkpt><trkpt lat="43.843610833229626" lon="11.610802203254828"><ele>895.0</ele><time>2026-04-25T09:17:48Z</time></trkpt><trkpt lat="43.843623317240166" lon="11.610706208649832"><ele>894.0</ele><time>2026-04-25T09:17:49Z</time></trkpt><trkpt lat="43.84363080195494" lon="11.610615336992575"><ele>894.0</ele><time>2026-04-25T09:17:50Z</time></trkpt><trkpt lat="43.843648487188474" lon="11.610530786930026"><ele>894.0000000000001</ele><time>2026-04-25T09:17:51Z</time></trkpt><trkpt lat="43.84370418167899" lon="11.610391628144649"><ele>894.0000000000001</ele><time>2026-04-25T09:17:53Z</time></trkpt><trkpt lat="43.84374688367706" lon="11.610273402552187"><ele>894.0</ele><time>2026-04-25T09:17:55Z</time></trkpt><trkpt lat="43.84377933513408" lon="11.610127525501406"><ele>894.0</ele><time>2026-04-25T09:17:57Z</time></trkpt><trkpt lat="43.84379157244368" lon="11.609988346038385"><ele>894.1428571428571</ele><time>2026-04-25T09:17:59Z</time></trkpt><trkpt lat="43.84379937361174" lon="11.60990126459676"><ele>894.2857142857142</ele><time>2026-04-25T09:18:00Z</time></trkpt><trkpt lat="43.84381653624792" lon="11.609808712117019"><ele>894.4285714285713</ele><time>2026-04-25T09:18:01Z</time></trkpt><trkpt lat="43.843845393034584" lon="11.609724162137656"><ele>894.5714285714286</ele><time>2026-04-25T09:18:02Z</time></trkpt><trkpt lat="43.843882217607316" lon="11.60963080502092"><ele>894.7142857142858</ele><time>2026-04-25T09:18:03Z</time></trkpt><trkpt lat="43.84389249245317" lon="11.609540455986492"><ele>894.8571428571428</ele><time>2026-04-25T09:18:04Z</time></trkpt><trkpt lat="43.84390655656224" lon="11.609450894734172"><ele>895.0</ele><time>2026-04-25T09:18:05Z</time></trkpt><trkpt lat="43.843958495097645" lon="11.609332391799473"><ele>894.9999999999999</ele><time>2026-04-25T09:18:07Z</time></trkpt><trkpt lat="43.844029587517255" lon="11.609216571582749"><ele>895.0</ele><time>2026-04-25T09:18:09Z</time></trkpt><trkpt lat="43.84408592472179" lon="11.609156805303163"><ele>895.0</ele><time>2026-04-25T09:18:10Z</time></trkpt><trkpt lat="43.84413748620426" lon="11.60910200713327"><ele>895.0</ele><time>2026-04-25T09:18:11Z</time></trkpt><trkpt lat="43.844181080581926" lon="11.609016559031234"><ele>894.9999999999999</ele><time>2026-04-25T09:18:12Z</time></trkpt><trkpt lat="43.844221833490685" lon="11.608948295934697"><ele>895.0</ele><time>2026-04-25T09:18:13Z</time></trkpt><trkpt lat="43.84426032315552" lon="11.608872013006286"><ele>890.1666666666666</ele><time>2026-04-25T09:18:14Z</time></trkpt><trkpt lat="43.844317028376636" lon="11.608820008592664"><ele>885.3333333333333</ele><time>2026-04-25T09:18:15Z</time></trkpt><trkpt lat="43.84437127827464" lon="11.608758219480087"><ele>880.5</ele><time>2026-04-25T09:18:16Z</time></trkpt><trkpt lat="43.84441457377803" lon="11.608693857975041"><ele>875.6666666666667</ele><time>2026-04-25T09:18:17Z</time></trkpt><trkpt lat="43.844464522909355" lon="11.608616094595959"><ele>870.8333333333334</ele><time>2026-04-25T09:18:18Z</time></trkpt><trkpt lat="43.84451447424359" lon="11.608518008568593"><ele>866.0</ele><time>2026-04-25T09:18:19Z</time></trkpt><trkpt lat="43.844569635946485" lon="11.608424464089431"><ele>865.9999999999999</ele><time>2026-04-25T09:18:20Z</time></trkpt><trkpt lat="43.84463272692991" lon="11.608369097671568"><ele>866.0</ele><time>2026-04-25T09:18:21Z</time></trkpt><trkpt lat="43.84469111108879" lon="11.608305991380062"><ele>866.0</ele><time>2026-04-25T09:18:22Z</time></trkpt><trkpt lat="43.84474856143623" lon="11.60823070625593"><ele>866.0</ele><time>2026-04-25T09:18:23Z</time></trkpt><trkpt lat="43.84479897577412" lon="11.608140525947798"><ele>866.0</ele><time>2026-04-25T09:18:24Z</time></trkpt><trkpt lat="43.84485744326557" lon="11.608088013768057"><ele>865.9999999999999</ele><time>2026-04-25T09:18:25Z</time></trkpt><trkpt lat="43.84491677995972" lon="11.608044102297868"><ele>866.0</ele><time>2026-04-25T09:18:26Z</time></trkpt><trkpt lat="43.84499374930462" lon="11.607903685520952"><ele>866.5000000000001</ele><time>2026-04-25T09:18:28Z</time></trkpt><trkpt lat="43.844996567215865" lon="11.60780778393716"><ele>867.0</ele><time>2026-04-25T09:18:29Z</time></trkpt><trkpt lat="43.844998467067526" lon="11.607715031258612"><ele>867.5</ele><time>2026-04-25T09:18:30Z</time></trkpt><trkpt lat="43.8449962344684" lon="11.607622658250328"><ele>868.0</ele><time>2026-04-25T09:18:31Z</time></trkpt><trkpt lat="43.84500003854442" lon="11.607522715304478"><ele>868.5000000000001</ele><time>2026-04-25T09:18:32Z</time></trkpt><trkpt lat="43.84500468953259" lon="11.607378698198994"><ele>869.0</ele><time>2026-04-25T09:18:34Z</time></trkpt><trkpt lat="43.84505165886085" lon="11.607274532245258"><ele>869.0</ele><time>2026-04-25T09:18:36Z</time></trkpt><trkpt lat="43.84509954170088" lon="11.607128805169586"><ele>869.0000000000001</ele><time>2026-04-25T09:18:38Z</time></trkpt><trkpt lat="43.84510938787129" lon="11.607004053519809"><ele>869.0000000000001</ele><time>2026-04-25T09:18:40Z</time></trkpt><trkpt lat="43.845175586588375" lon="11.60693629578292"><ele>869.0</ele><time>2026-04-25T09:18:42Z</time></trkpt><trkpt lat="43.845266400031676" lon="11.606880529933305"><ele>869.0</ele><time>2026-04-25T09:18:44Z</time></trkpt><trkpt lat="43.84538291437878" lon="11.606805745081518"><ele>865.8333333333334</ele><time>2026-04-25T09:18:46Z</time></trkpt><trkpt lat="43.84545395904725" lon="11.606812346316827"><ele>862.6666666666667</ele><time>2026-04-25T09:18:47Z</time></trkpt><trkpt lat="43.84556970780978" lon="11.606813958597932"><ele>859.5</ele><time>2026-04-25T09:18:49Z</time></trkpt><trkpt lat="43.845678408350814" lon="11.606814082421213"><ele>856.3333333333333</ele><time>2026-04-25T09:18:51Z</time></trkpt><trkpt lat="43.84574187146878" lon="11.606795324091149"><ele>853.1666666666666</ele><time>2026-04-25T09:18:52Z</time></trkpt><trkpt lat="43.845796572735914" lon="11.606734598376866"><ele>850.0</ele><time>2026-04-25T09:18:53Z</time></trkpt><trkpt lat="43.84584068204453" lon="11.606664414703685"><ele>850.0</ele><time>2026-04-25T09:18:54Z</time></trkpt><trkpt lat="43.84588523963703" lon="11.606592646396054"><ele>850.0</ele><time>2026-04-25T09:18:55Z</time></trkpt><trkpt lat="43.84592831566997" lon="11.606524955369688"><ele>850.0</ele><time>2026-04-25T09:18:56Z</time></trkpt><trkpt lat="43.845977745676436" lon="11.606469220959804"><ele>850.0</ele><time>2026-04-25T09:18:57Z</time></trkpt><trkpt lat="43.84607761623838" lon="11.606462657883002"><ele>850.0</ele><time>2026-04-25T09:18:59Z</time></trkpt><trkpt lat="43.84614590046778" lon="11.60647320225934"><ele>850.0</ele><time>2026-04-25T09:19:02Z</time></trkpt><trkpt lat="43.84621824461898" lon="11.606483980700222"><ele>850.0</ele><time>2026-04-25T09:19:25.999Z</time></trkpt><trkpt lat="43.84629511821107" lon="11.606453593924385"><ele>845.0</ele><time>2026-04-25T09:19:27.999Z</time></trkpt><trkpt lat="43.846335113449065" lon="11.606308441369325"><ele>840.0</ele><time>2026-04-25T09:19:29.999Z</time></trkpt><trkpt lat="43.84628251594155" lon="11.606188903512002"><ele>835.0</ele><time>2026-04-25T09:19:31.999Z</time></trkpt><trkpt lat="43.84626334927616" lon="11.60609646574821"><ele>830.0</ele><time>2026-04-25T09:19:32.999Z</time></trkpt><trkpt lat="43.84629878369578" lon="11.605954961535808"><ele>825.0</ele><time>2026-04-25T09:19:34.999Z</time></trkpt><trkpt lat="43.84634598221439" lon="11.60589490325548"><ele>825.0</ele><time>2026-04-25T09:19:35.999Z</time></trkpt><trkpt lat="43.84643952050265" lon="11.605790786003604"><ele>825.0</ele><time>2026-04-25T09:19:37.999Z</time></trkpt><trkpt lat="43.84649249837964" lon="11.60573434857126"><ele>825.0</ele><time>2026-04-25T09:19:38.999Z</time></trkpt><trkpt lat="43.84658626680729" lon="11.605649786886033"><ele>825.0</ele><time>2026-04-25T09:19:40.999Z</time></trkpt><trkpt lat="43.846662778951405" lon="11.605610815599194"><ele>825.0</ele><time>2026-04-25T09:19:42.999Z</time></trkpt><trkpt lat="43.846736154697034" lon="11.605547627775007"><ele>821.8333333333334</ele><time>2026-04-25T09:19:45Z</time></trkpt><trkpt lat="43.84683282105416" lon="11.605424695784983"><ele>818.6666666666667</ele><time>2026-04-25T09:19:47Z</time></trkpt><trkpt lat="43.84689297038119" lon="11.605380154794242"><ele>815.5</ele><time>2026-04-25T09:19:48Z</time></trkpt><trkpt lat="43.84695281126923" lon="11.605348305274337"><ele>812.3333333333334</ele><time>2026-04-25T09:19:49Z</time></trkpt><trkpt lat="43.84701263752337" lon="11.605299711570913"><ele>809.1666666666667</ele><time>2026-04-25T09:19:50Z</time></trkpt><trkpt lat="43.84706252598786" lon="11.605243086441996"><ele>806.0</ele><time>2026-04-25T09:19:51Z</time></trkpt><trkpt lat="43.84715370447529" lon="11.6051288641498"><ele>806.0</ele><time>2026-04-25T09:19:53Z</time></trkpt><trkpt lat="43.84720347188454" lon="11.605072825644198"><ele>806.0</ele><time>2026-04-25T09:19:54Z</time></trkpt><trkpt lat="43.847311012121665" lon="11.60499275239322"><ele>806.0</ele><time>2026-04-25T09:19:56Z</time></trkpt><trkpt lat="43.847402215534544" lon="11.604942094435367"><ele>806.0</ele><time>2026-04-25T09:19:58Z</time></trkpt><trkpt lat="43.84750886138184" lon="11.604905883981601"><ele>806.0</ele><time>2026-04-25T09:20:00Z</time></trkpt><trkpt lat="43.84757234161607" lon="11.60489463887325"><ele>801.4</ele><time>2026-04-25T09:20:01Z</time></trkpt><trkpt lat="43.84767972036648" lon="11.604874406900064"><ele>796.8</ele><time>2026-04-25T09:20:03Z</time></trkpt><trkpt lat="43.84779082373186" lon="11.604883510477277"><ele>792.1999999999999</ele><time>2026-04-25T09:20:05Z</time></trkpt><trkpt lat="43.84786463386765" lon="11.604850524456376"><ele>787.5999999999999</ele><time>2026-04-25T09:20:07Z</time></trkpt><trkpt lat="43.84793959361215" lon="11.6048427956125"><ele>783.0</ele><time>2026-04-25T09:20:09Z</time></trkpt><trkpt lat="43.84803071347407" lon="11.604811582693356"><ele>783.0</ele><time>2026-04-25T09:20:11Z</time></trkpt><trkpt lat="43.848128471282195" lon="11.604798096076493"><ele>783.0</ele><time>2026-04-25T09:20:13Z</time></trkpt><trkpt lat="43.84822039631149" lon="11.604811161943674"><ele>783.0</ele><time>2026-04-25T09:20:15Z</time></trkpt><trkpt lat="43.84828910081773" lon="11.604815884079475"><ele>783.0</ele><time>2026-04-25T09:20:17Z</time></trkpt><trkpt lat="43.84835681879133" lon="11.604822696146819"><ele>783.0</ele><time>2026-04-25T09:20:19Z</time></trkpt><trkpt lat="43.84842763330761" lon="11.604859603168594"><ele>783.0</ele><time>2026-04-25T09:20:21Z</time></trkpt><trkpt lat="43.84851348744794" lon="11.604915804612501"><ele>776.8</ele><time>2026-04-25T09:20:23Z</time></trkpt><trkpt lat="43.848563586611206" lon="11.604983693383991"><ele>770.5999999999999</ele><time>2026-04-25T09:20:25Z</time></trkpt><trkpt lat="43.848642100755264" lon="11.605059368364879"><ele>764.4000000000001</ele><time>2026-04-25T09:20:27Z</time></trkpt><trkpt lat="43.848743589499435" lon="11.605017342333852"><ele>758.2</ele><time>2026-04-25T09:20:29Z</time></trkpt><trkpt lat="43.84881374610302" lon="11.604900570241675"><ele>752.0</ele><time>2026-04-25T09:20:31Z</time></trkpt><trkpt lat="43.848830180917325" lon="11.60479904732348"><ele>752.0</ele><time>2026-04-25T09:20:33Z</time></trkpt><trkpt lat="43.84884883943084" lon="11.604690733506992"><ele>752.0</ele><time>2026-04-25T09:20:35Z</time></trkpt><trkpt lat="43.84888278091467" lon="11.604613188252879"><ele>752.0</ele><time>2026-04-25T09:20:37Z</time></trkpt><trkpt lat="43.84890818825916" lon="11.604522943693684"><ele>752.0</ele><time>2026-04-25T09:20:39Z</time></trkpt><trkpt lat="43.84895557117463" lon="11.60434626396416"><ele>752.0</ele><time>2026-04-25T09:20:41Z</time></trkpt><trkpt lat="43.8490016255264" lon="11.604221692228501"><ele>752.1666666666666</ele><time>2026-04-25T09:20:43Z</time></trkpt><trkpt lat="43.84905027836745" lon="11.604132276277477"><ele>752.3333333333333</ele><time>2026-04-25T09:20:45Z</time></trkpt><trkpt lat="43.84907919182862" lon="11.604012557856056"><ele>752.5</ele><time>2026-04-25T09:20:47Z</time></trkpt><trkpt lat="43.84909832270399" lon="11.603903038064493"><ele>752.6666666666666</ele><time>2026-04-25T09:20:50Z</time></trkpt><trkpt lat="43.849140566212476" lon="11.603785126946333"><ele>752.8333333333334</ele><time>2026-04-25T09:20:52Z</time></trkpt><trkpt lat="43.84917069230344" lon="11.6036740120344"><ele>753.0</ele><time>2026-04-25T09:20:54Z</time></trkpt><trkpt lat="43.84921404049583" lon="11.6035574365941"><ele>751.4</ele><time>2026-04-25T09:20:56Z</time></trkpt><trkpt lat="43.8492584263977" lon="11.60341017277508"><ele>749.8</ele><time>2026-04-25T09:20:58Z</time></trkpt><trkpt lat="43.849296941555885" lon="11.603260010971125"><ele>748.2</ele><time>2026-04-25T09:21:00Z</time></trkpt><trkpt lat="43.84935972146558" lon="11.603127096944458"><ele>746.6</ele><time>2026-04-25T09:21:02Z</time></trkpt><trkpt lat="43.84940314785917" lon="11.603049738700346"><ele>745.0</ele><time>2026-04-25T09:21:03Z</time></trkpt><trkpt lat="43.84944616857731" lon="11.6029815832202"><ele>743.3333333333334</ele><time>2026-04-25T09:21:04Z</time></trkpt><trkpt lat="43.84951731588607" lon="11.60285420875067"><ele>741.6666666666667</ele><time>2026-04-25T09:21:06Z</time></trkpt><trkpt lat="43.84955291064287" lon="11.602771800325968"><ele>740.0</ele><time>2026-04-25T09:21:07Z</time></trkpt><trkpt lat="43.84960231739661" lon="11.602615259008342"><ele>738.3333333333334</ele><time>2026-04-25T09:21:09Z</time></trkpt><trkpt lat="43.849637121839336" lon="11.602541159039912"><ele>736.6666666666666</ele><time>2026-04-25T09:21:10Z</time></trkpt><trkpt lat="43.84966915669146" lon="11.602465197761212"><ele>735.0</ele><time>2026-04-25T09:21:11Z</time></trkpt><trkpt lat="43.84970977367529" lon="11.602303052931056"><ele>735.0</ele><time>2026-04-25T09:21:13Z</time></trkpt><trkpt lat="43.84976177277421" lon="11.60216055431595"><ele>735.0</ele><time>2026-04-25T09:21:15Z</time></trkpt><trkpt lat="43.84982837984506" lon="11.602024122896307"><ele>735.0</ele><time>2026-04-25T09:21:17Z</time></trkpt><trkpt lat="43.849867655491174" lon="11.601928939401267"><ele>735.0</ele><time>2026-04-25T09:21:17.999Z</time></trkpt><trkpt lat="43.84991339980265" lon="11.601804774185418"><ele>735.0</ele><time>2026-04-25T09:21:18.999Z</time></trkpt><trkpt lat="43.84997548289167" lon="11.60168997420144"><ele>734.8</ele><time>2026-04-25T09:21:19.999Z</time></trkpt><trkpt lat="43.85004160288145" lon="11.60162386613524"><ele>734.6</ele><time>2026-04-25T09:21:20.999Z</time></trkpt><trkpt lat="43.850113992570456" lon="11.601568586627387"><ele>734.4000000000001</ele><time>2026-04-25T09:21:21.999Z</time></trkpt><trkpt lat="43.85019926508798" lon="11.601505487513613"><ele>734.2</ele><time>2026-04-25T09:21:22.999Z</time></trkpt><trkpt lat="43.85028270442115" lon="11.60142877096814"><ele>734.0</ele><time>2026-04-25T09:21:23.999Z</time></trkpt><trkpt lat="43.85035564275212" lon="11.601358529462074"><ele>734.0</ele><time>2026-04-25T09:21:24.999Z</time></trkpt><trkpt lat="43.85040894742096" lon="11.6012820725706"><ele>734.0</ele><time>2026-04-25T09:21:25.999Z</time></trkpt><trkpt lat="43.85046673983437" lon="11.601208667490296"><ele>734.0</ele><time>2026-04-25T09:21:26.999Z</time></trkpt><trkpt lat="43.85051915569034" lon="11.601133839305568"><ele>734.0</ele><time>2026-04-25T09:21:27.999Z</time></trkpt><trkpt lat="43.85057191999545" lon="11.601049928308246"><ele>734.0</ele><time>2026-04-25T09:21:28.999Z</time></trkpt><trkpt lat="43.85061050528692" lon="11.600953614976381"><ele>734.0</ele><time>2026-04-25T09:21:29.999Z</time></trkpt><trkpt lat="43.850625991533434" lon="11.600833470122883"><ele>731.3333333333333</ele><time>2026-04-25T09:21:30.999Z</time></trkpt><trkpt lat="43.85062368189351" lon="11.600710560655033"><ele>728.6666666666666</ele><time>2026-04-25T09:21:31.999Z</time></trkpt><trkpt lat="43.85062484506916" lon="11.600602034745739"><ele>726.0</ele><time>2026-04-25T09:21:32.999Z</time></trkpt><trkpt lat="43.85063975899891" lon="11.60050774258606"><ele>723.3333333333334</ele><time>2026-04-25T09:21:33.999Z</time></trkpt><trkpt lat="43.85067813824201" lon="11.60042789627336"><ele>720.6666666666667</ele><time>2026-04-25T09:21:34.999Z</time></trkpt><trkpt lat="43.85072420878148" lon="11.60035058819072"><ele>718.0</ele><time>2026-04-25T09:21:35.999Z</time></trkpt><trkpt lat="43.85077714009071" lon="11.600272217701223"><ele>715.1666666666667</ele><time>2026-04-25T09:21:36.999Z</time></trkpt><trkpt lat="43.850834409987996" lon="11.600206720929757"><ele>712.3333333333334</ele><time>2026-04-25T09:21:37.999Z</time></trkpt><trkpt lat="43.85089666021358" lon="11.600149461515267"><ele>709.5</ele><time>2026-04-25T09:21:38.999Z</time></trkpt><trkpt lat="43.85095527545065" lon="11.600091228367877"><ele>706.6666666666666</ele><time>2026-04-25T09:21:39.999Z</time></trkpt><trkpt lat="43.851018650139466" lon="11.600040662914425"><ele>703.8333333333333</ele><time>2026-04-25T09:21:40.999Z</time></trkpt><trkpt lat="43.85107515688004" lon="11.599991680844601"><ele>701.0</ele><time>2026-04-25T09:21:41.999Z</time></trkpt><trkpt lat="43.85118450717751" lon="11.599985318604457"><ele>699.4</ele><time>2026-04-25T09:21:43.999Z</time></trkpt><trkpt lat="43.85125521216265" lon="11.600030931939536"><ele>697.8</ele><time>2026-04-25T09:21:44.999Z</time></trkpt><trkpt lat="43.85134496610739" lon="11.60012115048834"><ele>696.1999999999999</ele><time>2026-04-25T09:21:45.999Z</time></trkpt><trkpt lat="43.851445685312505" lon="11.600231388429869"><ele>694.5999999999999</ele><time>2026-04-25T09:21:46.999Z</time></trkpt><trkpt lat="43.85152008090594" lon="11.600303121782659"><ele>693.0</ele><time>2026-04-25T09:21:47.999Z</time></trkpt><trkpt lat="43.851569372961094" lon="11.60037946721088"><ele>692.1666666666666</ele><time>2026-04-25T09:21:48.999Z</time></trkpt><trkpt lat="43.85162997816755" lon="11.600446885461983"><ele>691.3333333333334</ele><time>2026-04-25T09:21:49.999Z</time></trkpt><trkpt lat="43.85170587400703" lon="11.600461454045293"><ele>690.5</ele><time>2026-04-25T09:21:51Z</time></trkpt><trkpt lat="43.85176241870079" lon="11.600421204742618"><ele>689.6666666666667</ele><time>2026-04-25T09:21:52Z</time></trkpt><trkpt lat="43.85181933891741" lon="11.600326831738357"><ele>688.8333333333334</ele><time>2026-04-25T09:21:53Z</time></trkpt><trkpt lat="43.851881304241246" lon="11.600214285671084"><ele>688.0</ele><time>2026-04-25T09:21:54Z</time></trkpt><trkpt lat="43.851950446113015" lon="11.600113515258647"><ele>688.0</ele><time>2026-04-25T09:21:55Z</time></trkpt><trkpt lat="43.852020123874716" lon="11.600055782705697"><ele>688.0</ele><time>2026-04-25T09:21:56Z</time></trkpt><trkpt lat="43.85208452038761" lon="11.600010178297236"><ele>688.0</ele><time>2026-04-25T09:21:57Z</time></trkpt><trkpt lat="43.85215082431474" lon="11.599954558447"><ele>688.0</ele><time>2026-04-25T09:21:58Z</time></trkpt><trkpt lat="43.85221940632733" lon="11.59989126161901"><ele>688.0</ele><time>2026-04-25T09:21:59Z</time></trkpt><trkpt lat="43.852280940589985" lon="11.599862474839819"><ele>688.0</ele><time>2026-04-25T09:22:00Z</time></trkpt><trkpt lat="43.85235486639291" lon="11.599824923330743"><ele>688.0</ele><time>2026-04-25T09:22:01Z</time></trkpt><trkpt lat="43.85243319387635" lon="11.599775058327584"><ele>688.0</ele><time>2026-04-25T09:22:02Z</time></trkpt><trkpt lat="43.852487680859326" lon="11.599705593773729"><ele>688.0</ele><time>2026-04-25T09:22:03Z</time></trkpt><trkpt lat="43.85254097420948" lon="11.59962472657232"><ele>688.0</ele><time>2026-04-25T09:22:04Z</time></trkpt><trkpt lat="43.852602429362186" lon="11.599575987584178"><ele>688.0</ele><time>2026-04-25T09:22:05Z</time></trkpt><trkpt lat="43.85267070864364" lon="11.599551521377823"><ele>688.0</ele><time>2026-04-25T09:22:06Z</time></trkpt><trkpt lat="43.852741609784125" lon="11.599550413855109"><ele>688.8571428571429</ele><time>2026-04-25T09:22:07Z</time></trkpt><trkpt lat="43.85280385076773" lon="11.599535101817096"><ele>689.7142857142858</ele><time>2026-04-25T09:22:08Z</time></trkpt><trkpt lat="43.852873420227425" lon="11.599523163309122"><ele>690.5714285714287</ele><time>2026-04-25T09:22:09Z</time></trkpt><trkpt lat="43.85294823830891" lon="11.599509956660766"><ele>691.4285714285714</ele><time>2026-04-25T09:22:10Z</time></trkpt><trkpt lat="43.8530209801473" lon="11.599476453056027"><ele>692.2857142857142</ele><time>2026-04-25T09:22:11Z</time></trkpt><trkpt lat="43.853085385327645" lon="11.599453249348437"><ele>693.1428571428572</ele><time>2026-04-25T09:22:12Z</time></trkpt><trkpt lat="43.85315100724009" lon="11.599414226772328"><ele>694.0</ele><time>2026-04-25T09:22:13Z</time></trkpt><trkpt lat="43.8531888643039" lon="11.599329733905083"><ele>692.0</ele><time>2026-04-25T09:22:14Z</time></trkpt><trkpt lat="43.853204104769354" lon="11.599221373099216"><ele>690.0</ele><time>2026-04-25T09:22:15Z</time></trkpt><trkpt lat="43.8532051288144" lon="11.599087931105446"><ele>688.0</ele><time>2026-04-25T09:22:16Z</time></trkpt><trkpt lat="43.85319596084207" lon="11.598967553489915"><ele>686.0</ele><time>2026-04-25T09:22:17Z</time></trkpt><trkpt lat="43.85317886096291" lon="11.598871184617177"><ele>684.0</ele><time>2026-04-25T09:22:18Z</time></trkpt><trkpt lat="43.85317664756676" lon="11.598767411899818"><ele>682.0</ele><time>2026-04-25T09:22:19Z</time></trkpt><trkpt lat="43.853205417399764" lon="11.598659367447755"><ele>681.6</ele><time>2026-04-25T09:22:20Z</time></trkpt><trkpt lat="43.853259612790865" lon="11.598535121301941"><ele>681.2</ele><time>2026-04-25T09:22:21Z</time></trkpt><trkpt lat="43.853310186650795" lon="11.598412183053986"><ele>680.8</ele><time>2026-04-25T09:22:22Z</time></trkpt><trkpt lat="43.8533687437339" lon="11.598309962797467"><ele>680.4</ele><time>2026-04-25T09:22:23Z</time></trkpt><trkpt lat="43.85341216685208" lon="11.598217133251241"><ele>680.0</ele><time>2026-04-25T09:22:24Z</time></trkpt><trkpt lat="43.85346139581221" lon="11.598124221148655"><ele>680.0</ele><time>2026-04-25T09:22:25Z</time></trkpt><trkpt lat="43.85351307759167" lon="11.598033207534177"><ele>680.0</ele><time>2026-04-25T09:22:26Z</time></trkpt><trkpt lat="43.85356315432126" lon="11.597944771974257"><ele>680.0</ele><time>2026-04-25T09:22:27Z</time></trkpt><trkpt lat="43.85360462051364" lon="11.597864755293484"><ele>680.0</ele><time>2026-04-25T09:22:28Z</time></trkpt><trkpt lat="43.8536875904301" lon="11.597749105710157"><ele>680.0</ele><time>2026-04-25T09:22:30Z</time></trkpt><trkpt lat="43.85376224189417" lon="11.59771994484325"><ele>680.0</ele><time>2026-04-25T09:22:31Z</time></trkpt><trkpt lat="43.85385163837293" lon="11.597710028221652"><ele>675.8333333333333</ele><time>2026-04-25T09:22:32Z</time></trkpt><trkpt lat="43.85394669069782" lon="11.597700513860195"><ele>671.6666666666666</ele><time>2026-04-25T09:22:33Z</time></trkpt><trkpt lat="43.85402354390909" lon="11.597695391400693"><ele>667.5</ele><time>2026-04-25T09:22:34Z</time></trkpt><trkpt lat="43.85410143859313" lon="11.597706335389933"><ele>663.3333333333334</ele><time>2026-04-25T09:22:35Z</time></trkpt><trkpt lat="43.8541698622084" lon="11.597733402895098"><ele>659.1666666666667</ele><time>2026-04-25T09:22:36Z</time></trkpt><trkpt lat="43.854244999477515" lon="11.59776580860842"><ele>655.0</ele><time>2026-04-25T09:22:37Z</time></trkpt><trkpt lat="43.85431987782446" lon="11.597793321340964"><ele>658.5</ele><time>2026-04-25T09:22:38Z</time></trkpt><trkpt lat="43.85438245462341" lon="11.597844666549314"><ele>662.0</ele><time>2026-04-25T09:22:39Z</time></trkpt><trkpt lat="43.854462733959764" lon="11.597911739663253"><ele>665.5</ele><time>2026-04-25T09:22:40Z</time></trkpt><trkpt lat="43.85456445611614" lon="11.597965019065589"><ele>669.0</ele><time>2026-04-25T09:22:41Z</time></trkpt><trkpt lat="43.85464082589057" lon="11.597998880070218"><ele>672.5</ele><time>2026-04-25T09:22:42Z</time></trkpt><trkpt lat="43.85470350433472" lon="11.598020114685454"><ele>676.0</ele><time>2026-04-25T09:22:43Z</time></trkpt><trkpt lat="43.85477326161938" lon="11.597997401192448"><ele>676.0</ele><time>2026-04-25T09:22:44Z</time></trkpt><trkpt lat="43.854857152817836" lon="11.597922641075264"><ele>676.0</ele><time>2026-04-25T09:22:45Z</time></trkpt><trkpt lat="43.85494437862208" lon="11.597831109484257"><ele>676.0</ele><time>2026-04-25T09:22:46Z</time></trkpt><trkpt lat="43.85501676196863" lon="11.597747809989414"><ele>676.0</ele><time>2026-04-25T09:22:47Z</time></trkpt><trkpt lat="43.85507470292899" lon="11.597649087345287"><ele>676.0</ele><time>2026-04-25T09:22:48Z</time></trkpt><trkpt lat="43.85512938955622" lon="11.597566116755669"><ele>672.5</ele><time>2026-04-25T09:22:49Z</time></trkpt><trkpt lat="43.8551419595477" lon="11.597479730040645"><ele>669.0</ele><time>2026-04-25T09:22:50Z</time></trkpt><trkpt lat="43.85517908947819" lon="11.597376341222994"><ele>665.5</ele><time>2026-04-25T09:22:51Z</time></trkpt><trkpt lat="43.855228481573675" lon="11.597313494923297"><ele>662.0</ele><time>2026-04-25T09:22:52Z</time></trkpt><trkpt lat="43.855289926344355" lon="11.59723140898581"><ele>658.5</ele><time>2026-04-25T09:22:53Z</time></trkpt><trkpt lat="43.85536926219744" lon="11.597161586538899"><ele>655.0</ele><time>2026-04-25T09:22:54Z</time></trkpt><trkpt lat="43.85542756656144" lon="11.597119845719298"><ele>655.0</ele><time>2026-04-25T09:22:55Z</time></trkpt><trkpt lat="43.8554968230253" lon="11.597121834158026"><ele>655.0</ele><time>2026-04-25T09:22:56Z</time></trkpt><trkpt lat="43.85558435845458" lon="11.59716484419465"><ele>655.0</ele><time>2026-04-25T09:22:57Z</time></trkpt><trkpt lat="43.85567536020958" lon="11.597174514113615"><ele>655.0</ele><time>2026-04-25T09:22:58Z</time></trkpt><trkpt lat="43.8557484956912" lon="11.597161837153168"><ele>655.0</ele><time>2026-04-25T09:22:59Z</time></trkpt><trkpt lat="43.855888491415904" lon="11.597158725456339"><ele>653.1666666666667</ele><time>2026-04-25T09:23:01Z</time></trkpt><trkpt lat="43.85598040871355" lon="11.597194470112317"><ele>651.3333333333334</ele><time>2026-04-25T09:23:02Z</time></trkpt><trkpt lat="43.85606351560671" lon="11.597211355190778"><ele>649.5</ele><time>2026-04-25T09:23:03Z</time></trkpt><trkpt lat="43.856141909601426" lon="11.59725283100959"><ele>647.6666666666666</ele><time>2026-04-25T09:23:04Z</time></trkpt><trkpt lat="43.85622561156945" lon="11.59725852534386"><ele>645.8333333333333</ele><time>2026-04-25T09:23:05Z</time></trkpt><trkpt lat="43.856302246874534" lon="11.597271694645459"><ele>644.0</ele><time>2026-04-25T09:23:06Z</time></trkpt><trkpt lat="43.85639006449065" lon="11.5972555090526"><ele>644.0</ele><time>2026-04-25T09:23:07Z</time></trkpt><trkpt lat="43.85645862441382" lon="11.59724417566763"><ele>644.0</ele><time>2026-04-25T09:23:08Z</time></trkpt><trkpt lat="43.85656287833819" lon="11.597165204692876"><ele>644.0</ele><time>2026-04-25T09:23:10Z</time></trkpt><trkpt lat="43.856615550881635" lon="11.59710523207367"><ele>644.0</ele><time>2026-04-25T09:23:11Z</time></trkpt><trkpt lat="43.8566432199599" lon="11.597007986081605"><ele>644.0</ele><time>2026-04-25T09:23:12Z</time></trkpt><trkpt lat="43.85667139650017" lon="11.596878787528986"><ele>644.0</ele><time>2026-04-25T09:23:14Z</time></trkpt><trkpt lat="43.85672149617016" lon="11.596726401556356"><ele>642.0</ele><time>2026-04-25T09:23:16Z</time></trkpt><trkpt lat="43.85676812032058" lon="11.596651052439833"><ele>640.0</ele><time>2026-04-25T09:23:17Z</time></trkpt><trkpt lat="43.856805949189614" lon="11.59656967626194"><ele>638.0</ele><time>2026-04-25T09:23:18Z</time></trkpt><trkpt lat="43.856833393214345" lon="11.596482036401508"><ele>636.0</ele><time>2026-04-25T09:23:19Z</time></trkpt><trkpt lat="43.85687222734684" lon="11.596393686169092"><ele>634.0</ele><time>2026-04-25T09:23:20Z</time></trkpt><trkpt lat="43.85691697723076" lon="11.596286870327843"><ele>632.0</ele><time>2026-04-25T09:23:21Z</time></trkpt><trkpt lat="43.85695834175737" lon="11.596185037141645"><ele>630.0</ele><time>2026-04-25T09:23:21.999Z</time></trkpt><trkpt lat="43.856968014460385" lon="11.596078388187749"><ele>628.0</ele><time>2026-04-25T09:23:22.999Z</time></trkpt><trkpt lat="43.85697540230463" lon="11.59597404278738"><ele>626.0</ele><time>2026-04-25T09:23:23.999Z</time></trkpt><trkpt lat="43.85698980090099" lon="11.595860608652284"><ele>624.0</ele><time>2026-04-25T09:23:24.999Z</time></trkpt><trkpt lat="43.85700192226992" lon="11.595745668185396"><ele>622.0</ele><time>2026-04-25T09:23:25.999Z</time></trkpt><trkpt lat="43.85700514119501" lon="11.595634997281442"><ele>620.0</ele><time>2026-04-25T09:23:26.999Z</time></trkpt><trkpt lat="43.857019448257674" lon="11.595521510845565"><ele>620.0</ele><time>2026-04-25T09:23:27.999Z</time></trkpt><trkpt lat="43.85702782295932" lon="11.59540140783851"><ele>620.0</ele><time>2026-04-25T09:23:28.999Z</time></trkpt><trkpt lat="43.85703960316831" lon="11.595270088323621"><ele>620.0</ele><time>2026-04-25T09:23:29.999Z</time></trkpt><trkpt lat="43.85705051701153" lon="11.595134165466524"><ele>620.0</ele><time>2026-04-25T09:23:30.999Z</time></trkpt><trkpt lat="43.85704503258812" lon="11.595022537403672"><ele>620.0</ele><time>2026-04-25T09:23:31.999Z</time></trkpt><trkpt lat="43.8570272866316" lon="11.594911325361952"><ele>620.0</ele><time>2026-04-25T09:23:32.999Z</time></trkpt><trkpt lat="43.857026140922684" lon="11.594797398063683"><ele>618.8333333333333</ele><time>2026-04-25T09:23:33.999Z</time></trkpt><trkpt lat="43.85705938073389" lon="11.594691475668355"><ele>617.6666666666666</ele><time>2026-04-25T09:23:34.999Z</time></trkpt><trkpt lat="43.857071788056885" lon="11.594570906134708"><ele>616.5</ele><time>2026-04-25T09:23:35.999Z</time></trkpt><trkpt lat="43.85707282112516" lon="11.5944685644199"><ele>615.3333333333334</ele><time>2026-04-25T09:23:36.999Z</time></trkpt><trkpt lat="43.85710837734102" lon="11.594377964430691"><ele>614.1666666666667</ele><time>2026-04-25T09:23:37.999Z</time></trkpt><trkpt lat="43.857183138555826" lon="11.594306477136788"><ele>613.0</ele><time>2026-04-25T09:23:38.999Z</time></trkpt><trkpt lat="43.857263266868884" lon="11.594275885941734"><ele>610.6</ele><time>2026-04-25T09:23:39.999Z</time></trkpt><trkpt lat="43.85735602969649" lon="11.59431874118351"><ele>608.1999999999999</ele><time>2026-04-25T09:23:40.999Z</time></trkpt><trkpt lat="43.85745411070203" lon="11.59439491672175"><ele>605.8</ele><time>2026-04-25T09:23:41.999Z</time></trkpt><trkpt lat="43.85755842566439" lon="11.594458031880162"><ele>603.4</ele><time>2026-04-25T09:23:42.999Z</time></trkpt><trkpt lat="43.85765231530496" lon="11.594442539476757"><ele>601.0</ele><time>2026-04-25T09:23:43.999Z</time></trkpt><trkpt lat="43.857767622702504" lon="11.594348629074993"><ele>597.8333333333334</ele><time>2026-04-25T09:23:45.999Z</time></trkpt><trkpt lat="43.85782730195797" lon="11.594240541553413"><ele>594.6666666666667</ele><time>2026-04-25T09:23:46.999Z</time></trkpt><trkpt lat="43.857860319516675" lon="11.594110647791124"><ele>591.5</ele><time>2026-04-25T09:23:47.999Z</time></trkpt><trkpt lat="43.85785217320014" lon="11.594015944501736"><ele>588.3333333333334</ele><time>2026-04-25T09:23:48.999Z</time></trkpt><trkpt lat="43.85784491397772" lon="11.59389678927159"><ele>585.1666666666666</ele><time>2026-04-25T09:23:50.999Z</time></trkpt><trkpt lat="43.85777195677134" lon="11.593813768911009"><ele>582.0</ele><time>2026-04-25T09:23:52.999Z</time></trkpt><trkpt lat="43.85776921731432" lon="11.593689645726554"><ele>581.8333333333334</ele><time>2026-04-25T09:23:55.999Z</time></trkpt><trkpt lat="43.857834266113095" lon="11.593567921306457"><ele>581.6666666666666</ele><time>2026-04-25T09:23:58Z</time></trkpt><trkpt lat="43.857879379777614" lon="11.59349315139285"><ele>581.5</ele><time>2026-04-25T09:23:59Z</time></trkpt><trkpt lat="43.85791123419757" lon="11.59340851249081"><ele>581.3333333333333</ele><time>2026-04-25T09:24:00Z</time></trkpt><trkpt lat="43.857933001981074" lon="11.593323206648634"><ele>581.1666666666666</ele><time>2026-04-25T09:24:01Z</time></trkpt><trkpt lat="43.857963831561584" lon="11.593225816521645"><ele>581.0</ele><time>2026-04-25T09:24:02Z</time></trkpt><trkpt lat="43.85801519921492" lon="11.593129216901499"><ele>581.0</ele><time>2026-04-25T09:24:03Z</time></trkpt><trkpt lat="43.85806330599417" lon="11.592993106956646"><ele>581.0</ele><time>2026-04-25T09:24:04Z</time></trkpt><trkpt lat="43.85810771308633" lon="11.592881338691566"><ele>581.0</ele><time>2026-04-25T09:24:05Z</time></trkpt><trkpt lat="43.85813486809592" lon="11.592769515109646"><ele>581.0</ele><time>2026-04-25T09:24:06Z</time></trkpt><trkpt lat="43.85814860737642" lon="11.59267338657917"><ele>581.0</ele><time>2026-04-25T09:24:07Z</time></trkpt><trkpt lat="43.85816281144223" lon="11.592559536736518"><ele>581.0</ele><time>2026-04-25T09:24:08Z</time></trkpt><trkpt lat="43.85817637896426" lon="11.592434921596764"><ele>580.6</ele><time>2026-04-25T09:24:09Z</time></trkpt><trkpt lat="43.85819061994178" lon="11.592301902230002"><ele>580.2</ele><time>2026-04-25T09:24:10Z</time></trkpt><trkpt lat="43.8582066470002" lon="11.592159832514762"><ele>579.8</ele><time>2026-04-25T09:24:11Z</time></trkpt><trkpt lat="43.8582272348274" lon="11.5920146925281"><ele>579.4</ele><time>2026-04-25T09:24:12Z</time></trkpt><trkpt lat="43.858246496293596" lon="11.591865164920694"><ele>579.0</ele><time>2026-04-25T09:24:13Z</time></trkpt><trkpt lat="43.858267032944816" lon="11.591721139530499"><ele>577.2</ele><time>2026-04-25T09:24:14Z</time></trkpt><trkpt lat="43.85829204192414" lon="11.59159663410149"><ele>575.4</ele><time>2026-04-25T09:24:15Z</time></trkpt><trkpt lat="43.858325703047136" lon="11.591472457225171"><ele>573.6</ele><time>2026-04-25T09:24:16Z</time></trkpt><trkpt lat="43.858356464789885" lon="11.591364280964402"><ele>571.8</ele><time>2026-04-25T09:24:17Z</time></trkpt><trkpt lat="43.85837222518588" lon="11.591277133046859"><ele>570.0</ele><time>2026-04-25T09:24:18Z</time></trkpt><trkpt lat="43.85834342180009" lon="11.591105420942485"><ele>568.3333333333334</ele><time>2026-04-25T09:24:20Z</time></trkpt><trkpt lat="43.85832070330277" lon="11.59094184837711"><ele>566.6666666666666</ele><time>2026-04-25T09:24:22Z</time></trkpt><trkpt lat="43.8583403156172" lon="11.590832318152302"><ele>565.0</ele><time>2026-04-25T09:24:23Z</time></trkpt><trkpt lat="43.858343406471384" lon="11.590723751946859"><ele>563.3333333333333</ele><time>2026-04-25T09:24:24Z</time></trkpt><trkpt lat="43.858349636674006" lon="11.590631615722614"><ele>561.6666666666666</ele><time>2026-04-25T09:24:25Z</time></trkpt><trkpt lat="43.85837833490257" lon="11.590530444570216"><ele>560.0</ele><time>2026-04-25T09:24:26Z</time></trkpt><trkpt lat="43.85841480586565" lon="11.590422684802476"><ele>557.8333333333333</ele><time>2026-04-25T09:24:27Z</time></trkpt><trkpt lat="43.858446501542936" lon="11.590311503122708"><ele>555.6666666666666</ele><time>2026-04-25T09:24:28Z</time></trkpt><trkpt lat="43.8584842330163" lon="11.590220599556597"><ele>553.5</ele><time>2026-04-25T09:24:29Z</time></trkpt><trkpt lat="43.85854629723155" lon="11.5901557832167"><ele>551.3333333333334</ele><time>2026-04-25T09:24:30Z</time></trkpt><trkpt lat="43.85860903083001" lon="11.590084412974917"><ele>549.1666666666667</ele><time>2026-04-25T09:24:31Z</time></trkpt><trkpt lat="43.85863642143604" lon="11.58997611930956"><ele>547.0</ele><time>2026-04-25T09:24:33Z</time></trkpt><trkpt lat="43.85863286015816" lon="11.589866093715713"><ele>547.0</ele><time>2026-04-25T09:24:34Z</time></trkpt><trkpt lat="43.85864480658494" lon="11.589775074302725"><ele>547.0</ele><time>2026-04-25T09:24:35Z</time></trkpt><trkpt lat="43.85867294764641" lon="11.589681642536673"><ele>547.0</ele><time>2026-04-25T09:24:36Z</time></trkpt><trkpt lat="43.85869697404448" lon="11.58957366393793"><ele>547.0</ele><time>2026-04-25T09:24:37Z</time></trkpt><trkpt lat="43.858714024683145" lon="11.589485293666732"><ele>547.0</ele><time>2026-04-25T09:24:38Z</time></trkpt><trkpt lat="43.858736970335734" lon="11.589317037853656"><ele>547.0</ele><time>2026-04-25T09:24:40Z</time></trkpt><trkpt lat="43.85874037450397" lon="11.58922826259035"><ele>545.4</ele><time>2026-04-25T09:24:41Z</time></trkpt><trkpt lat="43.85871859648086" lon="11.589090062675952"><ele>543.8000000000001</ele><time>2026-04-25T09:24:43Z</time></trkpt><trkpt lat="43.85867855909905" lon="11.588960387269765"><ele>542.2</ele><time>2026-04-25T09:24:45Z</time></trkpt><trkpt lat="43.858622153486245" lon="11.588826976359542"><ele>540.6</ele><time>2026-04-25T09:24:47Z</time></trkpt><trkpt lat="43.85864963861604" lon="11.588733842699948"><ele>539.0</ele><time>2026-04-25T09:24:49Z</time></trkpt><trkpt lat="43.85871095944232" lon="11.58865329274365"><ele>536.0</ele><time>2026-04-25T09:24:51Z</time></trkpt><trkpt lat="43.85877314354962" lon="11.588554272067231"><ele>533.0</ele><time>2026-04-25T09:24:53Z</time></trkpt><trkpt lat="43.85888177968401" lon="11.588497823563998"><ele>530.0</ele><time>2026-04-25T09:24:55Z</time></trkpt><trkpt lat="43.85894737078109" lon="11.588488417055874"><ele>527.0</ele><time>2026-04-25T09:24:56Z</time></trkpt><trkpt lat="43.85901587473778" lon="11.588459363458494"><ele>524.0</ele><time>2026-04-25T09:24:57Z</time></trkpt><trkpt lat="43.8590850597817" lon="11.58842849637695"><ele>521.0</ele><time>2026-04-25T09:24:58Z</time></trkpt><trkpt lat="43.85916051432494" lon="11.588412604616812"><ele>521.0</ele><time>2026-04-25T09:24:59Z</time></trkpt><trkpt lat="43.85924169458215" lon="11.588407160370595"><ele>521.0</ele><time>2026-04-25T09:25:00Z</time></trkpt><trkpt lat="43.8593195461907" lon="11.588381502433545"><ele>521.0</ele><time>2026-04-25T09:25:01Z</time></trkpt><trkpt lat="43.85939202077257" lon="11.588365280666686"><ele>521.0</ele><time>2026-04-25T09:25:02Z</time></trkpt><trkpt lat="43.859483299312814" lon="11.588262555319897"><ele>521.0</ele><time>2026-04-25T09:25:04Z</time></trkpt><trkpt lat="43.85956110193475" lon="11.588179492377144"><ele>519.2</ele><time>2026-04-25T09:25:06Z</time></trkpt><trkpt lat="43.85962834450699" lon="11.588168674569623"><ele>517.4000000000001</ele><time>2026-04-25T09:25:07Z</time></trkpt><trkpt lat="43.85973914821478" lon="11.5880967238762"><ele>515.6</ele><time>2026-04-25T09:25:09Z</time></trkpt><trkpt lat="43.859856252191584" lon="11.588091836191236"><ele>513.8000000000001</ele><time>2026-04-25T09:25:11Z</time></trkpt><trkpt lat="43.859947929931714" lon="11.588050363242486"><ele>512.0</ele><time>2026-04-25T09:25:13Z</time></trkpt><trkpt lat="43.860051935256486" lon="11.587944479287"><ele>508.40000000000003</ele><time>2026-04-25T09:25:14.999Z</time></trkpt><trkpt lat="43.86015574498094" lon="11.58789923752888"><ele>504.80000000000007</ele><time>2026-04-25T09:25:16.999Z</time></trkpt><trkpt lat="43.86026939815533" lon="11.587894078625753"><ele>501.2</ele><time>2026-04-25T09:25:18.999Z</time></trkpt><trkpt lat="43.86034324739257" lon="11.587877833130898"><ele>497.6</ele><time>2026-04-25T09:25:19.999Z</time></trkpt><trkpt lat="43.8604236575914" lon="11.587903492882525"><ele>494.0</ele><time>2026-04-25T09:25:20.999Z</time></trkpt><trkpt lat="43.86050890212599" lon="11.58788265074854"><ele>491.99999999999994</ele><time>2026-04-25T09:25:21.999Z</time></trkpt><trkpt lat="43.8605878301032" lon="11.587813356059856"><ele>490.0</ele><time>2026-04-25T09:25:22.999Z</time></trkpt><trkpt lat="43.860667020216034" lon="11.587713646272885"><ele>488.0</ele><time>2026-04-25T09:25:23.999Z</time></trkpt><trkpt lat="43.86073751995837" lon="11.587640113272373"><ele>486.0</ele><time>2026-04-25T09:25:24.999Z</time></trkpt><trkpt lat="43.860779071324814" lon="11.587573737774383"><ele>483.99999999999994</ele><time>2026-04-25T09:25:25.999Z</time></trkpt><trkpt lat="43.86081858956811" lon="11.587488517050858"><ele>482.0</ele><time>2026-04-25T09:25:26.999Z</time></trkpt><trkpt lat="43.86087865159604" lon="11.587392312553108"><ele>481.99999999999994</ele><time>2026-04-25T09:25:27.999Z</time></trkpt><trkpt lat="43.8609396873845" lon="11.587286727951755"><ele>482.0</ele><time>2026-04-25T09:25:28.999Z</time></trkpt><trkpt lat="43.86098279613194" lon="11.587200866667533"><ele>482.0</ele><time>2026-04-25T09:25:29.999Z</time></trkpt><trkpt lat="43.86103313984967" lon="11.587134400971427"><ele>482.0</ele><time>2026-04-25T09:25:30.999Z</time></trkpt><trkpt lat="43.86107007207712" lon="11.587058714390793"><ele>481.99999999999994</ele><time>2026-04-25T09:25:31.999Z</time></trkpt><trkpt lat="43.86112206287029" lon="11.58697047818558"><ele>482.0</ele><time>2026-04-25T09:25:32.999Z</time></trkpt><trkpt lat="43.861177163777214" lon="11.58688370115567"><ele>477.0</ele><time>2026-04-25T09:25:33.999Z</time></trkpt><trkpt lat="43.8612705170761" lon="11.586850457958496"><ele>472.00000000000006</ele><time>2026-04-25T09:25:35.999Z</time></trkpt><trkpt lat="43.86138300731037" lon="11.586901576821761"><ele>467.00000000000006</ele><time>2026-04-25T09:25:37.999Z</time></trkpt><trkpt lat="43.861447395816576" lon="11.58682329347541"><ele>462.0</ele><time>2026-04-25T09:25:39.999Z</time></trkpt><trkpt lat="43.86146495231184" lon="11.586727336811807"><ele>457.0</ele><time>2026-04-25T09:25:40.999Z</time></trkpt><trkpt lat="43.86150983319858" lon="11.586618669559964"><ele>457.0</ele><time>2026-04-25T09:25:41.999Z</time></trkpt><trkpt lat="43.861559904107516" lon="11.586470112724585"><ele>457.00000000000006</ele><time>2026-04-25T09:25:42.999Z</time></trkpt><trkpt lat="43.86157915386239" lon="11.586317670883659"><ele>457.00000000000006</ele><time>2026-04-25T09:25:43.999Z</time></trkpt><trkpt lat="43.861605303542625" lon="11.586180692597946"><ele>457.0</ele><time>2026-04-25T09:25:44.999Z</time></trkpt><trkpt lat="43.86163217719986" lon="11.586061642302406"><ele>457.0</ele><time>2026-04-25T09:25:45.999Z</time></trkpt><trkpt lat="43.861653143861616" lon="11.585967528352915"><ele>456.6</ele><time>2026-04-25T09:25:46.999Z</time></trkpt><trkpt lat="43.86169187936378" lon="11.585841114965847"><ele>456.20000000000005</ele><time>2026-04-25T09:25:48.999Z</time></trkpt><trkpt lat="43.86178044093503" lon="11.585809170307753"><ele>455.8</ele><time>2026-04-25T09:25:50.999Z</time></trkpt><trkpt lat="43.86178819163351" lon="11.585689520411277"><ele>455.4</ele><time>2026-04-25T09:25:52.999Z</time></trkpt><trkpt lat="43.86181224916359" lon="11.585581073477872"><ele>455.0</ele><time>2026-04-25T09:25:53.999Z</time></trkpt><trkpt lat="43.861809406145376" lon="11.58545253088132"><ele>453.99999999999994</ele><time>2026-04-25T09:25:54.999Z</time></trkpt><trkpt lat="43.86178923705145" lon="11.585316793131048"><ele>453.0</ele><time>2026-04-25T09:25:55.999Z</time></trkpt><trkpt lat="43.86177147560408" lon="11.585229110125594"><ele>452.0</ele><time>2026-04-25T09:25:56.999Z</time></trkpt><trkpt lat="43.86181200174572" lon="11.585117511452005"><ele>451.0</ele><time>2026-04-25T09:26:00.999Z</time></trkpt><trkpt lat="43.86183174368793" lon="11.585029971262204"><ele>449.99999999999994</ele><time>2026-04-25T09:26:04Z</time></trkpt><trkpt lat="43.861859945695116" lon="11.58488350426819"><ele>449.0</ele><time>2026-04-25T09:26:06Z</time></trkpt><trkpt lat="43.861888636580055" lon="11.58473366204444"><ele>442.0</ele><time>2026-04-25T09:26:08Z</time></trkpt><trkpt lat="43.86192819792678" lon="11.584536162474267"><ele>435.0</ele><time>2026-04-25T09:26:10Z</time></trkpt><trkpt lat="43.86197675046871" lon="11.584412874475333"><ele>428.0</ele><time>2026-04-25T09:26:11Z</time></trkpt><trkpt lat="43.86198237226557" lon="11.584303047150593"><ele>421.0</ele><time>2026-04-25T09:26:12Z</time></trkpt><trkpt lat="43.86200368105017" lon="11.584158614406299"><ele>414.0</ele><time>2026-04-25T09:26:14Z</time></trkpt><trkpt lat="43.862035711072004" lon="11.58402282520627"><ele>413.6666666666667</ele><time>2026-04-25T09:26:16Z</time></trkpt><trkpt lat="43.862071518959155" lon="11.583884944980742"><ele>413.33333333333337</ele><time>2026-04-25T09:26:18Z</time></trkpt><trkpt lat="43.8620778603876" lon="11.583792114901543"><ele>413.0</ele><time>2026-04-25T09:26:19Z</time></trkpt><trkpt lat="43.86209697836798" lon="11.58369991225248"><ele>412.6666666666667</ele><time>2026-04-25T09:26:20Z</time></trkpt><trkpt lat="43.862122772348386" lon="11.583617126338423"><ele>412.33333333333337</ele><time>2026-04-25T09:26:21Z</time></trkpt><trkpt lat="43.86215593771706" lon="11.583463624305258"><ele>412.0</ele><time>2026-04-25T09:26:23Z</time></trkpt><trkpt lat="43.862169165892354" lon="11.58336638320533"><ele>412.00000000000006</ele><time>2026-04-25T09:26:24Z</time></trkpt><trkpt lat="43.86218876581784" lon="11.583281944972665"><ele>412.0</ele><time>2026-04-25T09:26:25Z</time></trkpt><trkpt lat="43.86220141712947" lon="11.583187763517605"><ele>412.0</ele><time>2026-04-25T09:26:26Z</time></trkpt><trkpt lat="43.862215414194935" lon="11.583092752999256"><ele>412.0</ele><time>2026-04-25T09:26:27Z</time></trkpt><trkpt lat="43.862268664055115" lon="11.582950505413745"><ele>412.00000000000006</ele><time>2026-04-25T09:26:29Z</time></trkpt><trkpt lat="43.862352074384994" lon="11.58282902172532"><ele>412.0</ele><time>2026-04-25T09:26:31Z</time></trkpt><trkpt lat="43.86239659578847" lon="11.582731166423008"><ele>410.6</ele><time>2026-04-25T09:26:33Z</time></trkpt><trkpt lat="43.862409482012445" lon="11.582580045323574"><ele>409.20000000000005</ele><time>2026-04-25T09:26:35Z</time></trkpt><trkpt lat="43.86241195885005" lon="11.582466037191644"><ele>407.8</ele><time>2026-04-25T09:26:37Z</time></trkpt><trkpt lat="43.86225915354237" lon="11.582460788159272"><ele>406.4</ele><time>2026-04-25T09:26:40Z</time></trkpt><trkpt lat="43.86219252163559" lon="11.582479073698218"><ele>405.0</ele><time>2026-04-25T09:26:41Z</time></trkpt><trkpt lat="43.86210332953951" lon="11.582483403903757"><ele>405.0</ele><time>2026-04-25T09:26:43Z</time></trkpt><trkpt lat="43.86203531982938" lon="11.58244161546837"><ele>405.0</ele><time>2026-04-25T09:26:45Z</time></trkpt><trkpt lat="43.862041906421204" lon="11.58234763809807"><ele>405.0</ele><time>2026-04-25T09:26:46Z</time></trkpt><trkpt lat="43.86208830284984" lon="11.582228221162774"><ele>405.0</ele><time>2026-04-25T09:26:48Z</time></trkpt><trkpt lat="43.862125206780206" lon="11.582111500338339"><ele>405.0</ele><time>2026-04-25T09:26:50Z</time></trkpt><trkpt lat="43.862159719018415" lon="11.582003739814796"><ele>405.0</ele><time>2026-04-25T09:26:52Z</time></trkpt><trkpt lat="43.862135478454405" lon="11.581918922767588"><ele>402.8</ele><time>2026-04-25T09:26:55Z</time></trkpt><trkpt lat="43.86203750771597" lon="11.581892181439782"><ele>400.6</ele><time>2026-04-25T09:26:57Z</time></trkpt><trkpt lat="43.86193978854211" lon="11.58193289652105"><ele>398.4</ele><time>2026-04-25T09:26:59Z</time></trkpt><trkpt lat="43.86184912857575" lon="11.58194422341248"><ele>396.2</ele><time>2026-04-25T09:27:01Z</time></trkpt><trkpt lat="43.86176712813557" lon="11.581951597572699"><ele>394.0</ele><time>2026-04-25T09:27:03Z</time></trkpt><trkpt lat="43.861668245282715" lon="11.58193107984968"><ele>390.79999999999995</ele><time>2026-04-25T09:27:05Z</time></trkpt><trkpt lat="43.861570413468066" lon="11.581876956431392"><ele>387.59999999999997</ele><time>2026-04-25T09:27:07Z</time></trkpt><trkpt lat="43.861467258443184" lon="11.581829909732898"><ele>384.4</ele><time>2026-04-25T09:27:09Z</time></trkpt><trkpt lat="43.8613544942348" lon="11.581761912139154"><ele>381.2</ele><time>2026-04-25T09:27:11Z</time></trkpt><trkpt lat="43.86128016203938" lon="11.581743611853454"><ele>378.0</ele><time>2026-04-25T09:27:12.999Z</time></trkpt><trkpt lat="43.86120911362826" lon="11.581726618132501"><ele>378.0</ele><time>2026-04-25T09:27:14.999Z</time></trkpt><trkpt lat="43.861155341646274" lon="11.581648456982368"><ele>378.0</ele><time>2026-04-25T09:27:16.999Z</time></trkpt><trkpt lat="43.861116245600186" lon="11.581551773835859"><ele>378.0</ele><time>2026-04-25T09:27:18.999Z</time></trkpt><trkpt lat="43.861110591556915" lon="11.581431450795897"><ele>378.0</ele><time>2026-04-25T09:27:21.999Z</time></trkpt><trkpt lat="43.86119566309289" lon="11.58136398602778"><ele>378.0</ele><time>2026-04-25T09:27:23.999Z</time></trkpt><trkpt lat="43.86131535042211" lon="11.58128048991701"><ele>378.0</ele><time>2026-04-25T09:27:25.999Z</time></trkpt><trkpt lat="43.86138383174272" lon="11.581223453575548"><ele>378.0</ele><time>2026-04-25T09:27:26.999Z</time></trkpt><trkpt lat="43.86145859874312" lon="11.581166839520206"><ele>378.0</ele><time>2026-04-25T09:27:27.999Z</time></trkpt><trkpt lat="43.86153126823041" lon="11.581101326338409"><ele>378.0</ele><time>2026-04-25T09:27:28.999Z</time></trkpt><trkpt lat="43.861601204735905" lon="11.581047297056038"><ele>378.0</ele><time>2026-04-25T09:27:29.999Z</time></trkpt><trkpt lat="43.86165947205101" lon="11.580983442531219"><ele>378.0</ele><time>2026-04-25T09:27:30.999Z</time></trkpt><trkpt lat="43.86171416639311" lon="11.580916063223851"><ele>377.59999999999997</ele><time>2026-04-25T09:27:31.999Z</time></trkpt><trkpt lat="43.861767733594604" lon="11.580846732563812"><ele>377.2</ele><time>2026-04-25T09:27:32.999Z</time></trkpt><trkpt lat="43.861809667247556" lon="11.580764127092179"><ele>376.8</ele><time>2026-04-25T09:27:33.999Z</time></trkpt><trkpt lat="43.861824278156554" lon="11.5806083294899"><ele>376.4</ele><time>2026-04-25T09:27:35.999Z</time></trkpt><trkpt lat="43.86174669391034" lon="11.58051474783694"><ele>376.0</ele><time>2026-04-25T09:27:37.999Z</time></trkpt><trkpt lat="43.86163112042443" lon="11.580513120929654"><ele>373.8333333333333</ele><time>2026-04-25T09:27:39.999Z</time></trkpt><trkpt lat="43.86155398095529" lon="11.580491297064746"><ele>371.66666666666663</ele><time>2026-04-25T09:27:40.999Z</time></trkpt><trkpt lat="43.86150201322625" lon="11.580420528542168"><ele>369.5</ele><time>2026-04-25T09:27:41.999Z</time></trkpt><trkpt lat="43.86146870308993" lon="11.58032840020658"><ele>367.3333333333333</ele><time>2026-04-25T09:27:42.999Z</time></trkpt><trkpt lat="43.86143600969644" lon="11.58021888006597"><ele>365.1666666666667</ele><time>2026-04-25T09:27:43.999Z</time></trkpt><trkpt lat="43.86140200230954" lon="11.580071700675846"><ele>363.0</ele><time>2026-04-25T09:27:45.999Z</time></trkpt><trkpt lat="43.861487147967644" lon="11.57994610400586"><ele>358.79999999999995</ele><time>2026-04-25T09:27:47.999Z</time></trkpt><trkpt lat="43.86155036354407" lon="11.579832513600214"><ele>354.6</ele><time>2026-04-25T09:27:48.999Z</time></trkpt><trkpt lat="43.861607744335885" lon="11.579717491994108"><ele>350.4</ele><time>2026-04-25T09:27:49.999Z</time></trkpt><trkpt lat="43.86165265426985" lon="11.579602565411934"><ele>346.20000000000005</ele><time>2026-04-25T09:27:50.999Z</time></trkpt><trkpt lat="43.861690594029" lon="11.579485167547821"><ele>342.0</ele><time>2026-04-25T09:27:51.999Z</time></trkpt><trkpt lat="43.861726146091314" lon="11.579388252990329"><ele>338.0</ele><time>2026-04-25T09:27:52.999Z</time></trkpt><trkpt lat="43.86176456192111" lon="11.57924900247123"><ele>334.0</ele><time>2026-04-25T09:27:54.999Z</time></trkpt><trkpt lat="43.86174671678326" lon="11.579161454072256"><ele>330.0</ele><time>2026-04-25T09:27:56.999Z</time></trkpt><trkpt lat="43.86164256560738" lon="11.57915132351573"><ele>326.0</ele><time>2026-04-25T09:27:58.999Z</time></trkpt><trkpt lat="43.86154685995015" lon="11.579205177711458"><ele>322.0</ele><time>2026-04-25T09:27:59.999Z</time></trkpt><trkpt lat="43.86141281355357" lon="11.579291173529901"><ele>322.0</ele><time>2026-04-25T09:28:00.999Z</time></trkpt><trkpt lat="43.86125790335131" lon="11.579388731880828"><ele>322.0</ele><time>2026-04-25T09:28:01.999Z</time></trkpt><trkpt lat="43.86114107937506" lon="11.579466211154461"><ele>322.0</ele><time>2026-04-25T09:28:02.999Z</time></trkpt><trkpt lat="43.86107203886579" lon="11.579522360914972"><ele>322.0</ele><time>2026-04-25T09:28:03.999Z</time></trkpt><trkpt lat="43.86099829805455" lon="11.579568894336179"><ele>322.0</ele><time>2026-04-25T09:28:04.999Z</time></trkpt><trkpt lat="43.86093185386012" lon="11.579576238086686"><ele>322.0</ele><time>2026-04-25T09:28:06.999Z</time></trkpt><trkpt lat="43.86091312758359" lon="11.57945903775309"><ele>322.0</ele><time>2026-04-25T09:28:09Z</time></trkpt><trkpt lat="43.8609487551832" lon="11.579358727676071"><ele>322.0</ele><time>2026-04-25T09:28:10Z</time></trkpt><trkpt lat="43.86099809083689" lon="11.579238247978765"><ele>322.0</ele><time>2026-04-25T09:28:11Z</time></trkpt><trkpt lat="43.861048652841646" lon="11.579104652741346"><ele>322.0</ele><time>2026-04-25T09:28:12Z</time></trkpt><trkpt lat="43.86109627174105" lon="11.578976554274673"><ele>322.0</ele><time>2026-04-25T09:28:13Z</time></trkpt><trkpt lat="43.861127696111716" lon="11.578882677064732"><ele>322.0</ele><time>2026-04-25T09:28:14Z</time></trkpt><trkpt lat="43.8611157505145" lon="11.578755884425549"><ele>322.0</ele><time>2026-04-25T09:28:16Z</time></trkpt><trkpt lat="43.86102441066338" lon="11.578646274277707"><ele>322.0</ele><time>2026-04-25T09:28:18Z</time></trkpt><trkpt lat="43.86095863327557" lon="11.578520006156902"><ele>322.0</ele><time>2026-04-25T09:28:20Z</time></trkpt><trkpt lat="43.86095748846102" lon="11.57836315246369"><ele>318.40000000000003</ele><time>2026-04-25T09:28:22Z</time></trkpt><trkpt lat="43.86102169166792" lon="11.578225075024108"><ele>314.8</ele><time>2026-04-25T09:28:24Z</time></trkpt><trkpt lat="43.86108977456279" lon="11.578187502196247"><ele>311.2</ele><time>2026-04-25T09:28:25Z</time></trkpt><trkpt lat="43.861175920460624" lon="11.578179040604294"><ele>307.6</ele><time>2026-04-25T09:28:26Z</time></trkpt><trkpt lat="43.86127515212988" lon="11.578187390445205"><ele>304.0</ele><time>2026-04-25T09:28:27Z</time></trkpt><trkpt lat="43.8613755032804" lon="11.578164092540236"><ele>304.0</ele><time>2026-04-25T09:28:28Z</time></trkpt><trkpt lat="43.86145091374372" lon="11.578121274612736"><ele>304.0</ele><time>2026-04-25T09:28:29Z</time></trkpt><trkpt lat="43.86151582067384" lon="11.578080373366316"><ele>304.0</ele><time>2026-04-25T09:28:30Z</time></trkpt><trkpt lat="43.8615817661742" lon="11.577956940723977"><ele>304.0</ele><time>2026-04-25T09:28:32Z</time></trkpt><trkpt lat="43.86161935970298" lon="11.577809537441922"><ele>304.0</ele><time>2026-04-25T09:28:34Z</time></trkpt><trkpt lat="43.86165072390246" lon="11.577716693134384"><ele>301.16666666666663</ele><time>2026-04-25T09:28:36Z</time></trkpt><trkpt lat="43.861685086812145" lon="11.577599014378945"><ele>298.3333333333333</ele><time>2026-04-25T09:28:38Z</time></trkpt><trkpt lat="43.86175986670225" lon="11.577528386102458"><ele>295.5</ele><time>2026-04-25T09:28:40Z</time></trkpt><trkpt lat="43.861862944984296" lon="11.57749994508966"><ele>292.6666666666667</ele><time>2026-04-25T09:28:42Z</time></trkpt><trkpt lat="43.86192573040009" lon="11.577481873530013"><ele>289.83333333333337</ele><time>2026-04-25T09:28:43Z</time></trkpt><trkpt lat="43.86201013093759" lon="11.577464913858535"><ele>287.0</ele><time>2026-04-25T09:28:44Z</time></trkpt><trkpt lat="43.86212711313282" lon="11.577443165296941"><ele>285.1666666666667</ele><time>2026-04-25T09:28:45Z</time></trkpt><trkpt lat="43.862222922907925" lon="11.577386691377562"><ele>283.33333333333337</ele><time>2026-04-25T09:28:46Z</time></trkpt><trkpt lat="43.862303339515066" lon="11.57736551896893"><ele>281.5</ele><time>2026-04-25T09:28:47Z</time></trkpt><trkpt lat="43.86239014391875" lon="11.57734113300592"><ele>279.6666666666667</ele><time>2026-04-25T09:28:49Z</time></trkpt><trkpt lat="43.86241535543763" lon="11.577252834422376"><ele>277.8333333333333</ele><time>2026-04-25T09:28:52Z</time></trkpt><trkpt lat="43.862333678926284" lon="11.577181880324728"><ele>276.0</ele><time>2026-04-25T09:28:54Z</time></trkpt><trkpt lat="43.86223027997343" lon="11.577204639476495"><ele>276.0</ele><time>2026-04-25T09:28:56Z</time></trkpt><trkpt lat="43.86215275408514" lon="11.57721211885423"><ele>276.0</ele><time>2026-04-25T09:28:57Z</time></trkpt><trkpt lat="43.862086802557066" lon="11.577222838969636"><ele>276.0</ele><time>2026-04-25T09:28:58Z</time></trkpt><trkpt lat="43.862019134160526" lon="11.577228585020906"><ele>276.0</ele><time>2026-04-25T09:28:59Z</time></trkpt><trkpt lat="43.86193561906325" lon="11.577246996396866"><ele>276.0</ele><time>2026-04-25T09:29:00Z</time></trkpt><trkpt lat="43.86185126717395" lon="11.57725882342029"><ele>276.0</ele><time>2026-04-25T09:29:01Z</time></trkpt><trkpt lat="43.86178431236156" lon="11.577238714470887"><ele>276.0</ele><time>2026-04-25T09:29:02Z</time></trkpt><trkpt lat="43.861711109168866" lon="11.57720741479516"><ele>276.0</ele><time>2026-04-25T09:29:03Z</time></trkpt><trkpt lat="43.86166282240433" lon="11.577132469376307"><ele>276.0</ele><time>2026-04-25T09:29:04Z</time></trkpt><trkpt lat="43.861602583250686" lon="11.577079966113164"><ele>276.0</ele><time>2026-04-25T09:30:50Z</time></trkpt><trkpt lat="43.86167894602736" lon="11.577128578416307"><ele>276.0</ele><time>2026-04-25T09:31:23.999Z</time></trkpt><trkpt lat="43.86175005321967" lon="11.577194702995802"><ele>276.0</ele><time>2026-04-25T09:31:26.999Z</time></trkpt><trkpt lat="43.86184340256971" lon="11.577230025031742"><ele>276.0</ele><time>2026-04-25T09:32:31Z</time></trkpt><trkpt lat="43.86190583177752" lon="11.577246481183497"><ele>276.0</ele><time>2026-04-25T09:32:33Z</time></trkpt><trkpt lat="43.86198224333919" lon="11.577250459042883"><ele>276.0</ele><time>2026-04-25T09:32:34Z</time></trkpt><trkpt lat="43.86205162183627" lon="11.577265997988489"><ele>276.0</ele><time>2026-04-25T09:32:35Z</time></trkpt><trkpt lat="43.86211978105497" lon="11.577200384247504"><ele>276.0</ele><time>2026-04-25T09:32:36Z</time></trkpt><trkpt lat="43.862211074712654" lon="11.577159684579469"><ele>276.0</ele><time>2026-04-25T09:32:38Z</time></trkpt><trkpt lat="43.86234334707346" lon="11.577157328385187"><ele>276.0</ele><time>2026-04-25T09:32:40Z</time></trkpt><trkpt lat="43.862464200893164" lon="11.577177219722087"><ele>276.0</ele><time>2026-04-25T09:32:42Z</time></trkpt><trkpt lat="43.86249437374287" lon="11.577293265590294"><ele>276.0</ele><time>2026-04-25T09:32:44Z</time></trkpt><trkpt lat="43.862427246793" lon="11.577369351589777"><ele>276.0</ele><time>2026-04-25T09:32:46Z</time></trkpt><trkpt lat="43.86236666226007" lon="11.577412339109754"><ele>276.0</ele><time>2026-04-25T09:32:47Z</time></trkpt><trkpt lat="43.86229946060068" lon="11.57742635226377"><ele>276.0</ele><time>2026-04-25T09:32:48Z</time></trkpt><trkpt lat="43.862208099149484" lon="11.577449546828989"><ele>276.0</ele><time>2026-04-25T09:32:49Z</time></trkpt><trkpt lat="43.86212851140291" lon="11.57760768341874"><ele>276.0</ele><time>2026-04-25T09:32:50Z</time></trkpt><trkpt lat="43.86198574122802" lon="11.577632426754509"><ele>276.0</ele><time>2026-04-25T09:32:52Z</time></trkpt><trkpt lat="43.86190446871348" lon="11.577654305910652"><ele>276.0</ele><time>2026-04-25T09:32:53Z</time></trkpt><trkpt lat="43.86178567448769" lon="11.577682964010627"><ele>278.2</ele><time>2026-04-25T09:32:54Z</time></trkpt><trkpt lat="43.86168972737322" lon="11.57762467849443"><ele>280.40000000000003</ele><time>2026-04-25T09:32:55Z</time></trkpt><trkpt lat="43.86163371045412" lon="11.577677773521899"><ele>282.6</ele><time>2026-04-25T09:32:56Z</time></trkpt><trkpt lat="43.861618409422" lon="11.577784676362688"><ele>284.8</ele><time>2026-04-25T09:33:00Z</time></trkpt><trkpt lat="43.86157336618253" lon="11.577926090178336"><ele>287.0</ele><time>2026-04-25T09:33:02Z</time></trkpt><trkpt lat="43.86151800559198" lon="11.578073068191133"><ele>289.42857142857144</ele><time>2026-04-25T09:33:04Z</time></trkpt><trkpt lat="43.86147282702527" lon="11.57814346623925"><ele>291.8571428571429</ele><time>2026-04-25T09:33:05Z</time></trkpt><trkpt lat="43.861418341771596" lon="11.578198799177668"><ele>294.2857142857143</ele><time>2026-04-25T09:33:06Z</time></trkpt><trkpt lat="43.86133667351678" lon="11.578244424940156"><ele>296.7142857142857</ele><time>2026-04-25T09:33:07Z</time></trkpt><trkpt lat="43.861258425354414" lon="11.578251610595284"><ele>299.14285714285717</ele><time>2026-04-25T09:33:07.999Z</time></trkpt><trkpt lat="43.861176913558396" lon="11.578243166924073"><ele>301.57142857142856</ele><time>2026-04-25T09:33:08.999Z</time></trkpt><trkpt lat="43.861111650303826" lon="11.578233075292276"><ele>304.0</ele><time>2026-04-25T09:33:09.999Z</time></trkpt><trkpt lat="43.86104607952174" lon="11.578237536131967"><ele>304.0</ele><time>2026-04-25T09:33:10.999Z</time></trkpt><trkpt lat="43.860982332965044" lon="11.578274981351594"><ele>304.0</ele><time>2026-04-25T09:33:11.999Z</time></trkpt><trkpt lat="43.86093074868355" lon="11.578344363367899"><ele>304.0</ele><time>2026-04-25T09:33:12.999Z</time></trkpt><trkpt lat="43.860915031202175" lon="11.578443458392874"><ele>304.0</ele><time>2026-04-25T09:33:13.999Z</time></trkpt><trkpt lat="43.86091220048445" lon="11.578535387655354"><ele>304.0</ele><time>2026-04-25T09:33:14.999Z</time></trkpt><trkpt lat="43.86084228337244" lon="11.578642286138056"><ele>304.0</ele><time>2026-04-25T09:33:16.999Z</time></trkpt><trkpt lat="43.860765023700964" lon="11.578708495172217"><ele>306.2</ele><time>2026-04-25T09:33:18.999Z</time></trkpt><trkpt lat="43.86072332953148" lon="11.578788829715831"><ele>308.4</ele><time>2026-04-25T09:33:20.999Z</time></trkpt><trkpt lat="43.86061336400043" lon="11.578870601698"><ele>310.6</ele><time>2026-04-25T09:33:22.999Z</time></trkpt><trkpt lat="43.860543568927824" lon="11.578931959979128"><ele>312.8</ele><time>2026-04-25T09:33:23.999Z</time></trkpt><trkpt lat="43.86048172961632" lon="11.57900019574921"><ele>315.0</ele><time>2026-04-25T09:33:24.999Z</time></trkpt><trkpt lat="43.86040170796118" lon="11.579145167433738"><ele>315.0</ele><time>2026-04-25T09:33:26.999Z</time></trkpt><trkpt lat="43.860359019737274" lon="11.579226026252329"><ele>315.0</ele><time>2026-04-25T09:33:27.999Z</time></trkpt><trkpt lat="43.86033113335852" lon="11.579308771936088"><ele>315.0</ele><time>2026-04-25T09:33:28.999Z</time></trkpt><trkpt lat="43.86031268838236" lon="11.579399100637337"><ele>315.0</ele><time>2026-04-25T09:33:30.999Z</time></trkpt><trkpt lat="43.86037595893949" lon="11.579486090492368"><ele>315.0</ele><time>2026-04-25T09:33:34.999Z</time></trkpt><trkpt lat="43.86047243300857" lon="11.579587574794946"><ele>315.0</ele><time>2026-04-25T09:33:37.999Z</time></trkpt><trkpt lat="43.860520579436276" lon="11.57964832804253"><ele>332.0</ele><time>2026-04-25T09:33:38.999Z</time></trkpt><trkpt lat="43.86057268138349" lon="11.579710488321403"><ele>332.0</ele><time>2026-04-25T09:33:39.999Z</time></trkpt><trkpt lat="43.86062500593022" lon="11.579759254784593"><ele>332.0</ele><time>2026-04-25T09:33:40.999Z</time></trkpt><trkpt lat="43.86067942731394" lon="11.579714843738271"><ele>332.0</ele><time>2026-04-25T09:33:48.999Z</time></trkpt><trkpt lat="43.86070572817558" lon="11.579624487143711"><ele>332.0</ele><time>2026-04-25T09:35:54.999Z</time></trkpt></trkseg></trk></gpx>